<?xml version="1.0" encoding="UTF-8" standalone="no" ?>
<gpx xmlns="http://www.topografix.com/GPX/1/1" xmlns:xsi="http://www.w3.org/2001/XMLSchema-instance" xsi:schemaLocation="http://www.topografix.com/GPX/1/1 http://www.topografix.com/GPX/1/1/gpx.xsd" version="1.1" creator="VisuGPX - https://www.visugpx.com">
  <metadata>
    <name>Jura j 5 VTT autour du lac de Chalain</name>
    <desc><![CDATA[Voilà, au 5 jours de VTT dans le Jura et ici une sortie au départ du lac de Chalain, une très belle randonnée avec de beaux chemins et une trace très variée à découvrir
vidéo
https://www.youtube.com/watch?v=uPOIXJ_qghs]]></desc>
  </metadata>
  <trk>
    <name><![CDATA[Marigny Vélo électrique]]></name>
    <trkseg>
      <trkpt lat="46.6784" lon="5.77938">
        <ele>506.39999389648</ele>
        <time>2025-06-05T07:25:09.000Z</time>
      </trkpt>
      <trkpt lat="46.6784" lon="5.77938">
        <ele>497.60000610352</ele>
        <time>2025-06-05T07:25:11.000Z</time>
      </trkpt>
      <trkpt lat="46.6784" lon="5.77938">
        <ele>497.20001220703</ele>
        <time>2025-06-05T07:25:32.000Z</time>
      </trkpt>
      <trkpt lat="46.67847" lon="5.77942">
        <ele>497</ele>
        <time>2025-06-05T07:25:35.000Z</time>
      </trkpt>
      <trkpt lat="46.6785" lon="5.77942">
        <ele>497</ele>
        <time>2025-06-05T07:25:36.000Z</time>
      </trkpt>
      <trkpt lat="46.67861" lon="5.7794">
        <ele>496.60000610352</ele>
        <time>2025-06-05T07:25:40.000Z</time>
      </trkpt>
      <trkpt lat="46.67863" lon="5.7794">
        <ele>496.39999389648</ele>
        <time>2025-06-05T07:25:41.000Z</time>
      </trkpt>
      <trkpt lat="46.67876" lon="5.77953">
        <ele>495.60000610352</ele>
        <time>2025-06-05T07:25:47.000Z</time>
      </trkpt>
      <trkpt lat="46.67881" lon="5.77964">
        <ele>495.39999389648</ele>
        <time>2025-06-05T07:25:49.000Z</time>
      </trkpt>
      <trkpt lat="46.67887" lon="5.77979">
        <ele>495</ele>
        <time>2025-06-05T07:25:53.000Z</time>
      </trkpt>
      <trkpt lat="46.679" lon="5.77991">
        <ele>495</ele>
        <time>2025-06-05T07:25:58.000Z</time>
      </trkpt>
      <trkpt lat="46.67918" lon="5.77988">
        <ele>495.20001220703</ele>
        <time>2025-06-05T07:26:03.000Z</time>
      </trkpt>
      <trkpt lat="46.67937" lon="5.77987">
        <ele>495.39999389648</ele>
        <time>2025-06-05T07:26:08.000Z</time>
      </trkpt>
      <trkpt lat="46.6795" lon="5.77993">
        <ele>495.20001220703</ele>
        <time>2025-06-05T07:26:11.000Z</time>
      </trkpt>
      <trkpt lat="46.67958" lon="5.77991">
        <ele>495.20001220703</ele>
        <time>2025-06-05T07:26:13.000Z</time>
      </trkpt>
      <trkpt lat="46.67986" lon="5.77975">
        <ele>494.79998779297</ele>
        <time>2025-06-05T07:26:19.000Z</time>
      </trkpt>
      <trkpt lat="46.68009" lon="5.77958">
        <ele>494.39999389648</ele>
        <time>2025-06-05T07:26:23.000Z</time>
      </trkpt>
      <trkpt lat="46.68018" lon="5.7795">
        <ele>494.20001220703</ele>
        <time>2025-06-05T07:26:25.000Z</time>
      </trkpt>
      <trkpt lat="46.68038" lon="5.77932">
        <ele>493.39999389648</ele>
        <time>2025-06-05T07:26:29.000Z</time>
      </trkpt>
      <trkpt lat="46.68046" lon="5.77927">
        <ele>493.20001220703</ele>
        <time>2025-06-05T07:26:31.000Z</time>
      </trkpt>
      <trkpt lat="46.68055" lon="5.77926">
        <ele>493.20001220703</ele>
        <time>2025-06-05T07:26:33.000Z</time>
      </trkpt>
      <trkpt lat="46.68063" lon="5.77929">
        <ele>493.20001220703</ele>
        <time>2025-06-05T07:26:35.000Z</time>
      </trkpt>
      <trkpt lat="46.68079" lon="5.77946">
        <ele>494.20001220703</ele>
        <time>2025-06-05T07:26:40.000Z</time>
      </trkpt>
      <trkpt lat="46.68081" lon="5.7795">
        <ele>494.60000610352</ele>
        <time>2025-06-05T07:26:41.000Z</time>
      </trkpt>
      <trkpt lat="46.68086" lon="5.77964">
        <ele>495.60000610352</ele>
        <time>2025-06-05T07:26:44.000Z</time>
      </trkpt>
      <trkpt lat="46.68087" lon="5.7797">
        <ele>495.79998779297</ele>
        <time>2025-06-05T07:26:45.000Z</time>
      </trkpt>
      <trkpt lat="46.68089" lon="5.77978">
        <ele>496.60000610352</ele>
        <time>2025-06-05T07:26:47.000Z</time>
      </trkpt>
      <trkpt lat="46.68092" lon="5.77988">
        <ele>497.79998779297</ele>
        <time>2025-06-05T07:26:49.000Z</time>
      </trkpt>
      <trkpt lat="46.68096" lon="5.78">
        <ele>498.79998779297</ele>
        <time>2025-06-05T07:26:52.000Z</time>
      </trkpt>
      <trkpt lat="46.68099" lon="5.7801">
        <ele>499.39999389648</ele>
        <time>2025-06-05T07:26:54.000Z</time>
      </trkpt>
      <trkpt lat="46.681" lon="5.78014">
        <ele>499.79998779297</ele>
        <time>2025-06-05T07:26:55.000Z</time>
      </trkpt>
      <trkpt lat="46.68107" lon="5.78031">
        <ele>501.20001220703</ele>
        <time>2025-06-05T07:26:59.000Z</time>
      </trkpt>
      <trkpt lat="46.68109" lon="5.7804">
        <ele>502.20001220703</ele>
        <time>2025-06-05T07:27:01.000Z</time>
      </trkpt>
      <trkpt lat="46.68111" lon="5.78044">
        <ele>502.39999389648</ele>
        <time>2025-06-05T07:27:02.000Z</time>
      </trkpt>
      <trkpt lat="46.68117" lon="5.78062">
        <ele>504</ele>
        <time>2025-06-05T07:27:06.000Z</time>
      </trkpt>
      <trkpt lat="46.68119" lon="5.7807">
        <ele>504.79998779297</ele>
        <time>2025-06-05T07:27:08.000Z</time>
      </trkpt>
      <trkpt lat="46.6812" lon="5.78076">
        <ele>505.20001220703</ele>
        <time>2025-06-05T07:27:09.000Z</time>
      </trkpt>
      <trkpt lat="46.68124" lon="5.78093">
        <ele>506.20001220703</ele>
        <time>2025-06-05T07:27:13.000Z</time>
      </trkpt>
      <trkpt lat="46.68127" lon="5.78107">
        <ele>507</ele>
        <time>2025-06-05T07:27:16.000Z</time>
      </trkpt>
      <trkpt lat="46.68128" lon="5.78111">
        <ele>507.20001220703</ele>
        <time>2025-06-05T07:27:17.000Z</time>
      </trkpt>
      <trkpt lat="46.6813" lon="5.78127">
        <ele>508.39999389648</ele>
        <time>2025-06-05T07:27:21.000Z</time>
      </trkpt>
      <trkpt lat="46.6813" lon="5.78135">
        <ele>508.79998779297</ele>
        <time>2025-06-05T07:27:23.000Z</time>
      </trkpt>
      <trkpt lat="46.68131" lon="5.78145">
        <ele>509.60000610352</ele>
        <time>2025-06-05T07:27:25.000Z</time>
      </trkpt>
      <trkpt lat="46.68134" lon="5.7816">
        <ele>510.79998779297</ele>
        <time>2025-06-05T07:27:29.000Z</time>
      </trkpt>
      <trkpt lat="46.68136" lon="5.78167">
        <ele>511.39999389648</ele>
        <time>2025-06-05T07:27:31.000Z</time>
      </trkpt>
      <trkpt lat="46.68139" lon="5.78174">
        <ele>512</ele>
        <time>2025-06-05T07:27:33.000Z</time>
      </trkpt>
      <trkpt lat="46.68146" lon="5.78186">
        <ele>513.20001220703</ele>
        <time>2025-06-05T07:27:37.000Z</time>
      </trkpt>
      <trkpt lat="46.68155" lon="5.78197">
        <ele>514.40002441406</ele>
        <time>2025-06-05T07:27:41.000Z</time>
      </trkpt>
      <trkpt lat="46.68167" lon="5.7821">
        <ele>515.40002441406</ele>
        <time>2025-06-05T07:27:46.000Z</time>
      </trkpt>
      <trkpt lat="46.68169" lon="5.78213">
        <ele>515.79998779297</ele>
        <time>2025-06-05T07:27:47.000Z</time>
      </trkpt>
      <trkpt lat="46.68173" lon="5.78222">
        <ele>516.59997558594</ele>
        <time>2025-06-05T07:27:50.000Z</time>
      </trkpt>
      <trkpt lat="46.68175" lon="5.78235">
        <ele>517.20001220703</ele>
        <time>2025-06-05T07:27:53.000Z</time>
      </trkpt>
      <trkpt lat="46.68174" lon="5.78242">
        <ele>517.79998779297</ele>
        <time>2025-06-05T07:27:55.000Z</time>
      </trkpt>
      <trkpt lat="46.68169" lon="5.78258">
        <ele>518.79998779297</ele>
        <time>2025-06-05T07:27:59.000Z</time>
      </trkpt>
      <trkpt lat="46.68168" lon="5.78261">
        <ele>519</ele>
        <time>2025-06-05T07:28:00.000Z</time>
      </trkpt>
      <trkpt lat="46.68162" lon="5.78275">
        <ele>520</ele>
        <time>2025-06-05T07:28:04.000Z</time>
      </trkpt>
      <trkpt lat="46.68154" lon="5.78295">
        <ele>521</ele>
        <time>2025-06-05T07:28:10.000Z</time>
      </trkpt>
      <trkpt lat="46.68139" lon="5.78325">
        <ele>521.40002441406</ele>
        <time>2025-06-05T07:28:20.000Z</time>
      </trkpt>
      <trkpt lat="46.68132" lon="5.78338">
        <ele>521.59997558594</ele>
        <time>2025-06-05T07:28:25.000Z</time>
      </trkpt>
      <trkpt lat="46.68124" lon="5.7835">
        <ele>522</ele>
        <time>2025-06-05T07:28:31.000Z</time>
      </trkpt>
      <trkpt lat="46.68122" lon="5.78364">
        <ele>522</ele>
        <time>2025-06-05T07:28:35.000Z</time>
      </trkpt>
      <trkpt lat="46.68121" lon="5.7838">
        <ele>522.20001220703</ele>
        <time>2025-06-05T07:28:39.000Z</time>
      </trkpt>
      <trkpt lat="46.68115" lon="5.78408">
        <ele>522.20001220703</ele>
        <time>2025-06-05T07:28:46.000Z</time>
      </trkpt>
      <trkpt lat="46.68111" lon="5.78439">
        <ele>522.40002441406</ele>
        <time>2025-06-05T07:28:54.000Z</time>
      </trkpt>
      <trkpt lat="46.6811" lon="5.78452">
        <ele>522.59997558594</ele>
        <time>2025-06-05T07:28:57.000Z</time>
      </trkpt>
      <trkpt lat="46.68107" lon="5.78464">
        <ele>522.79998779297</ele>
        <time>2025-06-05T07:29:00.000Z</time>
      </trkpt>
      <trkpt lat="46.681" lon="5.78506">
        <ele>522.79998779297</ele>
        <time>2025-06-05T07:29:09.000Z</time>
      </trkpt>
      <trkpt lat="46.681" lon="5.78548">
        <ele>522.79998779297</ele>
        <time>2025-06-05T07:29:17.000Z</time>
      </trkpt>
      <trkpt lat="46.681" lon="5.78591">
        <ele>522.79998779297</ele>
        <time>2025-06-05T07:29:25.000Z</time>
      </trkpt>
      <trkpt lat="46.68094" lon="5.78624">
        <ele>522.20001220703</ele>
        <time>2025-06-05T07:29:29.000Z</time>
      </trkpt>
      <trkpt lat="46.68091" lon="5.78632">
        <ele>521.79998779297</ele>
        <time>2025-06-05T07:29:30.000Z</time>
      </trkpt>
      <trkpt lat="46.68081" lon="5.78656">
        <ele>521</ele>
        <time>2025-06-05T07:29:33.000Z</time>
      </trkpt>
      <trkpt lat="46.68073" lon="5.78681">
        <ele>519.59997558594</ele>
        <time>2025-06-05T07:29:36.000Z</time>
      </trkpt>
      <trkpt lat="46.68069" lon="5.78696">
        <ele>519</ele>
        <time>2025-06-05T07:29:38.000Z</time>
      </trkpt>
      <trkpt lat="46.68063" lon="5.78727">
        <ele>518.40002441406</ele>
        <time>2025-06-05T07:29:41.000Z</time>
      </trkpt>
      <trkpt lat="46.6806" lon="5.78747">
        <ele>517.20001220703</ele>
        <time>2025-06-05T07:29:43.000Z</time>
      </trkpt>
      <trkpt lat="46.68059" lon="5.7876">
        <ele>516.59997558594</ele>
        <time>2025-06-05T07:29:44.000Z</time>
      </trkpt>
      <trkpt lat="46.68059" lon="5.78772">
        <ele>515.59997558594</ele>
        <time>2025-06-05T07:29:45.000Z</time>
      </trkpt>
      <trkpt lat="46.68062" lon="5.78796">
        <ele>514.40002441406</ele>
        <time>2025-06-05T07:29:47.000Z</time>
      </trkpt>
      <trkpt lat="46.68063" lon="5.78806">
        <ele>514.20001220703</ele>
        <time>2025-06-05T07:29:48.000Z</time>
      </trkpt>
      <trkpt lat="46.68069" lon="5.78843">
        <ele>513.20001220703</ele>
        <time>2025-06-05T07:29:51.000Z</time>
      </trkpt>
      <trkpt lat="46.68075" lon="5.78878">
        <ele>512</ele>
        <time>2025-06-05T07:29:54.000Z</time>
      </trkpt>
      <trkpt lat="46.68078" lon="5.78893">
        <ele>511.60000610352</ele>
        <time>2025-06-05T07:29:55.000Z</time>
      </trkpt>
      <trkpt lat="46.6808" lon="5.78904">
        <ele>510.79998779297</ele>
        <time>2025-06-05T07:29:56.000Z</time>
      </trkpt>
      <trkpt lat="46.68082" lon="5.78917">
        <ele>510.20001220703</ele>
        <time>2025-06-05T07:29:57.000Z</time>
      </trkpt>
      <trkpt lat="46.68082" lon="5.78926">
        <ele>509.60000610352</ele>
        <time>2025-06-05T07:29:58.000Z</time>
      </trkpt>
      <trkpt lat="46.68082" lon="5.78937">
        <ele>509.39999389648</ele>
        <time>2025-06-05T07:29:59.000Z</time>
      </trkpt>
      <trkpt lat="46.6808" lon="5.7895">
        <ele>508.20001220703</ele>
        <time>2025-06-05T07:30:00.000Z</time>
      </trkpt>
      <trkpt lat="46.68078" lon="5.7896">
        <ele>507</ele>
        <time>2025-06-05T07:30:01.000Z</time>
      </trkpt>
      <trkpt lat="46.68075" lon="5.78969">
        <ele>506.79998779297</ele>
        <time>2025-06-05T07:30:02.000Z</time>
      </trkpt>
      <trkpt lat="46.68071" lon="5.78977">
        <ele>506.20001220703</ele>
        <time>2025-06-05T07:30:03.000Z</time>
      </trkpt>
      <trkpt lat="46.68067" lon="5.78982">
        <ele>505.79998779297</ele>
        <time>2025-06-05T07:30:04.000Z</time>
      </trkpt>
      <trkpt lat="46.68062" lon="5.78989">
        <ele>505.39999389648</ele>
        <time>2025-06-05T07:30:05.000Z</time>
      </trkpt>
      <trkpt lat="46.68052" lon="5.79">
        <ele>504.60000610352</ele>
        <time>2025-06-05T07:30:07.000Z</time>
      </trkpt>
      <trkpt lat="46.68048" lon="5.79005">
        <ele>504.39999389648</ele>
        <time>2025-06-05T07:30:08.000Z</time>
      </trkpt>
      <trkpt lat="46.68045" lon="5.79009">
        <ele>504.20001220703</ele>
        <time>2025-06-05T07:30:09.000Z</time>
      </trkpt>
      <trkpt lat="46.68039" lon="5.79024">
        <ele>504</ele>
        <time>2025-06-05T07:30:11.000Z</time>
      </trkpt>
      <trkpt lat="46.68036" lon="5.79037">
        <ele>504</ele>
        <time>2025-06-05T07:30:13.000Z</time>
      </trkpt>
      <trkpt lat="46.68036" lon="5.79042">
        <ele>504</ele>
        <time>2025-06-05T07:30:14.000Z</time>
      </trkpt>
      <trkpt lat="46.68032" lon="5.79067">
        <ele>504.39999389648</ele>
        <time>2025-06-05T07:30:18.000Z</time>
      </trkpt>
      <trkpt lat="46.68026" lon="5.79093">
        <ele>505.20001220703</ele>
        <time>2025-06-05T07:30:23.000Z</time>
      </trkpt>
      <trkpt lat="46.68024" lon="5.79104">
        <ele>505.60000610352</ele>
        <time>2025-06-05T07:30:25.000Z</time>
      </trkpt>
      <trkpt lat="46.68022" lon="5.79118">
        <ele>506.79998779297</ele>
        <time>2025-06-05T07:30:28.000Z</time>
      </trkpt>
      <trkpt lat="46.68014" lon="5.7914">
        <ele>507.79998779297</ele>
        <time>2025-06-05T07:30:32.000Z</time>
      </trkpt>
      <trkpt lat="46.6801" lon="5.7915">
        <ele>508.39999389648</ele>
        <time>2025-06-05T07:30:34.000Z</time>
      </trkpt>
      <trkpt lat="46.68005" lon="5.79157">
        <ele>509</ele>
        <time>2025-06-05T07:30:36.000Z</time>
      </trkpt>
      <trkpt lat="46.67994" lon="5.79179">
        <ele>510.60000610352</ele>
        <time>2025-06-05T07:30:41.000Z</time>
      </trkpt>
      <trkpt lat="46.67992" lon="5.79182">
        <ele>510.79998779297</ele>
        <time>2025-06-05T07:30:42.000Z</time>
      </trkpt>
      <trkpt lat="46.67989" lon="5.79191">
        <ele>511.79998779297</ele>
        <time>2025-06-05T07:30:44.000Z</time>
      </trkpt>
      <trkpt lat="46.67983" lon="5.79204">
        <ele>513</ele>
        <time>2025-06-05T07:30:48.000Z</time>
      </trkpt>
      <trkpt lat="46.67981" lon="5.79207">
        <ele>513</ele>
        <time>2025-06-05T07:30:49.000Z</time>
      </trkpt>
      <trkpt lat="46.67973" lon="5.79215">
        <ele>514.40002441406</ele>
        <time>2025-06-05T07:30:53.000Z</time>
      </trkpt>
      <trkpt lat="46.67965" lon="5.7922">
        <ele>515.40002441406</ele>
        <time>2025-06-05T07:30:56.000Z</time>
      </trkpt>
      <trkpt lat="46.67963" lon="5.79221">
        <ele>515.59997558594</ele>
        <time>2025-06-05T07:30:57.000Z</time>
      </trkpt>
      <trkpt lat="46.67955" lon="5.79224">
        <ele>517</ele>
        <time>2025-06-05T07:31:00.000Z</time>
      </trkpt>
      <trkpt lat="46.67946" lon="5.79228">
        <ele>518.40002441406</ele>
        <time>2025-06-05T07:31:04.000Z</time>
      </trkpt>
      <trkpt lat="46.6794" lon="5.7923">
        <ele>518.79998779297</ele>
        <time>2025-06-05T07:31:06.000Z</time>
      </trkpt>
      <trkpt lat="46.67936" lon="5.79232">
        <ele>519.59997558594</ele>
        <time>2025-06-05T07:31:08.000Z</time>
      </trkpt>
      <trkpt lat="46.67928" lon="5.79236">
        <ele>520.59997558594</ele>
        <time>2025-06-05T07:31:11.000Z</time>
      </trkpt>
      <trkpt lat="46.67919" lon="5.7924">
        <ele>522</ele>
        <time>2025-06-05T07:31:15.000Z</time>
      </trkpt>
      <trkpt lat="46.67914" lon="5.79244">
        <ele>522.59997558594</ele>
        <time>2025-06-05T07:31:17.000Z</time>
      </trkpt>
      <trkpt lat="46.67907" lon="5.79248">
        <ele>523.20001220703</ele>
        <time>2025-06-05T07:31:20.000Z</time>
      </trkpt>
      <trkpt lat="46.67898" lon="5.79256">
        <ele>524.40002441406</ele>
        <time>2025-06-05T07:31:24.000Z</time>
      </trkpt>
      <trkpt lat="46.67891" lon="5.79263">
        <ele>525.40002441406</ele>
        <time>2025-06-05T07:31:27.000Z</time>
      </trkpt>
      <trkpt lat="46.67889" lon="5.79265">
        <ele>525.59997558594</ele>
        <time>2025-06-05T07:31:28.000Z</time>
      </trkpt>
      <trkpt lat="46.67873" lon="5.7928">
        <ele>526.40002441406</ele>
        <time>2025-06-05T07:31:35.000Z</time>
      </trkpt>
      <trkpt lat="46.67864" lon="5.79289">
        <ele>527</ele>
        <time>2025-06-05T07:31:39.000Z</time>
      </trkpt>
      <trkpt lat="46.67857" lon="5.79294">
        <ele>527.59997558594</ele>
        <time>2025-06-05T07:31:42.000Z</time>
      </trkpt>
      <trkpt lat="46.67842" lon="5.79305">
        <ele>528.20001220703</ele>
        <time>2025-06-05T07:31:48.000Z</time>
      </trkpt>
      <trkpt lat="46.67827" lon="5.79308">
        <ele>528.40002441406</ele>
        <time>2025-06-05T07:31:54.000Z</time>
      </trkpt>
      <trkpt lat="46.67821" lon="5.79308">
        <ele>528.59997558594</ele>
        <time>2025-06-05T07:31:56.000Z</time>
      </trkpt>
      <trkpt lat="46.67808" lon="5.79306">
        <ele>529</ele>
        <time>2025-06-05T07:32:01.000Z</time>
      </trkpt>
      <trkpt lat="46.67784" lon="5.79304">
        <ele>529.59997558594</ele>
        <time>2025-06-05T07:32:10.000Z</time>
      </trkpt>
      <trkpt lat="46.67778" lon="5.79304">
        <ele>529.79998779297</ele>
        <time>2025-06-05T07:32:12.000Z</time>
      </trkpt>
      <trkpt lat="46.67765" lon="5.79308">
        <ele>529.79998779297</ele>
        <time>2025-06-05T07:32:17.000Z</time>
      </trkpt>
      <trkpt lat="46.67749" lon="5.79321">
        <ele>530.40002441406</ele>
        <time>2025-06-05T07:32:24.000Z</time>
      </trkpt>
      <trkpt lat="46.6774" lon="5.79328">
        <ele>530.79998779297</ele>
        <time>2025-06-05T07:32:28.000Z</time>
      </trkpt>
      <trkpt lat="46.67733" lon="5.79333">
        <ele>531</ele>
        <time>2025-06-05T07:32:31.000Z</time>
      </trkpt>
      <trkpt lat="46.67716" lon="5.79328">
        <ele>531.20001220703</ele>
        <time>2025-06-05T07:32:38.000Z</time>
      </trkpt>
      <trkpt lat="46.67709" lon="5.79319">
        <ele>531.79998779297</ele>
        <time>2025-06-05T07:32:42.000Z</time>
      </trkpt>
      <trkpt lat="46.67705" lon="5.79314">
        <ele>532</ele>
        <time>2025-06-05T07:32:44.000Z</time>
      </trkpt>
      <trkpt lat="46.67705" lon="5.79312">
        <ele>532.20001220703</ele>
        <time>2025-06-05T07:32:45.000Z</time>
      </trkpt>
      <trkpt lat="46.67696" lon="5.79299">
        <ele>533</ele>
        <time>2025-06-05T07:32:50.000Z</time>
      </trkpt>
      <trkpt lat="46.67683" lon="5.79291">
        <ele>534</ele>
        <time>2025-06-05T07:32:55.000Z</time>
      </trkpt>
      <trkpt lat="46.6768" lon="5.79289">
        <ele>534.20001220703</ele>
        <time>2025-06-05T07:32:56.000Z</time>
      </trkpt>
      <trkpt lat="46.67656" lon="5.79282">
        <ele>534.20001220703</ele>
        <time>2025-06-05T07:33:02.000Z</time>
      </trkpt>
      <trkpt lat="46.67644" lon="5.79283">
        <ele>534</ele>
        <time>2025-06-05T07:33:05.000Z</time>
      </trkpt>
      <trkpt lat="46.67642" lon="5.79285">
        <ele>534</ele>
        <time>2025-06-05T07:33:06.000Z</time>
      </trkpt>
      <trkpt lat="46.67626" lon="5.79294">
        <ele>533.59997558594</ele>
        <time>2025-06-05T07:33:10.000Z</time>
      </trkpt>
      <trkpt lat="46.67618" lon="5.79303">
        <ele>533.20001220703</ele>
        <time>2025-06-05T07:33:12.000Z</time>
      </trkpt>
      <trkpt lat="46.67613" lon="5.79309">
        <ele>532.79998779297</ele>
        <time>2025-06-05T07:33:13.000Z</time>
      </trkpt>
      <trkpt lat="46.67597" lon="5.79331">
        <ele>531.79998779297</ele>
        <time>2025-06-05T07:33:17.000Z</time>
      </trkpt>
      <trkpt lat="46.67594" lon="5.79336">
        <ele>531.59997558594</ele>
        <time>2025-06-05T07:33:18.000Z</time>
      </trkpt>
      <trkpt lat="46.67588" lon="5.79345">
        <ele>531.59997558594</ele>
        <time>2025-06-05T07:33:20.000Z</time>
      </trkpt>
      <trkpt lat="46.67582" lon="5.79357">
        <ele>531.20001220703</ele>
        <time>2025-06-05T07:33:22.000Z</time>
      </trkpt>
      <trkpt lat="46.67582" lon="5.79362">
        <ele>531.20001220703</ele>
        <time>2025-06-05T07:33:23.000Z</time>
      </trkpt>
      <trkpt lat="46.6757" lon="5.794">
        <ele>531.20001220703</ele>
        <time>2025-06-05T07:33:30.000Z</time>
      </trkpt>
      <trkpt lat="46.6757" lon="5.79417">
        <ele>532.20001220703</ele>
        <time>2025-06-05T07:33:35.000Z</time>
      </trkpt>
      <trkpt lat="46.67571" lon="5.79424">
        <ele>532.79998779297</ele>
        <time>2025-06-05T07:33:37.000Z</time>
      </trkpt>
      <trkpt lat="46.6757" lon="5.79436">
        <ele>534</ele>
        <time>2025-06-05T07:33:40.000Z</time>
      </trkpt>
      <trkpt lat="46.67569" lon="5.79441">
        <ele>533.79998779297</ele>
        <time>2025-06-05T07:33:41.000Z</time>
      </trkpt>
      <trkpt lat="46.67566" lon="5.79464">
        <ele>535</ele>
        <time>2025-06-05T07:33:47.000Z</time>
      </trkpt>
      <trkpt lat="46.67565" lon="5.79468">
        <ele>535</ele>
        <time>2025-06-05T07:33:48.000Z</time>
      </trkpt>
      <trkpt lat="46.67563" lon="5.7948">
        <ele>536</ele>
        <time>2025-06-05T07:33:52.000Z</time>
      </trkpt>
      <trkpt lat="46.67561" lon="5.79486">
        <ele>536.40002441406</ele>
        <time>2025-06-05T07:33:54.000Z</time>
      </trkpt>
      <trkpt lat="46.67561" lon="5.79493">
        <ele>537.20001220703</ele>
        <time>2025-06-05T07:33:56.000Z</time>
      </trkpt>
      <trkpt lat="46.6756" lon="5.79504">
        <ele>538.40002441406</ele>
        <time>2025-06-05T07:33:59.000Z</time>
      </trkpt>
      <trkpt lat="46.67561" lon="5.79508">
        <ele>539</ele>
        <time>2025-06-05T07:34:00.000Z</time>
      </trkpt>
      <trkpt lat="46.67563" lon="5.79514">
        <ele>539.79998779297</ele>
        <time>2025-06-05T07:34:02.000Z</time>
      </trkpt>
      <trkpt lat="46.67566" lon="5.79525">
        <ele>541.40002441406</ele>
        <time>2025-06-05T07:34:05.000Z</time>
      </trkpt>
      <trkpt lat="46.67565" lon="5.79528">
        <ele>541.59997558594</ele>
        <time>2025-06-05T07:34:06.000Z</time>
      </trkpt>
      <trkpt lat="46.67563" lon="5.79532">
        <ele>542.20001220703</ele>
        <time>2025-06-05T07:34:08.000Z</time>
      </trkpt>
      <trkpt lat="46.67563" lon="5.79534">
        <ele>542.79998779297</ele>
        <time>2025-06-05T07:34:09.000Z</time>
      </trkpt>
      <trkpt lat="46.67563" lon="5.79536">
        <ele>543.59997558594</ele>
        <time>2025-06-05T07:34:10.000Z</time>
      </trkpt>
      <trkpt lat="46.67564" lon="5.79538">
        <ele>544.59997558594</ele>
        <time>2025-06-05T07:34:11.000Z</time>
      </trkpt>
      <trkpt lat="46.67563" lon="5.7955">
        <ele>546</ele>
        <time>2025-06-05T07:34:14.000Z</time>
      </trkpt>
      <trkpt lat="46.67564" lon="5.79554">
        <ele>546.40002441406</ele>
        <time>2025-06-05T07:34:15.000Z</time>
      </trkpt>
      <trkpt lat="46.67566" lon="5.79556">
        <ele>547.20001220703</ele>
        <time>2025-06-05T07:34:16.000Z</time>
      </trkpt>
      <trkpt lat="46.6757" lon="5.79562">
        <ele>547.79998779297</ele>
        <time>2025-06-05T07:34:18.000Z</time>
      </trkpt>
      <trkpt lat="46.67569" lon="5.79566">
        <ele>548.40002441406</ele>
        <time>2025-06-05T07:34:21.000Z</time>
      </trkpt>
      <trkpt lat="46.6757" lon="5.79568">
        <ele>549.20001220703</ele>
        <time>2025-06-05T07:34:22.000Z</time>
      </trkpt>
      <trkpt lat="46.6757" lon="5.79571">
        <ele>549.79998779297</ele>
        <time>2025-06-05T07:34:23.000Z</time>
      </trkpt>
      <trkpt lat="46.6757" lon="5.79577">
        <ele>550</ele>
        <time>2025-06-05T07:34:24.000Z</time>
      </trkpt>
      <trkpt lat="46.67573" lon="5.79584">
        <ele>550.59997558594</ele>
        <time>2025-06-05T07:34:26.000Z</time>
      </trkpt>
      <trkpt lat="46.67574" lon="5.79587">
        <ele>551</ele>
        <time>2025-06-05T07:34:27.000Z</time>
      </trkpt>
      <trkpt lat="46.67577" lon="5.79592">
        <ele>552.59997558594</ele>
        <time>2025-06-05T07:34:31.000Z</time>
      </trkpt>
      <trkpt lat="46.67577" lon="5.79596">
        <ele>553.40002441406</ele>
        <time>2025-06-05T07:34:33.000Z</time>
      </trkpt>
      <trkpt lat="46.67578" lon="5.79599">
        <ele>554</ele>
        <time>2025-06-05T07:34:34.000Z</time>
      </trkpt>
      <trkpt lat="46.6758" lon="5.796">
        <ele>554.20001220703</ele>
        <time>2025-06-05T07:34:35.000Z</time>
      </trkpt>
      <trkpt lat="46.67581" lon="5.79602">
        <ele>554.59997558594</ele>
        <time>2025-06-05T07:34:36.000Z</time>
      </trkpt>
      <trkpt lat="46.67583" lon="5.79609">
        <ele>555.20001220703</ele>
        <time>2025-06-05T07:34:38.000Z</time>
      </trkpt>
      <trkpt lat="46.67588" lon="5.79615">
        <ele>556.20001220703</ele>
        <time>2025-06-05T07:34:40.000Z</time>
      </trkpt>
      <trkpt lat="46.67588" lon="5.79618">
        <ele>556.79998779297</ele>
        <time>2025-06-05T07:34:41.000Z</time>
      </trkpt>
      <trkpt lat="46.67593" lon="5.79621">
        <ele>557.79998779297</ele>
        <time>2025-06-05T07:34:43.000Z</time>
      </trkpt>
      <trkpt lat="46.67592" lon="5.79623">
        <ele>558</ele>
        <time>2025-06-05T07:34:44.000Z</time>
      </trkpt>
      <trkpt lat="46.67592" lon="5.79624">
        <ele>559</ele>
        <time>2025-06-05T07:34:45.000Z</time>
      </trkpt>
      <trkpt lat="46.67593" lon="5.7963">
        <ele>559.79998779297</ele>
        <time>2025-06-05T07:34:48.000Z</time>
      </trkpt>
      <trkpt lat="46.67594" lon="5.79631">
        <ele>560.20001220703</ele>
        <time>2025-06-05T07:34:49.000Z</time>
      </trkpt>
      <trkpt lat="46.67597" lon="5.79639">
        <ele>561.20001220703</ele>
        <time>2025-06-05T07:34:54.000Z</time>
      </trkpt>
      <trkpt lat="46.67601" lon="5.79649">
        <ele>562.59997558594</ele>
        <time>2025-06-05T07:34:58.000Z</time>
      </trkpt>
      <trkpt lat="46.676" lon="5.79654">
        <ele>564</ele>
        <time>2025-06-05T07:35:01.000Z</time>
      </trkpt>
      <trkpt lat="46.67602" lon="5.79659">
        <ele>565</ele>
        <time>2025-06-05T07:35:04.000Z</time>
      </trkpt>
      <trkpt lat="46.67602" lon="5.7966">
        <ele>565.59997558594</ele>
        <time>2025-06-05T07:35:05.000Z</time>
      </trkpt>
      <trkpt lat="46.67606" lon="5.79664">
        <ele>566</ele>
        <time>2025-06-05T07:35:07.000Z</time>
      </trkpt>
      <trkpt lat="46.67606" lon="5.79666">
        <ele>566.40002441406</ele>
        <time>2025-06-05T07:35:08.000Z</time>
      </trkpt>
      <trkpt lat="46.67607" lon="5.79674">
        <ele>567.40002441406</ele>
        <time>2025-06-05T07:35:12.000Z</time>
      </trkpt>
      <trkpt lat="46.67609" lon="5.79682">
        <ele>568.20001220703</ele>
        <time>2025-06-05T07:35:15.000Z</time>
      </trkpt>
      <trkpt lat="46.6761" lon="5.79686">
        <ele>568.40002441406</ele>
        <time>2025-06-05T07:35:16.000Z</time>
      </trkpt>
      <trkpt lat="46.67611" lon="5.79688">
        <ele>568.59997558594</ele>
        <time>2025-06-05T07:35:18.000Z</time>
      </trkpt>
      <trkpt lat="46.67613" lon="5.797">
        <ele>569.59997558594</ele>
        <time>2025-06-05T07:35:21.000Z</time>
      </trkpt>
      <trkpt lat="46.67614" lon="5.79703">
        <ele>569.59997558594</ele>
        <time>2025-06-05T07:35:22.000Z</time>
      </trkpt>
      <trkpt lat="46.67615" lon="5.7971">
        <ele>570.59997558594</ele>
        <time>2025-06-05T07:35:24.000Z</time>
      </trkpt>
      <trkpt lat="46.67617" lon="5.79716">
        <ele>571.20001220703</ele>
        <time>2025-06-05T07:35:26.000Z</time>
      </trkpt>
      <trkpt lat="46.67618" lon="5.7972">
        <ele>571.59997558594</ele>
        <time>2025-06-05T07:35:27.000Z</time>
      </trkpt>
      <trkpt lat="46.67621" lon="5.79723">
        <ele>572</ele>
        <time>2025-06-05T07:35:28.000Z</time>
      </trkpt>
      <trkpt lat="46.67622" lon="5.7973">
        <ele>573.20001220703</ele>
        <time>2025-06-05T07:35:32.000Z</time>
      </trkpt>
      <trkpt lat="46.67627" lon="5.79741">
        <ele>574.40002441406</ele>
        <time>2025-06-05T07:35:35.000Z</time>
      </trkpt>
      <trkpt lat="46.67628" lon="5.79744">
        <ele>574.59997558594</ele>
        <time>2025-06-05T07:35:36.000Z</time>
      </trkpt>
      <trkpt lat="46.6763" lon="5.79749">
        <ele>575.40002441406</ele>
        <time>2025-06-05T07:35:38.000Z</time>
      </trkpt>
      <trkpt lat="46.67632" lon="5.79752">
        <ele>575.79998779297</ele>
        <time>2025-06-05T07:35:40.000Z</time>
      </trkpt>
      <trkpt lat="46.67633" lon="5.79753">
        <ele>576</ele>
        <time>2025-06-05T07:35:41.000Z</time>
      </trkpt>
      <trkpt lat="46.67633" lon="5.79753">
        <ele>576.59997558594</ele>
        <time>2025-06-05T07:35:43.000Z</time>
      </trkpt>
      <trkpt lat="46.67635" lon="5.79759">
        <ele>577.40002441406</ele>
        <time>2025-06-05T07:35:46.000Z</time>
      </trkpt>
      <trkpt lat="46.67636" lon="5.79761">
        <ele>577.79998779297</ele>
        <time>2025-06-05T07:35:47.000Z</time>
      </trkpt>
      <trkpt lat="46.67639" lon="5.7977">
        <ele>579</ele>
        <time>2025-06-05T07:35:51.000Z</time>
      </trkpt>
      <trkpt lat="46.67639" lon="5.7977">
        <ele>579.20001220703</ele>
        <time>2025-06-05T07:35:52.000Z</time>
      </trkpt>
      <trkpt lat="46.67639" lon="5.79771">
        <ele>580</ele>
        <time>2025-06-05T07:35:55.000Z</time>
      </trkpt>
      <trkpt lat="46.67642" lon="5.79778">
        <ele>580.59997558594</ele>
        <time>2025-06-05T07:36:00.000Z</time>
      </trkpt>
      <trkpt lat="46.67645" lon="5.79787">
        <ele>581</ele>
        <time>2025-06-05T07:36:04.000Z</time>
      </trkpt>
      <trkpt lat="46.67646" lon="5.7979">
        <ele>581.40002441406</ele>
        <time>2025-06-05T07:36:06.000Z</time>
      </trkpt>
      <trkpt lat="46.67649" lon="5.79794">
        <ele>582.20001220703</ele>
        <time>2025-06-05T07:36:11.000Z</time>
      </trkpt>
      <trkpt lat="46.67649" lon="5.79794">
        <ele>582.20001220703</ele>
        <time>2025-06-05T07:36:12.000Z</time>
      </trkpt>
      <trkpt lat="46.67653" lon="5.79801">
        <ele>583.20001220703</ele>
        <time>2025-06-05T07:36:17.000Z</time>
      </trkpt>
      <trkpt lat="46.67653" lon="5.79803">
        <ele>583.20001220703</ele>
        <time>2025-06-05T07:36:18.000Z</time>
      </trkpt>
      <trkpt lat="46.67654" lon="5.79814">
        <ele>583.79998779297</ele>
        <time>2025-06-05T07:36:24.000Z</time>
      </trkpt>
      <trkpt lat="46.67654" lon="5.79814">
        <ele>584.40002441406</ele>
        <time>2025-06-05T07:36:27.000Z</time>
      </trkpt>
      <trkpt lat="46.67652" lon="5.79818">
        <ele>585</ele>
        <time>2025-06-05T07:36:33.000Z</time>
      </trkpt>
      <trkpt lat="46.67654" lon="5.79824">
        <ele>585.40002441406</ele>
        <time>2025-06-05T07:36:36.000Z</time>
      </trkpt>
      <trkpt lat="46.67654" lon="5.79826">
        <ele>585.40002441406</ele>
        <time>2025-06-05T07:36:37.000Z</time>
      </trkpt>
      <trkpt lat="46.67655" lon="5.79827">
        <ele>586</ele>
        <time>2025-06-05T07:36:40.000Z</time>
      </trkpt>
      <trkpt lat="46.67655" lon="5.79831">
        <ele>586.59997558594</ele>
        <time>2025-06-05T07:36:44.000Z</time>
      </trkpt>
      <trkpt lat="46.67655" lon="5.79839">
        <ele>587.59997558594</ele>
        <time>2025-06-05T07:36:50.000Z</time>
      </trkpt>
      <trkpt lat="46.67655" lon="5.79839">
        <ele>587.79998779297</ele>
        <time>2025-06-05T07:36:51.000Z</time>
      </trkpt>
      <trkpt lat="46.67656" lon="5.79841">
        <ele>588.59997558594</ele>
        <time>2025-06-05T07:36:56.000Z</time>
      </trkpt>
      <trkpt lat="46.67656" lon="5.79841">
        <ele>588.79998779297</ele>
        <time>2025-06-05T07:36:59.000Z</time>
      </trkpt>
      <trkpt lat="46.67656" lon="5.79841">
        <ele>589.59997558594</ele>
        <time>2025-06-05T07:37:06.000Z</time>
      </trkpt>
      <trkpt lat="46.67657" lon="5.79845">
        <ele>590.40002441406</ele>
        <time>2025-06-05T07:37:12.000Z</time>
      </trkpt>
      <trkpt lat="46.67656" lon="5.79847">
        <ele>590.79998779297</ele>
        <time>2025-06-05T07:37:14.000Z</time>
      </trkpt>
      <trkpt lat="46.67657" lon="5.79848">
        <ele>591.40002441406</ele>
        <time>2025-06-05T07:37:18.000Z</time>
      </trkpt>
      <trkpt lat="46.67658" lon="5.79852">
        <ele>591.79998779297</ele>
        <time>2025-06-05T07:37:21.000Z</time>
      </trkpt>
      <trkpt lat="46.67658" lon="5.79854">
        <ele>592.20001220703</ele>
        <time>2025-06-05T07:37:24.000Z</time>
      </trkpt>
      <trkpt lat="46.67658" lon="5.79856">
        <ele>592.79998779297</ele>
        <time>2025-06-05T07:37:28.000Z</time>
      </trkpt>
      <trkpt lat="46.67659" lon="5.79861">
        <ele>593.40002441406</ele>
        <time>2025-06-05T07:37:31.000Z</time>
      </trkpt>
      <trkpt lat="46.6766" lon="5.79866">
        <ele>594</ele>
        <time>2025-06-05T07:37:36.000Z</time>
      </trkpt>
      <trkpt lat="46.6766" lon="5.79866">
        <ele>594.59997558594</ele>
        <time>2025-06-05T07:37:42.000Z</time>
      </trkpt>
      <trkpt lat="46.6766" lon="5.79866">
        <ele>594.59997558594</ele>
        <time>2025-06-05T07:41:31.000Z</time>
      </trkpt>
      <trkpt lat="46.6766" lon="5.79866">
        <ele>594.79998779297</ele>
        <time>2025-06-05T07:41:50.000Z</time>
      </trkpt>
      <trkpt lat="46.6766" lon="5.79871">
        <ele>594.79998779297</ele>
        <time>2025-06-05T07:41:58.000Z</time>
      </trkpt>
      <trkpt lat="46.67662" lon="5.79878">
        <ele>594.79998779297</ele>
        <time>2025-06-05T07:42:00.000Z</time>
      </trkpt>
      <trkpt lat="46.67662" lon="5.7988">
        <ele>595</ele>
        <time>2025-06-05T07:42:03.000Z</time>
      </trkpt>
      <trkpt lat="46.67657" lon="5.79887">
        <ele>595.20001220703</ele>
        <time>2025-06-05T07:42:06.000Z</time>
      </trkpt>
      <trkpt lat="46.6765" lon="5.79895">
        <ele>595.20001220703</ele>
        <time>2025-06-05T07:42:10.000Z</time>
      </trkpt>
      <trkpt lat="46.67645" lon="5.79905">
        <ele>595.59997558594</ele>
        <time>2025-06-05T07:42:13.000Z</time>
      </trkpt>
      <trkpt lat="46.67641" lon="5.79913">
        <ele>596.20001220703</ele>
        <time>2025-06-05T07:42:16.000Z</time>
      </trkpt>
      <trkpt lat="46.67639" lon="5.79915">
        <ele>597</ele>
        <time>2025-06-05T07:42:17.000Z</time>
      </trkpt>
      <trkpt lat="46.67638" lon="5.79917">
        <ele>597.20001220703</ele>
        <time>2025-06-05T07:42:18.000Z</time>
      </trkpt>
      <trkpt lat="46.67634" lon="5.79922">
        <ele>598</ele>
        <time>2025-06-05T07:42:20.000Z</time>
      </trkpt>
      <trkpt lat="46.67632" lon="5.79926">
        <ele>598.59997558594</ele>
        <time>2025-06-05T07:42:21.000Z</time>
      </trkpt>
      <trkpt lat="46.67629" lon="5.7993">
        <ele>599</ele>
        <time>2025-06-05T07:42:24.000Z</time>
      </trkpt>
      <trkpt lat="46.67621" lon="5.79935">
        <ele>600.20001220703</ele>
        <time>2025-06-05T07:42:27.000Z</time>
      </trkpt>
      <trkpt lat="46.67611" lon="5.79945">
        <ele>601</ele>
        <time>2025-06-05T07:42:31.000Z</time>
      </trkpt>
      <trkpt lat="46.67605" lon="5.79949">
        <ele>601.20001220703</ele>
        <time>2025-06-05T07:42:33.000Z</time>
      </trkpt>
      <trkpt lat="46.67601" lon="5.79953">
        <ele>601.20001220703</ele>
        <time>2025-06-05T07:42:34.000Z</time>
      </trkpt>
      <trkpt lat="46.67593" lon="5.79963">
        <ele>601.40002441406</ele>
        <time>2025-06-05T07:42:37.000Z</time>
      </trkpt>
      <trkpt lat="46.67589" lon="5.79967">
        <ele>601.59997558594</ele>
        <time>2025-06-05T07:42:40.000Z</time>
      </trkpt>
      <trkpt lat="46.67587" lon="5.79968">
        <ele>601.59997558594</ele>
        <time>2025-06-05T07:42:43.000Z</time>
      </trkpt>
      <trkpt lat="46.6757" lon="5.79988">
        <ele>601.79998779297</ele>
        <time>2025-06-05T07:42:51.000Z</time>
      </trkpt>
      <trkpt lat="46.67563" lon="5.79998">
        <ele>601.79998779297</ele>
        <time>2025-06-05T07:42:55.000Z</time>
      </trkpt>
      <trkpt lat="46.67559" lon="5.80002">
        <ele>602</ele>
        <time>2025-06-05T07:42:56.000Z</time>
      </trkpt>
      <trkpt lat="46.67559" lon="5.80004">
        <ele>602</ele>
        <time>2025-06-05T07:42:57.000Z</time>
      </trkpt>
      <trkpt lat="46.67557" lon="5.80016">
        <ele>602</ele>
        <time>2025-06-05T07:43:01.000Z</time>
      </trkpt>
      <trkpt lat="46.67555" lon="5.80021">
        <ele>602</ele>
        <time>2025-06-05T07:43:02.000Z</time>
      </trkpt>
      <trkpt lat="46.67553" lon="5.80027">
        <ele>602.20001220703</ele>
        <time>2025-06-05T07:43:04.000Z</time>
      </trkpt>
      <trkpt lat="46.67549" lon="5.80034">
        <ele>602.59997558594</ele>
        <time>2025-06-05T07:43:08.000Z</time>
      </trkpt>
      <trkpt lat="46.67542" lon="5.80051">
        <ele>603</ele>
        <time>2025-06-05T07:43:12.000Z</time>
      </trkpt>
      <trkpt lat="46.6754" lon="5.80055">
        <ele>603.20001220703</ele>
        <time>2025-06-05T07:43:14.000Z</time>
      </trkpt>
      <trkpt lat="46.67535" lon="5.80061">
        <ele>603.40002441406</ele>
        <time>2025-06-05T07:43:16.000Z</time>
      </trkpt>
      <trkpt lat="46.67535" lon="5.80073">
        <ele>603.59997558594</ele>
        <time>2025-06-05T07:43:20.000Z</time>
      </trkpt>
      <trkpt lat="46.67534" lon="5.80075">
        <ele>603.79998779297</ele>
        <time>2025-06-05T07:43:21.000Z</time>
      </trkpt>
      <trkpt lat="46.67532" lon="5.80078">
        <ele>603.79998779297</ele>
        <time>2025-06-05T07:43:22.000Z</time>
      </trkpt>
      <trkpt lat="46.67528" lon="5.80084">
        <ele>604</ele>
        <time>2025-06-05T07:43:24.000Z</time>
      </trkpt>
      <trkpt lat="46.67527" lon="5.8009">
        <ele>604.20001220703</ele>
        <time>2025-06-05T07:43:25.000Z</time>
      </trkpt>
      <trkpt lat="46.67513" lon="5.8012">
        <ele>604.20001220703</ele>
        <time>2025-06-05T07:43:31.000Z</time>
      </trkpt>
      <trkpt lat="46.67513" lon="5.80129">
        <ele>604</ele>
        <time>2025-06-05T07:43:33.000Z</time>
      </trkpt>
      <trkpt lat="46.67511" lon="5.80139">
        <ele>603.79998779297</ele>
        <time>2025-06-05T07:43:35.000Z</time>
      </trkpt>
      <trkpt lat="46.67507" lon="5.80146">
        <ele>603.59997558594</ele>
        <time>2025-06-05T07:43:36.000Z</time>
      </trkpt>
      <trkpt lat="46.67506" lon="5.80153">
        <ele>603.40002441406</ele>
        <time>2025-06-05T07:43:37.000Z</time>
      </trkpt>
      <trkpt lat="46.6751" lon="5.80165">
        <ele>603.20001220703</ele>
        <time>2025-06-05T07:43:39.000Z</time>
      </trkpt>
      <trkpt lat="46.67511" lon="5.8017">
        <ele>602.40002441406</ele>
        <time>2025-06-05T07:43:40.000Z</time>
      </trkpt>
      <trkpt lat="46.67512" lon="5.80176">
        <ele>602.20001220703</ele>
        <time>2025-06-05T07:43:41.000Z</time>
      </trkpt>
      <trkpt lat="46.67508" lon="5.80182">
        <ele>601.20001220703</ele>
        <time>2025-06-05T07:43:42.000Z</time>
      </trkpt>
      <trkpt lat="46.67506" lon="5.80188">
        <ele>600.79998779297</ele>
        <time>2025-06-05T07:43:43.000Z</time>
      </trkpt>
      <trkpt lat="46.67504" lon="5.80197">
        <ele>600</ele>
        <time>2025-06-05T07:43:45.000Z</time>
      </trkpt>
      <trkpt lat="46.67497" lon="5.80211">
        <ele>599.20001220703</ele>
        <time>2025-06-05T07:43:47.000Z</time>
      </trkpt>
      <trkpt lat="46.6749" lon="5.80229">
        <ele>598.20001220703</ele>
        <time>2025-06-05T07:43:49.000Z</time>
      </trkpt>
      <trkpt lat="46.6749" lon="5.80237">
        <ele>597.79998779297</ele>
        <time>2025-06-05T07:43:50.000Z</time>
      </trkpt>
      <trkpt lat="46.67489" lon="5.80243">
        <ele>597</ele>
        <time>2025-06-05T07:43:51.000Z</time>
      </trkpt>
      <trkpt lat="46.67487" lon="5.80248">
        <ele>596.79998779297</ele>
        <time>2025-06-05T07:43:52.000Z</time>
      </trkpt>
      <trkpt lat="46.67481" lon="5.80257">
        <ele>596.20001220703</ele>
        <time>2025-06-05T07:43:54.000Z</time>
      </trkpt>
      <trkpt lat="46.67478" lon="5.80262">
        <ele>596</ele>
        <time>2025-06-05T07:43:55.000Z</time>
      </trkpt>
      <trkpt lat="46.67463" lon="5.80294">
        <ele>595.79998779297</ele>
        <time>2025-06-05T07:44:00.000Z</time>
      </trkpt>
      <trkpt lat="46.6746" lon="5.80311">
        <ele>595.59997558594</ele>
        <time>2025-06-05T07:44:05.000Z</time>
      </trkpt>
      <trkpt lat="46.67459" lon="5.80317">
        <ele>595.59997558594</ele>
        <time>2025-06-05T07:44:06.000Z</time>
      </trkpt>
      <trkpt lat="46.67458" lon="5.80329">
        <ele>595.59997558594</ele>
        <time>2025-06-05T07:44:08.000Z</time>
      </trkpt>
      <trkpt lat="46.67457" lon="5.80334">
        <ele>595.40002441406</ele>
        <time>2025-06-05T07:44:09.000Z</time>
      </trkpt>
      <trkpt lat="46.67459" lon="5.80342">
        <ele>595.40002441406</ele>
        <time>2025-06-05T07:44:10.000Z</time>
      </trkpt>
      <trkpt lat="46.67449" lon="5.80364">
        <ele>595.20001220703</ele>
        <time>2025-06-05T07:44:12.000Z</time>
      </trkpt>
      <trkpt lat="46.67446" lon="5.80373">
        <ele>595</ele>
        <time>2025-06-05T07:44:13.000Z</time>
      </trkpt>
      <trkpt lat="46.67441" lon="5.80385">
        <ele>594.79998779297</ele>
        <time>2025-06-05T07:44:14.000Z</time>
      </trkpt>
      <trkpt lat="46.67432" lon="5.804">
        <ele>593.79998779297</ele>
        <time>2025-06-05T07:44:16.000Z</time>
      </trkpt>
      <trkpt lat="46.67421" lon="5.80421">
        <ele>593</ele>
        <time>2025-06-05T07:44:19.000Z</time>
      </trkpt>
      <trkpt lat="46.67421" lon="5.80428">
        <ele>592.59997558594</ele>
        <time>2025-06-05T07:44:20.000Z</time>
      </trkpt>
      <trkpt lat="46.67404" lon="5.80464">
        <ele>592.59997558594</ele>
        <time>2025-06-05T07:44:28.000Z</time>
      </trkpt>
      <trkpt lat="46.67395" lon="5.80487">
        <ele>593.79998779297</ele>
        <time>2025-06-05T07:44:33.000Z</time>
      </trkpt>
      <trkpt lat="46.67395" lon="5.80492">
        <ele>593.79998779297</ele>
        <time>2025-06-05T07:44:34.000Z</time>
      </trkpt>
      <trkpt lat="46.67391" lon="5.80514">
        <ele>594</ele>
        <time>2025-06-05T07:44:38.000Z</time>
      </trkpt>
      <trkpt lat="46.67389" lon="5.80523">
        <ele>594.20001220703</ele>
        <time>2025-06-05T07:44:40.000Z</time>
      </trkpt>
      <trkpt lat="46.67377" lon="5.80561">
        <ele>594.40002441406</ele>
        <time>2025-06-05T07:44:48.000Z</time>
      </trkpt>
      <trkpt lat="46.67365" lon="5.80599">
        <ele>594.40002441406</ele>
        <time>2025-06-05T07:44:55.000Z</time>
      </trkpt>
      <trkpt lat="46.67363" lon="5.80606">
        <ele>594.20001220703</ele>
        <time>2025-06-05T07:44:57.000Z</time>
      </trkpt>
      <trkpt lat="46.67364" lon="5.80609">
        <ele>593.79998779297</ele>
        <time>2025-06-05T07:44:58.000Z</time>
      </trkpt>
      <trkpt lat="46.67367" lon="5.80612">
        <ele>593.79998779297</ele>
        <time>2025-06-05T07:44:59.000Z</time>
      </trkpt>
      <trkpt lat="46.67376" lon="5.8062">
        <ele>593.20001220703</ele>
        <time>2025-06-05T07:45:02.000Z</time>
      </trkpt>
      <trkpt lat="46.67399" lon="5.80638">
        <ele>593</ele>
        <time>2025-06-05T07:45:08.000Z</time>
      </trkpt>
      <trkpt lat="46.67402" lon="5.8064">
        <ele>593</ele>
        <time>2025-06-05T07:45:09.000Z</time>
      </trkpt>
      <trkpt lat="46.67413" lon="5.80643">
        <ele>593.40002441406</ele>
        <time>2025-06-05T07:45:12.000Z</time>
      </trkpt>
      <trkpt lat="46.6742" lon="5.80642">
        <ele>593.59997558594</ele>
        <time>2025-06-05T07:45:14.000Z</time>
      </trkpt>
      <trkpt lat="46.67427" lon="5.80637">
        <ele>593.79998779297</ele>
        <time>2025-06-05T07:45:16.000Z</time>
      </trkpt>
      <trkpt lat="46.67434" lon="5.80632">
        <ele>594.40002441406</ele>
        <time>2025-06-05T07:45:18.000Z</time>
      </trkpt>
      <trkpt lat="46.67443" lon="5.80625">
        <ele>595</ele>
        <time>2025-06-05T07:45:21.000Z</time>
      </trkpt>
      <trkpt lat="46.67447" lon="5.80622">
        <ele>595.20001220703</ele>
        <time>2025-06-05T07:45:22.000Z</time>
      </trkpt>
      <trkpt lat="46.67463" lon="5.80617">
        <ele>595.59997558594</ele>
        <time>2025-06-05T07:45:27.000Z</time>
      </trkpt>
      <trkpt lat="46.67471" lon="5.80615">
        <ele>595.59997558594</ele>
        <time>2025-06-05T07:45:29.000Z</time>
      </trkpt>
      <trkpt lat="46.67484" lon="5.80604">
        <ele>595.79998779297</ele>
        <time>2025-06-05T07:45:32.000Z</time>
      </trkpt>
      <trkpt lat="46.675" lon="5.80589">
        <ele>595.79998779297</ele>
        <time>2025-06-05T07:45:36.000Z</time>
      </trkpt>
      <trkpt lat="46.67523" lon="5.8057">
        <ele>596</ele>
        <time>2025-06-05T07:45:42.000Z</time>
      </trkpt>
      <trkpt lat="46.67527" lon="5.80569">
        <ele>596</ele>
        <time>2025-06-05T07:45:43.000Z</time>
      </trkpt>
      <trkpt lat="46.67539" lon="5.80566">
        <ele>596.59997558594</ele>
        <time>2025-06-05T07:45:47.000Z</time>
      </trkpt>
      <trkpt lat="46.67555" lon="5.80559">
        <ele>596.79998779297</ele>
        <time>2025-06-05T07:45:53.000Z</time>
      </trkpt>
      <trkpt lat="46.67562" lon="5.80556">
        <ele>596.79998779297</ele>
        <time>2025-06-05T07:45:55.000Z</time>
      </trkpt>
      <trkpt lat="46.67567" lon="5.80551">
        <ele>596.79998779297</ele>
        <time>2025-06-05T07:45:57.000Z</time>
      </trkpt>
      <trkpt lat="46.67574" lon="5.80545">
        <ele>596.79998779297</ele>
        <time>2025-06-05T07:46:00.000Z</time>
      </trkpt>
      <trkpt lat="46.67577" lon="5.80545">
        <ele>596.79998779297</ele>
        <time>2025-06-05T07:46:01.000Z</time>
      </trkpt>
      <trkpt lat="46.67579" lon="5.80544">
        <ele>596.79998779297</ele>
        <time>2025-06-05T07:46:02.000Z</time>
      </trkpt>
      <trkpt lat="46.67592" lon="5.80544">
        <ele>597</ele>
        <time>2025-06-05T07:46:05.000Z</time>
      </trkpt>
      <trkpt lat="46.67593" lon="5.80543">
        <ele>597.20001220703</ele>
        <time>2025-06-05T07:46:06.000Z</time>
      </trkpt>
      <trkpt lat="46.67599" lon="5.80542">
        <ele>597.40002441406</ele>
        <time>2025-06-05T07:46:09.000Z</time>
      </trkpt>
      <trkpt lat="46.67607" lon="5.80545">
        <ele>597.79998779297</ele>
        <time>2025-06-05T07:46:14.000Z</time>
      </trkpt>
      <trkpt lat="46.67616" lon="5.80546">
        <ele>598</ele>
        <time>2025-06-05T07:46:17.000Z</time>
      </trkpt>
      <trkpt lat="46.67624" lon="5.80546">
        <ele>598</ele>
        <time>2025-06-05T07:46:20.000Z</time>
      </trkpt>
      <trkpt lat="46.67644" lon="5.80541">
        <ele>598.20001220703</ele>
        <time>2025-06-05T07:46:25.000Z</time>
      </trkpt>
      <trkpt lat="46.67652" lon="5.80538">
        <ele>598.40002441406</ele>
        <time>2025-06-05T07:46:27.000Z</time>
      </trkpt>
      <trkpt lat="46.67666" lon="5.80527">
        <ele>599</ele>
        <time>2025-06-05T07:46:31.000Z</time>
      </trkpt>
      <trkpt lat="46.67674" lon="5.80525">
        <ele>599.40002441406</ele>
        <time>2025-06-05T07:46:33.000Z</time>
      </trkpt>
      <trkpt lat="46.67681" lon="5.80528">
        <ele>599.59997558594</ele>
        <time>2025-06-05T07:46:35.000Z</time>
      </trkpt>
      <trkpt lat="46.67697" lon="5.80522">
        <ele>600.40002441406</ele>
        <time>2025-06-05T07:46:39.000Z</time>
      </trkpt>
      <trkpt lat="46.67714" lon="5.80516">
        <ele>600.79998779297</ele>
        <time>2025-06-05T07:46:44.000Z</time>
      </trkpt>
      <trkpt lat="46.6773" lon="5.80514">
        <ele>601.20001220703</ele>
        <time>2025-06-05T07:46:48.000Z</time>
      </trkpt>
      <trkpt lat="46.67736" lon="5.80514">
        <ele>601</ele>
        <time>2025-06-05T07:46:50.000Z</time>
      </trkpt>
      <trkpt lat="46.6774" lon="5.80512">
        <ele>600.79998779297</ele>
        <time>2025-06-05T07:46:52.000Z</time>
      </trkpt>
      <trkpt lat="46.67749" lon="5.80506">
        <ele>600.79998779297</ele>
        <time>2025-06-05T07:46:56.000Z</time>
      </trkpt>
      <trkpt lat="46.67756" lon="5.80503">
        <ele>600.79998779297</ele>
        <time>2025-06-05T07:46:58.000Z</time>
      </trkpt>
      <trkpt lat="46.67764" lon="5.805">
        <ele>600.40002441406</ele>
        <time>2025-06-05T07:47:00.000Z</time>
      </trkpt>
      <trkpt lat="46.67771" lon="5.80496">
        <ele>600.40002441406</ele>
        <time>2025-06-05T07:47:02.000Z</time>
      </trkpt>
      <trkpt lat="46.67778" lon="5.80496">
        <ele>600.20001220703</ele>
        <time>2025-06-05T07:47:04.000Z</time>
      </trkpt>
      <trkpt lat="46.6779" lon="5.80499">
        <ele>599.40002441406</ele>
        <time>2025-06-05T07:47:07.000Z</time>
      </trkpt>
      <trkpt lat="46.67794" lon="5.80499">
        <ele>599.20001220703</ele>
        <time>2025-06-05T07:47:08.000Z</time>
      </trkpt>
      <trkpt lat="46.67798" lon="5.80498">
        <ele>599</ele>
        <time>2025-06-05T07:47:09.000Z</time>
      </trkpt>
      <trkpt lat="46.6781" lon="5.80491">
        <ele>598.59997558594</ele>
        <time>2025-06-05T07:47:11.000Z</time>
      </trkpt>
      <trkpt lat="46.67821" lon="5.80486">
        <ele>598.20001220703</ele>
        <time>2025-06-05T07:47:13.000Z</time>
      </trkpt>
      <trkpt lat="46.67825" lon="5.80486">
        <ele>597.40002441406</ele>
        <time>2025-06-05T07:47:14.000Z</time>
      </trkpt>
      <trkpt lat="46.6783" lon="5.80486">
        <ele>597</ele>
        <time>2025-06-05T07:47:15.000Z</time>
      </trkpt>
      <trkpt lat="46.67833" lon="5.80489">
        <ele>596.20001220703</ele>
        <time>2025-06-05T07:47:16.000Z</time>
      </trkpt>
      <trkpt lat="46.67836" lon="5.80494">
        <ele>595.59997558594</ele>
        <time>2025-06-05T07:47:17.000Z</time>
      </trkpt>
      <trkpt lat="46.67839" lon="5.80505">
        <ele>595.20001220703</ele>
        <time>2025-06-05T07:47:19.000Z</time>
      </trkpt>
      <trkpt lat="46.67841" lon="5.80511">
        <ele>595</ele>
        <time>2025-06-05T07:47:20.000Z</time>
      </trkpt>
      <trkpt lat="46.67843" lon="5.80517">
        <ele>594.79998779297</ele>
        <time>2025-06-05T07:47:21.000Z</time>
      </trkpt>
      <trkpt lat="46.67844" lon="5.80538">
        <ele>594.59997558594</ele>
        <time>2025-06-05T07:47:24.000Z</time>
      </trkpt>
      <trkpt lat="46.67842" lon="5.80558">
        <ele>594.59997558594</ele>
        <time>2025-06-05T07:47:27.000Z</time>
      </trkpt>
      <trkpt lat="46.67841" lon="5.80571">
        <ele>594.59997558594</ele>
        <time>2025-06-05T07:47:29.000Z</time>
      </trkpt>
      <trkpt lat="46.67841" lon="5.80577">
        <ele>594.59997558594</ele>
        <time>2025-06-05T07:47:30.000Z</time>
      </trkpt>
      <trkpt lat="46.67839" lon="5.80606">
        <ele>595.20001220703</ele>
        <time>2025-06-05T07:47:35.000Z</time>
      </trkpt>
      <trkpt lat="46.67838" lon="5.80613">
        <ele>595.59997558594</ele>
        <time>2025-06-05T07:47:36.000Z</time>
      </trkpt>
      <trkpt lat="46.67837" lon="5.80624">
        <ele>596</ele>
        <time>2025-06-05T07:47:38.000Z</time>
      </trkpt>
      <trkpt lat="46.67835" lon="5.80637">
        <ele>596</ele>
        <time>2025-06-05T07:47:40.000Z</time>
      </trkpt>
      <trkpt lat="46.67834" lon="5.80645">
        <ele>596</ele>
        <time>2025-06-05T07:47:41.000Z</time>
      </trkpt>
      <trkpt lat="46.67834" lon="5.80659">
        <ele>596</ele>
        <time>2025-06-05T07:47:43.000Z</time>
      </trkpt>
      <trkpt lat="46.67832" lon="5.80671">
        <ele>595.79998779297</ele>
        <time>2025-06-05T07:47:45.000Z</time>
      </trkpt>
      <trkpt lat="46.6783" lon="5.80696">
        <ele>595.59997558594</ele>
        <time>2025-06-05T07:47:49.000Z</time>
      </trkpt>
      <trkpt lat="46.67829" lon="5.80709">
        <ele>595.59997558594</ele>
        <time>2025-06-05T07:47:51.000Z</time>
      </trkpt>
      <trkpt lat="46.67829" lon="5.80729">
        <ele>595.79998779297</ele>
        <time>2025-06-05T07:47:54.000Z</time>
      </trkpt>
      <trkpt lat="46.67828" lon="5.80736">
        <ele>595.79998779297</ele>
        <time>2025-06-05T07:47:55.000Z</time>
      </trkpt>
      <trkpt lat="46.67828" lon="5.80749">
        <ele>595.79998779297</ele>
        <time>2025-06-05T07:47:57.000Z</time>
      </trkpt>
      <trkpt lat="46.67828" lon="5.80761">
        <ele>595.59997558594</ele>
        <time>2025-06-05T07:47:59.000Z</time>
      </trkpt>
      <trkpt lat="46.67828" lon="5.80773">
        <ele>595.40002441406</ele>
        <time>2025-06-05T07:48:01.000Z</time>
      </trkpt>
      <trkpt lat="46.67832" lon="5.80793">
        <ele>595</ele>
        <time>2025-06-05T07:48:04.000Z</time>
      </trkpt>
      <trkpt lat="46.67832" lon="5.808">
        <ele>595</ele>
        <time>2025-06-05T07:48:05.000Z</time>
      </trkpt>
      <trkpt lat="46.67834" lon="5.80808">
        <ele>594.59997558594</ele>
        <time>2025-06-05T07:48:06.000Z</time>
      </trkpt>
      <trkpt lat="46.67835" lon="5.80814">
        <ele>594.40002441406</ele>
        <time>2025-06-05T07:48:07.000Z</time>
      </trkpt>
      <trkpt lat="46.67836" lon="5.8082">
        <ele>593.79998779297</ele>
        <time>2025-06-05T07:48:08.000Z</time>
      </trkpt>
      <trkpt lat="46.67839" lon="5.80835">
        <ele>593.20001220703</ele>
        <time>2025-06-05T07:48:10.000Z</time>
      </trkpt>
      <trkpt lat="46.67839" lon="5.80842">
        <ele>593.20001220703</ele>
        <time>2025-06-05T07:48:11.000Z</time>
      </trkpt>
      <trkpt lat="46.6784" lon="5.80849">
        <ele>592.40002441406</ele>
        <time>2025-06-05T07:48:12.000Z</time>
      </trkpt>
      <trkpt lat="46.6784" lon="5.80865">
        <ele>591.79998779297</ele>
        <time>2025-06-05T07:48:14.000Z</time>
      </trkpt>
      <trkpt lat="46.67838" lon="5.80875">
        <ele>591.20001220703</ele>
        <time>2025-06-05T07:48:15.000Z</time>
      </trkpt>
      <trkpt lat="46.67839" lon="5.80884">
        <ele>590.79998779297</ele>
        <time>2025-06-05T07:48:16.000Z</time>
      </trkpt>
      <trkpt lat="46.67842" lon="5.80894">
        <ele>590.20001220703</ele>
        <time>2025-06-05T07:48:17.000Z</time>
      </trkpt>
      <trkpt lat="46.67844" lon="5.80903">
        <ele>589.40002441406</ele>
        <time>2025-06-05T07:48:18.000Z</time>
      </trkpt>
      <trkpt lat="46.67847" lon="5.80912">
        <ele>588.40002441406</ele>
        <time>2025-06-05T07:48:19.000Z</time>
      </trkpt>
      <trkpt lat="46.6785" lon="5.80921">
        <ele>588</ele>
        <time>2025-06-05T07:48:20.000Z</time>
      </trkpt>
      <trkpt lat="46.67854" lon="5.80928">
        <ele>587.20001220703</ele>
        <time>2025-06-05T07:48:21.000Z</time>
      </trkpt>
      <trkpt lat="46.67857" lon="5.80932">
        <ele>587</ele>
        <time>2025-06-05T07:48:22.000Z</time>
      </trkpt>
      <trkpt lat="46.67861" lon="5.80935">
        <ele>586.20001220703</ele>
        <time>2025-06-05T07:48:23.000Z</time>
      </trkpt>
      <trkpt lat="46.67865" lon="5.80935">
        <ele>585.40002441406</ele>
        <time>2025-06-05T07:48:24.000Z</time>
      </trkpt>
      <trkpt lat="46.67869" lon="5.80933">
        <ele>585</ele>
        <time>2025-06-05T07:48:25.000Z</time>
      </trkpt>
      <trkpt lat="46.67877" lon="5.80927">
        <ele>584.20001220703</ele>
        <time>2025-06-05T07:48:27.000Z</time>
      </trkpt>
      <trkpt lat="46.67881" lon="5.80923">
        <ele>583.79998779297</ele>
        <time>2025-06-05T07:48:28.000Z</time>
      </trkpt>
      <trkpt lat="46.67884" lon="5.80916">
        <ele>583.79998779297</ele>
        <time>2025-06-05T07:48:29.000Z</time>
      </trkpt>
      <trkpt lat="46.67887" lon="5.80909">
        <ele>583.40002441406</ele>
        <time>2025-06-05T07:48:30.000Z</time>
      </trkpt>
      <trkpt lat="46.67898" lon="5.80891">
        <ele>583.40002441406</ele>
        <time>2025-06-05T07:48:33.000Z</time>
      </trkpt>
      <trkpt lat="46.67903" lon="5.80881">
        <ele>583.59997558594</ele>
        <time>2025-06-05T07:48:35.000Z</time>
      </trkpt>
      <trkpt lat="46.67918" lon="5.80878">
        <ele>583.79998779297</ele>
        <time>2025-06-05T07:48:39.000Z</time>
      </trkpt>
      <trkpt lat="46.67931" lon="5.80881">
        <ele>585.20001220703</ele>
        <time>2025-06-05T07:48:44.000Z</time>
      </trkpt>
      <trkpt lat="46.67938" lon="5.80888">
        <ele>586.40002441406</ele>
        <time>2025-06-05T07:48:47.000Z</time>
      </trkpt>
      <trkpt lat="46.67942" lon="5.80898">
        <ele>586.79998779297</ele>
        <time>2025-06-05T07:48:49.000Z</time>
      </trkpt>
      <trkpt lat="46.67944" lon="5.80903">
        <ele>587.40002441406</ele>
        <time>2025-06-05T07:48:50.000Z</time>
      </trkpt>
      <trkpt lat="46.67946" lon="5.80908">
        <ele>587.59997558594</ele>
        <time>2025-06-05T07:48:51.000Z</time>
      </trkpt>
      <trkpt lat="46.67956" lon="5.80921">
        <ele>588.20001220703</ele>
        <time>2025-06-05T07:48:54.000Z</time>
      </trkpt>
      <trkpt lat="46.67968" lon="5.80943">
        <ele>588.20001220703</ele>
        <time>2025-06-05T07:48:58.000Z</time>
      </trkpt>
      <trkpt lat="46.67975" lon="5.80952">
        <ele>588.20001220703</ele>
        <time>2025-06-05T07:49:00.000Z</time>
      </trkpt>
      <trkpt lat="46.67979" lon="5.80956">
        <ele>588.20001220703</ele>
        <time>2025-06-05T07:49:01.000Z</time>
      </trkpt>
      <trkpt lat="46.67992" lon="5.80981">
        <ele>588.20001220703</ele>
        <time>2025-06-05T07:49:07.000Z</time>
      </trkpt>
      <trkpt lat="46.67998" lon="5.81">
        <ele>588.20001220703</ele>
        <time>2025-06-05T07:49:11.000Z</time>
      </trkpt>
      <trkpt lat="46.68014" lon="5.81025">
        <ele>588.59997558594</ele>
        <time>2025-06-05T07:49:16.000Z</time>
      </trkpt>
      <trkpt lat="46.6802" lon="5.81031">
        <ele>589.40002441406</ele>
        <time>2025-06-05T07:49:19.000Z</time>
      </trkpt>
      <trkpt lat="46.68026" lon="5.81035">
        <ele>589.59997558594</ele>
        <time>2025-06-05T07:49:21.000Z</time>
      </trkpt>
      <trkpt lat="46.6804" lon="5.81041">
        <ele>590.40002441406</ele>
        <time>2025-06-05T07:49:25.000Z</time>
      </trkpt>
      <trkpt lat="46.68052" lon="5.81045">
        <ele>591.59997558594</ele>
        <time>2025-06-05T07:49:28.000Z</time>
      </trkpt>
      <trkpt lat="46.68056" lon="5.81044">
        <ele>592.59997558594</ele>
        <time>2025-06-05T07:49:30.000Z</time>
      </trkpt>
      <trkpt lat="46.68069" lon="5.81045">
        <ele>593.79998779297</ele>
        <time>2025-06-05T07:49:33.000Z</time>
      </trkpt>
      <trkpt lat="46.68073" lon="5.81044">
        <ele>594.20001220703</ele>
        <time>2025-06-05T07:49:34.000Z</time>
      </trkpt>
      <trkpt lat="46.68075" lon="5.81044">
        <ele>594.59997558594</ele>
        <time>2025-06-05T07:49:35.000Z</time>
      </trkpt>
      <trkpt lat="46.68078" lon="5.81046">
        <ele>594.79998779297</ele>
        <time>2025-06-05T07:49:36.000Z</time>
      </trkpt>
      <trkpt lat="46.68086" lon="5.81051">
        <ele>596.40002441406</ele>
        <time>2025-06-05T07:49:39.000Z</time>
      </trkpt>
      <trkpt lat="46.68095" lon="5.81056">
        <ele>597.40002441406</ele>
        <time>2025-06-05T07:49:42.000Z</time>
      </trkpt>
      <trkpt lat="46.68106" lon="5.81061">
        <ele>598.40002441406</ele>
        <time>2025-06-05T07:49:45.000Z</time>
      </trkpt>
      <trkpt lat="46.6811" lon="5.81064">
        <ele>599</ele>
        <time>2025-06-05T07:49:46.000Z</time>
      </trkpt>
      <trkpt lat="46.68116" lon="5.81066">
        <ele>599.79998779297</ele>
        <time>2025-06-05T07:49:48.000Z</time>
      </trkpt>
      <trkpt lat="46.68121" lon="5.81067">
        <ele>600</ele>
        <time>2025-06-05T07:49:50.000Z</time>
      </trkpt>
      <trkpt lat="46.68137" lon="5.81073">
        <ele>601.40002441406</ele>
        <time>2025-06-05T07:49:55.000Z</time>
      </trkpt>
      <trkpt lat="46.6814" lon="5.81074">
        <ele>601.40002441406</ele>
        <time>2025-06-05T07:49:56.000Z</time>
      </trkpt>
      <trkpt lat="46.68157" lon="5.81078">
        <ele>602.59997558594</ele>
        <time>2025-06-05T07:50:02.000Z</time>
      </trkpt>
      <trkpt lat="46.68177" lon="5.81084">
        <ele>603</ele>
        <time>2025-06-05T07:50:08.000Z</time>
      </trkpt>
      <trkpt lat="46.682" lon="5.81095">
        <ele>602.79998779297</ele>
        <time>2025-06-05T07:50:15.000Z</time>
      </trkpt>
      <trkpt lat="46.68219" lon="5.81117">
        <ele>602.59997558594</ele>
        <time>2025-06-05T07:50:21.000Z</time>
      </trkpt>
      <trkpt lat="46.68239" lon="5.81143">
        <ele>602.59997558594</ele>
        <time>2025-06-05T07:50:27.000Z</time>
      </trkpt>
      <trkpt lat="46.68253" lon="5.81162">
        <ele>602.20001220703</ele>
        <time>2025-06-05T07:50:32.000Z</time>
      </trkpt>
      <trkpt lat="46.68257" lon="5.8117">
        <ele>601.79998779297</ele>
        <time>2025-06-05T07:50:34.000Z</time>
      </trkpt>
      <trkpt lat="46.68259" lon="5.81173">
        <ele>601.79998779297</ele>
        <time>2025-06-05T07:50:35.000Z</time>
      </trkpt>
      <trkpt lat="46.68267" lon="5.81187">
        <ele>601.59997558594</ele>
        <time>2025-06-05T07:50:38.000Z</time>
      </trkpt>
      <trkpt lat="46.68273" lon="5.81195">
        <ele>601.40002441406</ele>
        <time>2025-06-05T07:50:40.000Z</time>
      </trkpt>
      <trkpt lat="46.6828" lon="5.81204">
        <ele>601</ele>
        <time>2025-06-05T07:50:42.000Z</time>
      </trkpt>
      <trkpt lat="46.68284" lon="5.81216">
        <ele>600.59997558594</ele>
        <time>2025-06-05T07:50:44.000Z</time>
      </trkpt>
      <trkpt lat="46.68285" lon="5.81222">
        <ele>599.79998779297</ele>
        <time>2025-06-05T07:50:45.000Z</time>
      </trkpt>
      <trkpt lat="46.68288" lon="5.8123">
        <ele>599</ele>
        <time>2025-06-05T07:50:47.000Z</time>
      </trkpt>
      <trkpt lat="46.68289" lon="5.81233">
        <ele>598.59997558594</ele>
        <time>2025-06-05T07:50:48.000Z</time>
      </trkpt>
      <trkpt lat="46.68291" lon="5.81237">
        <ele>598</ele>
        <time>2025-06-05T07:50:49.000Z</time>
      </trkpt>
      <trkpt lat="46.68297" lon="5.81245">
        <ele>597</ele>
        <time>2025-06-05T07:50:51.000Z</time>
      </trkpt>
      <trkpt lat="46.68307" lon="5.81248">
        <ele>595.20001220703</ele>
        <time>2025-06-05T07:50:53.000Z</time>
      </trkpt>
      <trkpt lat="46.6832" lon="5.8125">
        <ele>594.40002441406</ele>
        <time>2025-06-05T07:50:55.000Z</time>
      </trkpt>
      <trkpt lat="46.68326" lon="5.81248">
        <ele>594</ele>
        <time>2025-06-05T07:50:56.000Z</time>
      </trkpt>
      <trkpt lat="46.68331" lon="5.81245">
        <ele>593.79998779297</ele>
        <time>2025-06-05T07:50:57.000Z</time>
      </trkpt>
      <trkpt lat="46.68342" lon="5.81236">
        <ele>593.40002441406</ele>
        <time>2025-06-05T07:50:59.000Z</time>
      </trkpt>
      <trkpt lat="46.68347" lon="5.81225">
        <ele>592.79998779297</ele>
        <time>2025-06-05T07:51:01.000Z</time>
      </trkpt>
      <trkpt lat="46.68348" lon="5.8122">
        <ele>592.59997558594</ele>
        <time>2025-06-05T07:51:02.000Z</time>
      </trkpt>
      <trkpt lat="46.68352" lon="5.81207">
        <ele>592.20001220703</ele>
        <time>2025-06-05T07:51:05.000Z</time>
      </trkpt>
      <trkpt lat="46.68355" lon="5.8118">
        <ele>592</ele>
        <time>2025-06-05T07:51:10.000Z</time>
      </trkpt>
      <trkpt lat="46.68361" lon="5.81155">
        <ele>593.59997558594</ele>
        <time>2025-06-05T07:51:15.000Z</time>
      </trkpt>
      <trkpt lat="46.68362" lon="5.8115">
        <ele>594</ele>
        <time>2025-06-05T07:51:16.000Z</time>
      </trkpt>
      <trkpt lat="46.6837" lon="5.81115">
        <ele>594.79998779297</ele>
        <time>2025-06-05T07:51:23.000Z</time>
      </trkpt>
      <trkpt lat="46.68375" lon="5.81092">
        <ele>595</ele>
        <time>2025-06-05T07:51:27.000Z</time>
      </trkpt>
      <trkpt lat="46.68377" lon="5.81087">
        <ele>595</ele>
        <time>2025-06-05T07:51:28.000Z</time>
      </trkpt>
      <trkpt lat="46.68386" lon="5.81055">
        <ele>595.59997558594</ele>
        <time>2025-06-05T07:51:34.000Z</time>
      </trkpt>
      <trkpt lat="46.68393" lon="5.81029">
        <ele>596</ele>
        <time>2025-06-05T07:51:39.000Z</time>
      </trkpt>
      <trkpt lat="46.68395" lon="5.81023">
        <ele>596</ele>
        <time>2025-06-05T07:51:40.000Z</time>
      </trkpt>
      <trkpt lat="46.68404" lon="5.80991">
        <ele>596.79998779297</ele>
        <time>2025-06-05T07:51:46.000Z</time>
      </trkpt>
      <trkpt lat="46.68408" lon="5.80976">
        <ele>597.20001220703</ele>
        <time>2025-06-05T07:51:49.000Z</time>
      </trkpt>
      <trkpt lat="46.68411" lon="5.80956">
        <ele>598.20001220703</ele>
        <time>2025-06-05T07:51:53.000Z</time>
      </trkpt>
      <trkpt lat="46.68412" lon="5.80951">
        <ele>598.40002441406</ele>
        <time>2025-06-05T07:51:54.000Z</time>
      </trkpt>
      <trkpt lat="46.6842" lon="5.80924">
        <ele>598.79998779297</ele>
        <time>2025-06-05T07:51:59.000Z</time>
      </trkpt>
      <trkpt lat="46.6843" lon="5.80907">
        <ele>599.59997558594</ele>
        <time>2025-06-05T07:52:03.000Z</time>
      </trkpt>
      <trkpt lat="46.68445" lon="5.80874">
        <ele>600.40002441406</ele>
        <time>2025-06-05T07:52:10.000Z</time>
      </trkpt>
      <trkpt lat="46.68447" lon="5.8087">
        <ele>600.59997558594</ele>
        <time>2025-06-05T07:52:11.000Z</time>
      </trkpt>
      <trkpt lat="46.68456" lon="5.8085">
        <ele>600.79998779297</ele>
        <time>2025-06-05T07:52:17.000Z</time>
      </trkpt>
      <trkpt lat="46.68462" lon="5.80837">
        <ele>601</ele>
        <time>2025-06-05T07:52:21.000Z</time>
      </trkpt>
      <trkpt lat="46.68475" lon="5.808">
        <ele>600.79998779297</ele>
        <time>2025-06-05T07:52:29.000Z</time>
      </trkpt>
      <trkpt lat="46.68484" lon="5.80769">
        <ele>600.59997558594</ele>
        <time>2025-06-05T07:52:35.000Z</time>
      </trkpt>
      <trkpt lat="46.68486" lon="5.80761">
        <ele>600.59997558594</ele>
        <time>2025-06-05T07:52:37.000Z</time>
      </trkpt>
      <trkpt lat="46.68485" lon="5.80748">
        <ele>600.20001220703</ele>
        <time>2025-06-05T07:52:39.000Z</time>
      </trkpt>
      <trkpt lat="46.6848" lon="5.80725">
        <ele>599.59997558594</ele>
        <time>2025-06-05T07:52:42.000Z</time>
      </trkpt>
      <trkpt lat="46.6848" lon="5.80715">
        <ele>599.40002441406</ele>
        <time>2025-06-05T07:52:43.000Z</time>
      </trkpt>
      <trkpt lat="46.68479" lon="5.80705">
        <ele>599.40002441406</ele>
        <time>2025-06-05T07:52:44.000Z</time>
      </trkpt>
      <trkpt lat="46.68479" lon="5.80695">
        <ele>599.20001220703</ele>
        <time>2025-06-05T07:52:45.000Z</time>
      </trkpt>
      <trkpt lat="46.68479" lon="5.80681">
        <ele>598.79998779297</ele>
        <time>2025-06-05T07:52:47.000Z</time>
      </trkpt>
      <trkpt lat="46.68484" lon="5.80666">
        <ele>597.79998779297</ele>
        <time>2025-06-05T07:52:50.000Z</time>
      </trkpt>
      <trkpt lat="46.68486" lon="5.80664">
        <ele>597.59997558594</ele>
        <time>2025-06-05T07:52:51.000Z</time>
      </trkpt>
      <trkpt lat="46.685" lon="5.80651">
        <ele>596.79998779297</ele>
        <time>2025-06-05T07:52:56.000Z</time>
      </trkpt>
      <trkpt lat="46.685" lon="5.80647">
        <ele>596.59997558594</ele>
        <time>2025-06-05T07:52:57.000Z</time>
      </trkpt>
      <trkpt lat="46.68495" lon="5.80632">
        <ele>596.59997558594</ele>
        <time>2025-06-05T07:53:00.000Z</time>
      </trkpt>
      <trkpt lat="46.68493" lon="5.80619">
        <ele>596.59997558594</ele>
        <time>2025-06-05T07:53:03.000Z</time>
      </trkpt>
      <trkpt lat="46.68495" lon="5.80612">
        <ele>596.59997558594</ele>
        <time>2025-06-05T07:53:05.000Z</time>
      </trkpt>
      <trkpt lat="46.68499" lon="5.80608">
        <ele>596.40002441406</ele>
        <time>2025-06-05T07:53:07.000Z</time>
      </trkpt>
      <trkpt lat="46.68504" lon="5.80609">
        <ele>596.40002441406</ele>
        <time>2025-06-05T07:53:09.000Z</time>
      </trkpt>
      <trkpt lat="46.68523" lon="5.80611">
        <ele>596.20001220703</ele>
        <time>2025-06-05T07:53:15.000Z</time>
      </trkpt>
      <trkpt lat="46.68541" lon="5.80619">
        <ele>597.59997558594</ele>
        <time>2025-06-05T07:53:21.000Z</time>
      </trkpt>
      <trkpt lat="46.68557" lon="5.80628">
        <ele>598.79998779297</ele>
        <time>2025-06-05T07:53:27.000Z</time>
      </trkpt>
      <trkpt lat="46.68569" lon="5.80634">
        <ele>599.79998779297</ele>
        <time>2025-06-05T07:53:30.000Z</time>
      </trkpt>
      <trkpt lat="46.68576" lon="5.80639">
        <ele>600.79998779297</ele>
        <time>2025-06-05T07:53:33.000Z</time>
      </trkpt>
      <trkpt lat="46.68578" lon="5.80642">
        <ele>601.20001220703</ele>
        <time>2025-06-05T07:53:34.000Z</time>
      </trkpt>
      <trkpt lat="46.68587" lon="5.80648">
        <ele>602.59997558594</ele>
        <time>2025-06-05T07:53:37.000Z</time>
      </trkpt>
      <trkpt lat="46.68597" lon="5.80654">
        <ele>603.79998779297</ele>
        <time>2025-06-05T07:53:40.000Z</time>
      </trkpt>
      <trkpt lat="46.686" lon="5.80656">
        <ele>604</ele>
        <time>2025-06-05T07:53:41.000Z</time>
      </trkpt>
      <trkpt lat="46.68608" lon="5.8066">
        <ele>604.79998779297</ele>
        <time>2025-06-05T07:53:44.000Z</time>
      </trkpt>
      <trkpt lat="46.68617" lon="5.80667">
        <ele>605.20001220703</ele>
        <time>2025-06-05T07:53:47.000Z</time>
      </trkpt>
      <trkpt lat="46.68623" lon="5.80671">
        <ele>605.79998779297</ele>
        <time>2025-06-05T07:53:49.000Z</time>
      </trkpt>
      <trkpt lat="46.68636" lon="5.80674">
        <ele>607</ele>
        <time>2025-06-05T07:53:53.000Z</time>
      </trkpt>
      <trkpt lat="46.68642" lon="5.80675">
        <ele>608.20001220703</ele>
        <time>2025-06-05T07:53:55.000Z</time>
      </trkpt>
      <trkpt lat="46.68656" lon="5.8068">
        <ele>609.20001220703</ele>
        <time>2025-06-05T07:53:59.000Z</time>
      </trkpt>
      <trkpt lat="46.68663" lon="5.80681">
        <ele>610</ele>
        <time>2025-06-05T07:54:02.000Z</time>
      </trkpt>
      <trkpt lat="46.68666" lon="5.8068">
        <ele>610.20001220703</ele>
        <time>2025-06-05T07:54:03.000Z</time>
      </trkpt>
      <trkpt lat="46.68676" lon="5.80685">
        <ele>611.59997558594</ele>
        <time>2025-06-05T07:54:06.000Z</time>
      </trkpt>
      <trkpt lat="46.68681" lon="5.80687">
        <ele>612.59997558594</ele>
        <time>2025-06-05T07:54:08.000Z</time>
      </trkpt>
      <trkpt lat="46.68683" lon="5.80688">
        <ele>612.79998779297</ele>
        <time>2025-06-05T07:54:09.000Z</time>
      </trkpt>
      <trkpt lat="46.68693" lon="5.80692">
        <ele>614</ele>
        <time>2025-06-05T07:54:13.000Z</time>
      </trkpt>
      <trkpt lat="46.68698" lon="5.80694">
        <ele>614.20001220703</ele>
        <time>2025-06-05T07:54:15.000Z</time>
      </trkpt>
      <trkpt lat="46.68709" lon="5.80698">
        <ele>615</ele>
        <time>2025-06-05T07:54:19.000Z</time>
      </trkpt>
      <trkpt lat="46.68716" lon="5.80701">
        <ele>615.59997558594</ele>
        <time>2025-06-05T07:54:22.000Z</time>
      </trkpt>
      <trkpt lat="46.68721" lon="5.80703">
        <ele>616</ele>
        <time>2025-06-05T07:54:24.000Z</time>
      </trkpt>
      <trkpt lat="46.6873" lon="5.80712">
        <ele>617</ele>
        <time>2025-06-05T07:54:28.000Z</time>
      </trkpt>
      <trkpt lat="46.68737" lon="5.80723">
        <ele>618.20001220703</ele>
        <time>2025-06-05T07:54:32.000Z</time>
      </trkpt>
      <trkpt lat="46.68739" lon="5.80729">
        <ele>618.59997558594</ele>
        <time>2025-06-05T07:54:34.000Z</time>
      </trkpt>
      <trkpt lat="46.68744" lon="5.80737">
        <ele>619.20001220703</ele>
        <time>2025-06-05T07:54:37.000Z</time>
      </trkpt>
      <trkpt lat="46.6875" lon="5.80746">
        <ele>619.59997558594</ele>
        <time>2025-06-05T07:54:40.000Z</time>
      </trkpt>
      <trkpt lat="46.68758" lon="5.80758">
        <ele>620.20001220703</ele>
        <time>2025-06-05T07:54:44.000Z</time>
      </trkpt>
      <trkpt lat="46.68764" lon="5.80766">
        <ele>620.59997558594</ele>
        <time>2025-06-05T07:54:47.000Z</time>
      </trkpt>
      <trkpt lat="46.68779" lon="5.80794">
        <ele>621.20001220703</ele>
        <time>2025-06-05T07:54:55.000Z</time>
      </trkpt>
      <trkpt lat="46.68789" lon="5.80809">
        <ele>621.59997558594</ele>
        <time>2025-06-05T07:55:01.000Z</time>
      </trkpt>
      <trkpt lat="46.68806" lon="5.80827">
        <ele>622.40002441406</ele>
        <time>2025-06-05T07:55:06.000Z</time>
      </trkpt>
      <trkpt lat="46.68808" lon="5.80829">
        <ele>622.40002441406</ele>
        <time>2025-06-05T07:55:07.000Z</time>
      </trkpt>
      <trkpt lat="46.68829" lon="5.80847">
        <ele>628.20001220703</ele>
        <time>2025-06-05T07:55:15.000Z</time>
      </trkpt>
      <trkpt lat="46.68845" lon="5.80862">
        <ele>624</ele>
        <time>2025-06-05T07:55:21.000Z</time>
      </trkpt>
      <trkpt lat="46.68848" lon="5.80865">
        <ele>624.20001220703</ele>
        <time>2025-06-05T07:55:22.000Z</time>
      </trkpt>
      <trkpt lat="46.68863" lon="5.80883">
        <ele>625.20001220703</ele>
        <time>2025-06-05T07:55:28.000Z</time>
      </trkpt>
      <trkpt lat="46.68865" lon="5.80885">
        <ele>625.40002441406</ele>
        <time>2025-06-05T07:55:29.000Z</time>
      </trkpt>
      <trkpt lat="46.68866" lon="5.80888">
        <ele>625.40002441406</ele>
        <time>2025-06-05T07:55:30.000Z</time>
      </trkpt>
      <trkpt lat="46.68875" lon="5.80896">
        <ele>625.59997558594</ele>
        <time>2025-06-05T07:55:33.000Z</time>
      </trkpt>
      <trkpt lat="46.68878" lon="5.809">
        <ele>625.59997558594</ele>
        <time>2025-06-05T07:55:34.000Z</time>
      </trkpt>
      <trkpt lat="46.68882" lon="5.80906">
        <ele>625.79998779297</ele>
        <time>2025-06-05T07:55:37.000Z</time>
      </trkpt>
      <trkpt lat="46.68898" lon="5.80922">
        <ele>626</ele>
        <time>2025-06-05T07:55:43.000Z</time>
      </trkpt>
      <trkpt lat="46.68921" lon="5.80947">
        <ele>625.40002441406</ele>
        <time>2025-06-05T07:55:50.000Z</time>
      </trkpt>
      <trkpt lat="46.68941" lon="5.80963">
        <ele>625</ele>
        <time>2025-06-05T07:55:56.000Z</time>
      </trkpt>
      <trkpt lat="46.68959" lon="5.80974">
        <ele>624.59997558594</ele>
        <time>2025-06-05T07:56:01.000Z</time>
      </trkpt>
      <trkpt lat="46.6898" lon="5.80985">
        <ele>624.59997558594</ele>
        <time>2025-06-05T07:56:08.000Z</time>
      </trkpt>
      <trkpt lat="46.69003" lon="5.81">
        <ele>624.20001220703</ele>
        <time>2025-06-05T07:56:14.000Z</time>
      </trkpt>
      <trkpt lat="46.69011" lon="5.81003">
        <ele>624</ele>
        <time>2025-06-05T07:56:16.000Z</time>
      </trkpt>
      <trkpt lat="46.6902" lon="5.81005">
        <ele>623.79998779297</ele>
        <time>2025-06-05T07:56:18.000Z</time>
      </trkpt>
      <trkpt lat="46.6903" lon="5.81005">
        <ele>623.40002441406</ele>
        <time>2025-06-05T07:56:20.000Z</time>
      </trkpt>
      <trkpt lat="46.6904" lon="5.81005">
        <ele>623</ele>
        <time>2025-06-05T07:56:22.000Z</time>
      </trkpt>
      <trkpt lat="46.6905" lon="5.81004">
        <ele>622.79998779297</ele>
        <time>2025-06-05T07:56:24.000Z</time>
      </trkpt>
      <trkpt lat="46.69063" lon="5.81001">
        <ele>622.79998779297</ele>
        <time>2025-06-05T07:56:27.000Z</time>
      </trkpt>
      <trkpt lat="46.69068" lon="5.80999">
        <ele>622.79998779297</ele>
        <time>2025-06-05T07:56:28.000Z</time>
      </trkpt>
      <trkpt lat="46.69087" lon="5.8099">
        <ele>622.79998779297</ele>
        <time>2025-06-05T07:56:32.000Z</time>
      </trkpt>
      <trkpt lat="46.69117" lon="5.80981">
        <ele>623</ele>
        <time>2025-06-05T07:56:39.000Z</time>
      </trkpt>
      <trkpt lat="46.69141" lon="5.80971">
        <ele>624.40002441406</ele>
        <time>2025-06-05T07:56:45.000Z</time>
      </trkpt>
      <trkpt lat="46.69145" lon="5.8097">
        <ele>624.40002441406</ele>
        <time>2025-06-05T07:56:46.000Z</time>
      </trkpt>
      <trkpt lat="46.69158" lon="5.80966">
        <ele>625.20001220703</ele>
        <time>2025-06-05T07:56:50.000Z</time>
      </trkpt>
      <trkpt lat="46.69164" lon="5.80964">
        <ele>626.20001220703</ele>
        <time>2025-06-05T07:56:52.000Z</time>
      </trkpt>
      <trkpt lat="46.69167" lon="5.80964">
        <ele>626.79998779297</ele>
        <time>2025-06-05T07:56:53.000Z</time>
      </trkpt>
      <trkpt lat="46.6918" lon="5.80965">
        <ele>627.40002441406</ele>
        <time>2025-06-05T07:56:57.000Z</time>
      </trkpt>
      <trkpt lat="46.69183" lon="5.80965">
        <ele>627.59997558594</ele>
        <time>2025-06-05T07:56:58.000Z</time>
      </trkpt>
      <trkpt lat="46.69201" lon="5.80958">
        <ele>628.59997558594</ele>
        <time>2025-06-05T07:57:03.000Z</time>
      </trkpt>
      <trkpt lat="46.69204" lon="5.80957">
        <ele>628.59997558594</ele>
        <time>2025-06-05T07:57:04.000Z</time>
      </trkpt>
      <trkpt lat="46.69208" lon="5.80956">
        <ele>628.79998779297</ele>
        <time>2025-06-05T07:57:05.000Z</time>
      </trkpt>
      <trkpt lat="46.69226" lon="5.80955">
        <ele>629.40002441406</ele>
        <time>2025-06-05T07:57:09.000Z</time>
      </trkpt>
      <trkpt lat="46.6923" lon="5.80955">
        <ele>629.40002441406</ele>
        <time>2025-06-05T07:57:10.000Z</time>
      </trkpt>
      <trkpt lat="46.69238" lon="5.80954">
        <ele>629.59997558594</ele>
        <time>2025-06-05T07:57:12.000Z</time>
      </trkpt>
      <trkpt lat="46.6925" lon="5.80955">
        <ele>629.59997558594</ele>
        <time>2025-06-05T07:57:15.000Z</time>
      </trkpt>
      <trkpt lat="46.69261" lon="5.80953">
        <ele>629.40002441406</ele>
        <time>2025-06-05T07:57:17.000Z</time>
      </trkpt>
      <trkpt lat="46.69276" lon="5.80954">
        <ele>629.20001220703</ele>
        <time>2025-06-05T07:57:20.000Z</time>
      </trkpt>
      <trkpt lat="46.69299" lon="5.80959">
        <ele>629.20001220703</ele>
        <time>2025-06-05T07:57:25.000Z</time>
      </trkpt>
      <trkpt lat="46.69303" lon="5.8096">
        <ele>629.20001220703</ele>
        <time>2025-06-05T07:57:26.000Z</time>
      </trkpt>
      <trkpt lat="46.69312" lon="5.80961">
        <ele>629.40002441406</ele>
        <time>2025-06-05T07:57:28.000Z</time>
      </trkpt>
      <trkpt lat="46.69326" lon="5.80964">
        <ele>629.79998779297</ele>
        <time>2025-06-05T07:57:31.000Z</time>
      </trkpt>
      <trkpt lat="46.69335" lon="5.80966">
        <ele>630</ele>
        <time>2025-06-05T07:57:33.000Z</time>
      </trkpt>
      <trkpt lat="46.69339" lon="5.80966">
        <ele>630.20001220703</ele>
        <time>2025-06-05T07:57:34.000Z</time>
      </trkpt>
      <trkpt lat="46.69343" lon="5.80967">
        <ele>630.40002441406</ele>
        <time>2025-06-05T07:57:35.000Z</time>
      </trkpt>
      <trkpt lat="46.69352" lon="5.80969">
        <ele>630.59997558594</ele>
        <time>2025-06-05T07:57:37.000Z</time>
      </trkpt>
      <trkpt lat="46.69361" lon="5.8097">
        <ele>630.59997558594</ele>
        <time>2025-06-05T07:57:39.000Z</time>
      </trkpt>
      <trkpt lat="46.6937" lon="5.80972">
        <ele>630.59997558594</ele>
        <time>2025-06-05T07:57:41.000Z</time>
      </trkpt>
      <trkpt lat="46.69379" lon="5.80971">
        <ele>630.59997558594</ele>
        <time>2025-06-05T07:57:43.000Z</time>
      </trkpt>
      <trkpt lat="46.69384" lon="5.80971">
        <ele>630.59997558594</ele>
        <time>2025-06-05T07:57:44.000Z</time>
      </trkpt>
      <trkpt lat="46.69399" lon="5.80972">
        <ele>630.59997558594</ele>
        <time>2025-06-05T07:57:47.000Z</time>
      </trkpt>
      <trkpt lat="46.69413" lon="5.80974">
        <ele>630.59997558594</ele>
        <time>2025-06-05T07:57:50.000Z</time>
      </trkpt>
      <trkpt lat="46.69434" lon="5.80984">
        <ele>630.40002441406</ele>
        <time>2025-06-05T07:57:55.000Z</time>
      </trkpt>
      <trkpt lat="46.69439" lon="5.80984">
        <ele>630.40002441406</ele>
        <time>2025-06-05T07:57:56.000Z</time>
      </trkpt>
      <trkpt lat="46.69444" lon="5.80987">
        <ele>630.20001220703</ele>
        <time>2025-06-05T07:57:57.000Z</time>
      </trkpt>
      <trkpt lat="46.69454" lon="5.80989">
        <ele>630.20001220703</ele>
        <time>2025-06-05T07:57:59.000Z</time>
      </trkpt>
      <trkpt lat="46.69463" lon="5.8099">
        <ele>630.20001220703</ele>
        <time>2025-06-05T07:58:01.000Z</time>
      </trkpt>
      <trkpt lat="46.69488" lon="5.81001">
        <ele>629.20001220703</ele>
        <time>2025-06-05T07:58:06.000Z</time>
      </trkpt>
      <trkpt lat="46.69504" lon="5.81004">
        <ele>628.59997558594</ele>
        <time>2025-06-05T07:58:09.000Z</time>
      </trkpt>
      <trkpt lat="46.69515" lon="5.81006">
        <ele>628.40002441406</ele>
        <time>2025-06-05T07:58:11.000Z</time>
      </trkpt>
      <trkpt lat="46.69525" lon="5.81009">
        <ele>628.40002441406</ele>
        <time>2025-06-05T07:58:13.000Z</time>
      </trkpt>
      <trkpt lat="46.6953" lon="5.81011">
        <ele>628.40002441406</ele>
        <time>2025-06-05T07:58:14.000Z</time>
      </trkpt>
      <trkpt lat="46.6955" lon="5.81022">
        <ele>628.20001220703</ele>
        <time>2025-06-05T07:58:18.000Z</time>
      </trkpt>
      <trkpt lat="46.69565" lon="5.81027">
        <ele>627.79998779297</ele>
        <time>2025-06-05T07:58:21.000Z</time>
      </trkpt>
      <trkpt lat="46.69589" lon="5.81038">
        <ele>627.59997558594</ele>
        <time>2025-06-05T07:58:26.000Z</time>
      </trkpt>
      <trkpt lat="46.69595" lon="5.8104">
        <ele>627.59997558594</ele>
        <time>2025-06-05T07:58:27.000Z</time>
      </trkpt>
      <trkpt lat="46.69614" lon="5.81045">
        <ele>627</ele>
        <time>2025-06-05T07:58:30.000Z</time>
      </trkpt>
      <trkpt lat="46.69629" lon="5.81053">
        <ele>626.59997558594</ele>
        <time>2025-06-05T07:58:33.000Z</time>
      </trkpt>
      <trkpt lat="46.69646" lon="5.81065">
        <ele>626</ele>
        <time>2025-06-05T07:58:36.000Z</time>
      </trkpt>
      <trkpt lat="46.69662" lon="5.81075">
        <ele>625.59997558594</ele>
        <time>2025-06-05T07:58:39.000Z</time>
      </trkpt>
      <trkpt lat="46.69693" lon="5.81094">
        <ele>625</ele>
        <time>2025-06-05T07:58:45.000Z</time>
      </trkpt>
      <trkpt lat="46.69698" lon="5.81097">
        <ele>624.79998779297</ele>
        <time>2025-06-05T07:58:46.000Z</time>
      </trkpt>
      <trkpt lat="46.69707" lon="5.81106">
        <ele>624.59997558594</ele>
        <time>2025-06-05T07:58:48.000Z</time>
      </trkpt>
      <trkpt lat="46.69714" lon="5.81116">
        <ele>624.79998779297</ele>
        <time>2025-06-05T07:58:50.000Z</time>
      </trkpt>
      <trkpt lat="46.69754" lon="5.8116">
        <ele>624.20001220703</ele>
        <time>2025-06-05T07:58:59.000Z</time>
      </trkpt>
      <trkpt lat="46.69789" lon="5.81191">
        <ele>625</ele>
        <time>2025-06-05T07:59:07.000Z</time>
      </trkpt>
      <trkpt lat="46.69802" lon="5.81202">
        <ele>626</ele>
        <time>2025-06-05T07:59:10.000Z</time>
      </trkpt>
      <trkpt lat="46.6982" lon="5.81213">
        <ele>626.59997558594</ele>
        <time>2025-06-05T07:59:14.000Z</time>
      </trkpt>
      <trkpt lat="46.69836" lon="5.81223">
        <ele>627</ele>
        <time>2025-06-05T07:59:18.000Z</time>
      </trkpt>
      <trkpt lat="46.69844" lon="5.81228">
        <ele>627.20001220703</ele>
        <time>2025-06-05T07:59:20.000Z</time>
      </trkpt>
      <trkpt lat="46.69848" lon="5.81231">
        <ele>627.20001220703</ele>
        <time>2025-06-05T07:59:21.000Z</time>
      </trkpt>
      <trkpt lat="46.69861" lon="5.81241">
        <ele>628.20001220703</ele>
        <time>2025-06-05T07:59:24.000Z</time>
      </trkpt>
      <trkpt lat="46.69869" lon="5.81247">
        <ele>628.40002441406</ele>
        <time>2025-06-05T07:59:26.000Z</time>
      </trkpt>
      <trkpt lat="46.69895" lon="5.81264">
        <ele>628.79998779297</ele>
        <time>2025-06-05T07:59:32.000Z</time>
      </trkpt>
      <trkpt lat="46.699" lon="5.81268">
        <ele>629</ele>
        <time>2025-06-05T07:59:33.000Z</time>
      </trkpt>
      <trkpt lat="46.69909" lon="5.81274">
        <ele>629.20001220703</ele>
        <time>2025-06-05T07:59:35.000Z</time>
      </trkpt>
      <trkpt lat="46.69913" lon="5.81277">
        <ele>629.20001220703</ele>
        <time>2025-06-05T07:59:36.000Z</time>
      </trkpt>
      <trkpt lat="46.69924" lon="5.81283">
        <ele>629.40002441406</ele>
        <time>2025-06-05T07:59:39.000Z</time>
      </trkpt>
      <trkpt lat="46.69929" lon="5.81285">
        <ele>629.59997558594</ele>
        <time>2025-06-05T07:59:40.000Z</time>
      </trkpt>
      <trkpt lat="46.69948" lon="5.81296">
        <ele>630.20001220703</ele>
        <time>2025-06-05T07:59:44.000Z</time>
      </trkpt>
      <trkpt lat="46.69953" lon="5.81301">
        <ele>630.20001220703</ele>
        <time>2025-06-05T07:59:45.000Z</time>
      </trkpt>
      <trkpt lat="46.69957" lon="5.81304">
        <ele>630.40002441406</ele>
        <time>2025-06-05T07:59:46.000Z</time>
      </trkpt>
      <trkpt lat="46.69966" lon="5.81309">
        <ele>630.79998779297</ele>
        <time>2025-06-05T07:59:48.000Z</time>
      </trkpt>
      <trkpt lat="46.69971" lon="5.81312">
        <ele>631.20001220703</ele>
        <time>2025-06-05T07:59:49.000Z</time>
      </trkpt>
      <trkpt lat="46.69976" lon="5.81315">
        <ele>631.40002441406</ele>
        <time>2025-06-05T07:59:50.000Z</time>
      </trkpt>
      <trkpt lat="46.69984" lon="5.81324">
        <ele>632</ele>
        <time>2025-06-05T07:59:52.000Z</time>
      </trkpt>
      <trkpt lat="46.69995" lon="5.8134">
        <ele>632.20001220703</ele>
        <time>2025-06-05T07:59:55.000Z</time>
      </trkpt>
      <trkpt lat="46.7" lon="5.81355">
        <ele>632.20001220703</ele>
        <time>2025-06-05T07:59:57.000Z</time>
      </trkpt>
      <trkpt lat="46.70001" lon="5.81361">
        <ele>632.40002441406</ele>
        <time>2025-06-05T07:59:58.000Z</time>
      </trkpt>
      <trkpt lat="46.70005" lon="5.81381">
        <ele>632.59997558594</ele>
        <time>2025-06-05T08:00:01.000Z</time>
      </trkpt>
      <trkpt lat="46.70008" lon="5.81392">
        <ele>632.79998779297</ele>
        <time>2025-06-05T08:00:03.000Z</time>
      </trkpt>
      <trkpt lat="46.70008" lon="5.81419">
        <ele>633.40002441406</ele>
        <time>2025-06-05T08:00:07.000Z</time>
      </trkpt>
      <trkpt lat="46.70012" lon="5.81432">
        <ele>633.79998779297</ele>
        <time>2025-06-05T08:00:09.000Z</time>
      </trkpt>
      <trkpt lat="46.70013" lon="5.81443">
        <ele>634.20001220703</ele>
        <time>2025-06-05T08:00:11.000Z</time>
      </trkpt>
      <trkpt lat="46.70014" lon="5.81457">
        <ele>634.59997558594</ele>
        <time>2025-06-05T08:00:13.000Z</time>
      </trkpt>
      <trkpt lat="46.70013" lon="5.81464">
        <ele>634.79998779297</ele>
        <time>2025-06-05T08:00:14.000Z</time>
      </trkpt>
      <trkpt lat="46.7001" lon="5.81483">
        <ele>635</ele>
        <time>2025-06-05T08:00:17.000Z</time>
      </trkpt>
      <trkpt lat="46.70002" lon="5.81502">
        <ele>635</ele>
        <time>2025-06-05T08:00:20.000Z</time>
      </trkpt>
      <trkpt lat="46.69997" lon="5.81514">
        <ele>635.20001220703</ele>
        <time>2025-06-05T08:00:22.000Z</time>
      </trkpt>
      <trkpt lat="46.69994" lon="5.81534">
        <ele>635.40002441406</ele>
        <time>2025-06-05T08:00:25.000Z</time>
      </trkpt>
      <trkpt lat="46.69992" lon="5.81547">
        <ele>635.59997558594</ele>
        <time>2025-06-05T08:00:27.000Z</time>
      </trkpt>
      <trkpt lat="46.69989" lon="5.8157">
        <ele>635.79998779297</ele>
        <time>2025-06-05T08:00:31.000Z</time>
      </trkpt>
      <trkpt lat="46.69989" lon="5.81575">
        <ele>636</ele>
        <time>2025-06-05T08:00:32.000Z</time>
      </trkpt>
      <trkpt lat="46.69988" lon="5.81581">
        <ele>636</ele>
        <time>2025-06-05T08:00:33.000Z</time>
      </trkpt>
      <trkpt lat="46.69987" lon="5.81613">
        <ele>637</ele>
        <time>2025-06-05T08:00:38.000Z</time>
      </trkpt>
      <trkpt lat="46.69989" lon="5.8162">
        <ele>637.40002441406</ele>
        <time>2025-06-05T08:00:39.000Z</time>
      </trkpt>
      <trkpt lat="46.69988" lon="5.81635">
        <ele>638</ele>
        <time>2025-06-05T08:00:41.000Z</time>
      </trkpt>
      <trkpt lat="46.69987" lon="5.81641">
        <ele>638.20001220703</ele>
        <time>2025-06-05T08:00:42.000Z</time>
      </trkpt>
      <trkpt lat="46.69987" lon="5.81653">
        <ele>638.20001220703</ele>
        <time>2025-06-05T08:00:44.000Z</time>
      </trkpt>
      <trkpt lat="46.6999" lon="5.81675">
        <ele>638.79998779297</ele>
        <time>2025-06-05T08:00:47.000Z</time>
      </trkpt>
      <trkpt lat="46.69992" lon="5.81687">
        <ele>639</ele>
        <time>2025-06-05T08:00:49.000Z</time>
      </trkpt>
      <trkpt lat="46.69996" lon="5.81707">
        <ele>639.79998779297</ele>
        <time>2025-06-05T08:00:52.000Z</time>
      </trkpt>
      <trkpt lat="46.70003" lon="5.81733">
        <ele>640</ele>
        <time>2025-06-05T08:00:56.000Z</time>
      </trkpt>
      <trkpt lat="46.70004" lon="5.81737">
        <ele>640</ele>
        <time>2025-06-05T08:00:57.000Z</time>
      </trkpt>
      <trkpt lat="46.70005" lon="5.81742">
        <ele>640</ele>
        <time>2025-06-05T08:00:58.000Z</time>
      </trkpt>
      <trkpt lat="46.70007" lon="5.81746">
        <ele>640</ele>
        <time>2025-06-05T08:00:59.000Z</time>
      </trkpt>
      <trkpt lat="46.70008" lon="5.81749">
        <ele>640.20001220703</ele>
        <time>2025-06-05T08:01:00.000Z</time>
      </trkpt>
      <trkpt lat="46.70011" lon="5.81752">
        <ele>640.59997558594</ele>
        <time>2025-06-05T08:01:01.000Z</time>
      </trkpt>
      <trkpt lat="46.70018" lon="5.8176">
        <ele>640.79998779297</ele>
        <time>2025-06-05T08:01:03.000Z</time>
      </trkpt>
      <trkpt lat="46.7002" lon="5.81765">
        <ele>640.79998779297</ele>
        <time>2025-06-05T08:01:04.000Z</time>
      </trkpt>
      <trkpt lat="46.70026" lon="5.81775">
        <ele>640.59997558594</ele>
        <time>2025-06-05T08:01:06.000Z</time>
      </trkpt>
      <trkpt lat="46.70032" lon="5.81793">
        <ele>640.59997558594</ele>
        <time>2025-06-05T08:01:09.000Z</time>
      </trkpt>
      <trkpt lat="46.70034" lon="5.81799">
        <ele>640.40002441406</ele>
        <time>2025-06-05T08:01:10.000Z</time>
      </trkpt>
      <trkpt lat="46.70036" lon="5.81804">
        <ele>640.40002441406</ele>
        <time>2025-06-05T08:01:11.000Z</time>
      </trkpt>
      <trkpt lat="46.7004" lon="5.81815">
        <ele>640.20001220703</ele>
        <time>2025-06-05T08:01:13.000Z</time>
      </trkpt>
      <trkpt lat="46.70041" lon="5.81821">
        <ele>640.20001220703</ele>
        <time>2025-06-05T08:01:14.000Z</time>
      </trkpt>
      <trkpt lat="46.70043" lon="5.81835">
        <ele>640</ele>
        <time>2025-06-05T08:01:16.000Z</time>
      </trkpt>
      <trkpt lat="46.70048" lon="5.81857">
        <ele>640</ele>
        <time>2025-06-05T08:01:19.000Z</time>
      </trkpt>
      <trkpt lat="46.70049" lon="5.81864">
        <ele>640</ele>
        <time>2025-06-05T08:01:20.000Z</time>
      </trkpt>
      <trkpt lat="46.70051" lon="5.81872">
        <ele>640</ele>
        <time>2025-06-05T08:01:21.000Z</time>
      </trkpt>
      <trkpt lat="46.70052" lon="5.81888">
        <ele>640</ele>
        <time>2025-06-05T08:01:23.000Z</time>
      </trkpt>
      <trkpt lat="46.70052" lon="5.81902">
        <ele>640</ele>
        <time>2025-06-05T08:01:25.000Z</time>
      </trkpt>
      <trkpt lat="46.70054" lon="5.81945">
        <ele>639.79998779297</ele>
        <time>2025-06-05T08:01:31.000Z</time>
      </trkpt>
      <trkpt lat="46.70056" lon="5.81952">
        <ele>639.79998779297</ele>
        <time>2025-06-05T08:01:32.000Z</time>
      </trkpt>
      <trkpt lat="46.70057" lon="5.81967">
        <ele>639.79998779297</ele>
        <time>2025-06-05T08:01:34.000Z</time>
      </trkpt>
      <trkpt lat="46.70057" lon="5.81978">
        <ele>639.79998779297</ele>
        <time>2025-06-05T08:01:36.000Z</time>
      </trkpt>
      <trkpt lat="46.70063" lon="5.82004">
        <ele>639.59997558594</ele>
        <time>2025-06-05T08:01:40.000Z</time>
      </trkpt>
      <trkpt lat="46.7007" lon="5.82029">
        <ele>639.79998779297</ele>
        <time>2025-06-05T08:01:44.000Z</time>
      </trkpt>
      <trkpt lat="46.70076" lon="5.82038">
        <ele>639.79998779297</ele>
        <time>2025-06-05T08:01:46.000Z</time>
      </trkpt>
      <trkpt lat="46.70079" lon="5.82043">
        <ele>639.79998779297</ele>
        <time>2025-06-05T08:01:47.000Z</time>
      </trkpt>
      <trkpt lat="46.70087" lon="5.82055">
        <ele>639.59997558594</ele>
        <time>2025-06-05T08:01:49.000Z</time>
      </trkpt>
      <trkpt lat="46.70094" lon="5.82065">
        <ele>639.59997558594</ele>
        <time>2025-06-05T08:01:51.000Z</time>
      </trkpt>
      <trkpt lat="46.70099" lon="5.82071">
        <ele>639.59997558594</ele>
        <time>2025-06-05T08:01:52.000Z</time>
      </trkpt>
      <trkpt lat="46.70106" lon="5.82081">
        <ele>639.59997558594</ele>
        <time>2025-06-05T08:01:54.000Z</time>
      </trkpt>
      <trkpt lat="46.70113" lon="5.82093">
        <ele>639.59997558594</ele>
        <time>2025-06-05T08:01:56.000Z</time>
      </trkpt>
      <trkpt lat="46.70116" lon="5.821">
        <ele>639.20001220703</ele>
        <time>2025-06-05T08:01:57.000Z</time>
      </trkpt>
      <trkpt lat="46.70127" lon="5.8212">
        <ele>639.20001220703</ele>
        <time>2025-06-05T08:02:01.000Z</time>
      </trkpt>
      <trkpt lat="46.7013" lon="5.82127">
        <ele>639.20001220703</ele>
        <time>2025-06-05T08:02:02.000Z</time>
      </trkpt>
      <trkpt lat="46.70134" lon="5.82138">
        <ele>639.20001220703</ele>
        <time>2025-06-05T08:02:04.000Z</time>
      </trkpt>
      <trkpt lat="46.70137" lon="5.82144">
        <ele>639.20001220703</ele>
        <time>2025-06-05T08:02:05.000Z</time>
      </trkpt>
      <trkpt lat="46.70153" lon="5.82175">
        <ele>639.20001220703</ele>
        <time>2025-06-05T08:02:11.000Z</time>
      </trkpt>
      <trkpt lat="46.70166" lon="5.82197">
        <ele>638.59997558594</ele>
        <time>2025-06-05T08:02:15.000Z</time>
      </trkpt>
      <trkpt lat="46.70183" lon="5.82223">
        <ele>637.59997558594</ele>
        <time>2025-06-05T08:02:20.000Z</time>
      </trkpt>
      <trkpt lat="46.70186" lon="5.82228">
        <ele>637.40002441406</ele>
        <time>2025-06-05T08:02:21.000Z</time>
      </trkpt>
      <trkpt lat="46.70191" lon="5.82238">
        <ele>637.20001220703</ele>
        <time>2025-06-05T08:02:23.000Z</time>
      </trkpt>
      <trkpt lat="46.70198" lon="5.82248">
        <ele>637.40002441406</ele>
        <time>2025-06-05T08:02:25.000Z</time>
      </trkpt>
      <trkpt lat="46.70214" lon="5.82278">
        <ele>637.40002441406</ele>
        <time>2025-06-05T08:02:30.000Z</time>
      </trkpt>
      <trkpt lat="46.70223" lon="5.82293">
        <ele>637</ele>
        <time>2025-06-05T08:02:33.000Z</time>
      </trkpt>
      <trkpt lat="46.70231" lon="5.82305">
        <ele>636.79998779297</ele>
        <time>2025-06-05T08:02:35.000Z</time>
      </trkpt>
      <trkpt lat="46.70235" lon="5.8231">
        <ele>636.59997558594</ele>
        <time>2025-06-05T08:02:36.000Z</time>
      </trkpt>
      <trkpt lat="46.70235" lon="5.8231">
        <ele>636.59997558594</ele>
        <time>2025-06-05T08:02:37.000Z</time>
      </trkpt>
      <trkpt lat="46.7024" lon="5.82321">
        <ele>636.59997558594</ele>
        <time>2025-06-05T08:02:38.000Z</time>
      </trkpt>
      <trkpt lat="46.70254" lon="5.82344">
        <ele>636.40002441406</ele>
        <time>2025-06-05T08:02:42.000Z</time>
      </trkpt>
      <trkpt lat="46.70258" lon="5.82351">
        <ele>636.40002441406</ele>
        <time>2025-06-05T08:02:43.000Z</time>
      </trkpt>
      <trkpt lat="46.70261" lon="5.82356">
        <ele>636.40002441406</ele>
        <time>2025-06-05T08:02:44.000Z</time>
      </trkpt>
      <trkpt lat="46.70268" lon="5.82372">
        <ele>636.40002441406</ele>
        <time>2025-06-05T08:02:47.000Z</time>
      </trkpt>
      <trkpt lat="46.70271" lon="5.82377">
        <ele>636.40002441406</ele>
        <time>2025-06-05T08:02:49.000Z</time>
      </trkpt>
      <trkpt lat="46.70286" lon="5.824">
        <ele>636.40002441406</ele>
        <time>2025-06-05T08:02:52.000Z</time>
      </trkpt>
      <trkpt lat="46.70289" lon="5.82406">
        <ele>636.40002441406</ele>
        <time>2025-06-05T08:02:53.000Z</time>
      </trkpt>
      <trkpt lat="46.70303" lon="5.8243">
        <ele>636.79998779297</ele>
        <time>2025-06-05T08:02:57.000Z</time>
      </trkpt>
      <trkpt lat="46.70311" lon="5.82441">
        <ele>636.79998779297</ele>
        <time>2025-06-05T08:02:59.000Z</time>
      </trkpt>
      <trkpt lat="46.70315" lon="5.82452">
        <ele>636.59997558594</ele>
        <time>2025-06-05T08:03:01.000Z</time>
      </trkpt>
      <trkpt lat="46.7034" lon="5.82496">
        <ele>636</ele>
        <time>2025-06-05T08:03:08.000Z</time>
      </trkpt>
      <trkpt lat="46.70355" lon="5.82519">
        <ele>635.79998779297</ele>
        <time>2025-06-05T08:03:12.000Z</time>
      </trkpt>
      <trkpt lat="46.70362" lon="5.8253">
        <ele>635.59997558594</ele>
        <time>2025-06-05T08:03:14.000Z</time>
      </trkpt>
      <trkpt lat="46.70372" lon="5.82541">
        <ele>635.59997558594</ele>
        <time>2025-06-05T08:03:16.000Z</time>
      </trkpt>
      <trkpt lat="46.7039" lon="5.82562">
        <ele>635.20001220703</ele>
        <time>2025-06-05T08:03:20.000Z</time>
      </trkpt>
      <trkpt lat="46.70404" lon="5.82576">
        <ele>634.59997558594</ele>
        <time>2025-06-05T08:03:23.000Z</time>
      </trkpt>
      <trkpt lat="46.70409" lon="5.82582">
        <ele>634.40002441406</ele>
        <time>2025-06-05T08:03:24.000Z</time>
      </trkpt>
      <trkpt lat="46.70422" lon="5.82599">
        <ele>633.79998779297</ele>
        <time>2025-06-05T08:03:27.000Z</time>
      </trkpt>
      <trkpt lat="46.70437" lon="5.82619">
        <ele>633.79998779297</ele>
        <time>2025-06-05T08:03:31.000Z</time>
      </trkpt>
      <trkpt lat="46.70449" lon="5.82635">
        <ele>634.20001220703</ele>
        <time>2025-06-05T08:03:34.000Z</time>
      </trkpt>
      <trkpt lat="46.7048" lon="5.8268">
        <ele>634.20001220703</ele>
        <time>2025-06-05T08:03:42.000Z</time>
      </trkpt>
      <trkpt lat="46.70506" lon="5.8272">
        <ele>635.40002441406</ele>
        <time>2025-06-05T08:03:50.000Z</time>
      </trkpt>
      <trkpt lat="46.70512" lon="5.82731">
        <ele>636</ele>
        <time>2025-06-05T08:03:52.000Z</time>
      </trkpt>
      <trkpt lat="46.70515" lon="5.82735">
        <ele>636.59997558594</ele>
        <time>2025-06-05T08:03:54.000Z</time>
      </trkpt>
      <trkpt lat="46.70532" lon="5.82756">
        <ele>637.59997558594</ele>
        <time>2025-06-05T08:03:59.000Z</time>
      </trkpt>
      <trkpt lat="46.70538" lon="5.82763">
        <ele>637.79998779297</ele>
        <time>2025-06-05T08:04:00.000Z</time>
      </trkpt>
      <trkpt lat="46.70545" lon="5.82772">
        <ele>638.79998779297</ele>
        <time>2025-06-05T08:04:02.000Z</time>
      </trkpt>
      <trkpt lat="46.70549" lon="5.82776">
        <ele>639.79998779297</ele>
        <time>2025-06-05T08:04:04.000Z</time>
      </trkpt>
      <trkpt lat="46.70556" lon="5.82782">
        <ele>640.20001220703</ele>
        <time>2025-06-05T08:04:05.000Z</time>
      </trkpt>
      <trkpt lat="46.70568" lon="5.82792">
        <ele>640.79998779297</ele>
        <time>2025-06-05T08:04:08.000Z</time>
      </trkpt>
      <trkpt lat="46.70575" lon="5.82798">
        <ele>641.20001220703</ele>
        <time>2025-06-05T08:04:10.000Z</time>
      </trkpt>
      <trkpt lat="46.7059" lon="5.82813">
        <ele>642.20001220703</ele>
        <time>2025-06-05T08:04:14.000Z</time>
      </trkpt>
      <trkpt lat="46.70592" lon="5.82816">
        <ele>642.20001220703</ele>
        <time>2025-06-05T08:04:15.000Z</time>
      </trkpt>
      <trkpt lat="46.70607" lon="5.82831">
        <ele>643.40002441406</ele>
        <time>2025-06-05T08:04:19.000Z</time>
      </trkpt>
      <trkpt lat="46.7062" lon="5.82847">
        <ele>644.20001220703</ele>
        <time>2025-06-05T08:04:23.000Z</time>
      </trkpt>
      <trkpt lat="46.70623" lon="5.82851">
        <ele>644.40002441406</ele>
        <time>2025-06-05T08:04:24.000Z</time>
      </trkpt>
      <trkpt lat="46.70637" lon="5.82871">
        <ele>645.59997558594</ele>
        <time>2025-06-05T08:04:29.000Z</time>
      </trkpt>
      <trkpt lat="46.7064" lon="5.82875">
        <ele>645.79998779297</ele>
        <time>2025-06-05T08:04:30.000Z</time>
      </trkpt>
      <trkpt lat="46.70657" lon="5.82897">
        <ele>646.59997558594</ele>
        <time>2025-06-05T08:04:36.000Z</time>
      </trkpt>
      <trkpt lat="46.70664" lon="5.82905">
        <ele>647.20001220703</ele>
        <time>2025-06-05T08:04:38.000Z</time>
      </trkpt>
      <trkpt lat="46.70676" lon="5.82917">
        <ele>647.79998779297</ele>
        <time>2025-06-05T08:04:42.000Z</time>
      </trkpt>
      <trkpt lat="46.70687" lon="5.8293">
        <ele>647.79998779297</ele>
        <time>2025-06-05T08:04:46.000Z</time>
      </trkpt>
      <trkpt lat="46.707" lon="5.82948">
        <ele>648.40002441406</ele>
        <time>2025-06-05T08:04:51.000Z</time>
      </trkpt>
      <trkpt lat="46.70714" lon="5.82957">
        <ele>648.79998779297</ele>
        <time>2025-06-05T08:04:55.000Z</time>
      </trkpt>
      <trkpt lat="46.70731" lon="5.82967">
        <ele>649.59997558594</ele>
        <time>2025-06-05T08:05:00.000Z</time>
      </trkpt>
      <trkpt lat="46.70735" lon="5.82969">
        <ele>649.79998779297</ele>
        <time>2025-06-05T08:05:01.000Z</time>
      </trkpt>
      <trkpt lat="46.70756" lon="5.82985">
        <ele>651</ele>
        <time>2025-06-05T08:05:08.000Z</time>
      </trkpt>
      <trkpt lat="46.70766" lon="5.82991">
        <ele>651.40002441406</ele>
        <time>2025-06-05T08:05:11.000Z</time>
      </trkpt>
      <trkpt lat="46.70779" lon="5.82998">
        <ele>651.40002441406</ele>
        <time>2025-06-05T08:05:14.000Z</time>
      </trkpt>
      <trkpt lat="46.70784" lon="5.83001">
        <ele>651.40002441406</ele>
        <time>2025-06-05T08:05:15.000Z</time>
      </trkpt>
      <trkpt lat="46.70798" lon="5.8301">
        <ele>651.59997558594</ele>
        <time>2025-06-05T08:05:18.000Z</time>
      </trkpt>
      <trkpt lat="46.70806" lon="5.83018">
        <ele>651.59997558594</ele>
        <time>2025-06-05T08:05:20.000Z</time>
      </trkpt>
      <trkpt lat="46.70838" lon="5.83046">
        <ele>651.40002441406</ele>
        <time>2025-06-05T08:05:28.000Z</time>
      </trkpt>
      <trkpt lat="46.70859" lon="5.8307">
        <ele>651.59997558594</ele>
        <time>2025-06-05T08:05:35.000Z</time>
      </trkpt>
      <trkpt lat="46.70875" lon="5.83093">
        <ele>652</ele>
        <time>2025-06-05T08:05:41.000Z</time>
      </trkpt>
      <trkpt lat="46.70877" lon="5.83098">
        <ele>652.20001220703</ele>
        <time>2025-06-05T08:05:42.000Z</time>
      </trkpt>
      <trkpt lat="46.70883" lon="5.83114">
        <ele>652.20001220703</ele>
        <time>2025-06-05T08:05:45.000Z</time>
      </trkpt>
      <trkpt lat="46.70883" lon="5.83122">
        <ele>652.20001220703</ele>
        <time>2025-06-05T08:05:46.000Z</time>
      </trkpt>
      <trkpt lat="46.70882" lon="5.83136">
        <ele>652</ele>
        <time>2025-06-05T08:05:48.000Z</time>
      </trkpt>
      <trkpt lat="46.70879" lon="5.83151">
        <ele>651.59997558594</ele>
        <time>2025-06-05T08:05:50.000Z</time>
      </trkpt>
      <trkpt lat="46.70877" lon="5.83158">
        <ele>651.20001220703</ele>
        <time>2025-06-05T08:05:51.000Z</time>
      </trkpt>
      <trkpt lat="46.70874" lon="5.83165">
        <ele>651</ele>
        <time>2025-06-05T08:05:52.000Z</time>
      </trkpt>
      <trkpt lat="46.70871" lon="5.83171">
        <ele>650.79998779297</ele>
        <time>2025-06-05T08:05:53.000Z</time>
      </trkpt>
      <trkpt lat="46.70863" lon="5.83188">
        <ele>650.59997558594</ele>
        <time>2025-06-05T08:05:56.000Z</time>
      </trkpt>
      <trkpt lat="46.70861" lon="5.83191">
        <ele>650.59997558594</ele>
        <time>2025-06-05T08:05:57.000Z</time>
      </trkpt>
      <trkpt lat="46.7085" lon="5.83212">
        <ele>650.40002441406</ele>
        <time>2025-06-05T08:06:02.000Z</time>
      </trkpt>
      <trkpt lat="46.70845" lon="5.83231">
        <ele>650.40002441406</ele>
        <time>2025-06-05T08:06:06.000Z</time>
      </trkpt>
      <trkpt lat="46.70832" lon="5.83275">
        <ele>650.79998779297</ele>
        <time>2025-06-05T08:06:14.000Z</time>
      </trkpt>
      <trkpt lat="46.7084" lon="5.83311">
        <ele>651.20001220703</ele>
        <time>2025-06-05T08:06:20.000Z</time>
      </trkpt>
      <trkpt lat="46.70856" lon="5.83357">
        <ele>651.59997558594</ele>
        <time>2025-06-05T08:06:29.000Z</time>
      </trkpt>
      <trkpt lat="46.70861" lon="5.83372">
        <ele>652.20001220703</ele>
        <time>2025-06-05T08:06:32.000Z</time>
      </trkpt>
      <trkpt lat="46.70861" lon="5.83394">
        <ele>653</ele>
        <time>2025-06-05T08:06:36.000Z</time>
      </trkpt>
      <trkpt lat="46.70858" lon="5.83403">
        <ele>653.20001220703</ele>
        <time>2025-06-05T08:06:38.000Z</time>
      </trkpt>
      <trkpt lat="46.70855" lon="5.8341">
        <ele>653.59997558594</ele>
        <time>2025-06-05T08:06:40.000Z</time>
      </trkpt>
      <trkpt lat="46.70843" lon="5.83419">
        <ele>654.40002441406</ele>
        <time>2025-06-05T08:06:44.000Z</time>
      </trkpt>
      <trkpt lat="46.70836" lon="5.83424">
        <ele>654.79998779297</ele>
        <time>2025-06-05T08:06:46.000Z</time>
      </trkpt>
      <trkpt lat="46.70823" lon="5.83438">
        <ele>655.40002441406</ele>
        <time>2025-06-05T08:06:50.000Z</time>
      </trkpt>
      <trkpt lat="46.7082" lon="5.83442">
        <ele>655.40002441406</ele>
        <time>2025-06-05T08:06:51.000Z</time>
      </trkpt>
      <trkpt lat="46.70817" lon="5.83446">
        <ele>655.40002441406</ele>
        <time>2025-06-05T08:06:52.000Z</time>
      </trkpt>
      <trkpt lat="46.70803" lon="5.83463">
        <ele>655.40002441406</ele>
        <time>2025-06-05T08:06:56.000Z</time>
      </trkpt>
      <trkpt lat="46.70785" lon="5.83487">
        <ele>655.20001220703</ele>
        <time>2025-06-05T08:07:01.000Z</time>
      </trkpt>
      <trkpt lat="46.70773" lon="5.83501">
        <ele>655</ele>
        <time>2025-06-05T08:07:04.000Z</time>
      </trkpt>
      <trkpt lat="46.70761" lon="5.83514">
        <ele>654.20001220703</ele>
        <time>2025-06-05T08:07:07.000Z</time>
      </trkpt>
      <trkpt lat="46.70755" lon="5.83523">
        <ele>654</ele>
        <time>2025-06-05T08:07:09.000Z</time>
      </trkpt>
      <trkpt lat="46.70749" lon="5.83534">
        <ele>653.79998779297</ele>
        <time>2025-06-05T08:07:11.000Z</time>
      </trkpt>
      <trkpt lat="46.70737" lon="5.83566">
        <ele>653.20001220703</ele>
        <time>2025-06-05T08:07:16.000Z</time>
      </trkpt>
      <trkpt lat="46.70732" lon="5.8358">
        <ele>652.79998779297</ele>
        <time>2025-06-05T08:07:18.000Z</time>
      </trkpt>
      <trkpt lat="46.7072" lon="5.83609">
        <ele>652.20001220703</ele>
        <time>2025-06-05T08:07:22.000Z</time>
      </trkpt>
      <trkpt lat="46.70709" lon="5.83634">
        <ele>651.40002441406</ele>
        <time>2025-06-05T08:07:25.000Z</time>
      </trkpt>
      <trkpt lat="46.70703" lon="5.83651">
        <ele>650.79998779297</ele>
        <time>2025-06-05T08:07:27.000Z</time>
      </trkpt>
      <trkpt lat="46.70692" lon="5.83678">
        <ele>649.40002441406</ele>
        <time>2025-06-05T08:07:30.000Z</time>
      </trkpt>
      <trkpt lat="46.70685" lon="5.83695">
        <ele>648.79998779297</ele>
        <time>2025-06-05T08:07:32.000Z</time>
      </trkpt>
      <trkpt lat="46.70679" lon="5.83712">
        <ele>648.40002441406</ele>
        <time>2025-06-05T08:07:34.000Z</time>
      </trkpt>
      <trkpt lat="46.70675" lon="5.8372">
        <ele>648.40002441406</ele>
        <time>2025-06-05T08:07:35.000Z</time>
      </trkpt>
      <trkpt lat="46.70663" lon="5.83752">
        <ele>647.40002441406</ele>
        <time>2025-06-05T08:07:40.000Z</time>
      </trkpt>
      <trkpt lat="46.70661" lon="5.83766">
        <ele>647</ele>
        <time>2025-06-05T08:07:43.000Z</time>
      </trkpt>
      <trkpt lat="46.70663" lon="5.8377">
        <ele>646.79998779297</ele>
        <time>2025-06-05T08:07:44.000Z</time>
      </trkpt>
      <trkpt lat="46.70669" lon="5.83775">
        <ele>646.79998779297</ele>
        <time>2025-06-05T08:07:46.000Z</time>
      </trkpt>
      <trkpt lat="46.70676" lon="5.83779">
        <ele>646.59997558594</ele>
        <time>2025-06-05T08:07:48.000Z</time>
      </trkpt>
      <trkpt lat="46.70698" lon="5.83787">
        <ele>646.79998779297</ele>
        <time>2025-06-05T08:07:53.000Z</time>
      </trkpt>
      <trkpt lat="46.70733" lon="5.83799">
        <ele>648</ele>
        <time>2025-06-05T08:08:01.000Z</time>
      </trkpt>
      <trkpt lat="46.70742" lon="5.83802">
        <ele>648.40002441406</ele>
        <time>2025-06-05T08:08:03.000Z</time>
      </trkpt>
      <trkpt lat="46.70763" lon="5.83812">
        <ele>649.40002441406</ele>
        <time>2025-06-05T08:08:08.000Z</time>
      </trkpt>
      <trkpt lat="46.70776" lon="5.83819">
        <ele>649.79998779297</ele>
        <time>2025-06-05T08:08:11.000Z</time>
      </trkpt>
      <trkpt lat="46.70781" lon="5.83821">
        <ele>650</ele>
        <time>2025-06-05T08:08:12.000Z</time>
      </trkpt>
      <trkpt lat="46.70797" lon="5.83828">
        <ele>650.59997558594</ele>
        <time>2025-06-05T08:08:16.000Z</time>
      </trkpt>
      <trkpt lat="46.70806" lon="5.83833">
        <ele>650.79998779297</ele>
        <time>2025-06-05T08:08:19.000Z</time>
      </trkpt>
      <trkpt lat="46.7081" lon="5.83837">
        <ele>651</ele>
        <time>2025-06-05T08:08:20.000Z</time>
      </trkpt>
      <trkpt lat="46.70813" lon="5.83846">
        <ele>651</ele>
        <time>2025-06-05T08:08:22.000Z</time>
      </trkpt>
      <trkpt lat="46.70813" lon="5.83852">
        <ele>651.20001220703</ele>
        <time>2025-06-05T08:08:23.000Z</time>
      </trkpt>
      <trkpt lat="46.7081" lon="5.83879">
        <ele>651</ele>
        <time>2025-06-05T08:08:27.000Z</time>
      </trkpt>
      <trkpt lat="46.70799" lon="5.83932">
        <ele>650.20001220703</ele>
        <time>2025-06-05T08:08:34.000Z</time>
      </trkpt>
      <trkpt lat="46.70792" lon="5.83969">
        <ele>649.59997558594</ele>
        <time>2025-06-05T08:08:39.000Z</time>
      </trkpt>
      <trkpt lat="46.7079" lon="5.83975">
        <ele>649.40002441406</ele>
        <time>2025-06-05T08:08:40.000Z</time>
      </trkpt>
      <trkpt lat="46.70786" lon="5.83988">
        <ele>649.40002441406</ele>
        <time>2025-06-05T08:08:42.000Z</time>
      </trkpt>
      <trkpt lat="46.70782" lon="5.84">
        <ele>649.20001220703</ele>
        <time>2025-06-05T08:08:44.000Z</time>
      </trkpt>
      <trkpt lat="46.70777" lon="5.84012">
        <ele>649</ele>
        <time>2025-06-05T08:08:46.000Z</time>
      </trkpt>
      <trkpt lat="46.70774" lon="5.84026">
        <ele>648.79998779297</ele>
        <time>2025-06-05T08:08:48.000Z</time>
      </trkpt>
      <trkpt lat="46.70764" lon="5.84061">
        <ele>648.40002441406</ele>
        <time>2025-06-05T08:08:53.000Z</time>
      </trkpt>
      <trkpt lat="46.70756" lon="5.8409">
        <ele>648.40002441406</ele>
        <time>2025-06-05T08:08:57.000Z</time>
      </trkpt>
      <trkpt lat="46.70735" lon="5.84165">
        <ele>648.79998779297</ele>
        <time>2025-06-05T08:09:07.000Z</time>
      </trkpt>
      <trkpt lat="46.70716" lon="5.84249">
        <ele>648.59997558594</ele>
        <time>2025-06-05T08:09:18.000Z</time>
      </trkpt>
      <trkpt lat="46.70706" lon="5.84326">
        <ele>648.40002441406</ele>
        <time>2025-06-05T08:09:27.000Z</time>
      </trkpt>
      <trkpt lat="46.70694" lon="5.84378">
        <ele>648</ele>
        <time>2025-06-05T08:09:33.000Z</time>
      </trkpt>
      <trkpt lat="46.70671" lon="5.8443">
        <ele>647.40002441406</ele>
        <time>2025-06-05T08:09:40.000Z</time>
      </trkpt>
      <trkpt lat="46.70657" lon="5.84454">
        <ele>647.40002441406</ele>
        <time>2025-06-05T08:09:44.000Z</time>
      </trkpt>
      <trkpt lat="46.7065" lon="5.84465">
        <ele>647.40002441406</ele>
        <time>2025-06-05T08:09:46.000Z</time>
      </trkpt>
      <trkpt lat="46.70609" lon="5.84527">
        <ele>648</ele>
        <time>2025-06-05T08:09:56.000Z</time>
      </trkpt>
      <trkpt lat="46.70601" lon="5.84539">
        <ele>648.20001220703</ele>
        <time>2025-06-05T08:09:58.000Z</time>
      </trkpt>
      <trkpt lat="46.70589" lon="5.84558">
        <ele>648.40002441406</ele>
        <time>2025-06-05T08:10:01.000Z</time>
      </trkpt>
      <trkpt lat="46.70585" lon="5.84564">
        <ele>648.59997558594</ele>
        <time>2025-06-05T08:10:02.000Z</time>
      </trkpt>
      <trkpt lat="46.70564" lon="5.84602">
        <ele>649.20001220703</ele>
        <time>2025-06-05T08:10:08.000Z</time>
      </trkpt>
      <trkpt lat="46.70531" lon="5.84673">
        <ele>648.79998779297</ele>
        <time>2025-06-05T08:10:18.000Z</time>
      </trkpt>
      <trkpt lat="46.70499" lon="5.84746">
        <ele>648.40002441406</ele>
        <time>2025-06-05T08:10:28.000Z</time>
      </trkpt>
      <trkpt lat="46.70464" lon="5.84815">
        <ele>648.40002441406</ele>
        <time>2025-06-05T08:10:38.000Z</time>
      </trkpt>
      <trkpt lat="46.70431" lon="5.84862">
        <ele>648.40002441406</ele>
        <time>2025-06-05T08:10:46.000Z</time>
      </trkpt>
      <trkpt lat="46.70421" lon="5.84872">
        <ele>648.40002441406</ele>
        <time>2025-06-05T08:10:48.000Z</time>
      </trkpt>
      <trkpt lat="46.70401" lon="5.84889">
        <ele>648.59997558594</ele>
        <time>2025-06-05T08:10:52.000Z</time>
      </trkpt>
      <trkpt lat="46.70349" lon="5.84926">
        <ele>648.79998779297</ele>
        <time>2025-06-05T08:11:02.000Z</time>
      </trkpt>
      <trkpt lat="46.7034" lon="5.84935">
        <ele>649.20001220703</ele>
        <time>2025-06-05T08:11:04.000Z</time>
      </trkpt>
      <trkpt lat="46.70328" lon="5.84952">
        <ele>649.40002441406</ele>
        <time>2025-06-05T08:11:07.000Z</time>
      </trkpt>
      <trkpt lat="46.70304" lon="5.84997">
        <ele>649.40002441406</ele>
        <time>2025-06-05T08:11:14.000Z</time>
      </trkpt>
      <trkpt lat="46.70296" lon="5.85015">
        <ele>649.40002441406</ele>
        <time>2025-06-05T08:11:17.000Z</time>
      </trkpt>
      <trkpt lat="46.70293" lon="5.85028">
        <ele>649.40002441406</ele>
        <time>2025-06-05T08:11:19.000Z</time>
      </trkpt>
      <trkpt lat="46.70292" lon="5.85035">
        <ele>649.40002441406</ele>
        <time>2025-06-05T08:11:20.000Z</time>
      </trkpt>
      <trkpt lat="46.70292" lon="5.8505">
        <ele>649.40002441406</ele>
        <time>2025-06-05T08:11:22.000Z</time>
      </trkpt>
      <trkpt lat="46.70296" lon="5.85076">
        <ele>649.59997558594</ele>
        <time>2025-06-05T08:11:26.000Z</time>
      </trkpt>
      <trkpt lat="46.70297" lon="5.85082">
        <ele>649.59997558594</ele>
        <time>2025-06-05T08:11:27.000Z</time>
      </trkpt>
      <trkpt lat="46.70303" lon="5.85102">
        <ele>650.59997558594</ele>
        <time>2025-06-05T08:11:31.000Z</time>
      </trkpt>
      <trkpt lat="46.70304" lon="5.85108">
        <ele>651</ele>
        <time>2025-06-05T08:11:32.000Z</time>
      </trkpt>
      <trkpt lat="46.70308" lon="5.85119">
        <ele>652.20001220703</ele>
        <time>2025-06-05T08:11:34.000Z</time>
      </trkpt>
      <trkpt lat="46.70313" lon="5.85134">
        <ele>653.59997558594</ele>
        <time>2025-06-05T08:11:37.000Z</time>
      </trkpt>
      <trkpt lat="46.70315" lon="5.85139">
        <ele>653.79998779297</ele>
        <time>2025-06-05T08:11:38.000Z</time>
      </trkpt>
      <trkpt lat="46.70318" lon="5.85143">
        <ele>654.59997558594</ele>
        <time>2025-06-05T08:11:39.000Z</time>
      </trkpt>
      <trkpt lat="46.70324" lon="5.85156">
        <ele>656</ele>
        <time>2025-06-05T08:11:42.000Z</time>
      </trkpt>
      <trkpt lat="46.70327" lon="5.85161">
        <ele>656.40002441406</ele>
        <time>2025-06-05T08:11:43.000Z</time>
      </trkpt>
      <trkpt lat="46.70332" lon="5.8517">
        <ele>656.79998779297</ele>
        <time>2025-06-05T08:11:45.000Z</time>
      </trkpt>
      <trkpt lat="46.70335" lon="5.85174">
        <ele>657.20001220703</ele>
        <time>2025-06-05T08:11:46.000Z</time>
      </trkpt>
      <trkpt lat="46.70344" lon="5.85186">
        <ele>657.40002441406</ele>
        <time>2025-06-05T08:11:49.000Z</time>
      </trkpt>
      <trkpt lat="46.70346" lon="5.85189">
        <ele>657.59997558594</ele>
        <time>2025-06-05T08:11:50.000Z</time>
      </trkpt>
      <trkpt lat="46.70349" lon="5.85193">
        <ele>657.79998779297</ele>
        <time>2025-06-05T08:11:51.000Z</time>
      </trkpt>
      <trkpt lat="46.7036" lon="5.8521">
        <ele>658.59997558594</ele>
        <time>2025-06-05T08:11:55.000Z</time>
      </trkpt>
      <trkpt lat="46.70366" lon="5.85218">
        <ele>659</ele>
        <time>2025-06-05T08:11:57.000Z</time>
      </trkpt>
      <trkpt lat="46.70381" lon="5.85239">
        <ele>659.20001220703</ele>
        <time>2025-06-05T08:12:02.000Z</time>
      </trkpt>
      <trkpt lat="46.70383" lon="5.85245">
        <ele>659.40002441406</ele>
        <time>2025-06-05T08:12:03.000Z</time>
      </trkpt>
      <trkpt lat="46.70388" lon="5.85261">
        <ele>660</ele>
        <time>2025-06-05T08:12:06.000Z</time>
      </trkpt>
      <trkpt lat="46.7039" lon="5.85267">
        <ele>660.20001220703</ele>
        <time>2025-06-05T08:12:07.000Z</time>
      </trkpt>
      <trkpt lat="46.70393" lon="5.8528">
        <ele>660.40002441406</ele>
        <time>2025-06-05T08:12:09.000Z</time>
      </trkpt>
      <trkpt lat="46.70397" lon="5.85294">
        <ele>660.59997558594</ele>
        <time>2025-06-05T08:12:11.000Z</time>
      </trkpt>
      <trkpt lat="46.70399" lon="5.85308">
        <ele>661</ele>
        <time>2025-06-05T08:12:13.000Z</time>
      </trkpt>
      <trkpt lat="46.704" lon="5.85315">
        <ele>661</ele>
        <time>2025-06-05T08:12:14.000Z</time>
      </trkpt>
      <trkpt lat="46.70397" lon="5.85345">
        <ele>661.40002441406</ele>
        <time>2025-06-05T08:12:18.000Z</time>
      </trkpt>
      <trkpt lat="46.70393" lon="5.8537">
        <ele>662</ele>
        <time>2025-06-05T08:12:22.000Z</time>
      </trkpt>
      <trkpt lat="46.70392" lon="5.85388">
        <ele>662.59997558594</ele>
        <time>2025-06-05T08:12:25.000Z</time>
      </trkpt>
      <trkpt lat="46.70395" lon="5.85397">
        <ele>663.20001220703</ele>
        <time>2025-06-05T08:12:27.000Z</time>
      </trkpt>
      <trkpt lat="46.70398" lon="5.85407">
        <ele>663.79998779297</ele>
        <time>2025-06-05T08:12:29.000Z</time>
      </trkpt>
      <trkpt lat="46.70402" lon="5.85413">
        <ele>664.59997558594</ele>
        <time>2025-06-05T08:12:31.000Z</time>
      </trkpt>
      <trkpt lat="46.7041" lon="5.85416">
        <ele>665.59997558594</ele>
        <time>2025-06-05T08:12:34.000Z</time>
      </trkpt>
      <trkpt lat="46.70416" lon="5.85416">
        <ele>666.79998779297</ele>
        <time>2025-06-05T08:12:36.000Z</time>
      </trkpt>
      <trkpt lat="46.70422" lon="5.85413">
        <ele>667.79998779297</ele>
        <time>2025-06-05T08:12:38.000Z</time>
      </trkpt>
      <trkpt lat="46.70425" lon="5.85413">
        <ele>668.40002441406</ele>
        <time>2025-06-05T08:12:39.000Z</time>
      </trkpt>
      <trkpt lat="46.70428" lon="5.85412">
        <ele>669.20001220703</ele>
        <time>2025-06-05T08:12:40.000Z</time>
      </trkpt>
      <trkpt lat="46.70437" lon="5.85411">
        <ele>670.20001220703</ele>
        <time>2025-06-05T08:12:43.000Z</time>
      </trkpt>
      <trkpt lat="46.70446" lon="5.85412">
        <ele>671.59997558594</ele>
        <time>2025-06-05T08:12:46.000Z</time>
      </trkpt>
      <trkpt lat="46.70455" lon="5.85413">
        <ele>672.59997558594</ele>
        <time>2025-06-05T08:12:49.000Z</time>
      </trkpt>
      <trkpt lat="46.70467" lon="5.85415">
        <ele>673.20001220703</ele>
        <time>2025-06-05T08:12:52.000Z</time>
      </trkpt>
      <trkpt lat="46.70478" lon="5.85416">
        <ele>673.79998779297</ele>
        <time>2025-06-05T08:12:55.000Z</time>
      </trkpt>
      <trkpt lat="46.70487" lon="5.85418">
        <ele>674.79998779297</ele>
        <time>2025-06-05T08:12:58.000Z</time>
      </trkpt>
      <trkpt lat="46.70489" lon="5.85417">
        <ele>675</ele>
        <time>2025-06-05T08:12:59.000Z</time>
      </trkpt>
      <trkpt lat="46.70502" lon="5.85411">
        <ele>675.59997558594</ele>
        <time>2025-06-05T08:13:03.000Z</time>
      </trkpt>
      <trkpt lat="46.70514" lon="5.85407">
        <ele>676</ele>
        <time>2025-06-05T08:13:06.000Z</time>
      </trkpt>
      <trkpt lat="46.70522" lon="5.8541">
        <ele>676.20001220703</ele>
        <time>2025-06-05T08:13:08.000Z</time>
      </trkpt>
      <trkpt lat="46.70549" lon="5.85415">
        <ele>676.20001220703</ele>
        <time>2025-06-05T08:13:15.000Z</time>
      </trkpt>
      <trkpt lat="46.70564" lon="5.85415">
        <ele>676.40002441406</ele>
        <time>2025-06-05T08:13:19.000Z</time>
      </trkpt>
      <trkpt lat="46.70582" lon="5.85415">
        <ele>676.20001220703</ele>
        <time>2025-06-05T08:13:24.000Z</time>
      </trkpt>
      <trkpt lat="46.70592" lon="5.85412">
        <ele>676.20001220703</ele>
        <time>2025-06-05T08:13:27.000Z</time>
      </trkpt>
      <trkpt lat="46.70604" lon="5.85417">
        <ele>676</ele>
        <time>2025-06-05T08:13:29.000Z</time>
      </trkpt>
      <trkpt lat="46.70617" lon="5.85428">
        <ele>676</ele>
        <time>2025-06-05T08:13:31.000Z</time>
      </trkpt>
      <trkpt lat="46.70627" lon="5.85438">
        <ele>676</ele>
        <time>2025-06-05T08:13:33.000Z</time>
      </trkpt>
      <trkpt lat="46.70643" lon="5.85459">
        <ele>674.59997558594</ele>
        <time>2025-06-05T08:13:38.000Z</time>
      </trkpt>
      <trkpt lat="46.70658" lon="5.85478">
        <ele>674.40002441406</ele>
        <time>2025-06-05T08:13:43.000Z</time>
      </trkpt>
      <trkpt lat="46.7066" lon="5.8548">
        <ele>674.20001220703</ele>
        <time>2025-06-05T08:13:44.000Z</time>
      </trkpt>
      <trkpt lat="46.70668" lon="5.85483">
        <ele>674</ele>
        <time>2025-06-05T08:13:46.000Z</time>
      </trkpt>
      <trkpt lat="46.7068" lon="5.85487">
        <ele>673.59997558594</ele>
        <time>2025-06-05T08:13:48.000Z</time>
      </trkpt>
      <trkpt lat="46.70686" lon="5.85489">
        <ele>673.40002441406</ele>
        <time>2025-06-05T08:13:49.000Z</time>
      </trkpt>
      <trkpt lat="46.70711" lon="5.855">
        <ele>672.79998779297</ele>
        <time>2025-06-05T08:13:53.000Z</time>
      </trkpt>
      <trkpt lat="46.70726" lon="5.85506">
        <ele>672.59997558594</ele>
        <time>2025-06-05T08:13:56.000Z</time>
      </trkpt>
      <trkpt lat="46.70735" lon="5.85511">
        <ele>672.20001220703</ele>
        <time>2025-06-05T08:13:58.000Z</time>
      </trkpt>
      <trkpt lat="46.70738" lon="5.85514">
        <ele>672</ele>
        <time>2025-06-05T08:13:59.000Z</time>
      </trkpt>
      <trkpt lat="46.7076" lon="5.85515">
        <ele>671.59997558594</ele>
        <time>2025-06-05T08:14:05.000Z</time>
      </trkpt>
      <trkpt lat="46.7078" lon="5.85519">
        <ele>671.79998779297</ele>
        <time>2025-06-05T08:14:11.000Z</time>
      </trkpt>
      <trkpt lat="46.70782" lon="5.85521">
        <ele>671.79998779297</ele>
        <time>2025-06-05T08:14:12.000Z</time>
      </trkpt>
      <trkpt lat="46.70783" lon="5.85526">
        <ele>672</ele>
        <time>2025-06-05T08:14:14.000Z</time>
      </trkpt>
      <trkpt lat="46.70786" lon="5.85539">
        <ele>672.20001220703</ele>
        <time>2025-06-05T08:14:20.000Z</time>
      </trkpt>
      <trkpt lat="46.70789" lon="5.8555">
        <ele>672.59997558594</ele>
        <time>2025-06-05T08:14:26.000Z</time>
      </trkpt>
      <trkpt lat="46.70789" lon="5.85553">
        <ele>672.59997558594</ele>
        <time>2025-06-05T08:14:27.000Z</time>
      </trkpt>
      <trkpt lat="46.7079" lon="5.85573">
        <ele>673</ele>
        <time>2025-06-05T08:14:33.000Z</time>
      </trkpt>
      <trkpt lat="46.7079" lon="5.85576">
        <ele>673.20001220703</ele>
        <time>2025-06-05T08:14:34.000Z</time>
      </trkpt>
      <trkpt lat="46.70793" lon="5.85608">
        <ele>674</ele>
        <time>2025-06-05T08:14:42.000Z</time>
      </trkpt>
      <trkpt lat="46.70797" lon="5.85614">
        <ele>674.40002441406</ele>
        <time>2025-06-05T08:14:44.000Z</time>
      </trkpt>
      <trkpt lat="46.70801" lon="5.85627">
        <ele>674.79998779297</ele>
        <time>2025-06-05T08:14:47.000Z</time>
      </trkpt>
      <trkpt lat="46.708" lon="5.85635">
        <ele>675.40002441406</ele>
        <time>2025-06-05T08:14:49.000Z</time>
      </trkpt>
      <trkpt lat="46.70802" lon="5.85647">
        <ele>676</ele>
        <time>2025-06-05T08:14:52.000Z</time>
      </trkpt>
      <trkpt lat="46.70804" lon="5.85651">
        <ele>676.40002441406</ele>
        <time>2025-06-05T08:14:53.000Z</time>
      </trkpt>
      <trkpt lat="46.70805" lon="5.85655">
        <ele>676.59997558594</ele>
        <time>2025-06-05T08:14:54.000Z</time>
      </trkpt>
      <trkpt lat="46.70813" lon="5.85677">
        <ele>677.59997558594</ele>
        <time>2025-06-05T08:14:59.000Z</time>
      </trkpt>
      <trkpt lat="46.70814" lon="5.85681">
        <ele>677.79998779297</ele>
        <time>2025-06-05T08:15:00.000Z</time>
      </trkpt>
      <trkpt lat="46.70812" lon="5.8569">
        <ele>678.59997558594</ele>
        <time>2025-06-05T08:15:04.000Z</time>
      </trkpt>
      <trkpt lat="46.7081" lon="5.85694">
        <ele>678.79998779297</ele>
        <time>2025-06-05T08:15:05.000Z</time>
      </trkpt>
      <trkpt lat="46.70804" lon="5.85712">
        <ele>680.20001220703</ele>
        <time>2025-06-05T08:15:09.000Z</time>
      </trkpt>
      <trkpt lat="46.70803" lon="5.85721">
        <ele>680.79998779297</ele>
        <time>2025-06-05T08:15:11.000Z</time>
      </trkpt>
      <trkpt lat="46.70803" lon="5.85728">
        <ele>681.20001220703</ele>
        <time>2025-06-05T08:15:12.000Z</time>
      </trkpt>
      <trkpt lat="46.708" lon="5.85739">
        <ele>682.79998779297</ele>
        <time>2025-06-05T08:15:15.000Z</time>
      </trkpt>
      <trkpt lat="46.70798" lon="5.85749">
        <ele>683.59997558594</ele>
        <time>2025-06-05T08:15:17.000Z</time>
      </trkpt>
      <trkpt lat="46.70797" lon="5.85754">
        <ele>683.79998779297</ele>
        <time>2025-06-05T08:15:18.000Z</time>
      </trkpt>
      <trkpt lat="46.70798" lon="5.85764">
        <ele>685</ele>
        <time>2025-06-05T08:15:20.000Z</time>
      </trkpt>
      <trkpt lat="46.70798" lon="5.85777">
        <ele>685.59997558594</ele>
        <time>2025-06-05T08:15:22.000Z</time>
      </trkpt>
      <trkpt lat="46.70798" lon="5.85787">
        <ele>686.40002441406</ele>
        <time>2025-06-05T08:15:24.000Z</time>
      </trkpt>
      <trkpt lat="46.70796" lon="5.85808">
        <ele>687</ele>
        <time>2025-06-05T08:15:28.000Z</time>
      </trkpt>
      <trkpt lat="46.70798" lon="5.85839">
        <ele>687.20001220703</ele>
        <time>2025-06-05T08:15:34.000Z</time>
      </trkpt>
      <trkpt lat="46.70801" lon="5.85849">
        <ele>687.20001220703</ele>
        <time>2025-06-05T08:15:36.000Z</time>
      </trkpt>
      <trkpt lat="46.708" lon="5.85872">
        <ele>687</ele>
        <time>2025-06-05T08:15:39.000Z</time>
      </trkpt>
      <trkpt lat="46.70802" lon="5.8592">
        <ele>686.59997558594</ele>
        <time>2025-06-05T08:15:46.000Z</time>
      </trkpt>
      <trkpt lat="46.70802" lon="5.85949">
        <ele>686.79998779297</ele>
        <time>2025-06-05T08:15:51.000Z</time>
      </trkpt>
      <trkpt lat="46.70801" lon="5.85956">
        <ele>686.79998779297</ele>
        <time>2025-06-05T08:15:52.000Z</time>
      </trkpt>
      <trkpt lat="46.70795" lon="5.85976">
        <ele>687.40002441406</ele>
        <time>2025-06-05T08:15:55.000Z</time>
      </trkpt>
      <trkpt lat="46.70791" lon="5.85988">
        <ele>687.79998779297</ele>
        <time>2025-06-05T08:15:57.000Z</time>
      </trkpt>
      <trkpt lat="46.70784" lon="5.86024">
        <ele>688.40002441406</ele>
        <time>2025-06-05T08:16:03.000Z</time>
      </trkpt>
      <trkpt lat="46.70784" lon="5.8603">
        <ele>688.40002441406</ele>
        <time>2025-06-05T08:16:04.000Z</time>
      </trkpt>
      <trkpt lat="46.70782" lon="5.86069">
        <ele>688.79998779297</ele>
        <time>2025-06-05T08:16:10.000Z</time>
      </trkpt>
      <trkpt lat="46.70782" lon="5.86075">
        <ele>688.79998779297</ele>
        <time>2025-06-05T08:16:11.000Z</time>
      </trkpt>
      <trkpt lat="46.70778" lon="5.86098">
        <ele>689</ele>
        <time>2025-06-05T08:16:15.000Z</time>
      </trkpt>
      <trkpt lat="46.70776" lon="5.86109">
        <ele>689.20001220703</ele>
        <time>2025-06-05T08:16:17.000Z</time>
      </trkpt>
      <trkpt lat="46.70774" lon="5.86114">
        <ele>689.40002441406</ele>
        <time>2025-06-05T08:16:18.000Z</time>
      </trkpt>
      <trkpt lat="46.70773" lon="5.86119">
        <ele>689.59997558594</ele>
        <time>2025-06-05T08:16:19.000Z</time>
      </trkpt>
      <trkpt lat="46.70771" lon="5.86123">
        <ele>690</ele>
        <time>2025-06-05T08:16:20.000Z</time>
      </trkpt>
      <trkpt lat="46.70769" lon="5.86126">
        <ele>690.20001220703</ele>
        <time>2025-06-05T08:16:21.000Z</time>
      </trkpt>
      <trkpt lat="46.70761" lon="5.86144">
        <ele>690.20001220703</ele>
        <time>2025-06-05T08:16:24.000Z</time>
      </trkpt>
      <trkpt lat="46.70758" lon="5.8615">
        <ele>690.20001220703</ele>
        <time>2025-06-05T08:16:25.000Z</time>
      </trkpt>
      <trkpt lat="46.70744" lon="5.86179">
        <ele>689.40002441406</ele>
        <time>2025-06-05T08:16:30.000Z</time>
      </trkpt>
      <trkpt lat="46.70723" lon="5.86227">
        <ele>690</ele>
        <time>2025-06-05T08:16:39.000Z</time>
      </trkpt>
      <trkpt lat="46.70713" lon="5.86247">
        <ele>690.40002441406</ele>
        <time>2025-06-05T08:16:43.000Z</time>
      </trkpt>
      <trkpt lat="46.70699" lon="5.86278">
        <ele>691</ele>
        <time>2025-06-05T08:16:49.000Z</time>
      </trkpt>
      <trkpt lat="46.70685" lon="5.86317">
        <ele>691.59997558594</ele>
        <time>2025-06-05T08:16:56.000Z</time>
      </trkpt>
      <trkpt lat="46.70684" lon="5.86323">
        <ele>691.79998779297</ele>
        <time>2025-06-05T08:16:57.000Z</time>
      </trkpt>
      <trkpt lat="46.70677" lon="5.86361">
        <ele>692.59997558594</ele>
        <time>2025-06-05T08:17:03.000Z</time>
      </trkpt>
      <trkpt lat="46.70675" lon="5.86367">
        <ele>692.79998779297</ele>
        <time>2025-06-05T08:17:04.000Z</time>
      </trkpt>
      <trkpt lat="46.70669" lon="5.86398">
        <ele>693.59997558594</ele>
        <time>2025-06-05T08:17:09.000Z</time>
      </trkpt>
      <trkpt lat="46.70667" lon="5.86404">
        <ele>693.79998779297</ele>
        <time>2025-06-05T08:17:10.000Z</time>
      </trkpt>
      <trkpt lat="46.70663" lon="5.86416">
        <ele>694.20001220703</ele>
        <time>2025-06-05T08:17:12.000Z</time>
      </trkpt>
      <trkpt lat="46.70654" lon="5.86436">
        <ele>694.40002441406</ele>
        <time>2025-06-05T08:17:16.000Z</time>
      </trkpt>
      <trkpt lat="46.7065" lon="5.86448">
        <ele>694.59997558594</ele>
        <time>2025-06-05T08:17:18.000Z</time>
      </trkpt>
      <trkpt lat="46.70648" lon="5.86454">
        <ele>695</ele>
        <time>2025-06-05T08:17:19.000Z</time>
      </trkpt>
      <trkpt lat="46.7064" lon="5.8648">
        <ele>695.59997558594</ele>
        <time>2025-06-05T08:17:23.000Z</time>
      </trkpt>
      <trkpt lat="46.70632" lon="5.86514">
        <ele>695.59997558594</ele>
        <time>2025-06-05T08:17:29.000Z</time>
      </trkpt>
      <trkpt lat="46.7063" lon="5.86522">
        <ele>696</ele>
        <time>2025-06-05T08:17:31.000Z</time>
      </trkpt>
      <trkpt lat="46.70625" lon="5.86537">
        <ele>697.20001220703</ele>
        <time>2025-06-05T08:17:34.000Z</time>
      </trkpt>
      <trkpt lat="46.70621" lon="5.86549">
        <ele>697.40002441406</ele>
        <time>2025-06-05T08:17:36.000Z</time>
      </trkpt>
      <trkpt lat="46.70607" lon="5.86594">
        <ele>697.20001220703</ele>
        <time>2025-06-05T08:17:42.000Z</time>
      </trkpt>
      <trkpt lat="46.70597" lon="5.86627">
        <ele>696.20001220703</ele>
        <time>2025-06-05T08:17:46.000Z</time>
      </trkpt>
      <trkpt lat="46.70591" lon="5.86654">
        <ele>695.79998779297</ele>
        <time>2025-06-05T08:17:49.000Z</time>
      </trkpt>
      <trkpt lat="46.70584" lon="5.86678">
        <ele>695</ele>
        <time>2025-06-05T08:17:52.000Z</time>
      </trkpt>
      <trkpt lat="46.70581" lon="5.86692">
        <ele>694.59997558594</ele>
        <time>2025-06-05T08:17:54.000Z</time>
      </trkpt>
      <trkpt lat="46.70572" lon="5.8673">
        <ele>694.59997558594</ele>
        <time>2025-06-05T08:18:00.000Z</time>
      </trkpt>
      <trkpt lat="46.7057" lon="5.86735">
        <ele>694.59997558594</ele>
        <time>2025-06-05T08:18:01.000Z</time>
      </trkpt>
      <trkpt lat="46.70557" lon="5.86781">
        <ele>695.59997558594</ele>
        <time>2025-06-05T08:18:09.000Z</time>
      </trkpt>
      <trkpt lat="46.70556" lon="5.86786">
        <ele>695.59997558594</ele>
        <time>2025-06-05T08:18:10.000Z</time>
      </trkpt>
      <trkpt lat="46.70554" lon="5.86804">
        <ele>696.20001220703</ele>
        <time>2025-06-05T08:18:13.000Z</time>
      </trkpt>
      <trkpt lat="46.70554" lon="5.86809">
        <ele>696.40002441406</ele>
        <time>2025-06-05T08:18:14.000Z</time>
      </trkpt>
      <trkpt lat="46.70556" lon="5.86833">
        <ele>696.79998779297</ele>
        <time>2025-06-05T08:18:18.000Z</time>
      </trkpt>
      <trkpt lat="46.70556" lon="5.8684">
        <ele>696.79998779297</ele>
        <time>2025-06-05T08:18:19.000Z</time>
      </trkpt>
      <trkpt lat="46.70561" lon="5.86879">
        <ele>696.79998779297</ele>
        <time>2025-06-05T08:18:24.000Z</time>
      </trkpt>
      <trkpt lat="46.70569" lon="5.86936">
        <ele>695.79998779297</ele>
        <time>2025-06-05T08:18:31.000Z</time>
      </trkpt>
      <trkpt lat="46.70569" lon="5.86952">
        <ele>695.20001220703</ele>
        <time>2025-06-05T08:18:33.000Z</time>
      </trkpt>
      <trkpt lat="46.70569" lon="5.86969">
        <ele>694.79998779297</ele>
        <time>2025-06-05T08:18:35.000Z</time>
      </trkpt>
      <trkpt lat="46.70566" lon="5.86987">
        <ele>694.59997558594</ele>
        <time>2025-06-05T08:18:37.000Z</time>
      </trkpt>
      <trkpt lat="46.70559" lon="5.87014">
        <ele>694.20001220703</ele>
        <time>2025-06-05T08:18:40.000Z</time>
      </trkpt>
      <trkpt lat="46.70557" lon="5.87023">
        <ele>694</ele>
        <time>2025-06-05T08:18:41.000Z</time>
      </trkpt>
      <trkpt lat="46.70555" lon="5.87031">
        <ele>693.79998779297</ele>
        <time>2025-06-05T08:18:42.000Z</time>
      </trkpt>
      <trkpt lat="46.70544" lon="5.87072">
        <ele>693</ele>
        <time>2025-06-05T08:18:47.000Z</time>
      </trkpt>
      <trkpt lat="46.70535" lon="5.87101">
        <ele>692.59997558594</ele>
        <time>2025-06-05T08:18:50.000Z</time>
      </trkpt>
      <trkpt lat="46.70525" lon="5.87134">
        <ele>691.79998779297</ele>
        <time>2025-06-05T08:18:54.000Z</time>
      </trkpt>
      <trkpt lat="46.70517" lon="5.87159">
        <ele>690.79998779297</ele>
        <time>2025-06-05T08:18:57.000Z</time>
      </trkpt>
      <trkpt lat="46.70515" lon="5.87166">
        <ele>690.40002441406</ele>
        <time>2025-06-05T08:18:58.000Z</time>
      </trkpt>
      <trkpt lat="46.70504" lon="5.87201">
        <ele>690</ele>
        <time>2025-06-05T08:19:03.000Z</time>
      </trkpt>
      <trkpt lat="46.70491" lon="5.87246">
        <ele>690</ele>
        <time>2025-06-05T08:19:10.000Z</time>
      </trkpt>
      <trkpt lat="46.70483" lon="5.87287">
        <ele>691.20001220703</ele>
        <time>2025-06-05T08:19:17.000Z</time>
      </trkpt>
      <trkpt lat="46.7048" lon="5.87309">
        <ele>691.59997558594</ele>
        <time>2025-06-05T08:19:20.000Z</time>
      </trkpt>
      <trkpt lat="46.70478" lon="5.87326">
        <ele>691.59997558594</ele>
        <time>2025-06-05T08:19:22.000Z</time>
      </trkpt>
      <trkpt lat="46.70469" lon="5.87395">
        <ele>690.79998779297</ele>
        <time>2025-06-05T08:19:30.000Z</time>
      </trkpt>
      <trkpt lat="46.70466" lon="5.87412">
        <ele>690.40002441406</ele>
        <time>2025-06-05T08:19:32.000Z</time>
      </trkpt>
      <trkpt lat="46.7046" lon="5.87466">
        <ele>689.79998779297</ele>
        <time>2025-06-05T08:19:39.000Z</time>
      </trkpt>
      <trkpt lat="46.70453" lon="5.87515">
        <ele>689.79998779297</ele>
        <time>2025-06-05T08:19:46.000Z</time>
      </trkpt>
      <trkpt lat="46.70449" lon="5.87563">
        <ele>689.59997558594</ele>
        <time>2025-06-05T08:19:53.000Z</time>
      </trkpt>
      <trkpt lat="46.70451" lon="5.87575">
        <ele>689.59997558594</ele>
        <time>2025-06-05T08:19:55.000Z</time>
      </trkpt>
      <trkpt lat="46.70457" lon="5.87592">
        <ele>689.40002441406</ele>
        <time>2025-06-05T08:19:58.000Z</time>
      </trkpt>
      <trkpt lat="46.70477" lon="5.87622">
        <ele>689.79998779297</ele>
        <time>2025-06-05T08:20:04.000Z</time>
      </trkpt>
      <trkpt lat="46.7048" lon="5.87628">
        <ele>689.79998779297</ele>
        <time>2025-06-05T08:20:05.000Z</time>
      </trkpt>
      <trkpt lat="46.70484" lon="5.8764">
        <ele>690</ele>
        <time>2025-06-05T08:20:07.000Z</time>
      </trkpt>
      <trkpt lat="46.70485" lon="5.87646">
        <ele>690</ele>
        <time>2025-06-05T08:20:08.000Z</time>
      </trkpt>
      <trkpt lat="46.70485" lon="5.87652">
        <ele>690</ele>
        <time>2025-06-05T08:20:09.000Z</time>
      </trkpt>
      <trkpt lat="46.70481" lon="5.87671">
        <ele>690.20001220703</ele>
        <time>2025-06-05T08:20:12.000Z</time>
      </trkpt>
      <trkpt lat="46.70475" lon="5.87695">
        <ele>690.20001220703</ele>
        <time>2025-06-05T08:20:16.000Z</time>
      </trkpt>
      <trkpt lat="46.70473" lon="5.87709">
        <ele>690.40002441406</ele>
        <time>2025-06-05T08:20:18.000Z</time>
      </trkpt>
      <trkpt lat="46.70473" lon="5.87716">
        <ele>690.40002441406</ele>
        <time>2025-06-05T08:20:19.000Z</time>
      </trkpt>
      <trkpt lat="46.70474" lon="5.87723">
        <ele>690.40002441406</ele>
        <time>2025-06-05T08:20:20.000Z</time>
      </trkpt>
      <trkpt lat="46.70481" lon="5.87742">
        <ele>690.20001220703</ele>
        <time>2025-06-05T08:20:23.000Z</time>
      </trkpt>
      <trkpt lat="46.70488" lon="5.8776">
        <ele>690.40002441406</ele>
        <time>2025-06-05T08:20:26.000Z</time>
      </trkpt>
      <trkpt lat="46.70492" lon="5.87779">
        <ele>690.59997558594</ele>
        <time>2025-06-05T08:20:29.000Z</time>
      </trkpt>
      <trkpt lat="46.70494" lon="5.87785">
        <ele>690.79998779297</ele>
        <time>2025-06-05T08:20:30.000Z</time>
      </trkpt>
      <trkpt lat="46.70497" lon="5.87791">
        <ele>690.79998779297</ele>
        <time>2025-06-05T08:20:31.000Z</time>
      </trkpt>
      <trkpt lat="46.70507" lon="5.87797">
        <ele>691</ele>
        <time>2025-06-05T08:20:33.000Z</time>
      </trkpt>
      <trkpt lat="46.70534" lon="5.87811">
        <ele>691.40002441406</ele>
        <time>2025-06-05T08:20:39.000Z</time>
      </trkpt>
      <trkpt lat="46.70541" lon="5.87817">
        <ele>691.59997558594</ele>
        <time>2025-06-05T08:20:41.000Z</time>
      </trkpt>
      <trkpt lat="46.70548" lon="5.87824">
        <ele>691.79998779297</ele>
        <time>2025-06-05T08:20:43.000Z</time>
      </trkpt>
      <trkpt lat="46.70551" lon="5.87827">
        <ele>691.79998779297</ele>
        <time>2025-06-05T08:20:44.000Z</time>
      </trkpt>
      <trkpt lat="46.70583" lon="5.87853">
        <ele>691.79998779297</ele>
        <time>2025-06-05T08:20:51.000Z</time>
      </trkpt>
      <trkpt lat="46.70606" lon="5.87883">
        <ele>691.40002441406</ele>
        <time>2025-06-05T08:20:56.000Z</time>
      </trkpt>
      <trkpt lat="46.70619" lon="5.87913">
        <ele>690.59997558594</ele>
        <time>2025-06-05T08:21:00.000Z</time>
      </trkpt>
      <trkpt lat="46.70628" lon="5.87928">
        <ele>689.79998779297</ele>
        <time>2025-06-05T08:21:02.000Z</time>
      </trkpt>
      <trkpt lat="46.70633" lon="5.87934">
        <ele>689.59997558594</ele>
        <time>2025-06-05T08:21:03.000Z</time>
      </trkpt>
      <trkpt lat="46.70639" lon="5.8794">
        <ele>689.40002441406</ele>
        <time>2025-06-05T08:21:04.000Z</time>
      </trkpt>
      <trkpt lat="46.70645" lon="5.87945">
        <ele>689.20001220703</ele>
        <time>2025-06-05T08:21:05.000Z</time>
      </trkpt>
      <trkpt lat="46.70658" lon="5.87953">
        <ele>688.59997558594</ele>
        <time>2025-06-05T08:21:07.000Z</time>
      </trkpt>
      <trkpt lat="46.70666" lon="5.87957">
        <ele>688.20001220703</ele>
        <time>2025-06-05T08:21:08.000Z</time>
      </trkpt>
      <trkpt lat="46.70688" lon="5.87974">
        <ele>686.79998779297</ele>
        <time>2025-06-05T08:21:11.000Z</time>
      </trkpt>
      <trkpt lat="46.70696" lon="5.87982">
        <ele>686.40002441406</ele>
        <time>2025-06-05T08:21:12.000Z</time>
      </trkpt>
      <trkpt lat="46.70708" lon="5.87997">
        <ele>685.59997558594</ele>
        <time>2025-06-05T08:21:14.000Z</time>
      </trkpt>
      <trkpt lat="46.70724" lon="5.8802">
        <ele>684.79998779297</ele>
        <time>2025-06-05T08:21:17.000Z</time>
      </trkpt>
      <trkpt lat="46.70729" lon="5.88026">
        <ele>684.59997558594</ele>
        <time>2025-06-05T08:21:18.000Z</time>
      </trkpt>
      <trkpt lat="46.70748" lon="5.8805">
        <ele>684.20001220703</ele>
        <time>2025-06-05T08:21:22.000Z</time>
      </trkpt>
      <trkpt lat="46.70776" lon="5.88073">
        <ele>684</ele>
        <time>2025-06-05T08:21:28.000Z</time>
      </trkpt>
      <trkpt lat="46.70785" lon="5.88082">
        <ele>684</ele>
        <time>2025-06-05T08:21:30.000Z</time>
      </trkpt>
      <trkpt lat="46.70795" lon="5.88096">
        <ele>684</ele>
        <time>2025-06-05T08:21:33.000Z</time>
      </trkpt>
      <trkpt lat="46.708" lon="5.88107">
        <ele>683.79998779297</ele>
        <time>2025-06-05T08:21:35.000Z</time>
      </trkpt>
      <trkpt lat="46.70804" lon="5.8812">
        <ele>683.79998779297</ele>
        <time>2025-06-05T08:21:37.000Z</time>
      </trkpt>
      <trkpt lat="46.7081" lon="5.88153">
        <ele>683.59997558594</ele>
        <time>2025-06-05T08:21:41.000Z</time>
      </trkpt>
      <trkpt lat="46.70812" lon="5.88163">
        <ele>683.40002441406</ele>
        <time>2025-06-05T08:21:42.000Z</time>
      </trkpt>
      <trkpt lat="46.70826" lon="5.88212">
        <ele>682.40002441406</ele>
        <time>2025-06-05T08:21:47.000Z</time>
      </trkpt>
      <trkpt lat="46.70827" lon="5.88222">
        <ele>682.20001220703</ele>
        <time>2025-06-05T08:21:48.000Z</time>
      </trkpt>
      <trkpt lat="46.70827" lon="5.8824">
        <ele>681.79998779297</ele>
        <time>2025-06-05T08:21:50.000Z</time>
      </trkpt>
      <trkpt lat="46.70825" lon="5.88249">
        <ele>681.40002441406</ele>
        <time>2025-06-05T08:21:51.000Z</time>
      </trkpt>
      <trkpt lat="46.70823" lon="5.88256">
        <ele>681.40002441406</ele>
        <time>2025-06-05T08:21:52.000Z</time>
      </trkpt>
      <trkpt lat="46.70819" lon="5.88263">
        <ele>681.20001220703</ele>
        <time>2025-06-05T08:21:53.000Z</time>
      </trkpt>
      <trkpt lat="46.70813" lon="5.88273">
        <ele>681.20001220703</ele>
        <time>2025-06-05T08:21:55.000Z</time>
      </trkpt>
      <trkpt lat="46.70792" lon="5.88313">
        <ele>682</ele>
        <time>2025-06-05T08:22:02.000Z</time>
      </trkpt>
      <trkpt lat="46.70788" lon="5.88323">
        <ele>682.59997558594</ele>
        <time>2025-06-05T08:22:04.000Z</time>
      </trkpt>
      <trkpt lat="46.7078" lon="5.88339">
        <ele>683.20001220703</ele>
        <time>2025-06-05T08:22:07.000Z</time>
      </trkpt>
      <trkpt lat="46.70773" lon="5.88355">
        <ele>683.59997558594</ele>
        <time>2025-06-05T08:22:10.000Z</time>
      </trkpt>
      <trkpt lat="46.70765" lon="5.88372">
        <ele>684.59997558594</ele>
        <time>2025-06-05T08:22:13.000Z</time>
      </trkpt>
      <trkpt lat="46.70759" lon="5.88386">
        <ele>685.79998779297</ele>
        <time>2025-06-05T08:22:16.000Z</time>
      </trkpt>
      <trkpt lat="46.70757" lon="5.88391">
        <ele>686</ele>
        <time>2025-06-05T08:22:17.000Z</time>
      </trkpt>
      <trkpt lat="46.70752" lon="5.88407">
        <ele>687</ele>
        <time>2025-06-05T08:22:20.000Z</time>
      </trkpt>
      <trkpt lat="46.70751" lon="5.88425">
        <ele>687.79998779297</ele>
        <time>2025-06-05T08:22:23.000Z</time>
      </trkpt>
      <trkpt lat="46.70751" lon="5.88438">
        <ele>688</ele>
        <time>2025-06-05T08:22:25.000Z</time>
      </trkpt>
      <trkpt lat="46.70753" lon="5.88461">
        <ele>688.59997558594</ele>
        <time>2025-06-05T08:22:28.000Z</time>
      </trkpt>
      <trkpt lat="46.70759" lon="5.88485">
        <ele>689.20001220703</ele>
        <time>2025-06-05T08:22:32.000Z</time>
      </trkpt>
      <trkpt lat="46.70765" lon="5.88502">
        <ele>689.40002441406</ele>
        <time>2025-06-05T08:22:35.000Z</time>
      </trkpt>
      <trkpt lat="46.70775" lon="5.88525">
        <ele>690.20001220703</ele>
        <time>2025-06-05T08:22:39.000Z</time>
      </trkpt>
      <trkpt lat="46.70777" lon="5.88531">
        <ele>690.40002441406</ele>
        <time>2025-06-05T08:22:40.000Z</time>
      </trkpt>
      <trkpt lat="46.70781" lon="5.88548">
        <ele>691.20001220703</ele>
        <time>2025-06-05T08:22:43.000Z</time>
      </trkpt>
      <trkpt lat="46.70782" lon="5.88554">
        <ele>691.40002441406</ele>
        <time>2025-06-05T08:22:44.000Z</time>
      </trkpt>
      <trkpt lat="46.70783" lon="5.8856">
        <ele>692</ele>
        <time>2025-06-05T08:22:45.000Z</time>
      </trkpt>
      <trkpt lat="46.70784" lon="5.88573">
        <ele>692.59997558594</ele>
        <time>2025-06-05T08:22:47.000Z</time>
      </trkpt>
      <trkpt lat="46.70786" lon="5.88602">
        <ele>693.79998779297</ele>
        <time>2025-06-05T08:22:51.000Z</time>
      </trkpt>
      <trkpt lat="46.70793" lon="5.88654">
        <ele>694.40002441406</ele>
        <time>2025-06-05T08:22:59.000Z</time>
      </trkpt>
      <trkpt lat="46.70793" lon="5.88684">
        <ele>694.59997558594</ele>
        <time>2025-06-05T08:23:04.000Z</time>
      </trkpt>
      <trkpt lat="46.70791" lon="5.88699">
        <ele>694.40002441406</ele>
        <time>2025-06-05T08:23:06.000Z</time>
      </trkpt>
      <trkpt lat="46.70788" lon="5.88713">
        <ele>694.40002441406</ele>
        <time>2025-06-05T08:23:08.000Z</time>
      </trkpt>
      <trkpt lat="46.70782" lon="5.88734">
        <ele>694.20001220703</ele>
        <time>2025-06-05T08:23:11.000Z</time>
      </trkpt>
      <trkpt lat="46.70759" lon="5.88779">
        <ele>693.59997558594</ele>
        <time>2025-06-05T08:23:18.000Z</time>
      </trkpt>
      <trkpt lat="46.70756" lon="5.8881">
        <ele>693.59997558594</ele>
        <time>2025-06-05T08:23:22.000Z</time>
      </trkpt>
      <trkpt lat="46.70756" lon="5.88815">
        <ele>693.79998779297</ele>
        <time>2025-06-05T08:23:23.000Z</time>
      </trkpt>
      <trkpt lat="46.70752" lon="5.88847">
        <ele>694.20001220703</ele>
        <time>2025-06-05T08:23:28.000Z</time>
      </trkpt>
      <trkpt lat="46.70746" lon="5.88866">
        <ele>694.20001220703</ele>
        <time>2025-06-05T08:23:31.000Z</time>
      </trkpt>
      <trkpt lat="46.70737" lon="5.88883">
        <ele>694</ele>
        <time>2025-06-05T08:23:34.000Z</time>
      </trkpt>
      <trkpt lat="46.70712" lon="5.88919">
        <ele>692.59997558594</ele>
        <time>2025-06-05T08:23:42.000Z</time>
      </trkpt>
      <trkpt lat="46.70708" lon="5.88927">
        <ele>691.59997558594</ele>
        <time>2025-06-05T08:23:45.000Z</time>
      </trkpt>
      <trkpt lat="46.70709" lon="5.88931">
        <ele>691</ele>
        <time>2025-06-05T08:23:46.000Z</time>
      </trkpt>
      <trkpt lat="46.70713" lon="5.88937">
        <ele>690.59997558594</ele>
        <time>2025-06-05T08:23:48.000Z</time>
      </trkpt>
      <trkpt lat="46.70721" lon="5.88945">
        <ele>690</ele>
        <time>2025-06-05T08:23:51.000Z</time>
      </trkpt>
      <trkpt lat="46.70727" lon="5.88949">
        <ele>689.20001220703</ele>
        <time>2025-06-05T08:23:53.000Z</time>
      </trkpt>
      <trkpt lat="46.70735" lon="5.88954">
        <ele>688.59997558594</ele>
        <time>2025-06-05T08:23:57.000Z</time>
      </trkpt>
      <trkpt lat="46.70736" lon="5.88955">
        <ele>688.40002441406</ele>
        <time>2025-06-05T08:23:58.000Z</time>
      </trkpt>
      <trkpt lat="46.70737" lon="5.88954">
        <ele>688</ele>
        <time>2025-06-05T08:23:59.000Z</time>
      </trkpt>
      <trkpt lat="46.70737" lon="5.88954">
        <ele>688</ele>
        <time>2025-06-05T08:24:00.000Z</time>
      </trkpt>
      <trkpt lat="46.70737" lon="5.88954">
        <ele>687.40002441406</ele>
        <time>2025-06-05T08:24:13.000Z</time>
      </trkpt>
      <trkpt lat="46.70742" lon="5.88952">
        <ele>687.20001220703</ele>
        <time>2025-06-05T08:24:17.000Z</time>
      </trkpt>
      <trkpt lat="46.70746" lon="5.88952">
        <ele>687</ele>
        <time>2025-06-05T08:24:24.000Z</time>
      </trkpt>
      <trkpt lat="46.70746" lon="5.88952">
        <ele>687</ele>
        <time>2025-06-05T08:24:49.000Z</time>
      </trkpt>
      <trkpt lat="46.70746" lon="5.88947">
        <ele>687</ele>
        <time>2025-06-05T08:24:51.000Z</time>
      </trkpt>
      <trkpt lat="46.70742" lon="5.88945">
        <ele>686.79998779297</ele>
        <time>2025-06-05T08:24:53.000Z</time>
      </trkpt>
      <trkpt lat="46.70737" lon="5.88947">
        <ele>687</ele>
        <time>2025-06-05T08:24:55.000Z</time>
      </trkpt>
      <trkpt lat="46.70725" lon="5.88945">
        <ele>687.20001220703</ele>
        <time>2025-06-05T08:25:00.000Z</time>
      </trkpt>
      <trkpt lat="46.70712" lon="5.88928">
        <ele>688.40002441406</ele>
        <time>2025-06-05T08:25:08.000Z</time>
      </trkpt>
      <trkpt lat="46.7071" lon="5.88926">
        <ele>688.40002441406</ele>
        <time>2025-06-05T08:25:09.000Z</time>
      </trkpt>
      <trkpt lat="46.70704" lon="5.88926">
        <ele>689</ele>
        <time>2025-06-05T08:25:13.000Z</time>
      </trkpt>
      <trkpt lat="46.70703" lon="5.88929">
        <ele>689</ele>
        <time>2025-06-05T08:25:14.000Z</time>
      </trkpt>
      <trkpt lat="46.70691" lon="5.88949">
        <ele>689</ele>
        <time>2025-06-05T08:25:19.000Z</time>
      </trkpt>
      <trkpt lat="46.70673" lon="5.88986">
        <ele>688.20001220703</ele>
        <time>2025-06-05T08:25:24.000Z</time>
      </trkpt>
      <trkpt lat="46.7066" lon="5.89017">
        <ele>687.20001220703</ele>
        <time>2025-06-05T08:25:27.000Z</time>
      </trkpt>
      <trkpt lat="46.70656" lon="5.89028">
        <ele>687</ele>
        <time>2025-06-05T08:25:28.000Z</time>
      </trkpt>
      <trkpt lat="46.70647" lon="5.89049">
        <ele>686.20001220703</ele>
        <time>2025-06-05T08:25:30.000Z</time>
      </trkpt>
      <trkpt lat="46.70637" lon="5.89069">
        <ele>685.40002441406</ele>
        <time>2025-06-05T08:25:32.000Z</time>
      </trkpt>
      <trkpt lat="46.70632" lon="5.89077">
        <ele>684.79998779297</ele>
        <time>2025-06-05T08:25:33.000Z</time>
      </trkpt>
      <trkpt lat="46.70614" lon="5.89096">
        <ele>683.59997558594</ele>
        <time>2025-06-05T08:25:36.000Z</time>
      </trkpt>
      <trkpt lat="46.70584" lon="5.8911">
        <ele>682.79998779297</ele>
        <time>2025-06-05T08:25:41.000Z</time>
      </trkpt>
      <trkpt lat="46.70575" lon="5.89116">
        <ele>682.79998779297</ele>
        <time>2025-06-05T08:25:43.000Z</time>
      </trkpt>
      <trkpt lat="46.70561" lon="5.89129">
        <ele>682.79998779297</ele>
        <time>2025-06-05T08:25:46.000Z</time>
      </trkpt>
      <trkpt lat="46.70558" lon="5.89133">
        <ele>682.79998779297</ele>
        <time>2025-06-05T08:25:47.000Z</time>
      </trkpt>
      <trkpt lat="46.70553" lon="5.89142">
        <ele>682.79998779297</ele>
        <time>2025-06-05T08:25:49.000Z</time>
      </trkpt>
      <trkpt lat="46.70546" lon="5.8916">
        <ele>683</ele>
        <time>2025-06-05T08:25:52.000Z</time>
      </trkpt>
      <trkpt lat="46.70534" lon="5.89224">
        <ele>682.40002441406</ele>
        <time>2025-06-05T08:26:01.000Z</time>
      </trkpt>
      <trkpt lat="46.70528" lon="5.8924">
        <ele>682</ele>
        <time>2025-06-05T08:26:03.000Z</time>
      </trkpt>
      <trkpt lat="46.7052" lon="5.89254">
        <ele>681.40002441406</ele>
        <time>2025-06-05T08:26:05.000Z</time>
      </trkpt>
      <trkpt lat="46.70515" lon="5.89261">
        <ele>681.20001220703</ele>
        <time>2025-06-05T08:26:06.000Z</time>
      </trkpt>
      <trkpt lat="46.70497" lon="5.89287">
        <ele>679.59997558594</ele>
        <time>2025-06-05T08:26:10.000Z</time>
      </trkpt>
      <trkpt lat="46.70493" lon="5.89294">
        <ele>679.40002441406</ele>
        <time>2025-06-05T08:26:11.000Z</time>
      </trkpt>
      <trkpt lat="46.70485" lon="5.89308">
        <ele>678.40002441406</ele>
        <time>2025-06-05T08:26:13.000Z</time>
      </trkpt>
      <trkpt lat="46.70479" lon="5.89325">
        <ele>677</ele>
        <time>2025-06-05T08:26:16.000Z</time>
      </trkpt>
      <trkpt lat="46.70475" lon="5.89334">
        <ele>676.20001220703</ele>
        <time>2025-06-05T08:26:20.000Z</time>
      </trkpt>
      <trkpt lat="46.70475" lon="5.89334">
        <ele>676</ele>
        <time>2025-06-05T08:26:25.000Z</time>
      </trkpt>
      <trkpt lat="46.70476" lon="5.89338">
        <ele>676</ele>
        <time>2025-06-05T08:26:31.000Z</time>
      </trkpt>
      <trkpt lat="46.70477" lon="5.89338">
        <ele>676</ele>
        <time>2025-06-05T08:26:32.000Z</time>
      </trkpt>
      <trkpt lat="46.70478" lon="5.8934">
        <ele>675.79998779297</ele>
        <time>2025-06-05T08:26:37.000Z</time>
      </trkpt>
      <trkpt lat="46.70478" lon="5.8934">
        <ele>675.40002441406</ele>
        <time>2025-06-05T08:26:43.000Z</time>
      </trkpt>
      <trkpt lat="46.70483" lon="5.8934">
        <ele>675.20001220703</ele>
        <time>2025-06-05T08:26:45.000Z</time>
      </trkpt>
      <trkpt lat="46.70503" lon="5.8934">
        <ele>675</ele>
        <time>2025-06-05T08:26:51.000Z</time>
      </trkpt>
      <trkpt lat="46.70532" lon="5.89344">
        <ele>674.79998779297</ele>
        <time>2025-06-05T08:27:00.000Z</time>
      </trkpt>
      <trkpt lat="46.70542" lon="5.89346">
        <ele>674.79998779297</ele>
        <time>2025-06-05T08:27:03.000Z</time>
      </trkpt>
      <trkpt lat="46.70558" lon="5.8935">
        <ele>674.40002441406</ele>
        <time>2025-06-05T08:27:08.000Z</time>
      </trkpt>
      <trkpt lat="46.70579" lon="5.89361">
        <ele>673.79998779297</ele>
        <time>2025-06-05T08:27:15.000Z</time>
      </trkpt>
      <trkpt lat="46.70582" lon="5.89362">
        <ele>673.79998779297</ele>
        <time>2025-06-05T08:27:16.000Z</time>
      </trkpt>
      <trkpt lat="46.70586" lon="5.89363">
        <ele>673.20001220703</ele>
        <time>2025-06-05T08:27:20.000Z</time>
      </trkpt>
      <trkpt lat="46.70586" lon="5.89363">
        <ele>672.79998779297</ele>
        <time>2025-06-05T08:27:25.000Z</time>
      </trkpt>
      <trkpt lat="46.70586" lon="5.89363">
        <ele>672.59997558594</ele>
        <time>2025-06-05T08:27:31.000Z</time>
      </trkpt>
      <trkpt lat="46.70586" lon="5.89363">
        <ele>672.40002441406</ele>
        <time>2025-06-05T08:27:38.000Z</time>
      </trkpt>
      <trkpt lat="46.7059" lon="5.89368">
        <ele>672.40002441406</ele>
        <time>2025-06-05T08:27:56.000Z</time>
      </trkpt>
      <trkpt lat="46.70593" lon="5.89371">
        <ele>672.59997558594</ele>
        <time>2025-06-05T08:27:58.000Z</time>
      </trkpt>
      <trkpt lat="46.70601" lon="5.89381">
        <ele>672.40002441406</ele>
        <time>2025-06-05T08:28:02.000Z</time>
      </trkpt>
      <trkpt lat="46.70617" lon="5.89403">
        <ele>672</ele>
        <time>2025-06-05T08:28:08.000Z</time>
      </trkpt>
      <trkpt lat="46.70634" lon="5.89427">
        <ele>671.79998779297</ele>
        <time>2025-06-05T08:28:15.000Z</time>
      </trkpt>
      <trkpt lat="46.70645" lon="5.89434">
        <ele>671.59997558594</ele>
        <time>2025-06-05T08:28:20.000Z</time>
      </trkpt>
      <trkpt lat="46.70664" lon="5.89447">
        <ele>671.59997558594</ele>
        <time>2025-06-05T08:28:26.000Z</time>
      </trkpt>
      <trkpt lat="46.70666" lon="5.89446">
        <ele>671.59997558594</ele>
        <time>2025-06-05T08:28:27.000Z</time>
      </trkpt>
      <trkpt lat="46.70668" lon="5.89445">
        <ele>671.59997558594</ele>
        <time>2025-06-05T08:28:28.000Z</time>
      </trkpt>
      <trkpt lat="46.70681" lon="5.89448">
        <ele>671.79998779297</ele>
        <time>2025-06-05T08:28:34.000Z</time>
      </trkpt>
      <trkpt lat="46.70698" lon="5.89446">
        <ele>671.79998779297</ele>
        <time>2025-06-05T08:28:42.000Z</time>
      </trkpt>
      <trkpt lat="46.7071" lon="5.89446">
        <ele>671.79998779297</ele>
        <time>2025-06-05T08:28:46.000Z</time>
      </trkpt>
      <trkpt lat="46.70725" lon="5.89445">
        <ele>671.40002441406</ele>
        <time>2025-06-05T08:28:52.000Z</time>
      </trkpt>
      <trkpt lat="46.70727" lon="5.89445">
        <ele>671.20001220703</ele>
        <time>2025-06-05T08:28:53.000Z</time>
      </trkpt>
      <trkpt lat="46.70743" lon="5.89446">
        <ele>670.79998779297</ele>
        <time>2025-06-05T08:28:57.000Z</time>
      </trkpt>
      <trkpt lat="46.70758" lon="5.89441">
        <ele>670.79998779297</ele>
        <time>2025-06-05T08:29:01.000Z</time>
      </trkpt>
      <trkpt lat="46.7076" lon="5.89438">
        <ele>670.59997558594</ele>
        <time>2025-06-05T08:29:02.000Z</time>
      </trkpt>
      <trkpt lat="46.70763" lon="5.89437">
        <ele>670.59997558594</ele>
        <time>2025-06-05T08:29:03.000Z</time>
      </trkpt>
      <trkpt lat="46.70775" lon="5.89436">
        <ele>670.59997558594</ele>
        <time>2025-06-05T08:29:07.000Z</time>
      </trkpt>
      <trkpt lat="46.70779" lon="5.89435">
        <ele>670.59997558594</ele>
        <time>2025-06-05T08:29:09.000Z</time>
      </trkpt>
      <trkpt lat="46.70791" lon="5.89438">
        <ele>670.40002441406</ele>
        <time>2025-06-05T08:29:12.000Z</time>
      </trkpt>
      <trkpt lat="46.70797" lon="5.89438">
        <ele>670.40002441406</ele>
        <time>2025-06-05T08:29:14.000Z</time>
      </trkpt>
      <trkpt lat="46.70804" lon="5.89436">
        <ele>670.20001220703</ele>
        <time>2025-06-05T08:29:18.000Z</time>
      </trkpt>
      <trkpt lat="46.70813" lon="5.89435">
        <ele>670</ele>
        <time>2025-06-05T08:29:20.000Z</time>
      </trkpt>
      <trkpt lat="46.70822" lon="5.89434">
        <ele>669.79998779297</ele>
        <time>2025-06-05T08:29:22.000Z</time>
      </trkpt>
      <trkpt lat="46.70831" lon="5.8943">
        <ele>669.79998779297</ele>
        <time>2025-06-05T08:29:25.000Z</time>
      </trkpt>
      <trkpt lat="46.70843" lon="5.8942">
        <ele>669.40002441406</ele>
        <time>2025-06-05T08:29:29.000Z</time>
      </trkpt>
      <trkpt lat="46.70848" lon="5.89417">
        <ele>669.40002441406</ele>
        <time>2025-06-05T08:29:30.000Z</time>
      </trkpt>
      <trkpt lat="46.70852" lon="5.89418">
        <ele>669.40002441406</ele>
        <time>2025-06-05T08:29:31.000Z</time>
      </trkpt>
      <trkpt lat="46.70872" lon="5.89413">
        <ele>669</ele>
        <time>2025-06-05T08:29:36.000Z</time>
      </trkpt>
      <trkpt lat="46.7089" lon="5.89399">
        <ele>668.59997558594</ele>
        <time>2025-06-05T08:29:40.000Z</time>
      </trkpt>
      <trkpt lat="46.70895" lon="5.89397">
        <ele>668.59997558594</ele>
        <time>2025-06-05T08:29:41.000Z</time>
      </trkpt>
      <trkpt lat="46.70905" lon="5.89389">
        <ele>668.20001220703</ele>
        <time>2025-06-05T08:29:43.000Z</time>
      </trkpt>
      <trkpt lat="46.70917" lon="5.89385">
        <ele>667.20001220703</ele>
        <time>2025-06-05T08:29:46.000Z</time>
      </trkpt>
      <trkpt lat="46.70928" lon="5.8938">
        <ele>666.79998779297</ele>
        <time>2025-06-05T08:29:50.000Z</time>
      </trkpt>
      <trkpt lat="46.70952" lon="5.89376">
        <ele>666.20001220703</ele>
        <time>2025-06-05T08:29:57.000Z</time>
      </trkpt>
      <trkpt lat="46.7096" lon="5.89371">
        <ele>665.79998779297</ele>
        <time>2025-06-05T08:29:59.000Z</time>
      </trkpt>
      <trkpt lat="46.70972" lon="5.89363">
        <ele>665.59997558594</ele>
        <time>2025-06-05T08:30:02.000Z</time>
      </trkpt>
      <trkpt lat="46.70976" lon="5.89362">
        <ele>665.59997558594</ele>
        <time>2025-06-05T08:30:03.000Z</time>
      </trkpt>
      <trkpt lat="46.70991" lon="5.89358">
        <ele>665.40002441406</ele>
        <time>2025-06-05T08:30:06.000Z</time>
      </trkpt>
      <trkpt lat="46.70995" lon="5.89357">
        <ele>665.40002441406</ele>
        <time>2025-06-05T08:30:07.000Z</time>
      </trkpt>
      <trkpt lat="46.70998" lon="5.89358">
        <ele>665.40002441406</ele>
        <time>2025-06-05T08:30:08.000Z</time>
      </trkpt>
      <trkpt lat="46.71014" lon="5.89352">
        <ele>665.20001220703</ele>
        <time>2025-06-05T08:30:12.000Z</time>
      </trkpt>
      <trkpt lat="46.71021" lon="5.89344">
        <ele>664.79998779297</ele>
        <time>2025-06-05T08:30:14.000Z</time>
      </trkpt>
      <trkpt lat="46.71023" lon="5.89336">
        <ele>664.40002441406</ele>
        <time>2025-06-05T08:30:16.000Z</time>
      </trkpt>
      <trkpt lat="46.71027" lon="5.89321">
        <ele>663.59997558594</ele>
        <time>2025-06-05T08:30:20.000Z</time>
      </trkpt>
      <trkpt lat="46.71028" lon="5.89318">
        <ele>663.59997558594</ele>
        <time>2025-06-05T08:30:21.000Z</time>
      </trkpt>
      <trkpt lat="46.7103" lon="5.89317">
        <ele>663.40002441406</ele>
        <time>2025-06-05T08:30:22.000Z</time>
      </trkpt>
      <trkpt lat="46.71041" lon="5.89305">
        <ele>662.79998779297</ele>
        <time>2025-06-05T08:30:26.000Z</time>
      </trkpt>
      <trkpt lat="46.71043" lon="5.89302">
        <ele>662.40002441406</ele>
        <time>2025-06-05T08:30:27.000Z</time>
      </trkpt>
      <trkpt lat="46.71047" lon="5.89297">
        <ele>661.79998779297</ele>
        <time>2025-06-05T08:30:29.000Z</time>
      </trkpt>
      <trkpt lat="46.71051" lon="5.89292">
        <ele>661.59997558594</ele>
        <time>2025-06-05T08:30:31.000Z</time>
      </trkpt>
      <trkpt lat="46.71052" lon="5.89288">
        <ele>661.59997558594</ele>
        <time>2025-06-05T08:30:33.000Z</time>
      </trkpt>
      <trkpt lat="46.71055" lon="5.89288">
        <ele>661.20001220703</ele>
        <time>2025-06-05T08:30:35.000Z</time>
      </trkpt>
      <trkpt lat="46.71057" lon="5.89285">
        <ele>661.20001220703</ele>
        <time>2025-06-05T08:30:36.000Z</time>
      </trkpt>
      <trkpt lat="46.71068" lon="5.89264">
        <ele>660.79998779297</ele>
        <time>2025-06-05T08:30:41.000Z</time>
      </trkpt>
      <trkpt lat="46.71083" lon="5.8925">
        <ele>660.79998779297</ele>
        <time>2025-06-05T08:30:46.000Z</time>
      </trkpt>
      <trkpt lat="46.71085" lon="5.8925">
        <ele>660.79998779297</ele>
        <time>2025-06-05T08:30:47.000Z</time>
      </trkpt>
      <trkpt lat="46.71093" lon="5.8925">
        <ele>660.59997558594</ele>
        <time>2025-06-05T08:30:50.000Z</time>
      </trkpt>
      <trkpt lat="46.71109" lon="5.89251">
        <ele>660.40002441406</ele>
        <time>2025-06-05T08:30:55.000Z</time>
      </trkpt>
      <trkpt lat="46.71117" lon="5.89249">
        <ele>660.20001220703</ele>
        <time>2025-06-05T08:30:58.000Z</time>
      </trkpt>
      <trkpt lat="46.71118" lon="5.89247">
        <ele>660</ele>
        <time>2025-06-05T08:30:59.000Z</time>
      </trkpt>
      <trkpt lat="46.71127" lon="5.89239">
        <ele>659.79998779297</ele>
        <time>2025-06-05T08:31:04.000Z</time>
      </trkpt>
      <trkpt lat="46.71128" lon="5.89238">
        <ele>659.79998779297</ele>
        <time>2025-06-05T08:31:05.000Z</time>
      </trkpt>
      <trkpt lat="46.71134" lon="5.89239">
        <ele>659.59997558594</ele>
        <time>2025-06-05T08:31:07.000Z</time>
      </trkpt>
      <trkpt lat="46.71152" lon="5.8924">
        <ele>659.59997558594</ele>
        <time>2025-06-05T08:31:11.000Z</time>
      </trkpt>
      <trkpt lat="46.71154" lon="5.89239">
        <ele>659.59997558594</ele>
        <time>2025-06-05T08:31:12.000Z</time>
      </trkpt>
      <trkpt lat="46.71163" lon="5.89237">
        <ele>659.40002441406</ele>
        <time>2025-06-05T08:31:15.000Z</time>
      </trkpt>
      <trkpt lat="46.71173" lon="5.8923">
        <ele>659.40002441406</ele>
        <time>2025-06-05T08:31:18.000Z</time>
      </trkpt>
      <trkpt lat="46.71185" lon="5.89222">
        <ele>659.40002441406</ele>
        <time>2025-06-05T08:31:21.000Z</time>
      </trkpt>
      <trkpt lat="46.71196" lon="5.8922">
        <ele>659.20001220703</ele>
        <time>2025-06-05T08:31:23.000Z</time>
      </trkpt>
      <trkpt lat="46.71202" lon="5.89221">
        <ele>659.20001220703</ele>
        <time>2025-06-05T08:31:24.000Z</time>
      </trkpt>
      <trkpt lat="46.71208" lon="5.8922">
        <ele>659.20001220703</ele>
        <time>2025-06-05T08:31:25.000Z</time>
      </trkpt>
      <trkpt lat="46.71224" lon="5.8921">
        <ele>659</ele>
        <time>2025-06-05T08:31:28.000Z</time>
      </trkpt>
      <trkpt lat="46.71232" lon="5.89204">
        <ele>659</ele>
        <time>2025-06-05T08:31:30.000Z</time>
      </trkpt>
      <trkpt lat="46.71237" lon="5.892">
        <ele>658.59997558594</ele>
        <time>2025-06-05T08:31:32.000Z</time>
      </trkpt>
      <trkpt lat="46.71253" lon="5.89193">
        <ele>658.40002441406</ele>
        <time>2025-06-05T08:31:35.000Z</time>
      </trkpt>
      <trkpt lat="46.71259" lon="5.89189">
        <ele>658.40002441406</ele>
        <time>2025-06-05T08:31:36.000Z</time>
      </trkpt>
      <trkpt lat="46.71277" lon="5.89179">
        <ele>658</ele>
        <time>2025-06-05T08:31:41.000Z</time>
      </trkpt>
      <trkpt lat="46.71293" lon="5.89166">
        <ele>657.59997558594</ele>
        <time>2025-06-05T08:31:46.000Z</time>
      </trkpt>
      <trkpt lat="46.71294" lon="5.89165">
        <ele>657.40002441406</ele>
        <time>2025-06-05T08:31:47.000Z</time>
      </trkpt>
      <trkpt lat="46.71298" lon="5.89165">
        <ele>657</ele>
        <time>2025-06-05T08:31:50.000Z</time>
      </trkpt>
      <trkpt lat="46.71299" lon="5.89165">
        <ele>657</ele>
        <time>2025-06-05T08:31:51.000Z</time>
      </trkpt>
      <trkpt lat="46.71301" lon="5.89166">
        <ele>656.59997558594</ele>
        <time>2025-06-05T08:31:55.000Z</time>
      </trkpt>
      <trkpt lat="46.71305" lon="5.89169">
        <ele>656.40002441406</ele>
        <time>2025-06-05T08:31:59.000Z</time>
      </trkpt>
      <trkpt lat="46.71307" lon="5.89167">
        <ele>656.40002441406</ele>
        <time>2025-06-05T08:32:00.000Z</time>
      </trkpt>
      <trkpt lat="46.71309" lon="5.89166">
        <ele>656.40002441406</ele>
        <time>2025-06-05T08:32:01.000Z</time>
      </trkpt>
      <trkpt lat="46.71315" lon="5.89167">
        <ele>656.40002441406</ele>
        <time>2025-06-05T08:32:03.000Z</time>
      </trkpt>
      <trkpt lat="46.71318" lon="5.89167">
        <ele>656.40002441406</ele>
        <time>2025-06-05T08:32:04.000Z</time>
      </trkpt>
      <trkpt lat="46.71321" lon="5.89167">
        <ele>656.59997558594</ele>
        <time>2025-06-05T08:32:05.000Z</time>
      </trkpt>
      <trkpt lat="46.71333" lon="5.89169">
        <ele>656.40002441406</ele>
        <time>2025-06-05T08:32:08.000Z</time>
      </trkpt>
      <trkpt lat="46.71338" lon="5.89171">
        <ele>656.20001220703</ele>
        <time>2025-06-05T08:32:10.000Z</time>
      </trkpt>
      <trkpt lat="46.71345" lon="5.89172">
        <ele>655.79998779297</ele>
        <time>2025-06-05T08:32:12.000Z</time>
      </trkpt>
      <trkpt lat="46.71354" lon="5.89169">
        <ele>655.79998779297</ele>
        <time>2025-06-05T08:32:14.000Z</time>
      </trkpt>
      <trkpt lat="46.71357" lon="5.89168">
        <ele>655.79998779297</ele>
        <time>2025-06-05T08:32:15.000Z</time>
      </trkpt>
      <trkpt lat="46.71367" lon="5.89164">
        <ele>655.40002441406</ele>
        <time>2025-06-05T08:32:17.000Z</time>
      </trkpt>
      <trkpt lat="46.71374" lon="5.89163">
        <ele>655</ele>
        <time>2025-06-05T08:32:19.000Z</time>
      </trkpt>
      <trkpt lat="46.71378" lon="5.89162">
        <ele>655</ele>
        <time>2025-06-05T08:32:20.000Z</time>
      </trkpt>
      <trkpt lat="46.71422" lon="5.89158">
        <ele>654.79998779297</ele>
        <time>2025-06-05T08:32:26.000Z</time>
      </trkpt>
      <trkpt lat="46.71429" lon="5.89159">
        <ele>655</ele>
        <time>2025-06-05T08:32:28.000Z</time>
      </trkpt>
      <trkpt lat="46.71434" lon="5.89165">
        <ele>655.40002441406</ele>
        <time>2025-06-05T08:32:30.000Z</time>
      </trkpt>
      <trkpt lat="46.71434" lon="5.89173">
        <ele>655.59997558594</ele>
        <time>2025-06-05T08:32:33.000Z</time>
      </trkpt>
      <trkpt lat="46.71431" lon="5.89175">
        <ele>655.79998779297</ele>
        <time>2025-06-05T08:32:34.000Z</time>
      </trkpt>
      <trkpt lat="46.71427" lon="5.89176">
        <ele>655.79998779297</ele>
        <time>2025-06-05T08:32:35.000Z</time>
      </trkpt>
      <trkpt lat="46.71417" lon="5.89184">
        <ele>656.20001220703</ele>
        <time>2025-06-05T08:32:40.000Z</time>
      </trkpt>
      <trkpt lat="46.71414" lon="5.89193">
        <ele>656.59997558594</ele>
        <time>2025-06-05T08:32:43.000Z</time>
      </trkpt>
      <trkpt lat="46.71416" lon="5.89196">
        <ele>657</ele>
        <time>2025-06-05T08:32:44.000Z</time>
      </trkpt>
      <trkpt lat="46.71418" lon="5.89198">
        <ele>657.40002441406</ele>
        <time>2025-06-05T08:32:46.000Z</time>
      </trkpt>
      <trkpt lat="46.71419" lon="5.89197">
        <ele>657.40002441406</ele>
        <time>2025-06-05T08:32:47.000Z</time>
      </trkpt>
      <trkpt lat="46.71421" lon="5.89196">
        <ele>657.79998779297</ele>
        <time>2025-06-05T08:32:49.000Z</time>
      </trkpt>
      <trkpt lat="46.71423" lon="5.89199">
        <ele>658</ele>
        <time>2025-06-05T08:32:51.000Z</time>
      </trkpt>
      <trkpt lat="46.71425" lon="5.89201">
        <ele>658.20001220703</ele>
        <time>2025-06-05T08:32:52.000Z</time>
      </trkpt>
      <trkpt lat="46.71429" lon="5.89213">
        <ele>658.59997558594</ele>
        <time>2025-06-05T08:32:59.000Z</time>
      </trkpt>
      <trkpt lat="46.71429" lon="5.89213">
        <ele>659</ele>
        <time>2025-06-05T08:33:03.000Z</time>
      </trkpt>
      <trkpt lat="46.7143" lon="5.89211">
        <ele>659.20001220703</ele>
        <time>2025-06-05T08:33:07.000Z</time>
      </trkpt>
      <trkpt lat="46.71431" lon="5.89212">
        <ele>659</ele>
        <time>2025-06-05T08:33:20.000Z</time>
      </trkpt>
      <trkpt lat="46.71431" lon="5.89212">
        <ele>659.79998779297</ele>
        <time>2025-06-05T08:34:15.000Z</time>
      </trkpt>
      <trkpt lat="46.71431" lon="5.89211">
        <ele>659.59997558594</ele>
        <time>2025-06-05T08:35:24.000Z</time>
      </trkpt>
      <trkpt lat="46.71428" lon="5.89204">
        <ele>659.20001220703</ele>
        <time>2025-06-05T08:35:27.000Z</time>
      </trkpt>
      <trkpt lat="46.71421" lon="5.89198">
        <ele>659</ele>
        <time>2025-06-05T08:35:32.000Z</time>
      </trkpt>
      <trkpt lat="46.71415" lon="5.89196">
        <ele>658.79998779297</ele>
        <time>2025-06-05T08:35:36.000Z</time>
      </trkpt>
      <trkpt lat="46.71413" lon="5.89195">
        <ele>658.79998779297</ele>
        <time>2025-06-05T08:35:37.000Z</time>
      </trkpt>
      <trkpt lat="46.71412" lon="5.89196">
        <ele>658.59997558594</ele>
        <time>2025-06-05T08:35:38.000Z</time>
      </trkpt>
      <trkpt lat="46.71402" lon="5.89203">
        <ele>658.79998779297</ele>
        <time>2025-06-05T08:35:44.000Z</time>
      </trkpt>
      <trkpt lat="46.714" lon="5.89204">
        <ele>659</ele>
        <time>2025-06-05T08:35:45.000Z</time>
      </trkpt>
      <trkpt lat="46.71387" lon="5.89216">
        <ele>660</ele>
        <time>2025-06-05T08:35:51.000Z</time>
      </trkpt>
      <trkpt lat="46.71382" lon="5.89221">
        <ele>660.59997558594</ele>
        <time>2025-06-05T08:35:53.000Z</time>
      </trkpt>
      <trkpt lat="46.71375" lon="5.89231">
        <ele>661.59997558594</ele>
        <time>2025-06-05T08:35:56.000Z</time>
      </trkpt>
      <trkpt lat="46.71373" lon="5.89234">
        <ele>661.79998779297</ele>
        <time>2025-06-05T08:35:57.000Z</time>
      </trkpt>
      <trkpt lat="46.7137" lon="5.89251">
        <ele>662.79998779297</ele>
        <time>2025-06-05T08:36:01.000Z</time>
      </trkpt>
      <trkpt lat="46.7137" lon="5.89272">
        <ele>664</ele>
        <time>2025-06-05T08:36:06.000Z</time>
      </trkpt>
      <trkpt lat="46.71373" lon="5.89278">
        <ele>664.79998779297</ele>
        <time>2025-06-05T08:36:08.000Z</time>
      </trkpt>
      <trkpt lat="46.71375" lon="5.89282">
        <ele>665.20001220703</ele>
        <time>2025-06-05T08:36:09.000Z</time>
      </trkpt>
      <trkpt lat="46.71382" lon="5.89293">
        <ele>666.20001220703</ele>
        <time>2025-06-05T08:36:13.000Z</time>
      </trkpt>
      <trkpt lat="46.7139" lon="5.89297">
        <ele>667.40002441406</ele>
        <time>2025-06-05T08:36:17.000Z</time>
      </trkpt>
      <trkpt lat="46.71392" lon="5.89298">
        <ele>667.79998779297</ele>
        <time>2025-06-05T08:36:18.000Z</time>
      </trkpt>
      <trkpt lat="46.71399" lon="5.89299">
        <ele>668.40002441406</ele>
        <time>2025-06-05T08:36:21.000Z</time>
      </trkpt>
      <trkpt lat="46.71401" lon="5.89299">
        <ele>668.40002441406</ele>
        <time>2025-06-05T08:36:22.000Z</time>
      </trkpt>
      <trkpt lat="46.71405" lon="5.893">
        <ele>668.79998779297</ele>
        <time>2025-06-05T08:36:24.000Z</time>
      </trkpt>
      <trkpt lat="46.71414" lon="5.89302">
        <ele>669.20001220703</ele>
        <time>2025-06-05T08:36:28.000Z</time>
      </trkpt>
      <trkpt lat="46.71423" lon="5.89302">
        <ele>669.40002441406</ele>
        <time>2025-06-05T08:36:32.000Z</time>
      </trkpt>
      <trkpt lat="46.71446" lon="5.89307">
        <ele>669.59997558594</ele>
        <time>2025-06-05T08:36:38.000Z</time>
      </trkpt>
      <trkpt lat="46.71474" lon="5.89316">
        <ele>670.20001220703</ele>
        <time>2025-06-05T08:36:44.000Z</time>
      </trkpt>
      <trkpt lat="46.7148" lon="5.89318">
        <ele>670.20001220703</ele>
        <time>2025-06-05T08:36:45.000Z</time>
      </trkpt>
      <trkpt lat="46.71501" lon="5.89332">
        <ele>670.59997558594</ele>
        <time>2025-06-05T08:36:49.000Z</time>
      </trkpt>
      <trkpt lat="46.71515" lon="5.89344">
        <ele>670.79998779297</ele>
        <time>2025-06-05T08:36:52.000Z</time>
      </trkpt>
      <trkpt lat="46.71523" lon="5.89354">
        <ele>670.79998779297</ele>
        <time>2025-06-05T08:36:54.000Z</time>
      </trkpt>
      <trkpt lat="46.71532" lon="5.89364">
        <ele>671</ele>
        <time>2025-06-05T08:36:56.000Z</time>
      </trkpt>
      <trkpt lat="46.71539" lon="5.89374">
        <ele>671.20001220703</ele>
        <time>2025-06-05T08:36:58.000Z</time>
      </trkpt>
      <trkpt lat="46.71545" lon="5.89385">
        <ele>671.59997558594</ele>
        <time>2025-06-05T08:37:00.000Z</time>
      </trkpt>
      <trkpt lat="46.71553" lon="5.89399">
        <ele>672.20001220703</ele>
        <time>2025-06-05T08:37:03.000Z</time>
      </trkpt>
      <trkpt lat="46.71555" lon="5.89404">
        <ele>672.20001220703</ele>
        <time>2025-06-05T08:37:04.000Z</time>
      </trkpt>
      <trkpt lat="46.71559" lon="5.89413">
        <ele>672.40002441406</ele>
        <time>2025-06-05T08:37:06.000Z</time>
      </trkpt>
      <trkpt lat="46.71576" lon="5.8944">
        <ele>672.79998779297</ele>
        <time>2025-06-05T08:37:13.000Z</time>
      </trkpt>
      <trkpt lat="46.71577" lon="5.89446">
        <ele>672.79998779297</ele>
        <time>2025-06-05T08:37:14.000Z</time>
      </trkpt>
      <trkpt lat="46.71578" lon="5.89456">
        <ele>673</ele>
        <time>2025-06-05T08:37:16.000Z</time>
      </trkpt>
      <trkpt lat="46.71577" lon="5.89461">
        <ele>673.20001220703</ele>
        <time>2025-06-05T08:37:17.000Z</time>
      </trkpt>
      <trkpt lat="46.71577" lon="5.89466">
        <ele>673.20001220703</ele>
        <time>2025-06-05T08:37:18.000Z</time>
      </trkpt>
      <trkpt lat="46.71577" lon="5.89473">
        <ele>673.40002441406</ele>
        <time>2025-06-05T08:37:19.000Z</time>
      </trkpt>
      <trkpt lat="46.71576" lon="5.89485">
        <ele>673.40002441406</ele>
        <time>2025-06-05T08:37:21.000Z</time>
      </trkpt>
      <trkpt lat="46.71574" lon="5.895">
        <ele>673.59997558594</ele>
        <time>2025-06-05T08:37:24.000Z</time>
      </trkpt>
      <trkpt lat="46.71574" lon="5.89513">
        <ele>673.79998779297</ele>
        <time>2025-06-05T08:37:26.000Z</time>
      </trkpt>
      <trkpt lat="46.71573" lon="5.89519">
        <ele>674</ele>
        <time>2025-06-05T08:37:27.000Z</time>
      </trkpt>
      <trkpt lat="46.71573" lon="5.89524">
        <ele>674</ele>
        <time>2025-06-05T08:37:28.000Z</time>
      </trkpt>
      <trkpt lat="46.71571" lon="5.89546">
        <ele>674.20001220703</ele>
        <time>2025-06-05T08:37:31.000Z</time>
      </trkpt>
      <trkpt lat="46.7157" lon="5.89565">
        <ele>674.40002441406</ele>
        <time>2025-06-05T08:37:34.000Z</time>
      </trkpt>
      <trkpt lat="46.71567" lon="5.89596">
        <ele>674.79998779297</ele>
        <time>2025-06-05T08:37:38.000Z</time>
      </trkpt>
      <trkpt lat="46.71564" lon="5.89623">
        <ele>675.20001220703</ele>
        <time>2025-06-05T08:37:42.000Z</time>
      </trkpt>
      <trkpt lat="46.71563" lon="5.89636">
        <ele>676.40002441406</ele>
        <time>2025-06-05T08:37:44.000Z</time>
      </trkpt>
      <trkpt lat="46.71564" lon="5.89658">
        <ele>677.79998779297</ele>
        <time>2025-06-05T08:37:48.000Z</time>
      </trkpt>
      <trkpt lat="46.71563" lon="5.89675">
        <ele>678.20001220703</ele>
        <time>2025-06-05T08:37:51.000Z</time>
      </trkpt>
      <trkpt lat="46.71564" lon="5.89692">
        <ele>679.20001220703</ele>
        <time>2025-06-05T08:37:54.000Z</time>
      </trkpt>
      <trkpt lat="46.71563" lon="5.89709">
        <ele>680.20001220703</ele>
        <time>2025-06-05T08:37:57.000Z</time>
      </trkpt>
      <trkpt lat="46.71563" lon="5.89724">
        <ele>681</ele>
        <time>2025-06-05T08:38:00.000Z</time>
      </trkpt>
      <trkpt lat="46.71563" lon="5.89734">
        <ele>681.79998779297</ele>
        <time>2025-06-05T08:38:02.000Z</time>
      </trkpt>
      <trkpt lat="46.71564" lon="5.89758">
        <ele>683</ele>
        <time>2025-06-05T08:38:07.000Z</time>
      </trkpt>
      <trkpt lat="46.71566" lon="5.89767">
        <ele>683.40002441406</ele>
        <time>2025-06-05T08:38:09.000Z</time>
      </trkpt>
      <trkpt lat="46.71568" lon="5.89777">
        <ele>684</ele>
        <time>2025-06-05T08:38:11.000Z</time>
      </trkpt>
      <trkpt lat="46.71571" lon="5.89798">
        <ele>685</ele>
        <time>2025-06-05T08:38:15.000Z</time>
      </trkpt>
      <trkpt lat="46.71574" lon="5.89814">
        <ele>686</ele>
        <time>2025-06-05T08:38:18.000Z</time>
      </trkpt>
      <trkpt lat="46.71576" lon="5.89834">
        <ele>687.40002441406</ele>
        <time>2025-06-05T08:38:22.000Z</time>
      </trkpt>
      <trkpt lat="46.71578" lon="5.8984">
        <ele>687.59997558594</ele>
        <time>2025-06-05T08:38:23.000Z</time>
      </trkpt>
      <trkpt lat="46.71579" lon="5.8985">
        <ele>688.59997558594</ele>
        <time>2025-06-05T08:38:25.000Z</time>
      </trkpt>
      <trkpt lat="46.71582" lon="5.89864">
        <ele>689.59997558594</ele>
        <time>2025-06-05T08:38:28.000Z</time>
      </trkpt>
      <trkpt lat="46.71583" lon="5.89875">
        <ele>690</ele>
        <time>2025-06-05T08:38:30.000Z</time>
      </trkpt>
      <trkpt lat="46.71584" lon="5.8988">
        <ele>690.59997558594</ele>
        <time>2025-06-05T08:38:31.000Z</time>
      </trkpt>
      <trkpt lat="46.71584" lon="5.89885">
        <ele>690.59997558594</ele>
        <time>2025-06-05T08:38:32.000Z</time>
      </trkpt>
      <trkpt lat="46.71588" lon="5.89908">
        <ele>691.79998779297</ele>
        <time>2025-06-05T08:38:37.000Z</time>
      </trkpt>
      <trkpt lat="46.71591" lon="5.89921">
        <ele>693</ele>
        <time>2025-06-05T08:38:40.000Z</time>
      </trkpt>
      <trkpt lat="46.71596" lon="5.8994">
        <ele>694.20001220703</ele>
        <time>2025-06-05T08:38:44.000Z</time>
      </trkpt>
      <trkpt lat="46.71598" lon="5.89951">
        <ele>694.59997558594</ele>
        <time>2025-06-05T08:38:46.000Z</time>
      </trkpt>
      <trkpt lat="46.71603" lon="5.89965">
        <ele>695.20001220703</ele>
        <time>2025-06-05T08:38:49.000Z</time>
      </trkpt>
      <trkpt lat="46.7161" lon="5.89978">
        <ele>696.40002441406</ele>
        <time>2025-06-05T08:38:52.000Z</time>
      </trkpt>
      <trkpt lat="46.71619" lon="5.89994">
        <ele>697.40002441406</ele>
        <time>2025-06-05T08:38:57.000Z</time>
      </trkpt>
      <trkpt lat="46.71634" lon="5.90012">
        <ele>698.40002441406</ele>
        <time>2025-06-05T08:39:02.000Z</time>
      </trkpt>
      <trkpt lat="46.71643" lon="5.90021">
        <ele>698.79998779297</ele>
        <time>2025-06-05T08:39:06.000Z</time>
      </trkpt>
      <trkpt lat="46.71657" lon="5.90038">
        <ele>699.20001220703</ele>
        <time>2025-06-05T08:39:11.000Z</time>
      </trkpt>
      <trkpt lat="46.71666" lon="5.90047">
        <ele>699.40002441406</ele>
        <time>2025-06-05T08:39:13.000Z</time>
      </trkpt>
      <trkpt lat="46.71677" lon="5.90064">
        <ele>699.79998779297</ele>
        <time>2025-06-05T08:39:17.000Z</time>
      </trkpt>
      <trkpt lat="46.71685" lon="5.90085">
        <ele>700.40002441406</ele>
        <time>2025-06-05T08:39:22.000Z</time>
      </trkpt>
      <trkpt lat="46.71688" lon="5.90088">
        <ele>700.40002441406</ele>
        <time>2025-06-05T08:39:23.000Z</time>
      </trkpt>
      <trkpt lat="46.71709" lon="5.90123">
        <ele>701</ele>
        <time>2025-06-05T08:39:32.000Z</time>
      </trkpt>
      <trkpt lat="46.71717" lon="5.90152">
        <ele>701</ele>
        <time>2025-06-05T08:39:39.000Z</time>
      </trkpt>
      <trkpt lat="46.71718" lon="5.90164">
        <ele>701.20001220703</ele>
        <time>2025-06-05T08:39:41.000Z</time>
      </trkpt>
      <trkpt lat="46.71723" lon="5.90179">
        <ele>701.20001220703</ele>
        <time>2025-06-05T08:39:43.000Z</time>
      </trkpt>
      <trkpt lat="46.71734" lon="5.90198">
        <ele>700.40002441406</ele>
        <time>2025-06-05T08:39:48.000Z</time>
      </trkpt>
      <trkpt lat="46.71748" lon="5.90207">
        <ele>700.20001220703</ele>
        <time>2025-06-05T08:39:53.000Z</time>
      </trkpt>
      <trkpt lat="46.71766" lon="5.90211">
        <ele>700.20001220703</ele>
        <time>2025-06-05T08:39:58.000Z</time>
      </trkpt>
      <trkpt lat="46.71783" lon="5.90215">
        <ele>700.20001220703</ele>
        <time>2025-06-05T08:40:03.000Z</time>
      </trkpt>
      <trkpt lat="46.71796" lon="5.90218">
        <ele>700.20001220703</ele>
        <time>2025-06-05T08:40:09.000Z</time>
      </trkpt>
      <trkpt lat="46.71813" lon="5.90219">
        <ele>700.40002441406</ele>
        <time>2025-06-05T08:40:15.000Z</time>
      </trkpt>
      <trkpt lat="46.71815" lon="5.9022">
        <ele>700.40002441406</ele>
        <time>2025-06-05T08:40:16.000Z</time>
      </trkpt>
      <trkpt lat="46.71817" lon="5.90221">
        <ele>700.20001220703</ele>
        <time>2025-06-05T08:40:17.000Z</time>
      </trkpt>
      <trkpt lat="46.71829" lon="5.90218">
        <ele>700.20001220703</ele>
        <time>2025-06-05T08:40:21.000Z</time>
      </trkpt>
      <trkpt lat="46.71837" lon="5.90215">
        <ele>700</ele>
        <time>2025-06-05T08:40:23.000Z</time>
      </trkpt>
      <trkpt lat="46.71842" lon="5.90214">
        <ele>700.20001220703</ele>
        <time>2025-06-05T08:40:25.000Z</time>
      </trkpt>
      <trkpt lat="46.71847" lon="5.90211">
        <ele>700</ele>
        <time>2025-06-05T08:40:27.000Z</time>
      </trkpt>
      <trkpt lat="46.71865" lon="5.90211">
        <ele>700.40002441406</ele>
        <time>2025-06-05T08:40:31.000Z</time>
      </trkpt>
      <trkpt lat="46.71868" lon="5.9021">
        <ele>700.59997558594</ele>
        <time>2025-06-05T08:40:32.000Z</time>
      </trkpt>
      <trkpt lat="46.71876" lon="5.90209">
        <ele>700.59997558594</ele>
        <time>2025-06-05T08:40:34.000Z</time>
      </trkpt>
      <trkpt lat="46.71891" lon="5.90208">
        <ele>700.59997558594</ele>
        <time>2025-06-05T08:40:37.000Z</time>
      </trkpt>
      <trkpt lat="46.71896" lon="5.90206">
        <ele>700.59997558594</ele>
        <time>2025-06-05T08:40:38.000Z</time>
      </trkpt>
      <trkpt lat="46.7191" lon="5.90199">
        <ele>700.20001220703</ele>
        <time>2025-06-05T08:40:41.000Z</time>
      </trkpt>
      <trkpt lat="46.71914" lon="5.902">
        <ele>700.20001220703</ele>
        <time>2025-06-05T08:40:42.000Z</time>
      </trkpt>
      <trkpt lat="46.71924" lon="5.902">
        <ele>700</ele>
        <time>2025-06-05T08:40:44.000Z</time>
      </trkpt>
      <trkpt lat="46.71933" lon="5.90198">
        <ele>699.79998779297</ele>
        <time>2025-06-05T08:40:46.000Z</time>
      </trkpt>
      <trkpt lat="46.71944" lon="5.90196">
        <ele>699.59997558594</ele>
        <time>2025-06-05T08:40:48.000Z</time>
      </trkpt>
      <trkpt lat="46.71954" lon="5.90195">
        <ele>699.20001220703</ele>
        <time>2025-06-05T08:40:50.000Z</time>
      </trkpt>
      <trkpt lat="46.71968" lon="5.90192">
        <ele>699</ele>
        <time>2025-06-05T08:40:53.000Z</time>
      </trkpt>
      <trkpt lat="46.71974" lon="5.90191">
        <ele>698.79998779297</ele>
        <time>2025-06-05T08:40:54.000Z</time>
      </trkpt>
      <trkpt lat="46.71981" lon="5.90194">
        <ele>698.79998779297</ele>
        <time>2025-06-05T08:40:55.000Z</time>
      </trkpt>
      <trkpt lat="46.72002" lon="5.90204">
        <ele>698.40002441406</ele>
        <time>2025-06-05T08:40:58.000Z</time>
      </trkpt>
      <trkpt lat="46.72007" lon="5.9021">
        <ele>698.40002441406</ele>
        <time>2025-06-05T08:40:59.000Z</time>
      </trkpt>
      <trkpt lat="46.72016" lon="5.90225">
        <ele>698</ele>
        <time>2025-06-05T08:41:01.000Z</time>
      </trkpt>
      <trkpt lat="46.72024" lon="5.90241">
        <ele>697.79998779297</ele>
        <time>2025-06-05T08:41:03.000Z</time>
      </trkpt>
      <trkpt lat="46.72033" lon="5.90252">
        <ele>697.40002441406</ele>
        <time>2025-06-05T08:41:05.000Z</time>
      </trkpt>
      <trkpt lat="46.72043" lon="5.90259">
        <ele>697.20001220703</ele>
        <time>2025-06-05T08:41:07.000Z</time>
      </trkpt>
      <trkpt lat="46.72056" lon="5.90267">
        <ele>697</ele>
        <time>2025-06-05T08:41:09.000Z</time>
      </trkpt>
      <trkpt lat="46.72067" lon="5.90276">
        <ele>696.59997558594</ele>
        <time>2025-06-05T08:41:12.000Z</time>
      </trkpt>
      <trkpt lat="46.72076" lon="5.90278">
        <ele>696.59997558594</ele>
        <time>2025-06-05T08:41:14.000Z</time>
      </trkpt>
      <trkpt lat="46.72091" lon="5.90286">
        <ele>696.59997558594</ele>
        <time>2025-06-05T08:41:17.000Z</time>
      </trkpt>
      <trkpt lat="46.72117" lon="5.903">
        <ele>696.20001220703</ele>
        <time>2025-06-05T08:41:20.000Z</time>
      </trkpt>
      <trkpt lat="46.72137" lon="5.90318">
        <ele>696</ele>
        <time>2025-06-05T08:41:24.000Z</time>
      </trkpt>
      <trkpt lat="46.72163" lon="5.9034">
        <ele>696</ele>
        <time>2025-06-05T08:41:30.000Z</time>
      </trkpt>
      <trkpt lat="46.72169" lon="5.90342">
        <ele>696.20001220703</ele>
        <time>2025-06-05T08:41:31.000Z</time>
      </trkpt>
      <trkpt lat="46.72179" lon="5.90339">
        <ele>696.40002441406</ele>
        <time>2025-06-05T08:41:33.000Z</time>
      </trkpt>
      <trkpt lat="46.72184" lon="5.90332">
        <ele>696.40002441406</ele>
        <time>2025-06-05T08:41:34.000Z</time>
      </trkpt>
      <trkpt lat="46.72188" lon="5.90325">
        <ele>696.40002441406</ele>
        <time>2025-06-05T08:41:35.000Z</time>
      </trkpt>
      <trkpt lat="46.72193" lon="5.9031">
        <ele>696.20001220703</ele>
        <time>2025-06-05T08:41:37.000Z</time>
      </trkpt>
      <trkpt lat="46.72206" lon="5.90282">
        <ele>695.40002441406</ele>
        <time>2025-06-05T08:41:41.000Z</time>
      </trkpt>
      <trkpt lat="46.7221" lon="5.90275">
        <ele>695.20001220703</ele>
        <time>2025-06-05T08:41:42.000Z</time>
      </trkpt>
      <trkpt lat="46.72215" lon="5.90269">
        <ele>695</ele>
        <time>2025-06-05T08:41:43.000Z</time>
      </trkpt>
      <trkpt lat="46.72226" lon="5.90259">
        <ele>694.59997558594</ele>
        <time>2025-06-05T08:41:45.000Z</time>
      </trkpt>
      <trkpt lat="46.72231" lon="5.90253">
        <ele>694.40002441406</ele>
        <time>2025-06-05T08:41:46.000Z</time>
      </trkpt>
      <trkpt lat="46.72235" lon="5.90248">
        <ele>694.40002441406</ele>
        <time>2025-06-05T08:41:47.000Z</time>
      </trkpt>
      <trkpt lat="46.72244" lon="5.90238">
        <ele>693.79998779297</ele>
        <time>2025-06-05T08:41:49.000Z</time>
      </trkpt>
      <trkpt lat="46.72247" lon="5.90233">
        <ele>693.20001220703</ele>
        <time>2025-06-05T08:41:50.000Z</time>
      </trkpt>
      <trkpt lat="46.72255" lon="5.90221">
        <ele>692.59997558594</ele>
        <time>2025-06-05T08:41:52.000Z</time>
      </trkpt>
      <trkpt lat="46.72265" lon="5.90203">
        <ele>692.40002441406</ele>
        <time>2025-06-05T08:41:55.000Z</time>
      </trkpt>
      <trkpt lat="46.72269" lon="5.90199">
        <ele>692.40002441406</ele>
        <time>2025-06-05T08:41:56.000Z</time>
      </trkpt>
      <trkpt lat="46.7228" lon="5.9018">
        <ele>692.59997558594</ele>
        <time>2025-06-05T08:41:59.000Z</time>
      </trkpt>
      <trkpt lat="46.72291" lon="5.90166">
        <ele>693</ele>
        <time>2025-06-05T08:42:02.000Z</time>
      </trkpt>
      <trkpt lat="46.72295" lon="5.90161">
        <ele>693</ele>
        <time>2025-06-05T08:42:03.000Z</time>
      </trkpt>
      <trkpt lat="46.72298" lon="5.90157">
        <ele>692.79998779297</ele>
        <time>2025-06-05T08:42:04.000Z</time>
      </trkpt>
      <trkpt lat="46.72306" lon="5.90147">
        <ele>693.20001220703</ele>
        <time>2025-06-05T08:42:07.000Z</time>
      </trkpt>
      <trkpt lat="46.72319" lon="5.90144">
        <ele>693.79998779297</ele>
        <time>2025-06-05T08:42:11.000Z</time>
      </trkpt>
      <trkpt lat="46.7233" lon="5.90146">
        <ele>693.79998779297</ele>
        <time>2025-06-05T08:42:13.000Z</time>
      </trkpt>
      <trkpt lat="46.72346" lon="5.90147">
        <ele>694</ele>
        <time>2025-06-05T08:42:16.000Z</time>
      </trkpt>
      <trkpt lat="46.72356" lon="5.90145">
        <ele>694</ele>
        <time>2025-06-05T08:42:18.000Z</time>
      </trkpt>
      <trkpt lat="46.72376" lon="5.90144">
        <ele>693.40002441406</ele>
        <time>2025-06-05T08:42:23.000Z</time>
      </trkpt>
      <trkpt lat="46.72404" lon="5.90146">
        <ele>693.20001220703</ele>
        <time>2025-06-05T08:42:29.000Z</time>
      </trkpt>
      <trkpt lat="46.72417" lon="5.90147">
        <ele>693.20001220703</ele>
        <time>2025-06-05T08:42:32.000Z</time>
      </trkpt>
      <trkpt lat="46.72426" lon="5.90147">
        <ele>693</ele>
        <time>2025-06-05T08:42:34.000Z</time>
      </trkpt>
      <trkpt lat="46.72439" lon="5.90152">
        <ele>693.20001220703</ele>
        <time>2025-06-05T08:42:37.000Z</time>
      </trkpt>
      <trkpt lat="46.72444" lon="5.90154">
        <ele>693.20001220703</ele>
        <time>2025-06-05T08:42:38.000Z</time>
      </trkpt>
      <trkpt lat="46.72454" lon="5.90153">
        <ele>693.20001220703</ele>
        <time>2025-06-05T08:42:40.000Z</time>
      </trkpt>
      <trkpt lat="46.72466" lon="5.9015">
        <ele>693.20001220703</ele>
        <time>2025-06-05T08:42:42.000Z</time>
      </trkpt>
      <trkpt lat="46.72471" lon="5.90151">
        <ele>693.20001220703</ele>
        <time>2025-06-05T08:42:43.000Z</time>
      </trkpt>
      <trkpt lat="46.72477" lon="5.90152">
        <ele>693.20001220703</ele>
        <time>2025-06-05T08:42:44.000Z</time>
      </trkpt>
      <trkpt lat="46.72492" lon="5.90145">
        <ele>693.20001220703</ele>
        <time>2025-06-05T08:42:47.000Z</time>
      </trkpt>
      <trkpt lat="46.72496" lon="5.90142">
        <ele>693.20001220703</ele>
        <time>2025-06-05T08:42:48.000Z</time>
      </trkpt>
      <trkpt lat="46.72501" lon="5.9014">
        <ele>693.20001220703</ele>
        <time>2025-06-05T08:42:49.000Z</time>
      </trkpt>
      <trkpt lat="46.72518" lon="5.90136">
        <ele>693</ele>
        <time>2025-06-05T08:42:52.000Z</time>
      </trkpt>
      <trkpt lat="46.72522" lon="5.90133">
        <ele>693</ele>
        <time>2025-06-05T08:42:53.000Z</time>
      </trkpt>
      <trkpt lat="46.72531" lon="5.90132">
        <ele>693</ele>
        <time>2025-06-05T08:42:55.000Z</time>
      </trkpt>
      <trkpt lat="46.72543" lon="5.9013">
        <ele>692.79998779297</ele>
        <time>2025-06-05T08:42:57.000Z</time>
      </trkpt>
      <trkpt lat="46.7256" lon="5.90122">
        <ele>692.79998779297</ele>
        <time>2025-06-05T08:43:00.000Z</time>
      </trkpt>
      <trkpt lat="46.72574" lon="5.90113">
        <ele>692.79998779297</ele>
        <time>2025-06-05T08:43:02.000Z</time>
      </trkpt>
      <trkpt lat="46.72583" lon="5.90102">
        <ele>692.79998779297</ele>
        <time>2025-06-05T08:43:04.000Z</time>
      </trkpt>
      <trkpt lat="46.72588" lon="5.90097">
        <ele>692.79998779297</ele>
        <time>2025-06-05T08:43:05.000Z</time>
      </trkpt>
      <trkpt lat="46.72592" lon="5.90094">
        <ele>693.20001220703</ele>
        <time>2025-06-05T08:43:06.000Z</time>
      </trkpt>
      <trkpt lat="46.72599" lon="5.90082">
        <ele>693.79998779297</ele>
        <time>2025-06-05T08:43:08.000Z</time>
      </trkpt>
      <trkpt lat="46.72608" lon="5.90065">
        <ele>694.59997558594</ele>
        <time>2025-06-05T08:43:11.000Z</time>
      </trkpt>
      <trkpt lat="46.72617" lon="5.90033">
        <ele>694.79998779297</ele>
        <time>2025-06-05T08:43:16.000Z</time>
      </trkpt>
      <trkpt lat="46.72619" lon="5.9001">
        <ele>695</ele>
        <time>2025-06-05T08:43:19.000Z</time>
      </trkpt>
      <trkpt lat="46.7262" lon="5.89997">
        <ele>696</ele>
        <time>2025-06-05T08:43:21.000Z</time>
      </trkpt>
      <trkpt lat="46.72621" lon="5.89991">
        <ele>696.59997558594</ele>
        <time>2025-06-05T08:43:22.000Z</time>
      </trkpt>
      <trkpt lat="46.72623" lon="5.89986">
        <ele>696.79998779297</ele>
        <time>2025-06-05T08:43:23.000Z</time>
      </trkpt>
      <trkpt lat="46.72626" lon="5.89976">
        <ele>697.40002441406</ele>
        <time>2025-06-05T08:43:25.000Z</time>
      </trkpt>
      <trkpt lat="46.72626" lon="5.8997">
        <ele>697.59997558594</ele>
        <time>2025-06-05T08:43:26.000Z</time>
      </trkpt>
      <trkpt lat="46.72628" lon="5.89964">
        <ele>697.79998779297</ele>
        <time>2025-06-05T08:43:27.000Z</time>
      </trkpt>
      <trkpt lat="46.72631" lon="5.89948">
        <ele>698</ele>
        <time>2025-06-05T08:43:29.000Z</time>
      </trkpt>
      <trkpt lat="46.72633" lon="5.89941">
        <ele>698.40002441406</ele>
        <time>2025-06-05T08:43:30.000Z</time>
      </trkpt>
      <trkpt lat="46.72634" lon="5.89935">
        <ele>698.79998779297</ele>
        <time>2025-06-05T08:43:31.000Z</time>
      </trkpt>
      <trkpt lat="46.7264" lon="5.89913">
        <ele>699</ele>
        <time>2025-06-05T08:43:35.000Z</time>
      </trkpt>
      <trkpt lat="46.72642" lon="5.89908">
        <ele>699</ele>
        <time>2025-06-05T08:43:36.000Z</time>
      </trkpt>
      <trkpt lat="46.72646" lon="5.89896">
        <ele>699</ele>
        <time>2025-06-05T08:43:38.000Z</time>
      </trkpt>
      <trkpt lat="46.72651" lon="5.89885">
        <ele>699</ele>
        <time>2025-06-05T08:43:40.000Z</time>
      </trkpt>
      <trkpt lat="46.72654" lon="5.89879">
        <ele>699</ele>
        <time>2025-06-05T08:43:41.000Z</time>
      </trkpt>
      <trkpt lat="46.72656" lon="5.89872">
        <ele>698.79998779297</ele>
        <time>2025-06-05T08:43:42.000Z</time>
      </trkpt>
      <trkpt lat="46.72665" lon="5.89849">
        <ele>698.20001220703</ele>
        <time>2025-06-05T08:43:45.000Z</time>
      </trkpt>
      <trkpt lat="46.72669" lon="5.89841">
        <ele>698</ele>
        <time>2025-06-05T08:43:46.000Z</time>
      </trkpt>
      <trkpt lat="46.72674" lon="5.89835">
        <ele>697.59997558594</ele>
        <time>2025-06-05T08:43:47.000Z</time>
      </trkpt>
      <trkpt lat="46.72684" lon="5.89823">
        <ele>696.20001220703</ele>
        <time>2025-06-05T08:43:49.000Z</time>
      </trkpt>
      <trkpt lat="46.72695" lon="5.8981">
        <ele>695.20001220703</ele>
        <time>2025-06-05T08:43:51.000Z</time>
      </trkpt>
      <trkpt lat="46.72711" lon="5.89793">
        <ele>694</ele>
        <time>2025-06-05T08:43:54.000Z</time>
      </trkpt>
      <trkpt lat="46.72721" lon="5.89782">
        <ele>693.59997558594</ele>
        <time>2025-06-05T08:43:56.000Z</time>
      </trkpt>
      <trkpt lat="46.72732" lon="5.89771">
        <ele>692.59997558594</ele>
        <time>2025-06-05T08:43:58.000Z</time>
      </trkpt>
      <trkpt lat="46.72736" lon="5.89765">
        <ele>692.40002441406</ele>
        <time>2025-06-05T08:43:59.000Z</time>
      </trkpt>
      <trkpt lat="46.7275" lon="5.89747">
        <ele>691.40002441406</ele>
        <time>2025-06-05T08:44:02.000Z</time>
      </trkpt>
      <trkpt lat="46.72755" lon="5.89742">
        <ele>691.40002441406</ele>
        <time>2025-06-05T08:44:03.000Z</time>
      </trkpt>
      <trkpt lat="46.72776" lon="5.89715">
        <ele>690.59997558594</ele>
        <time>2025-06-05T08:44:09.000Z</time>
      </trkpt>
      <trkpt lat="46.72779" lon="5.89711">
        <ele>690.59997558594</ele>
        <time>2025-06-05T08:44:10.000Z</time>
      </trkpt>
      <trkpt lat="46.72785" lon="5.89703">
        <ele>690.79998779297</ele>
        <time>2025-06-05T08:44:12.000Z</time>
      </trkpt>
      <trkpt lat="46.72792" lon="5.89697">
        <ele>690.79998779297</ele>
        <time>2025-06-05T08:44:14.000Z</time>
      </trkpt>
      <trkpt lat="46.72815" lon="5.89675">
        <ele>690.40002441406</ele>
        <time>2025-06-05T08:44:20.000Z</time>
      </trkpt>
      <trkpt lat="46.72818" lon="5.89671">
        <ele>690.40002441406</ele>
        <time>2025-06-05T08:44:21.000Z</time>
      </trkpt>
      <trkpt lat="46.7283" lon="5.89648">
        <ele>689.20001220703</ele>
        <time>2025-06-05T08:44:26.000Z</time>
      </trkpt>
      <trkpt lat="46.72833" lon="5.89617">
        <ele>689.40002441406</ele>
        <time>2025-06-05T08:44:32.000Z</time>
      </trkpt>
      <trkpt lat="46.72832" lon="5.89604">
        <ele>690.20001220703</ele>
        <time>2025-06-05T08:44:35.000Z</time>
      </trkpt>
      <trkpt lat="46.72831" lon="5.89595">
        <ele>691.20001220703</ele>
        <time>2025-06-05T08:44:37.000Z</time>
      </trkpt>
      <trkpt lat="46.72831" lon="5.89587">
        <ele>692.59997558594</ele>
        <time>2025-06-05T08:44:40.000Z</time>
      </trkpt>
      <trkpt lat="46.72831" lon="5.89587">
        <ele>693.59997558594</ele>
        <time>2025-06-05T08:44:42.000Z</time>
      </trkpt>
      <trkpt lat="46.72831" lon="5.89587">
        <ele>693.59997558594</ele>
        <time>2025-06-05T08:44:43.000Z</time>
      </trkpt>
      <trkpt lat="46.72832" lon="5.89592">
        <ele>694.20001220703</ele>
        <time>2025-06-05T08:44:50.000Z</time>
      </trkpt>
      <trkpt lat="46.72833" lon="5.8961">
        <ele>694.20001220703</ele>
        <time>2025-06-05T08:44:55.000Z</time>
      </trkpt>
      <trkpt lat="46.72834" lon="5.89635">
        <ele>693</ele>
        <time>2025-06-05T08:45:00.000Z</time>
      </trkpt>
      <trkpt lat="46.72832" lon="5.89642">
        <ele>692.40002441406</ele>
        <time>2025-06-05T08:45:02.000Z</time>
      </trkpt>
      <trkpt lat="46.7283" lon="5.89648">
        <ele>691.40002441406</ele>
        <time>2025-06-05T08:45:04.000Z</time>
      </trkpt>
      <trkpt lat="46.72831" lon="5.89654">
        <ele>690.40002441406</ele>
        <time>2025-06-05T08:45:08.000Z</time>
      </trkpt>
      <trkpt lat="46.72843" lon="5.89649">
        <ele>689.59997558594</ele>
        <time>2025-06-05T08:45:15.000Z</time>
      </trkpt>
      <trkpt lat="46.72855" lon="5.89642">
        <ele>689.79998779297</ele>
        <time>2025-06-05T08:45:20.000Z</time>
      </trkpt>
      <trkpt lat="46.72869" lon="5.89633">
        <ele>690</ele>
        <time>2025-06-05T08:45:25.000Z</time>
      </trkpt>
      <trkpt lat="46.72885" lon="5.89636">
        <ele>690.20001220703</ele>
        <time>2025-06-05T08:45:30.000Z</time>
      </trkpt>
      <trkpt lat="46.72904" lon="5.89639">
        <ele>690.40002441406</ele>
        <time>2025-06-05T08:45:35.000Z</time>
      </trkpt>
      <trkpt lat="46.72922" lon="5.8964">
        <ele>691</ele>
        <time>2025-06-05T08:45:40.000Z</time>
      </trkpt>
      <trkpt lat="46.72926" lon="5.89643">
        <ele>691</ele>
        <time>2025-06-05T08:45:41.000Z</time>
      </trkpt>
      <trkpt lat="46.72935" lon="5.8965">
        <ele>691.59997558594</ele>
        <time>2025-06-05T08:45:44.000Z</time>
      </trkpt>
      <trkpt lat="46.72941" lon="5.89653">
        <ele>692.20001220703</ele>
        <time>2025-06-05T08:45:46.000Z</time>
      </trkpt>
      <trkpt lat="46.72949" lon="5.89659">
        <ele>692.59997558594</ele>
        <time>2025-06-05T08:45:49.000Z</time>
      </trkpt>
      <trkpt lat="46.72954" lon="5.89662">
        <ele>692.79998779297</ele>
        <time>2025-06-05T08:45:51.000Z</time>
      </trkpt>
      <trkpt lat="46.72962" lon="5.89667">
        <ele>693</ele>
        <time>2025-06-05T08:45:53.000Z</time>
      </trkpt>
      <trkpt lat="46.72964" lon="5.89668">
        <ele>693.20001220703</ele>
        <time>2025-06-05T08:45:54.000Z</time>
      </trkpt>
      <trkpt lat="46.72968" lon="5.8967">
        <ele>694</ele>
        <time>2025-06-05T08:45:58.000Z</time>
      </trkpt>
      <trkpt lat="46.72975" lon="5.89672">
        <ele>694.40002441406</ele>
        <time>2025-06-05T08:46:01.000Z</time>
      </trkpt>
      <trkpt lat="46.72977" lon="5.89672">
        <ele>694.59997558594</ele>
        <time>2025-06-05T08:46:03.000Z</time>
      </trkpt>
      <trkpt lat="46.7298" lon="5.89672">
        <ele>694.59997558594</ele>
        <time>2025-06-05T08:46:04.000Z</time>
      </trkpt>
      <trkpt lat="46.72992" lon="5.8967">
        <ele>695.20001220703</ele>
        <time>2025-06-05T08:46:07.000Z</time>
      </trkpt>
      <trkpt lat="46.73" lon="5.89666">
        <ele>695.40002441406</ele>
        <time>2025-06-05T08:46:09.000Z</time>
      </trkpt>
      <trkpt lat="46.73004" lon="5.89663">
        <ele>695.40002441406</ele>
        <time>2025-06-05T08:46:10.000Z</time>
      </trkpt>
      <trkpt lat="46.73006" lon="5.89661">
        <ele>695.40002441406</ele>
        <time>2025-06-05T08:46:11.000Z</time>
      </trkpt>
      <trkpt lat="46.7302" lon="5.89654">
        <ele>695.59997558594</ele>
        <time>2025-06-05T08:46:15.000Z</time>
      </trkpt>
      <trkpt lat="46.73029" lon="5.89653">
        <ele>696</ele>
        <time>2025-06-05T08:46:17.000Z</time>
      </trkpt>
      <trkpt lat="46.73037" lon="5.89651">
        <ele>696</ele>
        <time>2025-06-05T08:46:19.000Z</time>
      </trkpt>
      <trkpt lat="46.73044" lon="5.8965">
        <ele>696</ele>
        <time>2025-06-05T08:46:21.000Z</time>
      </trkpt>
      <trkpt lat="46.73049" lon="5.8965">
        <ele>696</ele>
        <time>2025-06-05T08:46:22.000Z</time>
      </trkpt>
      <trkpt lat="46.73066" lon="5.89634">
        <ele>696.20001220703</ele>
        <time>2025-06-05T08:46:26.000Z</time>
      </trkpt>
      <trkpt lat="46.73079" lon="5.89629">
        <ele>696.40002441406</ele>
        <time>2025-06-05T08:46:30.000Z</time>
      </trkpt>
      <trkpt lat="46.73082" lon="5.89627">
        <ele>696.59997558594</ele>
        <time>2025-06-05T08:46:31.000Z</time>
      </trkpt>
      <trkpt lat="46.7309" lon="5.8962">
        <ele>697</ele>
        <time>2025-06-05T08:46:35.000Z</time>
      </trkpt>
      <trkpt lat="46.73094" lon="5.8962">
        <ele>697.40002441406</ele>
        <time>2025-06-05T08:46:37.000Z</time>
      </trkpt>
      <trkpt lat="46.73097" lon="5.89622">
        <ele>697.40002441406</ele>
        <time>2025-06-05T08:46:38.000Z</time>
      </trkpt>
      <trkpt lat="46.7311" lon="5.8963">
        <ele>697.79998779297</ele>
        <time>2025-06-05T08:46:43.000Z</time>
      </trkpt>
      <trkpt lat="46.73111" lon="5.8963">
        <ele>697.79998779297</ele>
        <time>2025-06-05T08:46:48.000Z</time>
      </trkpt>
      <trkpt lat="46.73114" lon="5.89629">
        <ele>697.59997558594</ele>
        <time>2025-06-05T08:46:57.000Z</time>
      </trkpt>
      <trkpt lat="46.73114" lon="5.89629">
        <ele>697.40002441406</ele>
        <time>2025-06-05T08:48:04.000Z</time>
      </trkpt>
      <trkpt lat="46.73114" lon="5.89629">
        <ele>697</ele>
        <time>2025-06-05T08:48:43.000Z</time>
      </trkpt>
      <trkpt lat="46.73114" lon="5.89629">
        <ele>697</ele>
        <time>2025-06-05T08:48:44.000Z</time>
      </trkpt>
      <trkpt lat="46.73114" lon="5.89629">
        <ele>697</ele>
        <time>2025-06-05T08:49:23.000Z</time>
      </trkpt>
      <trkpt lat="46.73114" lon="5.89629">
        <ele>696.79998779297</ele>
        <time>2025-06-05T08:50:04.000Z</time>
      </trkpt>
      <trkpt lat="46.73114" lon="5.89629">
        <ele>697</ele>
        <time>2025-06-05T08:50:51.000Z</time>
      </trkpt>
      <trkpt lat="46.73114" lon="5.89629">
        <ele>696.79998779297</ele>
        <time>2025-06-05T08:51:45.000Z</time>
      </trkpt>
      <trkpt lat="46.73114" lon="5.89629">
        <ele>697.40002441406</ele>
        <time>2025-06-05T08:52:49.000Z</time>
      </trkpt>
      <trkpt lat="46.73114" lon="5.89629">
        <ele>697.40002441406</ele>
        <time>2025-06-05T08:53:12.000Z</time>
      </trkpt>
      <trkpt lat="46.73109" lon="5.89624">
        <ele>697.59997558594</ele>
        <time>2025-06-05T08:53:16.000Z</time>
      </trkpt>
      <trkpt lat="46.73107" lon="5.89622">
        <ele>697.59997558594</ele>
        <time>2025-06-05T08:53:18.000Z</time>
      </trkpt>
      <trkpt lat="46.73101" lon="5.89624">
        <ele>697.79998779297</ele>
        <time>2025-06-05T08:53:21.000Z</time>
      </trkpt>
      <trkpt lat="46.73091" lon="5.89627">
        <ele>697.79998779297</ele>
        <time>2025-06-05T08:53:25.000Z</time>
      </trkpt>
      <trkpt lat="46.73089" lon="5.89628">
        <ele>697.79998779297</ele>
        <time>2025-06-05T08:53:26.000Z</time>
      </trkpt>
      <trkpt lat="46.7308" lon="5.89632">
        <ele>697.59997558594</ele>
        <time>2025-06-05T08:53:29.000Z</time>
      </trkpt>
      <trkpt lat="46.73075" lon="5.89635">
        <ele>697.59997558594</ele>
        <time>2025-06-05T08:53:30.000Z</time>
      </trkpt>
      <trkpt lat="46.73061" lon="5.89642">
        <ele>697.40002441406</ele>
        <time>2025-06-05T08:53:33.000Z</time>
      </trkpt>
      <trkpt lat="46.7305" lon="5.89644">
        <ele>696.79998779297</ele>
        <time>2025-06-05T08:53:35.000Z</time>
      </trkpt>
      <trkpt lat="46.73047" lon="5.89644">
        <ele>696.59997558594</ele>
        <time>2025-06-05T08:53:36.000Z</time>
      </trkpt>
      <trkpt lat="46.73028" lon="5.89647">
        <ele>696.40002441406</ele>
        <time>2025-06-05T08:53:42.000Z</time>
      </trkpt>
      <trkpt lat="46.73022" lon="5.89647">
        <ele>696.40002441406</ele>
        <time>2025-06-05T08:53:44.000Z</time>
      </trkpt>
      <trkpt lat="46.73013" lon="5.89655">
        <ele>696.59997558594</ele>
        <time>2025-06-05T08:53:46.000Z</time>
      </trkpt>
      <trkpt lat="46.72991" lon="5.89662">
        <ele>696.20001220703</ele>
        <time>2025-06-05T08:53:53.000Z</time>
      </trkpt>
      <trkpt lat="46.72976" lon="5.89669">
        <ele>696</ele>
        <time>2025-06-05T08:53:57.000Z</time>
      </trkpt>
      <trkpt lat="46.72971" lon="5.89674">
        <ele>696</ele>
        <time>2025-06-05T08:53:58.000Z</time>
      </trkpt>
      <trkpt lat="46.72965" lon="5.89678">
        <ele>695.79998779297</ele>
        <time>2025-06-05T08:53:59.000Z</time>
      </trkpt>
      <trkpt lat="46.72957" lon="5.89688">
        <ele>695.20001220703</ele>
        <time>2025-06-05T08:54:02.000Z</time>
      </trkpt>
      <trkpt lat="46.72953" lon="5.89692">
        <ele>694.40002441406</ele>
        <time>2025-06-05T08:54:04.000Z</time>
      </trkpt>
      <trkpt lat="46.72951" lon="5.89693">
        <ele>694.20001220703</ele>
        <time>2025-06-05T08:54:05.000Z</time>
      </trkpt>
      <trkpt lat="46.72948" lon="5.89696">
        <ele>693.40002441406</ele>
        <time>2025-06-05T08:54:06.000Z</time>
      </trkpt>
      <trkpt lat="46.72943" lon="5.897">
        <ele>693</ele>
        <time>2025-06-05T08:54:07.000Z</time>
      </trkpt>
      <trkpt lat="46.7294" lon="5.89705">
        <ele>692.20001220703</ele>
        <time>2025-06-05T08:54:08.000Z</time>
      </trkpt>
      <trkpt lat="46.7293" lon="5.89715">
        <ele>691.20001220703</ele>
        <time>2025-06-05T08:54:10.000Z</time>
      </trkpt>
      <trkpt lat="46.72922" lon="5.89719">
        <ele>689.79998779297</ele>
        <time>2025-06-05T08:54:12.000Z</time>
      </trkpt>
      <trkpt lat="46.72917" lon="5.89723">
        <ele>688.79998779297</ele>
        <time>2025-06-05T08:54:14.000Z</time>
      </trkpt>
      <trkpt lat="46.72913" lon="5.89728">
        <ele>688.20001220703</ele>
        <time>2025-06-05T08:54:15.000Z</time>
      </trkpt>
      <trkpt lat="46.7291" lon="5.89732">
        <ele>687.79998779297</ele>
        <time>2025-06-05T08:54:16.000Z</time>
      </trkpt>
      <trkpt lat="46.72906" lon="5.89739">
        <ele>687.20001220703</ele>
        <time>2025-06-05T08:54:18.000Z</time>
      </trkpt>
      <trkpt lat="46.72905" lon="5.89742">
        <ele>686.20001220703</ele>
        <time>2025-06-05T08:54:19.000Z</time>
      </trkpt>
      <trkpt lat="46.72903" lon="5.89746">
        <ele>685.59997558594</ele>
        <time>2025-06-05T08:54:20.000Z</time>
      </trkpt>
      <trkpt lat="46.72901" lon="5.89753">
        <ele>684.59997558594</ele>
        <time>2025-06-05T08:54:22.000Z</time>
      </trkpt>
      <trkpt lat="46.72897" lon="5.89763">
        <ele>683.40002441406</ele>
        <time>2025-06-05T08:54:25.000Z</time>
      </trkpt>
      <trkpt lat="46.72896" lon="5.89765">
        <ele>681.79998779297</ele>
        <time>2025-06-05T08:54:26.000Z</time>
      </trkpt>
      <trkpt lat="46.72892" lon="5.89773">
        <ele>680</ele>
        <time>2025-06-05T08:54:28.000Z</time>
      </trkpt>
      <trkpt lat="46.72888" lon="5.8978">
        <ele>679</ele>
        <time>2025-06-05T08:54:30.000Z</time>
      </trkpt>
      <trkpt lat="46.72888" lon="5.89783">
        <ele>678.20001220703</ele>
        <time>2025-06-05T08:54:31.000Z</time>
      </trkpt>
      <trkpt lat="46.72887" lon="5.8979">
        <ele>677.20001220703</ele>
        <time>2025-06-05T08:54:33.000Z</time>
      </trkpt>
      <trkpt lat="46.72886" lon="5.89803">
        <ele>676.20001220703</ele>
        <time>2025-06-05T08:54:36.000Z</time>
      </trkpt>
      <trkpt lat="46.72887" lon="5.89807">
        <ele>675.79998779297</ele>
        <time>2025-06-05T08:54:37.000Z</time>
      </trkpt>
      <trkpt lat="46.72886" lon="5.89821">
        <ele>674.79998779297</ele>
        <time>2025-06-05T08:54:40.000Z</time>
      </trkpt>
      <trkpt lat="46.72883" lon="5.89829">
        <ele>674</ele>
        <time>2025-06-05T08:54:42.000Z</time>
      </trkpt>
      <trkpt lat="46.72881" lon="5.89834">
        <ele>673.59997558594</ele>
        <time>2025-06-05T08:54:43.000Z</time>
      </trkpt>
      <trkpt lat="46.72875" lon="5.89852">
        <ele>671.79998779297</ele>
        <time>2025-06-05T08:54:46.000Z</time>
      </trkpt>
      <trkpt lat="46.72868" lon="5.8986">
        <ele>670.59997558594</ele>
        <time>2025-06-05T08:54:48.000Z</time>
      </trkpt>
      <trkpt lat="46.72866" lon="5.89862">
        <ele>669.79998779297</ele>
        <time>2025-06-05T08:54:50.000Z</time>
      </trkpt>
      <trkpt lat="46.72866" lon="5.89862">
        <ele>669.20001220703</ele>
        <time>2025-06-05T08:54:51.000Z</time>
      </trkpt>
      <trkpt lat="46.72866" lon="5.89862">
        <ele>668.20001220703</ele>
        <time>2025-06-05T08:54:56.000Z</time>
      </trkpt>
      <trkpt lat="46.72866" lon="5.89862">
        <ele>668</ele>
        <time>2025-06-05T08:54:57.000Z</time>
      </trkpt>
      <trkpt lat="46.72866" lon="5.89864">
        <ele>668</ele>
        <time>2025-06-05T08:55:02.000Z</time>
      </trkpt>
      <trkpt lat="46.72869" lon="5.89867">
        <ele>668</ele>
        <time>2025-06-05T08:55:09.000Z</time>
      </trkpt>
      <trkpt lat="46.7287" lon="5.89869">
        <ele>668</ele>
        <time>2025-06-05T08:55:10.000Z</time>
      </trkpt>
      <trkpt lat="46.7287" lon="5.8987">
        <ele>668</ele>
        <time>2025-06-05T08:55:11.000Z</time>
      </trkpt>
      <trkpt lat="46.72874" lon="5.8988">
        <ele>667.40002441406</ele>
        <time>2025-06-05T08:55:17.000Z</time>
      </trkpt>
      <trkpt lat="46.72874" lon="5.89883">
        <ele>667</ele>
        <time>2025-06-05T08:55:18.000Z</time>
      </trkpt>
      <trkpt lat="46.72874" lon="5.89884">
        <ele>666.79998779297</ele>
        <time>2025-06-05T08:55:19.000Z</time>
      </trkpt>
      <trkpt lat="46.72876" lon="5.89889">
        <ele>665.79998779297</ele>
        <time>2025-06-05T08:55:24.000Z</time>
      </trkpt>
      <trkpt lat="46.72876" lon="5.89889">
        <ele>665</ele>
        <time>2025-06-05T08:55:25.000Z</time>
      </trkpt>
      <trkpt lat="46.72876" lon="5.89889">
        <ele>664.59997558594</ele>
        <time>2025-06-05T08:55:27.000Z</time>
      </trkpt>
      <trkpt lat="46.72879" lon="5.89897">
        <ele>663.79998779297</ele>
        <time>2025-06-05T08:55:32.000Z</time>
      </trkpt>
      <trkpt lat="46.72879" lon="5.89898">
        <ele>663.40002441406</ele>
        <time>2025-06-05T08:55:34.000Z</time>
      </trkpt>
      <trkpt lat="46.72881" lon="5.89901">
        <ele>662.59997558594</ele>
        <time>2025-06-05T08:55:44.000Z</time>
      </trkpt>
      <trkpt lat="46.72881" lon="5.89902">
        <ele>662.40002441406</ele>
        <time>2025-06-05T08:55:46.000Z</time>
      </trkpt>
      <trkpt lat="46.72881" lon="5.89902">
        <ele>661.20001220703</ele>
        <time>2025-06-05T08:55:52.000Z</time>
      </trkpt>
      <trkpt lat="46.72882" lon="5.89902">
        <ele>661</ele>
        <time>2025-06-05T08:55:54.000Z</time>
      </trkpt>
      <trkpt lat="46.72883" lon="5.89903">
        <ele>660.79998779297</ele>
        <time>2025-06-05T08:55:55.000Z</time>
      </trkpt>
      <trkpt lat="46.72887" lon="5.89905">
        <ele>660.40002441406</ele>
        <time>2025-06-05T08:55:58.000Z</time>
      </trkpt>
      <trkpt lat="46.72888" lon="5.89907">
        <ele>660.20001220703</ele>
        <time>2025-06-05T08:55:59.000Z</time>
      </trkpt>
      <trkpt lat="46.72889" lon="5.89908">
        <ele>660</ele>
        <time>2025-06-05T08:56:00.000Z</time>
      </trkpt>
      <trkpt lat="46.72895" lon="5.89913">
        <ele>659</ele>
        <time>2025-06-05T08:56:05.000Z</time>
      </trkpt>
      <trkpt lat="46.72898" lon="5.89915">
        <ele>657.79998779297</ele>
        <time>2025-06-05T08:56:10.000Z</time>
      </trkpt>
      <trkpt lat="46.72899" lon="5.89916">
        <ele>657.20001220703</ele>
        <time>2025-06-05T08:56:13.000Z</time>
      </trkpt>
      <trkpt lat="46.72902" lon="5.89918">
        <ele>656.79998779297</ele>
        <time>2025-06-05T08:56:16.000Z</time>
      </trkpt>
      <trkpt lat="46.72905" lon="5.89919">
        <ele>656.40002441406</ele>
        <time>2025-06-05T08:56:19.000Z</time>
      </trkpt>
      <trkpt lat="46.72908" lon="5.8992">
        <ele>655.79998779297</ele>
        <time>2025-06-05T08:56:23.000Z</time>
      </trkpt>
      <trkpt lat="46.72912" lon="5.8992">
        <ele>655</ele>
        <time>2025-06-05T08:56:26.000Z</time>
      </trkpt>
      <trkpt lat="46.72914" lon="5.89922">
        <ele>654.59997558594</ele>
        <time>2025-06-05T08:56:29.000Z</time>
      </trkpt>
      <trkpt lat="46.72916" lon="5.89922">
        <ele>653.40002441406</ele>
        <time>2025-06-05T08:56:33.000Z</time>
      </trkpt>
      <trkpt lat="46.72916" lon="5.89922">
        <ele>653.40002441406</ele>
        <time>2025-06-05T08:56:34.000Z</time>
      </trkpt>
      <trkpt lat="46.72916" lon="5.89922">
        <ele>652.40002441406</ele>
        <time>2025-06-05T08:56:39.000Z</time>
      </trkpt>
      <trkpt lat="46.72916" lon="5.89922">
        <ele>652</ele>
        <time>2025-06-05T08:56:47.000Z</time>
      </trkpt>
      <trkpt lat="46.72916" lon="5.89922">
        <ele>652</ele>
        <time>2025-06-05T08:57:08.000Z</time>
      </trkpt>
      <trkpt lat="46.72921" lon="5.8992">
        <ele>651.59997558594</ele>
        <time>2025-06-05T08:57:32.000Z</time>
      </trkpt>
      <trkpt lat="46.72924" lon="5.89917">
        <ele>651</ele>
        <time>2025-06-05T08:57:35.000Z</time>
      </trkpt>
      <trkpt lat="46.72925" lon="5.89915">
        <ele>650.79998779297</ele>
        <time>2025-06-05T08:57:37.000Z</time>
      </trkpt>
      <trkpt lat="46.72927" lon="5.89914">
        <ele>650.40002441406</ele>
        <time>2025-06-05T08:57:38.000Z</time>
      </trkpt>
      <trkpt lat="46.72928" lon="5.89912">
        <ele>649.79998779297</ele>
        <time>2025-06-05T08:57:39.000Z</time>
      </trkpt>
      <trkpt lat="46.7293" lon="5.89912">
        <ele>648.79998779297</ele>
        <time>2025-06-05T08:57:41.000Z</time>
      </trkpt>
      <trkpt lat="46.72933" lon="5.89908">
        <ele>648.20001220703</ele>
        <time>2025-06-05T08:57:43.000Z</time>
      </trkpt>
      <trkpt lat="46.72935" lon="5.89905">
        <ele>647.59997558594</ele>
        <time>2025-06-05T08:57:44.000Z</time>
      </trkpt>
      <trkpt lat="46.72943" lon="5.89894">
        <ele>646.20001220703</ele>
        <time>2025-06-05T08:57:47.000Z</time>
      </trkpt>
      <trkpt lat="46.72947" lon="5.89891">
        <ele>646</ele>
        <time>2025-06-05T08:57:48.000Z</time>
      </trkpt>
      <trkpt lat="46.72953" lon="5.89883">
        <ele>644.79998779297</ele>
        <time>2025-06-05T08:57:50.000Z</time>
      </trkpt>
      <trkpt lat="46.72961" lon="5.89877">
        <ele>643.40002441406</ele>
        <time>2025-06-05T08:57:52.000Z</time>
      </trkpt>
      <trkpt lat="46.72965" lon="5.89875">
        <ele>643</ele>
        <time>2025-06-05T08:57:53.000Z</time>
      </trkpt>
      <trkpt lat="46.7297" lon="5.89873">
        <ele>642.20001220703</ele>
        <time>2025-06-05T08:57:54.000Z</time>
      </trkpt>
      <trkpt lat="46.72979" lon="5.89869">
        <ele>641</ele>
        <time>2025-06-05T08:57:56.000Z</time>
      </trkpt>
      <trkpt lat="46.72993" lon="5.89859">
        <ele>639.20001220703</ele>
        <time>2025-06-05T08:57:59.000Z</time>
      </trkpt>
      <trkpt lat="46.73001" lon="5.89857">
        <ele>637.59997558594</ele>
        <time>2025-06-05T08:58:01.000Z</time>
      </trkpt>
      <trkpt lat="46.73016" lon="5.89851">
        <ele>636.79998779297</ele>
        <time>2025-06-05T08:58:04.000Z</time>
      </trkpt>
      <trkpt lat="46.7302" lon="5.89848">
        <ele>636.40002441406</ele>
        <time>2025-06-05T08:58:05.000Z</time>
      </trkpt>
      <trkpt lat="46.73034" lon="5.89832">
        <ele>636.40002441406</ele>
        <time>2025-06-05T08:58:08.000Z</time>
      </trkpt>
      <trkpt lat="46.73038" lon="5.89827">
        <ele>636.40002441406</ele>
        <time>2025-06-05T08:58:09.000Z</time>
      </trkpt>
      <trkpt lat="46.7305" lon="5.89818">
        <ele>636.20001220703</ele>
        <time>2025-06-05T08:58:15.000Z</time>
      </trkpt>
      <trkpt lat="46.7305" lon="5.89818">
        <ele>636</ele>
        <time>2025-06-05T08:58:23.000Z</time>
      </trkpt>
      <trkpt lat="46.73053" lon="5.89815">
        <ele>636</ele>
        <time>2025-06-05T08:58:34.000Z</time>
      </trkpt>
      <trkpt lat="46.73056" lon="5.8981">
        <ele>636</ele>
        <time>2025-06-05T08:58:36.000Z</time>
      </trkpt>
      <trkpt lat="46.7306" lon="5.89807">
        <ele>635.79998779297</ele>
        <time>2025-06-05T08:58:38.000Z</time>
      </trkpt>
      <trkpt lat="46.73064" lon="5.89802">
        <ele>635.79998779297</ele>
        <time>2025-06-05T08:58:40.000Z</time>
      </trkpt>
      <trkpt lat="46.73067" lon="5.89797">
        <ele>636</ele>
        <time>2025-06-05T08:58:42.000Z</time>
      </trkpt>
      <trkpt lat="46.73068" lon="5.89795">
        <ele>636</ele>
        <time>2025-06-05T08:58:43.000Z</time>
      </trkpt>
      <trkpt lat="46.73076" lon="5.8978">
        <ele>636.40002441406</ele>
        <time>2025-06-05T08:58:47.000Z</time>
      </trkpt>
      <trkpt lat="46.73081" lon="5.89772">
        <ele>636.59997558594</ele>
        <time>2025-06-05T08:58:49.000Z</time>
      </trkpt>
      <trkpt lat="46.73102" lon="5.89741">
        <ele>637</ele>
        <time>2025-06-05T08:58:57.000Z</time>
      </trkpt>
      <trkpt lat="46.7311" lon="5.89731">
        <ele>637</ele>
        <time>2025-06-05T08:58:59.000Z</time>
      </trkpt>
      <trkpt lat="46.73118" lon="5.8972">
        <ele>637.20001220703</ele>
        <time>2025-06-05T08:59:01.000Z</time>
      </trkpt>
      <trkpt lat="46.73124" lon="5.89713">
        <ele>637.40002441406</ele>
        <time>2025-06-05T08:59:02.000Z</time>
      </trkpt>
      <trkpt lat="46.73133" lon="5.89703">
        <ele>637.40002441406</ele>
        <time>2025-06-05T08:59:04.000Z</time>
      </trkpt>
      <trkpt lat="46.73144" lon="5.89692">
        <ele>637.20001220703</ele>
        <time>2025-06-05T08:59:07.000Z</time>
      </trkpt>
      <trkpt lat="46.7315" lon="5.89687">
        <ele>637.20001220703</ele>
        <time>2025-06-05T08:59:09.000Z</time>
      </trkpt>
      <trkpt lat="46.73158" lon="5.89684">
        <ele>636.79998779297</ele>
        <time>2025-06-05T08:59:12.000Z</time>
      </trkpt>
      <trkpt lat="46.73163" lon="5.89677">
        <ele>636.20001220703</ele>
        <time>2025-06-05T08:59:16.000Z</time>
      </trkpt>
      <trkpt lat="46.73165" lon="5.89675">
        <ele>635.79998779297</ele>
        <time>2025-06-05T08:59:18.000Z</time>
      </trkpt>
      <trkpt lat="46.73165" lon="5.89675">
        <ele>635.59997558594</ele>
        <time>2025-06-05T08:59:24.000Z</time>
      </trkpt>
      <trkpt lat="46.73165" lon="5.89675">
        <ele>635.40002441406</ele>
        <time>2025-06-05T08:59:31.000Z</time>
      </trkpt>
      <trkpt lat="46.73167" lon="5.89671">
        <ele>635.20001220703</ele>
        <time>2025-06-05T08:59:40.000Z</time>
      </trkpt>
      <trkpt lat="46.73169" lon="5.89669">
        <ele>635.20001220703</ele>
        <time>2025-06-05T08:59:41.000Z</time>
      </trkpt>
      <trkpt lat="46.73177" lon="5.89658">
        <ele>634.40002441406</ele>
        <time>2025-06-05T08:59:44.000Z</time>
      </trkpt>
      <trkpt lat="46.73179" lon="5.89656">
        <ele>634</ele>
        <time>2025-06-05T08:59:45.000Z</time>
      </trkpt>
      <trkpt lat="46.73184" lon="5.89648">
        <ele>632.59997558594</ele>
        <time>2025-06-05T08:59:47.000Z</time>
      </trkpt>
      <trkpt lat="46.7319" lon="5.8964">
        <ele>631.59997558594</ele>
        <time>2025-06-05T08:59:49.000Z</time>
      </trkpt>
      <trkpt lat="46.73193" lon="5.89636">
        <ele>631.20001220703</ele>
        <time>2025-06-05T08:59:50.000Z</time>
      </trkpt>
      <trkpt lat="46.73196" lon="5.89632">
        <ele>630.40002441406</ele>
        <time>2025-06-05T08:59:51.000Z</time>
      </trkpt>
      <trkpt lat="46.73204" lon="5.89623">
        <ele>629</ele>
        <time>2025-06-05T08:59:53.000Z</time>
      </trkpt>
      <trkpt lat="46.73208" lon="5.89617">
        <ele>628</ele>
        <time>2025-06-05T08:59:54.000Z</time>
      </trkpt>
      <trkpt lat="46.73212" lon="5.89612">
        <ele>627.59997558594</ele>
        <time>2025-06-05T08:59:55.000Z</time>
      </trkpt>
      <trkpt lat="46.73216" lon="5.89607">
        <ele>626.59997558594</ele>
        <time>2025-06-05T08:59:56.000Z</time>
      </trkpt>
      <trkpt lat="46.73222" lon="5.89597">
        <ele>625</ele>
        <time>2025-06-05T08:59:58.000Z</time>
      </trkpt>
      <trkpt lat="46.73229" lon="5.89587">
        <ele>623.40002441406</ele>
        <time>2025-06-05T09:00:00.000Z</time>
      </trkpt>
      <trkpt lat="46.73237" lon="5.89579">
        <ele>621.20001220703</ele>
        <time>2025-06-05T09:00:02.000Z</time>
      </trkpt>
      <trkpt lat="46.73248" lon="5.89565">
        <ele>619.40002441406</ele>
        <time>2025-06-05T09:00:05.000Z</time>
      </trkpt>
      <trkpt lat="46.73257" lon="5.89555">
        <ele>618</ele>
        <time>2025-06-05T09:00:07.000Z</time>
      </trkpt>
      <trkpt lat="46.73265" lon="5.89546">
        <ele>616.20001220703</ele>
        <time>2025-06-05T09:00:09.000Z</time>
      </trkpt>
      <trkpt lat="46.73267" lon="5.89541">
        <ele>615</ele>
        <time>2025-06-05T09:00:10.000Z</time>
      </trkpt>
      <trkpt lat="46.73272" lon="5.89532">
        <ele>612.79998779297</ele>
        <time>2025-06-05T09:00:12.000Z</time>
      </trkpt>
      <trkpt lat="46.73278" lon="5.89523">
        <ele>611</ele>
        <time>2025-06-05T09:00:14.000Z</time>
      </trkpt>
      <trkpt lat="46.73285" lon="5.89514">
        <ele>608.79998779297</ele>
        <time>2025-06-05T09:00:16.000Z</time>
      </trkpt>
      <trkpt lat="46.73287" lon="5.89509">
        <ele>608.20001220703</ele>
        <time>2025-06-05T09:00:17.000Z</time>
      </trkpt>
      <trkpt lat="46.73291" lon="5.89505">
        <ele>607.20001220703</ele>
        <time>2025-06-05T09:00:18.000Z</time>
      </trkpt>
      <trkpt lat="46.73298" lon="5.89495">
        <ele>606</ele>
        <time>2025-06-05T09:00:20.000Z</time>
      </trkpt>
      <trkpt lat="46.73301" lon="5.89491">
        <ele>605.40002441406</ele>
        <time>2025-06-05T09:00:21.000Z</time>
      </trkpt>
      <trkpt lat="46.73305" lon="5.89485">
        <ele>603.79998779297</ele>
        <time>2025-06-05T09:00:23.000Z</time>
      </trkpt>
      <trkpt lat="46.73309" lon="5.89477">
        <ele>602.59997558594</ele>
        <time>2025-06-05T09:00:25.000Z</time>
      </trkpt>
      <trkpt lat="46.73312" lon="5.89469">
        <ele>600.20001220703</ele>
        <time>2025-06-05T09:00:27.000Z</time>
      </trkpt>
      <trkpt lat="46.73315" lon="5.89464">
        <ele>598.40002441406</ele>
        <time>2025-06-05T09:00:28.000Z</time>
      </trkpt>
      <trkpt lat="46.73318" lon="5.89461">
        <ele>597.20001220703</ele>
        <time>2025-06-05T09:00:29.000Z</time>
      </trkpt>
      <trkpt lat="46.7332" lon="5.89457">
        <ele>596</ele>
        <time>2025-06-05T09:00:30.000Z</time>
      </trkpt>
      <trkpt lat="46.73322" lon="5.89453">
        <ele>595.20001220703</ele>
        <time>2025-06-05T09:00:31.000Z</time>
      </trkpt>
      <trkpt lat="46.73324" lon="5.89449">
        <ele>594</ele>
        <time>2025-06-05T09:00:32.000Z</time>
      </trkpt>
      <trkpt lat="46.73328" lon="5.89443">
        <ele>592.40002441406</ele>
        <time>2025-06-05T09:00:34.000Z</time>
      </trkpt>
      <trkpt lat="46.73331" lon="5.89438">
        <ele>591.59997558594</ele>
        <time>2025-06-05T09:00:35.000Z</time>
      </trkpt>
      <trkpt lat="46.73333" lon="5.89435">
        <ele>590.79998779297</ele>
        <time>2025-06-05T09:00:36.000Z</time>
      </trkpt>
      <trkpt lat="46.73336" lon="5.89432">
        <ele>589.79998779297</ele>
        <time>2025-06-05T09:00:37.000Z</time>
      </trkpt>
      <trkpt lat="46.73338" lon="5.89424">
        <ele>587.40002441406</ele>
        <time>2025-06-05T09:00:39.000Z</time>
      </trkpt>
      <trkpt lat="46.73339" lon="5.89421">
        <ele>586.59997558594</ele>
        <time>2025-06-05T09:00:40.000Z</time>
      </trkpt>
      <trkpt lat="46.73341" lon="5.89417">
        <ele>585.59997558594</ele>
        <time>2025-06-05T09:00:41.000Z</time>
      </trkpt>
      <trkpt lat="46.73344" lon="5.89414">
        <ele>585.20001220703</ele>
        <time>2025-06-05T09:00:42.000Z</time>
      </trkpt>
      <trkpt lat="46.73351" lon="5.894">
        <ele>584</ele>
        <time>2025-06-05T09:00:44.000Z</time>
      </trkpt>
      <trkpt lat="46.73356" lon="5.89391">
        <ele>582.79998779297</ele>
        <time>2025-06-05T09:00:46.000Z</time>
      </trkpt>
      <trkpt lat="46.73359" lon="5.89386">
        <ele>582.20001220703</ele>
        <time>2025-06-05T09:00:47.000Z</time>
      </trkpt>
      <trkpt lat="46.73362" lon="5.89381">
        <ele>580.79998779297</ele>
        <time>2025-06-05T09:00:48.000Z</time>
      </trkpt>
      <trkpt lat="46.73364" lon="5.89377">
        <ele>580</ele>
        <time>2025-06-05T09:00:49.000Z</time>
      </trkpt>
      <trkpt lat="46.73366" lon="5.89373">
        <ele>579</ele>
        <time>2025-06-05T09:00:50.000Z</time>
      </trkpt>
      <trkpt lat="46.73368" lon="5.89368">
        <ele>578.59997558594</ele>
        <time>2025-06-05T09:00:51.000Z</time>
      </trkpt>
      <trkpt lat="46.73369" lon="5.89364">
        <ele>577.20001220703</ele>
        <time>2025-06-05T09:00:52.000Z</time>
      </trkpt>
      <trkpt lat="46.73373" lon="5.89359">
        <ele>576.40002441406</ele>
        <time>2025-06-05T09:00:53.000Z</time>
      </trkpt>
      <trkpt lat="46.73375" lon="5.89352">
        <ele>575.40002441406</ele>
        <time>2025-06-05T09:00:54.000Z</time>
      </trkpt>
      <trkpt lat="46.73377" lon="5.89346">
        <ele>573.79998779297</ele>
        <time>2025-06-05T09:00:55.000Z</time>
      </trkpt>
      <trkpt lat="46.73381" lon="5.89336">
        <ele>572.40002441406</ele>
        <time>2025-06-05T09:00:57.000Z</time>
      </trkpt>
      <trkpt lat="46.73385" lon="5.89326">
        <ele>571.20001220703</ele>
        <time>2025-06-05T09:00:59.000Z</time>
      </trkpt>
      <trkpt lat="46.73392" lon="5.8931">
        <ele>569.59997558594</ele>
        <time>2025-06-05T09:01:01.000Z</time>
      </trkpt>
      <trkpt lat="46.73397" lon="5.89298">
        <ele>568</ele>
        <time>2025-06-05T09:01:03.000Z</time>
      </trkpt>
      <trkpt lat="46.73399" lon="5.89291">
        <ele>566</ele>
        <time>2025-06-05T09:01:04.000Z</time>
      </trkpt>
      <trkpt lat="46.73401" lon="5.89283">
        <ele>565.59997558594</ele>
        <time>2025-06-05T09:01:05.000Z</time>
      </trkpt>
      <trkpt lat="46.73403" lon="5.89277">
        <ele>564.20001220703</ele>
        <time>2025-06-05T09:01:06.000Z</time>
      </trkpt>
      <trkpt lat="46.73405" lon="5.8927">
        <ele>563.59997558594</ele>
        <time>2025-06-05T09:01:07.000Z</time>
      </trkpt>
      <trkpt lat="46.73408" lon="5.89266">
        <ele>562.20001220703</ele>
        <time>2025-06-05T09:01:08.000Z</time>
      </trkpt>
      <trkpt lat="46.73409" lon="5.89261">
        <ele>561.79998779297</ele>
        <time>2025-06-05T09:01:09.000Z</time>
      </trkpt>
      <trkpt lat="46.73412" lon="5.89253">
        <ele>560.59997558594</ele>
        <time>2025-06-05T09:01:10.000Z</time>
      </trkpt>
      <trkpt lat="46.73415" lon="5.89247">
        <ele>560</ele>
        <time>2025-06-05T09:01:11.000Z</time>
      </trkpt>
      <trkpt lat="46.7342" lon="5.89243">
        <ele>559.20001220703</ele>
        <time>2025-06-05T09:01:12.000Z</time>
      </trkpt>
      <trkpt lat="46.73421" lon="5.89238">
        <ele>558.20001220703</ele>
        <time>2025-06-05T09:01:13.000Z</time>
      </trkpt>
      <trkpt lat="46.73426" lon="5.8923">
        <ele>556.40002441406</ele>
        <time>2025-06-05T09:01:15.000Z</time>
      </trkpt>
      <trkpt lat="46.7343" lon="5.89228">
        <ele>555.59997558594</ele>
        <time>2025-06-05T09:01:16.000Z</time>
      </trkpt>
      <trkpt lat="46.73434" lon="5.89226">
        <ele>554</ele>
        <time>2025-06-05T09:01:17.000Z</time>
      </trkpt>
      <trkpt lat="46.73441" lon="5.89222">
        <ele>552.20001220703</ele>
        <time>2025-06-05T09:01:19.000Z</time>
      </trkpt>
      <trkpt lat="46.73446" lon="5.8922">
        <ele>551.59997558594</ele>
        <time>2025-06-05T09:01:20.000Z</time>
      </trkpt>
      <trkpt lat="46.73455" lon="5.89215">
        <ele>550.20001220703</ele>
        <time>2025-06-05T09:01:21.000Z</time>
      </trkpt>
      <trkpt lat="46.73468" lon="5.89207">
        <ele>549</ele>
        <time>2025-06-05T09:01:23.000Z</time>
      </trkpt>
      <trkpt lat="46.73472" lon="5.89201">
        <ele>548</ele>
        <time>2025-06-05T09:01:24.000Z</time>
      </trkpt>
      <trkpt lat="46.73485" lon="5.89191">
        <ele>546.59997558594</ele>
        <time>2025-06-05T09:01:26.000Z</time>
      </trkpt>
      <trkpt lat="46.73493" lon="5.89183">
        <ele>545.20001220703</ele>
        <time>2025-06-05T09:01:28.000Z</time>
      </trkpt>
      <trkpt lat="46.73495" lon="5.89182">
        <ele>544.40002441406</ele>
        <time>2025-06-05T09:01:29.000Z</time>
      </trkpt>
      <trkpt lat="46.73497" lon="5.89183">
        <ele>543.59997558594</ele>
        <time>2025-06-05T09:01:30.000Z</time>
      </trkpt>
      <trkpt lat="46.735" lon="5.89184">
        <ele>543.20001220703</ele>
        <time>2025-06-05T09:01:31.000Z</time>
      </trkpt>
      <trkpt lat="46.73501" lon="5.89192">
        <ele>542.59997558594</ele>
        <time>2025-06-05T09:01:33.000Z</time>
      </trkpt>
      <trkpt lat="46.73502" lon="5.89203">
        <ele>542.20001220703</ele>
        <time>2025-06-05T09:01:35.000Z</time>
      </trkpt>
      <trkpt lat="46.73499" lon="5.89214">
        <ele>541.79998779297</ele>
        <time>2025-06-05T09:01:37.000Z</time>
      </trkpt>
      <trkpt lat="46.73494" lon="5.8923">
        <ele>540.79998779297</ele>
        <time>2025-06-05T09:01:40.000Z</time>
      </trkpt>
      <trkpt lat="46.73493" lon="5.89238">
        <ele>540.79998779297</ele>
        <time>2025-06-05T09:01:41.000Z</time>
      </trkpt>
      <trkpt lat="46.73491" lon="5.89243">
        <ele>540.59997558594</ele>
        <time>2025-06-05T09:01:42.000Z</time>
      </trkpt>
      <trkpt lat="46.73491" lon="5.8925">
        <ele>540.59997558594</ele>
        <time>2025-06-05T09:01:43.000Z</time>
      </trkpt>
      <trkpt lat="46.73487" lon="5.89278">
        <ele>540</ele>
        <time>2025-06-05T09:01:47.000Z</time>
      </trkpt>
      <trkpt lat="46.73486" lon="5.89298">
        <ele>539.59997558594</ele>
        <time>2025-06-05T09:01:50.000Z</time>
      </trkpt>
      <trkpt lat="46.73486" lon="5.89305">
        <ele>539.40002441406</ele>
        <time>2025-06-05T09:01:51.000Z</time>
      </trkpt>
      <trkpt lat="46.73485" lon="5.89312">
        <ele>539.20001220703</ele>
        <time>2025-06-05T09:01:52.000Z</time>
      </trkpt>
      <trkpt lat="46.73484" lon="5.8932">
        <ele>539.20001220703</ele>
        <time>2025-06-05T09:01:53.000Z</time>
      </trkpt>
      <trkpt lat="46.73485" lon="5.89352">
        <ele>538.79998779297</ele>
        <time>2025-06-05T09:01:57.000Z</time>
      </trkpt>
      <trkpt lat="46.73486" lon="5.89367">
        <ele>538.79998779297</ele>
        <time>2025-06-05T09:01:59.000Z</time>
      </trkpt>
      <trkpt lat="46.7349" lon="5.89388">
        <ele>538.59997558594</ele>
        <time>2025-06-05T09:02:02.000Z</time>
      </trkpt>
      <trkpt lat="46.73491" lon="5.89397">
        <ele>538.59997558594</ele>
        <time>2025-06-05T09:02:03.000Z</time>
      </trkpt>
      <trkpt lat="46.73496" lon="5.89434">
        <ele>538.79998779297</ele>
        <time>2025-06-05T09:02:08.000Z</time>
      </trkpt>
      <trkpt lat="46.73497" lon="5.89449">
        <ele>538.79998779297</ele>
        <time>2025-06-05T09:02:10.000Z</time>
      </trkpt>
      <trkpt lat="46.73503" lon="5.89477">
        <ele>538.79998779297</ele>
        <time>2025-06-05T09:02:14.000Z</time>
      </trkpt>
      <trkpt lat="46.7351" lon="5.89495">
        <ele>539.20001220703</ele>
        <time>2025-06-05T09:02:17.000Z</time>
      </trkpt>
      <trkpt lat="46.73519" lon="5.8951">
        <ele>539.59997558594</ele>
        <time>2025-06-05T09:02:20.000Z</time>
      </trkpt>
      <trkpt lat="46.73528" lon="5.8952">
        <ele>539.79998779297</ele>
        <time>2025-06-05T09:02:22.000Z</time>
      </trkpt>
      <trkpt lat="46.73535" lon="5.89527">
        <ele>540.20001220703</ele>
        <time>2025-06-05T09:02:24.000Z</time>
      </trkpt>
      <trkpt lat="46.73563" lon="5.89555">
        <ele>541</ele>
        <time>2025-06-05T09:02:31.000Z</time>
      </trkpt>
      <trkpt lat="46.73567" lon="5.89558">
        <ele>541</ele>
        <time>2025-06-05T09:02:32.000Z</time>
      </trkpt>
      <trkpt lat="46.73591" lon="5.89577">
        <ele>541.20001220703</ele>
        <time>2025-06-05T09:02:37.000Z</time>
      </trkpt>
      <trkpt lat="46.73595" lon="5.89581">
        <ele>541.20001220703</ele>
        <time>2025-06-05T09:02:38.000Z</time>
      </trkpt>
      <trkpt lat="46.73621" lon="5.89601">
        <ele>541</ele>
        <time>2025-06-05T09:02:44.000Z</time>
      </trkpt>
      <trkpt lat="46.73624" lon="5.89605">
        <ele>541.20001220703</ele>
        <time>2025-06-05T09:02:45.000Z</time>
      </trkpt>
      <trkpt lat="46.73651" lon="5.89643">
        <ele>540.59997558594</ele>
        <time>2025-06-05T09:02:52.000Z</time>
      </trkpt>
      <trkpt lat="46.73679" lon="5.89687">
        <ele>539.40002441406</ele>
        <time>2025-06-05T09:02:58.000Z</time>
      </trkpt>
      <trkpt lat="46.73687" lon="5.897">
        <ele>538</ele>
        <time>2025-06-05T09:03:01.000Z</time>
      </trkpt>
      <trkpt lat="46.73706" lon="5.89734">
        <ele>537.40002441406</ele>
        <time>2025-06-05T09:03:05.000Z</time>
      </trkpt>
      <trkpt lat="46.73713" lon="5.89746">
        <ele>537.20001220703</ele>
        <time>2025-06-05T09:03:07.000Z</time>
      </trkpt>
      <trkpt lat="46.73733" lon="5.89779">
        <ele>537</ele>
        <time>2025-06-05T09:03:13.000Z</time>
      </trkpt>
      <trkpt lat="46.73762" lon="5.8983">
        <ele>536.59997558594</ele>
        <time>2025-06-05T09:03:20.000Z</time>
      </trkpt>
      <trkpt lat="46.73779" lon="5.8986">
        <ele>536.40002441406</ele>
        <time>2025-06-05T09:03:25.000Z</time>
      </trkpt>
      <trkpt lat="46.73789" lon="5.89876">
        <ele>536.40002441406</ele>
        <time>2025-06-05T09:03:28.000Z</time>
      </trkpt>
      <trkpt lat="46.73796" lon="5.89888">
        <ele>536.40002441406</ele>
        <time>2025-06-05T09:03:30.000Z</time>
      </trkpt>
      <trkpt lat="46.738" lon="5.899">
        <ele>536.59997558594</ele>
        <time>2025-06-05T09:03:32.000Z</time>
      </trkpt>
      <trkpt lat="46.73809" lon="5.89959">
        <ele>537.20001220703</ele>
        <time>2025-06-05T09:03:39.000Z</time>
      </trkpt>
      <trkpt lat="46.73818" lon="5.90023">
        <ele>537.40002441406</ele>
        <time>2025-06-05T09:03:47.000Z</time>
      </trkpt>
      <trkpt lat="46.73829" lon="5.90103">
        <ele>538.40002441406</ele>
        <time>2025-06-05T09:03:57.000Z</time>
      </trkpt>
      <trkpt lat="46.73838" lon="5.90157">
        <ele>539.59997558594</ele>
        <time>2025-06-05T09:04:04.000Z</time>
      </trkpt>
      <trkpt lat="46.73846" lon="5.90204">
        <ele>540.59997558594</ele>
        <time>2025-06-05T09:04:10.000Z</time>
      </trkpt>
      <trkpt lat="46.73848" lon="5.90219">
        <ele>540.79998779297</ele>
        <time>2025-06-05T09:04:12.000Z</time>
      </trkpt>
      <trkpt lat="46.73856" lon="5.90276">
        <ele>541.59997558594</ele>
        <time>2025-06-05T09:04:19.000Z</time>
      </trkpt>
      <trkpt lat="46.73861" lon="5.90308">
        <ele>542.20001220703</ele>
        <time>2025-06-05T09:04:23.000Z</time>
      </trkpt>
      <trkpt lat="46.73869" lon="5.90355">
        <ele>542.59997558594</ele>
        <time>2025-06-05T09:04:30.000Z</time>
      </trkpt>
      <trkpt lat="46.73871" lon="5.90367">
        <ele>542.79998779297</ele>
        <time>2025-06-05T09:04:32.000Z</time>
      </trkpt>
      <trkpt lat="46.73871" lon="5.90373">
        <ele>542.79998779297</ele>
        <time>2025-06-05T09:04:33.000Z</time>
      </trkpt>
      <trkpt lat="46.7387" lon="5.90385">
        <ele>543</ele>
        <time>2025-06-05T09:04:35.000Z</time>
      </trkpt>
      <trkpt lat="46.73871" lon="5.90397">
        <ele>543.20001220703</ele>
        <time>2025-06-05T09:04:37.000Z</time>
      </trkpt>
      <trkpt lat="46.73875" lon="5.90409">
        <ele>543.20001220703</ele>
        <time>2025-06-05T09:04:39.000Z</time>
      </trkpt>
      <trkpt lat="46.7389" lon="5.90449">
        <ele>543</ele>
        <time>2025-06-05T09:04:45.000Z</time>
      </trkpt>
      <trkpt lat="46.73909" lon="5.90502">
        <ele>543</ele>
        <time>2025-06-05T09:04:52.000Z</time>
      </trkpt>
      <trkpt lat="46.73927" lon="5.9055">
        <ele>543.40002441406</ele>
        <time>2025-06-05T09:04:59.000Z</time>
      </trkpt>
      <trkpt lat="46.73929" lon="5.90557">
        <ele>543.59997558594</ele>
        <time>2025-06-05T09:05:00.000Z</time>
      </trkpt>
      <trkpt lat="46.73938" lon="5.90582">
        <ele>544</ele>
        <time>2025-06-05T09:05:04.000Z</time>
      </trkpt>
      <trkpt lat="46.7394" lon="5.90589">
        <ele>544</ele>
        <time>2025-06-05T09:05:05.000Z</time>
      </trkpt>
      <trkpt lat="46.73947" lon="5.90608">
        <ele>544.59997558594</ele>
        <time>2025-06-05T09:05:08.000Z</time>
      </trkpt>
      <trkpt lat="46.73954" lon="5.9063">
        <ele>544.79998779297</ele>
        <time>2025-06-05T09:05:11.000Z</time>
      </trkpt>
      <trkpt lat="46.73968" lon="5.90685">
        <ele>544</ele>
        <time>2025-06-05T09:05:18.000Z</time>
      </trkpt>
      <trkpt lat="46.73974" lon="5.90709">
        <ele>543.40002441406</ele>
        <time>2025-06-05T09:05:21.000Z</time>
      </trkpt>
      <trkpt lat="46.73977" lon="5.90717">
        <ele>543.20001220703</ele>
        <time>2025-06-05T09:05:22.000Z</time>
      </trkpt>
      <trkpt lat="46.73981" lon="5.90726">
        <ele>542.79998779297</ele>
        <time>2025-06-05T09:05:23.000Z</time>
      </trkpt>
      <trkpt lat="46.7399" lon="5.90754">
        <ele>542.20001220703</ele>
        <time>2025-06-05T09:05:26.000Z</time>
      </trkpt>
      <trkpt lat="46.74002" lon="5.90785">
        <ele>540.59997558594</ele>
        <time>2025-06-05T09:05:29.000Z</time>
      </trkpt>
      <trkpt lat="46.7401" lon="5.90806">
        <ele>539.59997558594</ele>
        <time>2025-06-05T09:05:31.000Z</time>
      </trkpt>
      <trkpt lat="46.7403" lon="5.90849">
        <ele>538.20001220703</ele>
        <time>2025-06-05T09:05:35.000Z</time>
      </trkpt>
      <trkpt lat="46.7405" lon="5.90894">
        <ele>537</ele>
        <time>2025-06-05T09:05:39.000Z</time>
      </trkpt>
      <trkpt lat="46.7406" lon="5.90917">
        <ele>535.59997558594</ele>
        <time>2025-06-05T09:05:41.000Z</time>
      </trkpt>
      <trkpt lat="46.74065" lon="5.90928">
        <ele>535.40002441406</ele>
        <time>2025-06-05T09:05:42.000Z</time>
      </trkpt>
      <trkpt lat="46.74075" lon="5.9095">
        <ele>534.59997558594</ele>
        <time>2025-06-05T09:05:44.000Z</time>
      </trkpt>
      <trkpt lat="46.74091" lon="5.90979">
        <ele>533.40002441406</ele>
        <time>2025-06-05T09:05:47.000Z</time>
      </trkpt>
      <trkpt lat="46.74102" lon="5.91">
        <ele>532.20001220703</ele>
        <time>2025-06-05T09:05:50.000Z</time>
      </trkpt>
      <trkpt lat="46.74105" lon="5.91005">
        <ele>532.20001220703</ele>
        <time>2025-06-05T09:05:51.000Z</time>
      </trkpt>
      <trkpt lat="46.7411" lon="5.91015">
        <ele>532</ele>
        <time>2025-06-05T09:05:53.000Z</time>
      </trkpt>
      <trkpt lat="46.74117" lon="5.91018">
        <ele>531.59997558594</ele>
        <time>2025-06-05T09:05:55.000Z</time>
      </trkpt>
      <trkpt lat="46.74121" lon="5.91019">
        <ele>531.20001220703</ele>
        <time>2025-06-05T09:05:56.000Z</time>
      </trkpt>
      <trkpt lat="46.7413" lon="5.91019">
        <ele>530.79998779297</ele>
        <time>2025-06-05T09:05:58.000Z</time>
      </trkpt>
      <trkpt lat="46.74139" lon="5.91021">
        <ele>530.40002441406</ele>
        <time>2025-06-05T09:06:00.000Z</time>
      </trkpt>
      <trkpt lat="46.74144" lon="5.91024">
        <ele>530.20001220703</ele>
        <time>2025-06-05T09:06:01.000Z</time>
      </trkpt>
      <trkpt lat="46.74153" lon="5.91032">
        <ele>529.59997558594</ele>
        <time>2025-06-05T09:06:03.000Z</time>
      </trkpt>
      <trkpt lat="46.74158" lon="5.91037">
        <ele>529.40002441406</ele>
        <time>2025-06-05T09:06:04.000Z</time>
      </trkpt>
      <trkpt lat="46.74164" lon="5.91045">
        <ele>529</ele>
        <time>2025-06-05T09:06:05.000Z</time>
      </trkpt>
      <trkpt lat="46.74178" lon="5.91069">
        <ele>527.79998779297</ele>
        <time>2025-06-05T09:06:08.000Z</time>
      </trkpt>
      <trkpt lat="46.74189" lon="5.91092">
        <ele>526.40002441406</ele>
        <time>2025-06-05T09:06:11.000Z</time>
      </trkpt>
      <trkpt lat="46.74194" lon="5.91102">
        <ele>525</ele>
        <time>2025-06-05T09:06:13.000Z</time>
      </trkpt>
      <trkpt lat="46.74198" lon="5.91109">
        <ele>524</ele>
        <time>2025-06-05T09:06:15.000Z</time>
      </trkpt>
      <trkpt lat="46.74201" lon="5.91112">
        <ele>523.79998779297</ele>
        <time>2025-06-05T09:06:17.000Z</time>
      </trkpt>
      <trkpt lat="46.74203" lon="5.91112">
        <ele>523.79998779297</ele>
        <time>2025-06-05T09:06:18.000Z</time>
      </trkpt>
      <trkpt lat="46.74206" lon="5.91107">
        <ele>523.40002441406</ele>
        <time>2025-06-05T09:06:21.000Z</time>
      </trkpt>
      <trkpt lat="46.74208" lon="5.91105">
        <ele>523.40002441406</ele>
        <time>2025-06-05T09:06:24.000Z</time>
      </trkpt>
      <trkpt lat="46.74208" lon="5.91106">
        <ele>523.20001220703</ele>
        <time>2025-06-05T09:06:31.000Z</time>
      </trkpt>
      <trkpt lat="46.74208" lon="5.91105">
        <ele>523</ele>
        <time>2025-06-05T09:06:50.000Z</time>
      </trkpt>
      <trkpt lat="46.7421" lon="5.91102">
        <ele>522.79998779297</ele>
        <time>2025-06-05T09:06:52.000Z</time>
      </trkpt>
      <trkpt lat="46.74213" lon="5.91097">
        <ele>522.40002441406</ele>
        <time>2025-06-05T09:06:55.000Z</time>
      </trkpt>
      <trkpt lat="46.74215" lon="5.91094">
        <ele>522.40002441406</ele>
        <time>2025-06-05T09:06:57.000Z</time>
      </trkpt>
      <trkpt lat="46.74215" lon="5.91094">
        <ele>522.20001220703</ele>
        <time>2025-06-05T09:07:00.000Z</time>
      </trkpt>
      <trkpt lat="46.74215" lon="5.91092">
        <ele>521.79998779297</ele>
        <time>2025-06-05T09:07:12.000Z</time>
      </trkpt>
      <trkpt lat="46.74216" lon="5.91092">
        <ele>521.59997558594</ele>
        <time>2025-06-05T09:07:14.000Z</time>
      </trkpt>
      <trkpt lat="46.74217" lon="5.91089">
        <ele>521</ele>
        <time>2025-06-05T09:07:17.000Z</time>
      </trkpt>
      <trkpt lat="46.74217" lon="5.91089">
        <ele>521</ele>
        <time>2025-06-05T09:07:18.000Z</time>
      </trkpt>
      <trkpt lat="46.74223" lon="5.91086">
        <ele>520</ele>
        <time>2025-06-05T09:07:25.000Z</time>
      </trkpt>
      <trkpt lat="46.74224" lon="5.91085">
        <ele>519.79998779297</ele>
        <time>2025-06-05T09:07:26.000Z</time>
      </trkpt>
      <trkpt lat="46.74226" lon="5.91083">
        <ele>518.79998779297</ele>
        <time>2025-06-05T09:07:30.000Z</time>
      </trkpt>
      <trkpt lat="46.74226" lon="5.91082">
        <ele>518.79998779297</ele>
        <time>2025-06-05T09:07:31.000Z</time>
      </trkpt>
      <trkpt lat="46.74238" lon="5.91077">
        <ele>517.79998779297</ele>
        <time>2025-06-05T09:07:37.000Z</time>
      </trkpt>
      <trkpt lat="46.74241" lon="5.91073">
        <ele>516.79998779297</ele>
        <time>2025-06-05T09:07:43.000Z</time>
      </trkpt>
      <trkpt lat="46.74247" lon="5.9107">
        <ele>515.79998779297</ele>
        <time>2025-06-05T09:07:53.000Z</time>
      </trkpt>
      <trkpt lat="46.74249" lon="5.91069">
        <ele>515.59997558594</ele>
        <time>2025-06-05T09:07:54.000Z</time>
      </trkpt>
      <trkpt lat="46.74255" lon="5.91065">
        <ele>514.79998779297</ele>
        <time>2025-06-05T09:08:00.000Z</time>
      </trkpt>
      <trkpt lat="46.74261" lon="5.9106">
        <ele>514.79998779297</ele>
        <time>2025-06-05T09:08:07.000Z</time>
      </trkpt>
      <trkpt lat="46.74268" lon="5.91051">
        <ele>514.79998779297</ele>
        <time>2025-06-05T09:08:15.000Z</time>
      </trkpt>
      <trkpt lat="46.74278" lon="5.91046">
        <ele>514.79998779297</ele>
        <time>2025-06-05T09:08:25.000Z</time>
      </trkpt>
      <trkpt lat="46.74278" lon="5.91046">
        <ele>514.79998779297</ele>
        <time>2025-06-05T09:08:38.000Z</time>
      </trkpt>
      <trkpt lat="46.74278" lon="5.91046">
        <ele>514.79998779297</ele>
        <time>2025-06-05T09:09:34.000Z</time>
      </trkpt>
      <trkpt lat="46.74278" lon="5.91046">
        <ele>514.20001220703</ele>
        <time>2025-06-05T09:10:10.000Z</time>
      </trkpt>
      <trkpt lat="46.74278" lon="5.91046">
        <ele>514.40002441406</ele>
        <time>2025-06-05T09:10:17.000Z</time>
      </trkpt>
      <trkpt lat="46.74281" lon="5.91042">
        <ele>514.40002441406</ele>
        <time>2025-06-05T09:10:20.000Z</time>
      </trkpt>
      <trkpt lat="46.74292" lon="5.9103">
        <ele>514.79998779297</ele>
        <time>2025-06-05T09:10:25.000Z</time>
      </trkpt>
      <trkpt lat="46.74309" lon="5.91012">
        <ele>515</ele>
        <time>2025-06-05T09:10:30.000Z</time>
      </trkpt>
      <trkpt lat="46.7432" lon="5.90997">
        <ele>515</ele>
        <time>2025-06-05T09:10:33.000Z</time>
      </trkpt>
      <trkpt lat="46.74327" lon="5.90987">
        <ele>515.20001220703</ele>
        <time>2025-06-05T09:10:35.000Z</time>
      </trkpt>
      <trkpt lat="46.7433" lon="5.90982">
        <ele>515</ele>
        <time>2025-06-05T09:10:36.000Z</time>
      </trkpt>
      <trkpt lat="46.74335" lon="5.90975">
        <ele>515</ele>
        <time>2025-06-05T09:10:38.000Z</time>
      </trkpt>
      <trkpt lat="46.74341" lon="5.90971">
        <ele>515</ele>
        <time>2025-06-05T09:10:40.000Z</time>
      </trkpt>
      <trkpt lat="46.74349" lon="5.90962">
        <ele>515</ele>
        <time>2025-06-05T09:10:42.000Z</time>
      </trkpt>
      <trkpt lat="46.74356" lon="5.90952">
        <ele>515</ele>
        <time>2025-06-05T09:10:44.000Z</time>
      </trkpt>
      <trkpt lat="46.74363" lon="5.90945">
        <ele>514.59997558594</ele>
        <time>2025-06-05T09:10:46.000Z</time>
      </trkpt>
      <trkpt lat="46.74369" lon="5.90933">
        <ele>514.59997558594</ele>
        <time>2025-06-05T09:10:48.000Z</time>
      </trkpt>
      <trkpt lat="46.74372" lon="5.90928">
        <ele>514.59997558594</ele>
        <time>2025-06-05T09:10:49.000Z</time>
      </trkpt>
      <trkpt lat="46.74377" lon="5.90919">
        <ele>514.59997558594</ele>
        <time>2025-06-05T09:10:51.000Z</time>
      </trkpt>
      <trkpt lat="46.7438" lon="5.90915">
        <ele>514.59997558594</ele>
        <time>2025-06-05T09:10:52.000Z</time>
      </trkpt>
      <trkpt lat="46.74387" lon="5.90902">
        <ele>514.59997558594</ele>
        <time>2025-06-05T09:10:54.000Z</time>
      </trkpt>
      <trkpt lat="46.74401" lon="5.90882">
        <ele>514.59997558594</ele>
        <time>2025-06-05T09:10:57.000Z</time>
      </trkpt>
      <trkpt lat="46.74408" lon="5.90868">
        <ele>514.20001220703</ele>
        <time>2025-06-05T09:10:59.000Z</time>
      </trkpt>
      <trkpt lat="46.74414" lon="5.90847">
        <ele>514.20001220703</ele>
        <time>2025-06-05T09:11:02.000Z</time>
      </trkpt>
      <trkpt lat="46.74421" lon="5.90818">
        <ele>514</ele>
        <time>2025-06-05T09:11:07.000Z</time>
      </trkpt>
      <trkpt lat="46.7442" lon="5.90792">
        <ele>514.20001220703</ele>
        <time>2025-06-05T09:11:12.000Z</time>
      </trkpt>
      <trkpt lat="46.7442" lon="5.90782">
        <ele>514.59997558594</ele>
        <time>2025-06-05T09:11:17.000Z</time>
      </trkpt>
      <trkpt lat="46.7442" lon="5.9078">
        <ele>514.59997558594</ele>
        <time>2025-06-05T09:11:18.000Z</time>
      </trkpt>
      <trkpt lat="46.74423" lon="5.9078">
        <ele>514.79998779297</ele>
        <time>2025-06-05T09:11:22.000Z</time>
      </trkpt>
      <trkpt lat="46.74426" lon="5.90781">
        <ele>514.79998779297</ele>
        <time>2025-06-05T09:11:24.000Z</time>
      </trkpt>
      <trkpt lat="46.74429" lon="5.90781">
        <ele>515.40002441406</ele>
        <time>2025-06-05T09:11:27.000Z</time>
      </trkpt>
      <trkpt lat="46.7443" lon="5.90781">
        <ele>515.59997558594</ele>
        <time>2025-06-05T09:11:28.000Z</time>
      </trkpt>
      <trkpt lat="46.74434" lon="5.90784">
        <ele>516.79998779297</ele>
        <time>2025-06-05T09:11:31.000Z</time>
      </trkpt>
      <trkpt lat="46.74436" lon="5.90785">
        <ele>517.20001220703</ele>
        <time>2025-06-05T09:11:32.000Z</time>
      </trkpt>
      <trkpt lat="46.74439" lon="5.90789">
        <ele>518</ele>
        <time>2025-06-05T09:11:34.000Z</time>
      </trkpt>
      <trkpt lat="46.74441" lon="5.9079">
        <ele>518.40002441406</ele>
        <time>2025-06-05T09:11:35.000Z</time>
      </trkpt>
      <trkpt lat="46.74443" lon="5.90793">
        <ele>519</ele>
        <time>2025-06-05T09:11:37.000Z</time>
      </trkpt>
      <trkpt lat="46.74445" lon="5.90793">
        <ele>519.59997558594</ele>
        <time>2025-06-05T09:11:38.000Z</time>
      </trkpt>
      <trkpt lat="46.74446" lon="5.90794">
        <ele>520.20001220703</ele>
        <time>2025-06-05T09:11:40.000Z</time>
      </trkpt>
      <trkpt lat="46.74447" lon="5.90796">
        <ele>520.79998779297</ele>
        <time>2025-06-05T09:11:41.000Z</time>
      </trkpt>
      <trkpt lat="46.74451" lon="5.908">
        <ele>521.59997558594</ele>
        <time>2025-06-05T09:11:43.000Z</time>
      </trkpt>
      <trkpt lat="46.74458" lon="5.908">
        <ele>522.59997558594</ele>
        <time>2025-06-05T09:11:46.000Z</time>
      </trkpt>
      <trkpt lat="46.74461" lon="5.90798">
        <ele>523.20001220703</ele>
        <time>2025-06-05T09:11:47.000Z</time>
      </trkpt>
      <trkpt lat="46.7447" lon="5.90792">
        <ele>524.59997558594</ele>
        <time>2025-06-05T09:11:50.000Z</time>
      </trkpt>
      <trkpt lat="46.74474" lon="5.9079">
        <ele>525.20001220703</ele>
        <time>2025-06-05T09:11:52.000Z</time>
      </trkpt>
      <trkpt lat="46.74476" lon="5.90789">
        <ele>525.20001220703</ele>
        <time>2025-06-05T09:11:53.000Z</time>
      </trkpt>
      <trkpt lat="46.74479" lon="5.90788">
        <ele>525.79998779297</ele>
        <time>2025-06-05T09:11:54.000Z</time>
      </trkpt>
      <trkpt lat="46.74489" lon="5.90779">
        <ele>527</ele>
        <time>2025-06-05T09:11:57.000Z</time>
      </trkpt>
      <trkpt lat="46.74495" lon="5.9078">
        <ele>527.59997558594</ele>
        <time>2025-06-05T09:11:59.000Z</time>
      </trkpt>
      <trkpt lat="46.74501" lon="5.90784">
        <ele>528.20001220703</ele>
        <time>2025-06-05T09:12:01.000Z</time>
      </trkpt>
      <trkpt lat="46.74506" lon="5.90781">
        <ele>529.20001220703</ele>
        <time>2025-06-05T09:12:03.000Z</time>
      </trkpt>
      <trkpt lat="46.7451" lon="5.90779">
        <ele>529.79998779297</ele>
        <time>2025-06-05T09:12:05.000Z</time>
      </trkpt>
      <trkpt lat="46.74514" lon="5.90775">
        <ele>530.40002441406</ele>
        <time>2025-06-05T09:12:07.000Z</time>
      </trkpt>
      <trkpt lat="46.74519" lon="5.90767">
        <ele>531.59997558594</ele>
        <time>2025-06-05T09:12:10.000Z</time>
      </trkpt>
      <trkpt lat="46.74522" lon="5.90766">
        <ele>532</ele>
        <time>2025-06-05T09:12:11.000Z</time>
      </trkpt>
      <trkpt lat="46.74524" lon="5.90765">
        <ele>533</ele>
        <time>2025-06-05T09:12:13.000Z</time>
      </trkpt>
      <trkpt lat="46.74525" lon="5.90765">
        <ele>533.40002441406</ele>
        <time>2025-06-05T09:12:14.000Z</time>
      </trkpt>
      <trkpt lat="46.74528" lon="5.90761">
        <ele>534</ele>
        <time>2025-06-05T09:12:16.000Z</time>
      </trkpt>
      <trkpt lat="46.74532" lon="5.90761">
        <ele>534.59997558594</ele>
        <time>2025-06-05T09:12:18.000Z</time>
      </trkpt>
      <trkpt lat="46.74534" lon="5.90763">
        <ele>535.20001220703</ele>
        <time>2025-06-05T09:12:19.000Z</time>
      </trkpt>
      <trkpt lat="46.74535" lon="5.90766">
        <ele>535.40002441406</ele>
        <time>2025-06-05T09:12:20.000Z</time>
      </trkpt>
      <trkpt lat="46.74542" lon="5.90784">
        <ele>536.20001220703</ele>
        <time>2025-06-05T09:12:23.000Z</time>
      </trkpt>
      <trkpt lat="46.74546" lon="5.90791">
        <ele>537</ele>
        <time>2025-06-05T09:12:25.000Z</time>
      </trkpt>
      <trkpt lat="46.74548" lon="5.90793">
        <ele>537.40002441406</ele>
        <time>2025-06-05T09:12:26.000Z</time>
      </trkpt>
      <trkpt lat="46.74551" lon="5.90795">
        <ele>537.59997558594</ele>
        <time>2025-06-05T09:12:27.000Z</time>
      </trkpt>
      <trkpt lat="46.74555" lon="5.90799">
        <ele>538.40002441406</ele>
        <time>2025-06-05T09:12:30.000Z</time>
      </trkpt>
      <trkpt lat="46.74556" lon="5.90798">
        <ele>539</ele>
        <time>2025-06-05T09:12:31.000Z</time>
      </trkpt>
      <trkpt lat="46.7456" lon="5.90793">
        <ele>539.40002441406</ele>
        <time>2025-06-05T09:12:34.000Z</time>
      </trkpt>
      <trkpt lat="46.7456" lon="5.90793">
        <ele>539.40002441406</ele>
        <time>2025-06-05T09:12:35.000Z</time>
      </trkpt>
      <trkpt lat="46.7456" lon="5.90792">
        <ele>539.40002441406</ele>
        <time>2025-06-05T09:12:36.000Z</time>
      </trkpt>
      <trkpt lat="46.74566" lon="5.90788">
        <ele>539.59997558594</ele>
        <time>2025-06-05T09:12:39.000Z</time>
      </trkpt>
      <trkpt lat="46.74576" lon="5.90777">
        <ele>539.59997558594</ele>
        <time>2025-06-05T09:12:44.000Z</time>
      </trkpt>
      <trkpt lat="46.74584" lon="5.90764">
        <ele>539.59997558594</ele>
        <time>2025-06-05T09:12:48.000Z</time>
      </trkpt>
      <trkpt lat="46.74586" lon="5.90759">
        <ele>539.40002441406</ele>
        <time>2025-06-05T09:12:50.000Z</time>
      </trkpt>
      <trkpt lat="46.74588" lon="5.90758">
        <ele>539.40002441406</ele>
        <time>2025-06-05T09:12:51.000Z</time>
      </trkpt>
      <trkpt lat="46.74598" lon="5.90755">
        <ele>538.59997558594</ele>
        <time>2025-06-05T09:12:56.000Z</time>
      </trkpt>
      <trkpt lat="46.74608" lon="5.90761">
        <ele>538.40002441406</ele>
        <time>2025-06-05T09:12:58.000Z</time>
      </trkpt>
      <trkpt lat="46.74612" lon="5.90763">
        <ele>538</ele>
        <time>2025-06-05T09:13:00.000Z</time>
      </trkpt>
      <trkpt lat="46.74631" lon="5.90764">
        <ele>537.40002441406</ele>
        <time>2025-06-05T09:13:04.000Z</time>
      </trkpt>
      <trkpt lat="46.74645" lon="5.90769">
        <ele>536.79998779297</ele>
        <time>2025-06-05T09:13:07.000Z</time>
      </trkpt>
      <trkpt lat="46.74653" lon="5.90766">
        <ele>536.40002441406</ele>
        <time>2025-06-05T09:13:09.000Z</time>
      </trkpt>
      <trkpt lat="46.74657" lon="5.90759">
        <ele>536.20001220703</ele>
        <time>2025-06-05T09:13:10.000Z</time>
      </trkpt>
      <trkpt lat="46.74667" lon="5.90769">
        <ele>535.79998779297</ele>
        <time>2025-06-05T09:13:12.000Z</time>
      </trkpt>
      <trkpt lat="46.74673" lon="5.90777">
        <ele>535.59997558594</ele>
        <time>2025-06-05T09:13:13.000Z</time>
      </trkpt>
      <trkpt lat="46.74678" lon="5.90781">
        <ele>535.20001220703</ele>
        <time>2025-06-05T09:13:14.000Z</time>
      </trkpt>
      <trkpt lat="46.74696" lon="5.90779">
        <ele>534.59997558594</ele>
        <time>2025-06-05T09:13:18.000Z</time>
      </trkpt>
      <trkpt lat="46.74717" lon="5.90772">
        <ele>534.40002441406</ele>
        <time>2025-06-05T09:13:25.000Z</time>
      </trkpt>
      <trkpt lat="46.74732" lon="5.90765">
        <ele>534.20001220703</ele>
        <time>2025-06-05T09:13:30.000Z</time>
      </trkpt>
      <trkpt lat="46.74749" lon="5.9076">
        <ele>534.20001220703</ele>
        <time>2025-06-05T09:13:36.000Z</time>
      </trkpt>
      <trkpt lat="46.74776" lon="5.90751">
        <ele>535</ele>
        <time>2025-06-05T09:13:44.000Z</time>
      </trkpt>
      <trkpt lat="46.74793" lon="5.90751">
        <ele>535.40002441406</ele>
        <time>2025-06-05T09:13:48.000Z</time>
      </trkpt>
      <trkpt lat="46.74803" lon="5.90747">
        <ele>536</ele>
        <time>2025-06-05T09:13:51.000Z</time>
      </trkpt>
      <trkpt lat="46.74809" lon="5.90744">
        <ele>536.40002441406</ele>
        <time>2025-06-05T09:13:53.000Z</time>
      </trkpt>
      <trkpt lat="46.74815" lon="5.90744">
        <ele>536.79998779297</ele>
        <time>2025-06-05T09:13:54.000Z</time>
      </trkpt>
      <trkpt lat="46.74823" lon="5.90748">
        <ele>537.20001220703</ele>
        <time>2025-06-05T09:13:56.000Z</time>
      </trkpt>
      <trkpt lat="46.74832" lon="5.9075">
        <ele>537.79998779297</ele>
        <time>2025-06-05T09:13:58.000Z</time>
      </trkpt>
      <trkpt lat="46.74841" lon="5.90748">
        <ele>538</ele>
        <time>2025-06-05T09:14:00.000Z</time>
      </trkpt>
      <trkpt lat="46.74852" lon="5.90741">
        <ele>539.20001220703</ele>
        <time>2025-06-05T09:14:03.000Z</time>
      </trkpt>
      <trkpt lat="46.74857" lon="5.90739">
        <ele>539.20001220703</ele>
        <time>2025-06-05T09:14:04.000Z</time>
      </trkpt>
      <trkpt lat="46.74866" lon="5.90737">
        <ele>539.59997558594</ele>
        <time>2025-06-05T09:14:06.000Z</time>
      </trkpt>
      <trkpt lat="46.74884" lon="5.90732">
        <ele>540.40002441406</ele>
        <time>2025-06-05T09:14:10.000Z</time>
      </trkpt>
      <trkpt lat="46.74902" lon="5.90728">
        <ele>541.40002441406</ele>
        <time>2025-06-05T09:14:14.000Z</time>
      </trkpt>
      <trkpt lat="46.74906" lon="5.90727">
        <ele>541.79998779297</ele>
        <time>2025-06-05T09:14:15.000Z</time>
      </trkpt>
      <trkpt lat="46.74925" lon="5.90725">
        <ele>542.79998779297</ele>
        <time>2025-06-05T09:14:19.000Z</time>
      </trkpt>
      <trkpt lat="46.74946" lon="5.90722">
        <ele>543.79998779297</ele>
        <time>2025-06-05T09:14:24.000Z</time>
      </trkpt>
      <trkpt lat="46.74959" lon="5.90719">
        <ele>544.40002441406</ele>
        <time>2025-06-05T09:14:27.000Z</time>
      </trkpt>
      <trkpt lat="46.74966" lon="5.90716">
        <ele>544.59997558594</ele>
        <time>2025-06-05T09:14:29.000Z</time>
      </trkpt>
      <trkpt lat="46.7497" lon="5.90715">
        <ele>544.79998779297</ele>
        <time>2025-06-05T09:14:30.000Z</time>
      </trkpt>
      <trkpt lat="46.75" lon="5.90708">
        <ele>545.40002441406</ele>
        <time>2025-06-05T09:14:37.000Z</time>
      </trkpt>
      <trkpt lat="46.75004" lon="5.90708">
        <ele>545.40002441406</ele>
        <time>2025-06-05T09:14:38.000Z</time>
      </trkpt>
      <trkpt lat="46.75043" lon="5.90707">
        <ele>545.59997558594</ele>
        <time>2025-06-05T09:14:47.000Z</time>
      </trkpt>
      <trkpt lat="46.75079" lon="5.90698">
        <ele>545.59997558594</ele>
        <time>2025-06-05T09:14:55.000Z</time>
      </trkpt>
      <trkpt lat="46.75083" lon="5.90694">
        <ele>545.59997558594</ele>
        <time>2025-06-05T09:14:56.000Z</time>
      </trkpt>
      <trkpt lat="46.75086" lon="5.9069">
        <ele>545.59997558594</ele>
        <time>2025-06-05T09:14:57.000Z</time>
      </trkpt>
      <trkpt lat="46.75097" lon="5.90667">
        <ele>545.59997558594</ele>
        <time>2025-06-05T09:15:01.000Z</time>
      </trkpt>
      <trkpt lat="46.75101" lon="5.90657">
        <ele>545.59997558594</ele>
        <time>2025-06-05T09:15:04.000Z</time>
      </trkpt>
      <trkpt lat="46.75103" lon="5.90652">
        <ele>545.40002441406</ele>
        <time>2025-06-05T09:15:06.000Z</time>
      </trkpt>
      <trkpt lat="46.75101" lon="5.90652">
        <ele>545.40002441406</ele>
        <time>2025-06-05T09:15:08.000Z</time>
      </trkpt>
      <trkpt lat="46.75096" lon="5.90666">
        <ele>545.20001220703</ele>
        <time>2025-06-05T09:15:12.000Z</time>
      </trkpt>
      <trkpt lat="46.75092" lon="5.90673">
        <ele>545.20001220703</ele>
        <time>2025-06-05T09:15:14.000Z</time>
      </trkpt>
      <trkpt lat="46.75087" lon="5.90675">
        <ele>545.20001220703</ele>
        <time>2025-06-05T09:15:16.000Z</time>
      </trkpt>
      <trkpt lat="46.75085" lon="5.90661">
        <ele>545.40002441406</ele>
        <time>2025-06-05T09:15:19.000Z</time>
      </trkpt>
      <trkpt lat="46.75082" lon="5.90619">
        <ele>545.40002441406</ele>
        <time>2025-06-05T09:15:26.000Z</time>
      </trkpt>
      <trkpt lat="46.75083" lon="5.90571">
        <ele>545.40002441406</ele>
        <time>2025-06-05T09:15:35.000Z</time>
      </trkpt>
      <trkpt lat="46.75088" lon="5.90561">
        <ele>545.59997558594</ele>
        <time>2025-06-05T09:15:37.000Z</time>
      </trkpt>
      <trkpt lat="46.75097" lon="5.90551">
        <ele>545.59997558594</ele>
        <time>2025-06-05T09:15:39.000Z</time>
      </trkpt>
      <trkpt lat="46.75123" lon="5.90516">
        <ele>545.79998779297</ele>
        <time>2025-06-05T09:15:46.000Z</time>
      </trkpt>
      <trkpt lat="46.75148" lon="5.90475">
        <ele>545.20001220703</ele>
        <time>2025-06-05T09:15:53.000Z</time>
      </trkpt>
      <trkpt lat="46.75151" lon="5.90469">
        <ele>545</ele>
        <time>2025-06-05T09:15:54.000Z</time>
      </trkpt>
      <trkpt lat="46.75174" lon="5.90426">
        <ele>544.40002441406</ele>
        <time>2025-06-05T09:16:02.000Z</time>
      </trkpt>
      <trkpt lat="46.7519" lon="5.90406">
        <ele>544.20001220703</ele>
        <time>2025-06-05T09:16:08.000Z</time>
      </trkpt>
      <trkpt lat="46.75199" lon="5.90411">
        <ele>544.20001220703</ele>
        <time>2025-06-05T09:16:11.000Z</time>
      </trkpt>
      <trkpt lat="46.75212" lon="5.9042">
        <ele>544.40002441406</ele>
        <time>2025-06-05T09:16:15.000Z</time>
      </trkpt>
      <trkpt lat="46.75229" lon="5.90436">
        <ele>544.59997558594</ele>
        <time>2025-06-05T09:16:20.000Z</time>
      </trkpt>
      <trkpt lat="46.75239" lon="5.90447">
        <ele>544.79998779297</ele>
        <time>2025-06-05T09:16:24.000Z</time>
      </trkpt>
      <trkpt lat="46.75243" lon="5.90447">
        <ele>544.79998779297</ele>
        <time>2025-06-05T09:16:25.000Z</time>
      </trkpt>
      <trkpt lat="46.75253" lon="5.90441">
        <ele>545</ele>
        <time>2025-06-05T09:16:28.000Z</time>
      </trkpt>
      <trkpt lat="46.75261" lon="5.90435">
        <ele>545</ele>
        <time>2025-06-05T09:16:30.000Z</time>
      </trkpt>
      <trkpt lat="46.75283" lon="5.90409">
        <ele>545</ele>
        <time>2025-06-05T09:16:36.000Z</time>
      </trkpt>
      <trkpt lat="46.75287" lon="5.90404">
        <ele>545</ele>
        <time>2025-06-05T09:16:37.000Z</time>
      </trkpt>
      <trkpt lat="46.75311" lon="5.90377">
        <ele>545.20001220703</ele>
        <time>2025-06-05T09:16:43.000Z</time>
      </trkpt>
      <trkpt lat="46.7533" lon="5.90353">
        <ele>545.20001220703</ele>
        <time>2025-06-05T09:16:48.000Z</time>
      </trkpt>
      <trkpt lat="46.75336" lon="5.90342">
        <ele>545.20001220703</ele>
        <time>2025-06-05T09:16:50.000Z</time>
      </trkpt>
      <trkpt lat="46.75351" lon="5.90314">
        <ele>545.20001220703</ele>
        <time>2025-06-05T09:16:55.000Z</time>
      </trkpt>
      <trkpt lat="46.75357" lon="5.90304">
        <ele>545.20001220703</ele>
        <time>2025-06-05T09:16:57.000Z</time>
      </trkpt>
      <trkpt lat="46.7536" lon="5.90299">
        <ele>545.20001220703</ele>
        <time>2025-06-05T09:16:58.000Z</time>
      </trkpt>
      <trkpt lat="46.75379" lon="5.9028">
        <ele>545</ele>
        <time>2025-06-05T09:17:03.000Z</time>
      </trkpt>
      <trkpt lat="46.75392" lon="5.90276">
        <ele>545</ele>
        <time>2025-06-05T09:17:07.000Z</time>
      </trkpt>
      <trkpt lat="46.75398" lon="5.90273">
        <ele>545</ele>
        <time>2025-06-05T09:17:09.000Z</time>
      </trkpt>
      <trkpt lat="46.75403" lon="5.90267">
        <ele>545</ele>
        <time>2025-06-05T09:17:11.000Z</time>
      </trkpt>
      <trkpt lat="46.75415" lon="5.90235">
        <ele>545</ele>
        <time>2025-06-05T09:17:18.000Z</time>
      </trkpt>
      <trkpt lat="46.75416" lon="5.90206">
        <ele>545.20001220703</ele>
        <time>2025-06-05T09:17:23.000Z</time>
      </trkpt>
      <trkpt lat="46.75417" lon="5.902">
        <ele>545.20001220703</ele>
        <time>2025-06-05T09:17:24.000Z</time>
      </trkpt>
      <trkpt lat="46.75424" lon="5.90163">
        <ele>545.20001220703</ele>
        <time>2025-06-05T09:17:31.000Z</time>
      </trkpt>
      <trkpt lat="46.75427" lon="5.90144">
        <ele>545.20001220703</ele>
        <time>2025-06-05T09:17:34.000Z</time>
      </trkpt>
      <trkpt lat="46.7543" lon="5.90122">
        <ele>545.20001220703</ele>
        <time>2025-06-05T09:17:37.000Z</time>
      </trkpt>
      <trkpt lat="46.75442" lon="5.9004">
        <ele>545</ele>
        <time>2025-06-05T09:17:47.000Z</time>
      </trkpt>
      <trkpt lat="46.75454" lon="5.89961">
        <ele>544.59997558594</ele>
        <time>2025-06-05T09:17:56.000Z</time>
      </trkpt>
      <trkpt lat="46.75466" lon="5.89877">
        <ele>544.59997558594</ele>
        <time>2025-06-05T09:18:05.000Z</time>
      </trkpt>
      <trkpt lat="46.75468" lon="5.89868">
        <ele>544.59997558594</ele>
        <time>2025-06-05T09:18:06.000Z</time>
      </trkpt>
      <trkpt lat="46.7548" lon="5.89788">
        <ele>544</ele>
        <time>2025-06-05T09:18:15.000Z</time>
      </trkpt>
      <trkpt lat="46.75488" lon="5.89734">
        <ele>543.79998779297</ele>
        <time>2025-06-05T09:18:21.000Z</time>
      </trkpt>
      <trkpt lat="46.75494" lon="5.89699">
        <ele>543.79998779297</ele>
        <time>2025-06-05T09:18:25.000Z</time>
      </trkpt>
      <trkpt lat="46.75506" lon="5.89619">
        <ele>543.20001220703</ele>
        <time>2025-06-05T09:18:34.000Z</time>
      </trkpt>
      <trkpt lat="46.75508" lon="5.8961">
        <ele>543</ele>
        <time>2025-06-05T09:18:35.000Z</time>
      </trkpt>
      <trkpt lat="46.75519" lon="5.89528">
        <ele>542.79998779297</ele>
        <time>2025-06-05T09:18:44.000Z</time>
      </trkpt>
      <trkpt lat="46.75521" lon="5.89519">
        <ele>542.79998779297</ele>
        <time>2025-06-05T09:18:45.000Z</time>
      </trkpt>
      <trkpt lat="46.75531" lon="5.89476">
        <ele>542.59997558594</ele>
        <time>2025-06-05T09:18:50.000Z</time>
      </trkpt>
      <trkpt lat="46.75544" lon="5.89394">
        <ele>542.40002441406</ele>
        <time>2025-06-05T09:18:59.000Z</time>
      </trkpt>
      <trkpt lat="46.75547" lon="5.89376">
        <ele>542.40002441406</ele>
        <time>2025-06-05T09:19:01.000Z</time>
      </trkpt>
      <trkpt lat="46.75559" lon="5.89293">
        <ele>542</ele>
        <time>2025-06-05T09:19:10.000Z</time>
      </trkpt>
      <trkpt lat="46.75561" lon="5.89284">
        <ele>542</ele>
        <time>2025-06-05T09:19:11.000Z</time>
      </trkpt>
      <trkpt lat="46.75566" lon="5.8925">
        <ele>541.59997558594</ele>
        <time>2025-06-05T09:19:15.000Z</time>
      </trkpt>
      <trkpt lat="46.75574" lon="5.89188">
        <ele>541.20001220703</ele>
        <time>2025-06-05T09:19:22.000Z</time>
      </trkpt>
      <trkpt lat="46.75581" lon="5.89156">
        <ele>541</ele>
        <time>2025-06-05T09:19:26.000Z</time>
      </trkpt>
      <trkpt lat="46.75583" lon="5.8914">
        <ele>540.79998779297</ele>
        <time>2025-06-05T09:19:28.000Z</time>
      </trkpt>
      <trkpt lat="46.75592" lon="5.89082">
        <ele>541</ele>
        <time>2025-06-05T09:19:35.000Z</time>
      </trkpt>
      <trkpt lat="46.75602" lon="5.8902">
        <ele>540.79998779297</ele>
        <time>2025-06-05T09:19:42.000Z</time>
      </trkpt>
      <trkpt lat="46.75604" lon="5.89011">
        <ele>540.79998779297</ele>
        <time>2025-06-05T09:19:43.000Z</time>
      </trkpt>
      <trkpt lat="46.75609" lon="5.88975">
        <ele>540.59997558594</ele>
        <time>2025-06-05T09:19:47.000Z</time>
      </trkpt>
      <trkpt lat="46.7562" lon="5.88899">
        <ele>540.20001220703</ele>
        <time>2025-06-05T09:19:56.000Z</time>
      </trkpt>
      <trkpt lat="46.75629" lon="5.88847">
        <ele>540.40002441406</ele>
        <time>2025-06-05T09:20:03.000Z</time>
      </trkpt>
      <trkpt lat="46.75637" lon="5.88791">
        <ele>540.20001220703</ele>
        <time>2025-06-05T09:20:10.000Z</time>
      </trkpt>
      <trkpt lat="46.75638" lon="5.88784">
        <ele>540.20001220703</ele>
        <time>2025-06-05T09:20:11.000Z</time>
      </trkpt>
      <trkpt lat="46.75643" lon="5.88771">
        <ele>540</ele>
        <time>2025-06-05T09:20:14.000Z</time>
      </trkpt>
      <trkpt lat="46.75653" lon="5.88774">
        <ele>540</ele>
        <time>2025-06-05T09:20:17.000Z</time>
      </trkpt>
      <trkpt lat="46.7567" lon="5.88785">
        <ele>539.40002441406</ele>
        <time>2025-06-05T09:20:21.000Z</time>
      </trkpt>
      <trkpt lat="46.75676" lon="5.88786">
        <ele>538.79998779297</ele>
        <time>2025-06-05T09:20:23.000Z</time>
      </trkpt>
      <trkpt lat="46.75681" lon="5.88784">
        <ele>538</ele>
        <time>2025-06-05T09:20:25.000Z</time>
      </trkpt>
      <trkpt lat="46.75684" lon="5.88781">
        <ele>537.79998779297</ele>
        <time>2025-06-05T09:20:26.000Z</time>
      </trkpt>
      <trkpt lat="46.75687" lon="5.88779">
        <ele>537.40002441406</ele>
        <time>2025-06-05T09:20:27.000Z</time>
      </trkpt>
      <trkpt lat="46.75691" lon="5.88772">
        <ele>537.20001220703</ele>
        <time>2025-06-05T09:20:29.000Z</time>
      </trkpt>
      <trkpt lat="46.75689" lon="5.88748">
        <ele>537.20001220703</ele>
        <time>2025-06-05T09:20:33.000Z</time>
      </trkpt>
      <trkpt lat="46.75684" lon="5.88717">
        <ele>538.79998779297</ele>
        <time>2025-06-05T09:20:39.000Z</time>
      </trkpt>
      <trkpt lat="46.75685" lon="5.88713">
        <ele>539</ele>
        <time>2025-06-05T09:20:40.000Z</time>
      </trkpt>
      <trkpt lat="46.75687" lon="5.88697">
        <ele>539.40002441406</ele>
        <time>2025-06-05T09:20:43.000Z</time>
      </trkpt>
      <trkpt lat="46.75687" lon="5.88684">
        <ele>539.59997558594</ele>
        <time>2025-06-05T09:20:45.000Z</time>
      </trkpt>
      <trkpt lat="46.75685" lon="5.88664">
        <ele>539.79998779297</ele>
        <time>2025-06-05T09:20:48.000Z</time>
      </trkpt>
      <trkpt lat="46.75682" lon="5.88632">
        <ele>539.79998779297</ele>
        <time>2025-06-05T09:20:53.000Z</time>
      </trkpt>
      <trkpt lat="46.7568" lon="5.88626">
        <ele>540</ele>
        <time>2025-06-05T09:20:54.000Z</time>
      </trkpt>
      <trkpt lat="46.7567" lon="5.88603">
        <ele>540.40002441406</ele>
        <time>2025-06-05T09:20:59.000Z</time>
      </trkpt>
      <trkpt lat="46.75667" lon="5.8859">
        <ele>540.59997558594</ele>
        <time>2025-06-05T09:21:02.000Z</time>
      </trkpt>
      <trkpt lat="46.75668" lon="5.88584">
        <ele>540.59997558594</ele>
        <time>2025-06-05T09:21:03.000Z</time>
      </trkpt>
      <trkpt lat="46.75669" lon="5.88578">
        <ele>540.79998779297</ele>
        <time>2025-06-05T09:21:04.000Z</time>
      </trkpt>
      <trkpt lat="46.75671" lon="5.88572">
        <ele>540.79998779297</ele>
        <time>2025-06-05T09:21:05.000Z</time>
      </trkpt>
      <trkpt lat="46.75673" lon="5.88557">
        <ele>540.79998779297</ele>
        <time>2025-06-05T09:21:07.000Z</time>
      </trkpt>
      <trkpt lat="46.75678" lon="5.88502">
        <ele>540.59997558594</ele>
        <time>2025-06-05T09:21:14.000Z</time>
      </trkpt>
      <trkpt lat="46.75678" lon="5.88415">
        <ele>540.79998779297</ele>
        <time>2025-06-05T09:21:25.000Z</time>
      </trkpt>
      <trkpt lat="46.75678" lon="5.88407">
        <ele>540.79998779297</ele>
        <time>2025-06-05T09:21:26.000Z</time>
      </trkpt>
      <trkpt lat="46.75673" lon="5.88323">
        <ele>541</ele>
        <time>2025-06-05T09:21:36.000Z</time>
      </trkpt>
      <trkpt lat="46.75667" lon="5.88236">
        <ele>541.40002441406</ele>
        <time>2025-06-05T09:21:46.000Z</time>
      </trkpt>
      <trkpt lat="46.75666" lon="5.88219">
        <ele>541.40002441406</ele>
        <time>2025-06-05T09:21:48.000Z</time>
      </trkpt>
      <trkpt lat="46.75659" lon="5.88131">
        <ele>541.40002441406</ele>
        <time>2025-06-05T09:21:58.000Z</time>
      </trkpt>
      <trkpt lat="46.75658" lon="5.88113">
        <ele>541.40002441406</ele>
        <time>2025-06-05T09:22:00.000Z</time>
      </trkpt>
      <trkpt lat="46.75654" lon="5.88058">
        <ele>541.20001220703</ele>
        <time>2025-06-05T09:22:07.000Z</time>
      </trkpt>
      <trkpt lat="46.75652" lon="5.88037">
        <ele>541.20001220703</ele>
        <time>2025-06-05T09:22:10.000Z</time>
      </trkpt>
      <trkpt lat="46.75652" lon="5.88015">
        <ele>541.20001220703</ele>
        <time>2025-06-05T09:22:13.000Z</time>
      </trkpt>
      <trkpt lat="46.75651" lon="5.88007">
        <ele>541</ele>
        <time>2025-06-05T09:22:14.000Z</time>
      </trkpt>
      <trkpt lat="46.75648" lon="5.87945">
        <ele>540.59997558594</ele>
        <time>2025-06-05T09:22:21.000Z</time>
      </trkpt>
      <trkpt lat="46.75651" lon="5.87873">
        <ele>540.20001220703</ele>
        <time>2025-06-05T09:22:29.000Z</time>
      </trkpt>
      <trkpt lat="46.75652" lon="5.87845">
        <ele>540</ele>
        <time>2025-06-05T09:22:32.000Z</time>
      </trkpt>
      <trkpt lat="46.75655" lon="5.87798">
        <ele>539.59997558594</ele>
        <time>2025-06-05T09:22:37.000Z</time>
      </trkpt>
      <trkpt lat="46.75658" lon="5.87719">
        <ele>539</ele>
        <time>2025-06-05T09:22:45.000Z</time>
      </trkpt>
      <trkpt lat="46.75659" lon="5.87699">
        <ele>539</ele>
        <time>2025-06-05T09:22:47.000Z</time>
      </trkpt>
      <trkpt lat="46.75663" lon="5.87617">
        <ele>538</ele>
        <time>2025-06-05T09:22:55.000Z</time>
      </trkpt>
      <trkpt lat="46.75666" lon="5.8753">
        <ele>536.79998779297</ele>
        <time>2025-06-05T09:23:04.000Z</time>
      </trkpt>
      <trkpt lat="46.75667" lon="5.8752">
        <ele>536.79998779297</ele>
        <time>2025-06-05T09:23:05.000Z</time>
      </trkpt>
      <trkpt lat="46.7567" lon="5.87432">
        <ele>536.40002441406</ele>
        <time>2025-06-05T09:23:14.000Z</time>
      </trkpt>
      <trkpt lat="46.75672" lon="5.87404">
        <ele>536.20001220703</ele>
        <time>2025-06-05T09:23:17.000Z</time>
      </trkpt>
      <trkpt lat="46.75675" lon="5.87339">
        <ele>536</ele>
        <time>2025-06-05T09:23:25.000Z</time>
      </trkpt>
      <trkpt lat="46.75679" lon="5.87259">
        <ele>536</ele>
        <time>2025-06-05T09:23:33.000Z</time>
      </trkpt>
      <trkpt lat="46.75683" lon="5.87171">
        <ele>536</ele>
        <time>2025-06-05T09:23:43.000Z</time>
      </trkpt>
      <trkpt lat="46.75683" lon="5.87153">
        <ele>536</ele>
        <time>2025-06-05T09:23:45.000Z</time>
      </trkpt>
      <trkpt lat="46.75679" lon="5.87064">
        <ele>536.20001220703</ele>
        <time>2025-06-05T09:23:55.000Z</time>
      </trkpt>
      <trkpt lat="46.75669" lon="5.86985">
        <ele>537</ele>
        <time>2025-06-05T09:24:04.000Z</time>
      </trkpt>
      <trkpt lat="46.75664" lon="5.86952">
        <ele>537</ele>
        <time>2025-06-05T09:24:09.000Z</time>
      </trkpt>
      <trkpt lat="46.75661" lon="5.86942">
        <ele>537</ele>
        <time>2025-06-05T09:24:12.000Z</time>
      </trkpt>
      <trkpt lat="46.75661" lon="5.86942">
        <ele>536.79998779297</ele>
        <time>2025-06-05T09:24:13.000Z</time>
      </trkpt>
      <trkpt lat="46.75661" lon="5.86942">
        <ele>536.40002441406</ele>
        <time>2025-06-05T09:24:28.000Z</time>
      </trkpt>
      <trkpt lat="46.75661" lon="5.86942">
        <ele>536.40002441406</ele>
        <time>2025-06-05T09:24:36.000Z</time>
      </trkpt>
      <trkpt lat="46.7566" lon="5.86931">
        <ele>536.20001220703</ele>
        <time>2025-06-05T09:24:39.000Z</time>
      </trkpt>
      <trkpt lat="46.75656" lon="5.86909">
        <ele>536.20001220703</ele>
        <time>2025-06-05T09:24:43.000Z</time>
      </trkpt>
      <trkpt lat="46.75655" lon="5.86903">
        <ele>536.20001220703</ele>
        <time>2025-06-05T09:24:44.000Z</time>
      </trkpt>
      <trkpt lat="46.75644" lon="5.86866">
        <ele>536.40002441406</ele>
        <time>2025-06-05T09:24:51.000Z</time>
      </trkpt>
      <trkpt lat="46.75631" lon="5.86846">
        <ele>536.40002441406</ele>
        <time>2025-06-05T09:24:56.000Z</time>
      </trkpt>
      <trkpt lat="46.75628" lon="5.86841">
        <ele>536.40002441406</ele>
        <time>2025-06-05T09:24:57.000Z</time>
      </trkpt>
      <trkpt lat="46.7561" lon="5.86811">
        <ele>535.79998779297</ele>
        <time>2025-06-05T09:25:02.000Z</time>
      </trkpt>
      <trkpt lat="46.75593" lon="5.86786">
        <ele>535.40002441406</ele>
        <time>2025-06-05T09:25:06.000Z</time>
      </trkpt>
      <trkpt lat="46.75589" lon="5.86782">
        <ele>535</ele>
        <time>2025-06-05T09:25:07.000Z</time>
      </trkpt>
      <trkpt lat="46.75583" lon="5.86778">
        <ele>535</ele>
        <time>2025-06-05T09:25:08.000Z</time>
      </trkpt>
      <trkpt lat="46.75578" lon="5.86773">
        <ele>534.59997558594</ele>
        <time>2025-06-05T09:25:09.000Z</time>
      </trkpt>
      <trkpt lat="46.7557" lon="5.86763">
        <ele>534</ele>
        <time>2025-06-05T09:25:11.000Z</time>
      </trkpt>
      <trkpt lat="46.75568" lon="5.86756">
        <ele>533.79998779297</ele>
        <time>2025-06-05T09:25:12.000Z</time>
      </trkpt>
      <trkpt lat="46.75568" lon="5.8675">
        <ele>533.79998779297</ele>
        <time>2025-06-05T09:25:13.000Z</time>
      </trkpt>
      <trkpt lat="46.75568" lon="5.86736">
        <ele>533.79998779297</ele>
        <time>2025-06-05T09:25:15.000Z</time>
      </trkpt>
      <trkpt lat="46.75567" lon="5.86709">
        <ele>534.20001220703</ele>
        <time>2025-06-05T09:25:20.000Z</time>
      </trkpt>
      <trkpt lat="46.75567" lon="5.86706">
        <ele>534.79998779297</ele>
        <time>2025-06-05T09:25:21.000Z</time>
      </trkpt>
      <trkpt lat="46.75567" lon="5.86704">
        <ele>535</ele>
        <time>2025-06-05T09:25:22.000Z</time>
      </trkpt>
      <trkpt lat="46.75569" lon="5.86704">
        <ele>535.59997558594</ele>
        <time>2025-06-05T09:25:23.000Z</time>
      </trkpt>
      <trkpt lat="46.75572" lon="5.86708">
        <ele>536</ele>
        <time>2025-06-05T09:25:25.000Z</time>
      </trkpt>
      <trkpt lat="46.75575" lon="5.86709">
        <ele>536.40002441406</ele>
        <time>2025-06-05T09:25:26.000Z</time>
      </trkpt>
      <trkpt lat="46.75578" lon="5.86709">
        <ele>536.59997558594</ele>
        <time>2025-06-05T09:25:27.000Z</time>
      </trkpt>
      <trkpt lat="46.75582" lon="5.86701">
        <ele>536.79998779297</ele>
        <time>2025-06-05T09:25:29.000Z</time>
      </trkpt>
      <trkpt lat="46.75584" lon="5.86696">
        <ele>537</ele>
        <time>2025-06-05T09:25:30.000Z</time>
      </trkpt>
      <trkpt lat="46.75585" lon="5.86689">
        <ele>537.20001220703</ele>
        <time>2025-06-05T09:25:31.000Z</time>
      </trkpt>
      <trkpt lat="46.75586" lon="5.86664">
        <ele>537.59997558594</ele>
        <time>2025-06-05T09:25:35.000Z</time>
      </trkpt>
      <trkpt lat="46.75587" lon="5.86641">
        <ele>538.40002441406</ele>
        <time>2025-06-05T09:25:39.000Z</time>
      </trkpt>
      <trkpt lat="46.75587" lon="5.86624">
        <ele>539</ele>
        <time>2025-06-05T09:25:42.000Z</time>
      </trkpt>
      <trkpt lat="46.75588" lon="5.86611">
        <ele>539.59997558594</ele>
        <time>2025-06-05T09:25:44.000Z</time>
      </trkpt>
      <trkpt lat="46.75588" lon="5.86581">
        <ele>540.59997558594</ele>
        <time>2025-06-05T09:25:49.000Z</time>
      </trkpt>
      <trkpt lat="46.75592" lon="5.86548">
        <ele>541.59997558594</ele>
        <time>2025-06-05T09:25:55.000Z</time>
      </trkpt>
      <trkpt lat="46.75598" lon="5.86544">
        <ele>542</ele>
        <time>2025-06-05T09:25:57.000Z</time>
      </trkpt>
      <trkpt lat="46.75601" lon="5.86544">
        <ele>542</ele>
        <time>2025-06-05T09:25:58.000Z</time>
      </trkpt>
      <trkpt lat="46.75614" lon="5.86556">
        <ele>542.59997558594</ele>
        <time>2025-06-05T09:26:02.000Z</time>
      </trkpt>
      <trkpt lat="46.75637" lon="5.86568">
        <ele>543.79998779297</ele>
        <time>2025-06-05T09:26:08.000Z</time>
      </trkpt>
      <trkpt lat="46.75648" lon="5.86574">
        <ele>544.20001220703</ele>
        <time>2025-06-05T09:26:11.000Z</time>
      </trkpt>
      <trkpt lat="46.75659" lon="5.86583">
        <ele>544.40002441406</ele>
        <time>2025-06-05T09:26:14.000Z</time>
      </trkpt>
      <trkpt lat="46.75662" lon="5.86587">
        <ele>545</ele>
        <time>2025-06-05T09:26:15.000Z</time>
      </trkpt>
      <trkpt lat="46.75664" lon="5.86591">
        <ele>545.20001220703</ele>
        <time>2025-06-05T09:26:16.000Z</time>
      </trkpt>
      <trkpt lat="46.75667" lon="5.86596">
        <ele>545.40002441406</ele>
        <time>2025-06-05T09:26:17.000Z</time>
      </trkpt>
      <trkpt lat="46.75675" lon="5.86613">
        <ele>546</ele>
        <time>2025-06-05T09:26:20.000Z</time>
      </trkpt>
      <trkpt lat="46.75686" lon="5.86626">
        <ele>546.40002441406</ele>
        <time>2025-06-05T09:26:23.000Z</time>
      </trkpt>
      <trkpt lat="46.75697" lon="5.86636">
        <ele>546.79998779297</ele>
        <time>2025-06-05T09:26:26.000Z</time>
      </trkpt>
      <trkpt lat="46.75701" lon="5.86639">
        <ele>547</ele>
        <time>2025-06-05T09:26:27.000Z</time>
      </trkpt>
      <trkpt lat="46.75705" lon="5.86641">
        <ele>547.20001220703</ele>
        <time>2025-06-05T09:26:28.000Z</time>
      </trkpt>
      <trkpt lat="46.75709" lon="5.86644">
        <ele>547.20001220703</ele>
        <time>2025-06-05T09:26:29.000Z</time>
      </trkpt>
      <trkpt lat="46.75739" lon="5.86673">
        <ele>547.79998779297</ele>
        <time>2025-06-05T09:26:37.000Z</time>
      </trkpt>
      <trkpt lat="46.75744" lon="5.86676">
        <ele>548</ele>
        <time>2025-06-05T09:26:38.000Z</time>
      </trkpt>
      <trkpt lat="46.75768" lon="5.86696">
        <ele>548.59997558594</ele>
        <time>2025-06-05T09:26:44.000Z</time>
      </trkpt>
      <trkpt lat="46.75787" lon="5.86716">
        <ele>548.59997558594</ele>
        <time>2025-06-05T09:26:49.000Z</time>
      </trkpt>
      <trkpt lat="46.75797" lon="5.86731">
        <ele>548.59997558594</ele>
        <time>2025-06-05T09:26:52.000Z</time>
      </trkpt>
      <trkpt lat="46.75812" lon="5.86756">
        <ele>548.59997558594</ele>
        <time>2025-06-05T09:26:57.000Z</time>
      </trkpt>
      <trkpt lat="46.75816" lon="5.86767">
        <ele>548.79998779297</ele>
        <time>2025-06-05T09:26:59.000Z</time>
      </trkpt>
      <trkpt lat="46.75817" lon="5.86772">
        <ele>548.79998779297</ele>
        <time>2025-06-05T09:27:00.000Z</time>
      </trkpt>
      <trkpt lat="46.75822" lon="5.86789">
        <ele>549.20001220703</ele>
        <time>2025-06-05T09:27:03.000Z</time>
      </trkpt>
      <trkpt lat="46.75824" lon="5.86795">
        <ele>549</ele>
        <time>2025-06-05T09:27:04.000Z</time>
      </trkpt>
      <trkpt lat="46.75832" lon="5.86826">
        <ele>547.79998779297</ele>
        <time>2025-06-05T09:27:10.000Z</time>
      </trkpt>
      <trkpt lat="46.75833" lon="5.86828">
        <ele>547.59997558594</ele>
        <time>2025-06-05T09:27:11.000Z</time>
      </trkpt>
      <trkpt lat="46.75835" lon="5.86831">
        <ele>546.79998779297</ele>
        <time>2025-06-05T09:27:15.000Z</time>
      </trkpt>
      <trkpt lat="46.75835" lon="5.86831">
        <ele>546.79998779297</ele>
        <time>2025-06-05T09:27:17.000Z</time>
      </trkpt>
      <trkpt lat="46.75835" lon="5.86832">
        <ele>546.59997558594</ele>
        <time>2025-06-05T09:27:24.000Z</time>
      </trkpt>
      <trkpt lat="46.75839" lon="5.86838">
        <ele>546.59997558594</ele>
        <time>2025-06-05T09:27:30.000Z</time>
      </trkpt>
      <trkpt lat="46.7584" lon="5.8684">
        <ele>546.79998779297</ele>
        <time>2025-06-05T09:27:37.000Z</time>
      </trkpt>
      <trkpt lat="46.7584" lon="5.86841">
        <ele>546.79998779297</ele>
        <time>2025-06-05T09:27:44.000Z</time>
      </trkpt>
      <trkpt lat="46.7584" lon="5.86841">
        <ele>546.40002441406</ele>
        <time>2025-06-05T09:27:57.000Z</time>
      </trkpt>
      <trkpt lat="46.75835" lon="5.86834">
        <ele>546.59997558594</ele>
        <time>2025-06-05T09:28:04.000Z</time>
      </trkpt>
      <trkpt lat="46.75831" lon="5.86827">
        <ele>546.59997558594</ele>
        <time>2025-06-05T09:28:09.000Z</time>
      </trkpt>
      <trkpt lat="46.7583" lon="5.86824">
        <ele>546.79998779297</ele>
        <time>2025-06-05T09:28:14.000Z</time>
      </trkpt>
      <trkpt lat="46.7583" lon="5.86823">
        <ele>547</ele>
        <time>2025-06-05T09:28:20.000Z</time>
      </trkpt>
      <trkpt lat="46.7583" lon="5.86823">
        <ele>546.79998779297</ele>
        <time>2025-06-05T09:28:33.000Z</time>
      </trkpt>
      <trkpt lat="46.7583" lon="5.86827">
        <ele>546.59997558594</ele>
        <time>2025-06-05T09:30:20.000Z</time>
      </trkpt>
      <trkpt lat="46.75833" lon="5.86832">
        <ele>546.79998779297</ele>
        <time>2025-06-05T09:30:25.000Z</time>
      </trkpt>
      <trkpt lat="46.75837" lon="5.86839">
        <ele>547</ele>
        <time>2025-06-05T09:30:32.000Z</time>
      </trkpt>
      <trkpt lat="46.75841" lon="5.86849">
        <ele>546.59997558594</ele>
        <time>2025-06-05T09:30:41.000Z</time>
      </trkpt>
      <trkpt lat="46.75843" lon="5.86852">
        <ele>546.59997558594</ele>
        <time>2025-06-05T09:30:47.000Z</time>
      </trkpt>
      <trkpt lat="46.75845" lon="5.86855">
        <ele>546.59997558594</ele>
        <time>2025-06-05T09:30:52.000Z</time>
      </trkpt>
      <trkpt lat="46.75848" lon="5.86859">
        <ele>546.40002441406</ele>
        <time>2025-06-05T09:30:58.000Z</time>
      </trkpt>
      <trkpt lat="46.75849" lon="5.86861">
        <ele>546</ele>
        <time>2025-06-05T09:31:05.000Z</time>
      </trkpt>
      <trkpt lat="46.75849" lon="5.86862">
        <ele>546.20001220703</ele>
        <time>2025-06-05T09:31:13.000Z</time>
      </trkpt>
      <trkpt lat="46.75851" lon="5.86864">
        <ele>546</ele>
        <time>2025-06-05T09:31:17.000Z</time>
      </trkpt>
      <trkpt lat="46.75853" lon="5.86865">
        <ele>546</ele>
        <time>2025-06-05T09:31:18.000Z</time>
      </trkpt>
      <trkpt lat="46.75861" lon="5.86872">
        <ele>546</ele>
        <time>2025-06-05T09:31:22.000Z</time>
      </trkpt>
      <trkpt lat="46.75864" lon="5.86877">
        <ele>546</ele>
        <time>2025-06-05T09:31:24.000Z</time>
      </trkpt>
      <trkpt lat="46.75868" lon="5.86884">
        <ele>546.20001220703</ele>
        <time>2025-06-05T09:31:31.000Z</time>
      </trkpt>
      <trkpt lat="46.75872" lon="5.86892">
        <ele>546.20001220703</ele>
        <time>2025-06-05T09:31:40.000Z</time>
      </trkpt>
      <trkpt lat="46.75876" lon="5.86901">
        <ele>546.20001220703</ele>
        <time>2025-06-05T09:31:47.000Z</time>
      </trkpt>
      <trkpt lat="46.7588" lon="5.8691">
        <ele>546.20001220703</ele>
        <time>2025-06-05T09:31:52.000Z</time>
      </trkpt>
      <trkpt lat="46.75881" lon="5.86912">
        <ele>546.20001220703</ele>
        <time>2025-06-05T09:31:53.000Z</time>
      </trkpt>
      <trkpt lat="46.75884" lon="5.86921">
        <ele>546.40002441406</ele>
        <time>2025-06-05T09:32:00.000Z</time>
      </trkpt>
      <trkpt lat="46.75887" lon="5.86933">
        <ele>546</ele>
        <time>2025-06-05T09:32:08.000Z</time>
      </trkpt>
      <trkpt lat="46.75891" lon="5.86947">
        <ele>546</ele>
        <time>2025-06-05T09:32:14.000Z</time>
      </trkpt>
      <trkpt lat="46.75895" lon="5.86955">
        <ele>546.40002441406</ele>
        <time>2025-06-05T09:32:19.000Z</time>
      </trkpt>
      <trkpt lat="46.75896" lon="5.86957">
        <ele>546.40002441406</ele>
        <time>2025-06-05T09:32:20.000Z</time>
      </trkpt>
      <trkpt lat="46.759" lon="5.86963">
        <ele>546.40002441406</ele>
        <time>2025-06-05T09:32:23.000Z</time>
      </trkpt>
      <trkpt lat="46.75901" lon="5.86966">
        <ele>546.59997558594</ele>
        <time>2025-06-05T09:32:26.000Z</time>
      </trkpt>
      <trkpt lat="46.75904" lon="5.86971">
        <ele>546.79998779297</ele>
        <time>2025-06-05T09:32:32.000Z</time>
      </trkpt>
      <trkpt lat="46.75907" lon="5.86979">
        <ele>546.59997558594</ele>
        <time>2025-06-05T09:32:39.000Z</time>
      </trkpt>
      <trkpt lat="46.75913" lon="5.86987">
        <ele>546.59997558594</ele>
        <time>2025-06-05T09:32:47.000Z</time>
      </trkpt>
      <trkpt lat="46.75919" lon="5.86988">
        <ele>546.40002441406</ele>
        <time>2025-06-05T09:32:51.000Z</time>
      </trkpt>
      <trkpt lat="46.75928" lon="5.86998">
        <ele>546.79998779297</ele>
        <time>2025-06-05T09:33:00.000Z</time>
      </trkpt>
      <trkpt lat="46.75931" lon="5.87001">
        <ele>547</ele>
        <time>2025-06-05T09:33:07.000Z</time>
      </trkpt>
      <trkpt lat="46.75935" lon="5.87005">
        <ele>547.20001220703</ele>
        <time>2025-06-05T09:33:11.000Z</time>
      </trkpt>
      <trkpt lat="46.75936" lon="5.87006">
        <ele>547.20001220703</ele>
        <time>2025-06-05T09:33:12.000Z</time>
      </trkpt>
      <trkpt lat="46.75938" lon="5.87006">
        <ele>547.40002441406</ele>
        <time>2025-06-05T09:33:17.000Z</time>
      </trkpt>
      <trkpt lat="46.75939" lon="5.87008">
        <ele>547.59997558594</ele>
        <time>2025-06-05T09:33:19.000Z</time>
      </trkpt>
      <trkpt lat="46.75944" lon="5.87013">
        <ele>548</ele>
        <time>2025-06-05T09:33:23.000Z</time>
      </trkpt>
      <trkpt lat="46.75951" lon="5.8702">
        <ele>548</ele>
        <time>2025-06-05T09:33:26.000Z</time>
      </trkpt>
      <trkpt lat="46.7596" lon="5.87033">
        <ele>548.20001220703</ele>
        <time>2025-06-05T09:33:33.000Z</time>
      </trkpt>
      <trkpt lat="46.75965" lon="5.87036">
        <ele>548.20001220703</ele>
        <time>2025-06-05T09:33:38.000Z</time>
      </trkpt>
      <trkpt lat="46.75967" lon="5.87038">
        <ele>548.20001220703</ele>
        <time>2025-06-05T09:33:41.000Z</time>
      </trkpt>
      <trkpt lat="46.75973" lon="5.87039">
        <ele>548.40002441406</ele>
        <time>2025-06-05T09:33:45.000Z</time>
      </trkpt>
      <trkpt lat="46.75979" lon="5.87043">
        <ele>548.59997558594</ele>
        <time>2025-06-05T09:33:49.000Z</time>
      </trkpt>
      <trkpt lat="46.75985" lon="5.87049">
        <ele>548.59997558594</ele>
        <time>2025-06-05T09:33:53.000Z</time>
      </trkpt>
      <trkpt lat="46.75996" lon="5.87056">
        <ele>549.20001220703</ele>
        <time>2025-06-05T09:34:00.000Z</time>
      </trkpt>
      <trkpt lat="46.75997" lon="5.87056">
        <ele>549.40002441406</ele>
        <time>2025-06-05T09:34:02.000Z</time>
      </trkpt>
      <trkpt lat="46.76" lon="5.87057">
        <ele>549.40002441406</ele>
        <time>2025-06-05T09:34:09.000Z</time>
      </trkpt>
      <trkpt lat="46.76001" lon="5.87057">
        <ele>549.40002441406</ele>
        <time>2025-06-05T09:34:10.000Z</time>
      </trkpt>
      <trkpt lat="46.76003" lon="5.8706">
        <ele>549.59997558594</ele>
        <time>2025-06-05T09:34:12.000Z</time>
      </trkpt>
      <trkpt lat="46.76005" lon="5.87061">
        <ele>549.59997558594</ele>
        <time>2025-06-05T09:34:14.000Z</time>
      </trkpt>
      <trkpt lat="46.76006" lon="5.87062">
        <ele>549.59997558594</ele>
        <time>2025-06-05T09:34:15.000Z</time>
      </trkpt>
      <trkpt lat="46.76009" lon="5.87067">
        <ele>549.59997558594</ele>
        <time>2025-06-05T09:34:19.000Z</time>
      </trkpt>
      <trkpt lat="46.76012" lon="5.87069">
        <ele>549.59997558594</ele>
        <time>2025-06-05T09:34:22.000Z</time>
      </trkpt>
      <trkpt lat="46.76013" lon="5.8707">
        <ele>549.59997558594</ele>
        <time>2025-06-05T09:34:23.000Z</time>
      </trkpt>
      <trkpt lat="46.76016" lon="5.87074">
        <ele>549.79998779297</ele>
        <time>2025-06-05T09:34:27.000Z</time>
      </trkpt>
      <trkpt lat="46.76019" lon="5.87076">
        <ele>550</ele>
        <time>2025-06-05T09:34:30.000Z</time>
      </trkpt>
      <trkpt lat="46.7602" lon="5.87076">
        <ele>550.20001220703</ele>
        <time>2025-06-05T09:34:31.000Z</time>
      </trkpt>
      <trkpt lat="46.76022" lon="5.87076">
        <ele>550.20001220703</ele>
        <time>2025-06-05T09:34:33.000Z</time>
      </trkpt>
      <trkpt lat="46.76028" lon="5.8708">
        <ele>550.40002441406</ele>
        <time>2025-06-05T09:34:40.000Z</time>
      </trkpt>
      <trkpt lat="46.76033" lon="5.87083">
        <ele>550.20001220703</ele>
        <time>2025-06-05T09:34:43.000Z</time>
      </trkpt>
      <trkpt lat="46.76036" lon="5.87081">
        <ele>550.20001220703</ele>
        <time>2025-06-05T09:34:45.000Z</time>
      </trkpt>
      <trkpt lat="46.76038" lon="5.87081">
        <ele>550.20001220703</ele>
        <time>2025-06-05T09:34:47.000Z</time>
      </trkpt>
      <trkpt lat="46.7604" lon="5.87079">
        <ele>550.59997558594</ele>
        <time>2025-06-05T09:34:49.000Z</time>
      </trkpt>
      <trkpt lat="46.76042" lon="5.87078">
        <ele>551</ele>
        <time>2025-06-05T09:34:54.000Z</time>
      </trkpt>
      <trkpt lat="46.76042" lon="5.87078">
        <ele>551</ele>
        <time>2025-06-05T09:34:55.000Z</time>
      </trkpt>
      <trkpt lat="46.76042" lon="5.87078">
        <ele>551.20001220703</ele>
        <time>2025-06-05T09:35:06.000Z</time>
      </trkpt>
      <trkpt lat="46.76047" lon="5.87069">
        <ele>551.59997558594</ele>
        <time>2025-06-05T09:36:20.000Z</time>
      </trkpt>
      <trkpt lat="46.76052" lon="5.87065">
        <ele>551.79998779297</ele>
        <time>2025-06-05T09:36:26.000Z</time>
      </trkpt>
      <trkpt lat="46.76058" lon="5.87057">
        <ele>552.20001220703</ele>
        <time>2025-06-05T09:36:31.000Z</time>
      </trkpt>
      <trkpt lat="46.76063" lon="5.87052">
        <ele>552.20001220703</ele>
        <time>2025-06-05T09:36:33.000Z</time>
      </trkpt>
      <trkpt lat="46.76075" lon="5.87036">
        <ele>552.59997558594</ele>
        <time>2025-06-05T09:36:39.000Z</time>
      </trkpt>
      <trkpt lat="46.76076" lon="5.87036">
        <ele>552.79998779297</ele>
        <time>2025-06-05T09:36:40.000Z</time>
      </trkpt>
      <trkpt lat="46.76083" lon="5.87024">
        <ele>553.59997558594</ele>
        <time>2025-06-05T09:36:46.000Z</time>
      </trkpt>
      <trkpt lat="46.76086" lon="5.87021">
        <ele>553.79998779297</ele>
        <time>2025-06-05T09:36:49.000Z</time>
      </trkpt>
      <trkpt lat="46.7609" lon="5.87014">
        <ele>554.20001220703</ele>
        <time>2025-06-05T09:36:53.000Z</time>
      </trkpt>
      <trkpt lat="46.76091" lon="5.87014">
        <ele>554.20001220703</ele>
        <time>2025-06-05T09:36:54.000Z</time>
      </trkpt>
      <trkpt lat="46.76093" lon="5.87014">
        <ele>554.59997558594</ele>
        <time>2025-06-05T09:36:56.000Z</time>
      </trkpt>
      <trkpt lat="46.76096" lon="5.87009">
        <ele>555</ele>
        <time>2025-06-05T09:36:58.000Z</time>
      </trkpt>
      <trkpt lat="46.76102" lon="5.87">
        <ele>556</ele>
        <time>2025-06-05T09:37:02.000Z</time>
      </trkpt>
      <trkpt lat="46.76105" lon="5.86993">
        <ele>557</ele>
        <time>2025-06-05T09:37:06.000Z</time>
      </trkpt>
      <trkpt lat="46.76107" lon="5.86987">
        <ele>557.59997558594</ele>
        <time>2025-06-05T09:37:10.000Z</time>
      </trkpt>
      <trkpt lat="46.76109" lon="5.86983">
        <ele>558</ele>
        <time>2025-06-05T09:37:12.000Z</time>
      </trkpt>
      <trkpt lat="46.7611" lon="5.86982">
        <ele>558</ele>
        <time>2025-06-05T09:37:13.000Z</time>
      </trkpt>
      <trkpt lat="46.76111" lon="5.86979">
        <ele>559</ele>
        <time>2025-06-05T09:37:19.000Z</time>
      </trkpt>
      <trkpt lat="46.76115" lon="5.86976">
        <ele>559.20001220703</ele>
        <time>2025-06-05T09:37:23.000Z</time>
      </trkpt>
      <trkpt lat="46.76116" lon="5.86975">
        <ele>559.40002441406</ele>
        <time>2025-06-05T09:37:24.000Z</time>
      </trkpt>
      <trkpt lat="46.76123" lon="5.86966">
        <ele>559.79998779297</ele>
        <time>2025-06-05T09:37:29.000Z</time>
      </trkpt>
      <trkpt lat="46.76128" lon="5.86959">
        <ele>560.20001220703</ele>
        <time>2025-06-05T09:37:31.000Z</time>
      </trkpt>
      <trkpt lat="46.76133" lon="5.86954">
        <ele>560.40002441406</ele>
        <time>2025-06-05T09:37:33.000Z</time>
      </trkpt>
      <trkpt lat="46.76138" lon="5.86943">
        <ele>561.40002441406</ele>
        <time>2025-06-05T09:37:36.000Z</time>
      </trkpt>
      <trkpt lat="46.7614" lon="5.8694">
        <ele>561.59997558594</ele>
        <time>2025-06-05T09:37:37.000Z</time>
      </trkpt>
      <trkpt lat="46.76144" lon="5.86936">
        <ele>562.20001220703</ele>
        <time>2025-06-05T09:37:39.000Z</time>
      </trkpt>
      <trkpt lat="46.76147" lon="5.86933">
        <ele>562.40002441406</ele>
        <time>2025-06-05T09:37:40.000Z</time>
      </trkpt>
      <trkpt lat="46.76152" lon="5.86923">
        <ele>563.59997558594</ele>
        <time>2025-06-05T09:37:44.000Z</time>
      </trkpt>
      <trkpt lat="46.76153" lon="5.86921">
        <ele>564.79998779297</ele>
        <time>2025-06-05T09:37:49.000Z</time>
      </trkpt>
      <trkpt lat="46.7615" lon="5.86914">
        <ele>565.20001220703</ele>
        <time>2025-06-05T09:37:59.000Z</time>
      </trkpt>
      <trkpt lat="46.76146" lon="5.86905">
        <ele>565.20001220703</ele>
        <time>2025-06-05T09:38:03.000Z</time>
      </trkpt>
      <trkpt lat="46.76147" lon="5.86901">
        <ele>565.40002441406</ele>
        <time>2025-06-05T09:38:04.000Z</time>
      </trkpt>
      <trkpt lat="46.76142" lon="5.86881">
        <ele>565.59997558594</ele>
        <time>2025-06-05T09:38:09.000Z</time>
      </trkpt>
      <trkpt lat="46.76139" lon="5.86872">
        <ele>565.79998779297</ele>
        <time>2025-06-05T09:38:11.000Z</time>
      </trkpt>
      <trkpt lat="46.76135" lon="5.86858">
        <ele>566.20001220703</ele>
        <time>2025-06-05T09:38:14.000Z</time>
      </trkpt>
      <trkpt lat="46.76129" lon="5.86834">
        <ele>566.59997558594</ele>
        <time>2025-06-05T09:38:19.000Z</time>
      </trkpt>
      <trkpt lat="46.7612" lon="5.86814">
        <ele>566.79998779297</ele>
        <time>2025-06-05T09:38:23.000Z</time>
      </trkpt>
      <trkpt lat="46.76115" lon="5.86798">
        <ele>567.20001220703</ele>
        <time>2025-06-05T09:38:26.000Z</time>
      </trkpt>
      <trkpt lat="46.76101" lon="5.86767">
        <ele>567.59997558594</ele>
        <time>2025-06-05T09:38:33.000Z</time>
      </trkpt>
      <trkpt lat="46.76096" lon="5.86752">
        <ele>567.59997558594</ele>
        <time>2025-06-05T09:38:38.000Z</time>
      </trkpt>
      <trkpt lat="46.76095" lon="5.86751">
        <ele>567.20001220703</ele>
        <time>2025-06-05T09:38:44.000Z</time>
      </trkpt>
      <trkpt lat="46.76096" lon="5.86752">
        <ele>567</ele>
        <time>2025-06-05T09:39:51.000Z</time>
      </trkpt>
      <trkpt lat="46.761" lon="5.86762">
        <ele>567.20001220703</ele>
        <time>2025-06-05T09:39:54.000Z</time>
      </trkpt>
      <trkpt lat="46.76114" lon="5.86793">
        <ele>567.20001220703</ele>
        <time>2025-06-05T09:40:00.000Z</time>
      </trkpt>
      <trkpt lat="46.76129" lon="5.86831">
        <ele>567.40002441406</ele>
        <time>2025-06-05T09:40:08.000Z</time>
      </trkpt>
      <trkpt lat="46.76131" lon="5.86837">
        <ele>567.40002441406</ele>
        <time>2025-06-05T09:40:09.000Z</time>
      </trkpt>
      <trkpt lat="46.76137" lon="5.86862">
        <ele>567.20001220703</ele>
        <time>2025-06-05T09:40:13.000Z</time>
      </trkpt>
      <trkpt lat="46.76149" lon="5.86908">
        <ele>566.40002441406</ele>
        <time>2025-06-05T09:40:20.000Z</time>
      </trkpt>
      <trkpt lat="46.76155" lon="5.86925">
        <ele>566</ele>
        <time>2025-06-05T09:40:23.000Z</time>
      </trkpt>
      <trkpt lat="46.76157" lon="5.86933">
        <ele>565.59997558594</ele>
        <time>2025-06-05T09:40:24.000Z</time>
      </trkpt>
      <trkpt lat="46.7616" lon="5.86939">
        <ele>565.59997558594</ele>
        <time>2025-06-05T09:40:25.000Z</time>
      </trkpt>
      <trkpt lat="46.76163" lon="5.86948">
        <ele>565.40002441406</ele>
        <time>2025-06-05T09:40:26.000Z</time>
      </trkpt>
      <trkpt lat="46.76174" lon="5.86972">
        <ele>564.59997558594</ele>
        <time>2025-06-05T09:40:29.000Z</time>
      </trkpt>
      <trkpt lat="46.76179" lon="5.86979">
        <ele>564.20001220703</ele>
        <time>2025-06-05T09:40:30.000Z</time>
      </trkpt>
      <trkpt lat="46.76188" lon="5.86991">
        <ele>563.79998779297</ele>
        <time>2025-06-05T09:40:32.000Z</time>
      </trkpt>
      <trkpt lat="46.76196" lon="5.87">
        <ele>563.20001220703</ele>
        <time>2025-06-05T09:40:34.000Z</time>
      </trkpt>
      <trkpt lat="46.76211" lon="5.87017">
        <ele>562.20001220703</ele>
        <time>2025-06-05T09:40:38.000Z</time>
      </trkpt>
      <trkpt lat="46.76218" lon="5.87024">
        <ele>562</ele>
        <time>2025-06-05T09:40:40.000Z</time>
      </trkpt>
      <trkpt lat="46.76231" lon="5.87034">
        <ele>562</ele>
        <time>2025-06-05T09:40:44.000Z</time>
      </trkpt>
      <trkpt lat="46.76234" lon="5.87033">
        <ele>562</ele>
        <time>2025-06-05T09:40:45.000Z</time>
      </trkpt>
      <trkpt lat="46.76241" lon="5.87031">
        <ele>562.40002441406</ele>
        <time>2025-06-05T09:40:48.000Z</time>
      </trkpt>
      <trkpt lat="46.76243" lon="5.87029">
        <ele>562.59997558594</ele>
        <time>2025-06-05T09:40:49.000Z</time>
      </trkpt>
      <trkpt lat="46.76245" lon="5.87027">
        <ele>562.59997558594</ele>
        <time>2025-06-05T09:40:50.000Z</time>
      </trkpt>
      <trkpt lat="46.76252" lon="5.87019">
        <ele>562.79998779297</ele>
        <time>2025-06-05T09:40:52.000Z</time>
      </trkpt>
      <trkpt lat="46.76258" lon="5.87013">
        <ele>563</ele>
        <time>2025-06-05T09:40:54.000Z</time>
      </trkpt>
      <trkpt lat="46.7626" lon="5.87009">
        <ele>563.20001220703</ele>
        <time>2025-06-05T09:40:55.000Z</time>
      </trkpt>
      <trkpt lat="46.76277" lon="5.86983">
        <ele>564.79998779297</ele>
        <time>2025-06-05T09:41:00.000Z</time>
      </trkpt>
      <trkpt lat="46.76285" lon="5.86974">
        <ele>566.40002441406</ele>
        <time>2025-06-05T09:41:03.000Z</time>
      </trkpt>
      <trkpt lat="46.7629" lon="5.86967">
        <ele>567</ele>
        <time>2025-06-05T09:41:05.000Z</time>
      </trkpt>
      <trkpt lat="46.76295" lon="5.8696">
        <ele>567.79998779297</ele>
        <time>2025-06-05T09:41:07.000Z</time>
      </trkpt>
      <trkpt lat="46.76301" lon="5.86954">
        <ele>569</ele>
        <time>2025-06-05T09:41:10.000Z</time>
      </trkpt>
      <trkpt lat="46.7631" lon="5.8694">
        <ele>570</ele>
        <time>2025-06-05T09:41:13.000Z</time>
      </trkpt>
      <trkpt lat="46.76315" lon="5.86931">
        <ele>570.59997558594</ele>
        <time>2025-06-05T09:41:15.000Z</time>
      </trkpt>
      <trkpt lat="46.76325" lon="5.86915">
        <ele>571</ele>
        <time>2025-06-05T09:41:19.000Z</time>
      </trkpt>
      <trkpt lat="46.76327" lon="5.8691">
        <ele>571.20001220703</ele>
        <time>2025-06-05T09:41:20.000Z</time>
      </trkpt>
      <trkpt lat="46.76333" lon="5.86899">
        <ele>571.40002441406</ele>
        <time>2025-06-05T09:41:23.000Z</time>
      </trkpt>
      <trkpt lat="46.76339" lon="5.86889">
        <ele>571.40002441406</ele>
        <time>2025-06-05T09:41:25.000Z</time>
      </trkpt>
      <trkpt lat="46.76345" lon="5.86879">
        <ele>571.20001220703</ele>
        <time>2025-06-05T09:41:27.000Z</time>
      </trkpt>
      <trkpt lat="46.76355" lon="5.8687">
        <ele>571</ele>
        <time>2025-06-05T09:41:29.000Z</time>
      </trkpt>
      <trkpt lat="46.7636" lon="5.86866">
        <ele>570.79998779297</ele>
        <time>2025-06-05T09:41:30.000Z</time>
      </trkpt>
      <trkpt lat="46.76366" lon="5.86857">
        <ele>570.59997558594</ele>
        <time>2025-06-05T09:41:31.000Z</time>
      </trkpt>
      <trkpt lat="46.76374" lon="5.86842">
        <ele>570</ele>
        <time>2025-06-05T09:41:33.000Z</time>
      </trkpt>
      <trkpt lat="46.76381" lon="5.86834">
        <ele>569.40002441406</ele>
        <time>2025-06-05T09:41:34.000Z</time>
      </trkpt>
      <trkpt lat="46.76394" lon="5.86816">
        <ele>568.79998779297</ele>
        <time>2025-06-05T09:41:37.000Z</time>
      </trkpt>
      <trkpt lat="46.76399" lon="5.86801">
        <ele>568.59997558594</ele>
        <time>2025-06-05T09:41:39.000Z</time>
      </trkpt>
      <trkpt lat="46.76412" lon="5.86789">
        <ele>568.59997558594</ele>
        <time>2025-06-05T09:41:43.000Z</time>
      </trkpt>
      <trkpt lat="46.76427" lon="5.86777">
        <ele>569</ele>
        <time>2025-06-05T09:41:48.000Z</time>
      </trkpt>
      <trkpt lat="46.76433" lon="5.86782">
        <ele>569.20001220703</ele>
        <time>2025-06-05T09:41:50.000Z</time>
      </trkpt>
      <trkpt lat="46.7644" lon="5.8679">
        <ele>569.20001220703</ele>
        <time>2025-06-05T09:41:52.000Z</time>
      </trkpt>
      <trkpt lat="46.7645" lon="5.86803">
        <ele>569.59997558594</ele>
        <time>2025-06-05T09:41:55.000Z</time>
      </trkpt>
      <trkpt lat="46.76456" lon="5.86813">
        <ele>570</ele>
        <time>2025-06-05T09:41:57.000Z</time>
      </trkpt>
      <trkpt lat="46.76462" lon="5.86821">
        <ele>570.20001220703</ele>
        <time>2025-06-05T09:41:59.000Z</time>
      </trkpt>
      <trkpt lat="46.7648" lon="5.86846">
        <ele>571</ele>
        <time>2025-06-05T09:42:04.000Z</time>
      </trkpt>
      <trkpt lat="46.76483" lon="5.8685">
        <ele>571.20001220703</ele>
        <time>2025-06-05T09:42:05.000Z</time>
      </trkpt>
      <trkpt lat="46.76494" lon="5.86865">
        <ele>571.59997558594</ele>
        <time>2025-06-05T09:42:08.000Z</time>
      </trkpt>
      <trkpt lat="46.76503" lon="5.86879">
        <ele>572.20001220703</ele>
        <time>2025-06-05T09:42:11.000Z</time>
      </trkpt>
      <trkpt lat="46.76507" lon="5.86884">
        <ele>572.59997558594</ele>
        <time>2025-06-05T09:42:12.000Z</time>
      </trkpt>
      <trkpt lat="46.76514" lon="5.86894">
        <ele>573</ele>
        <time>2025-06-05T09:42:14.000Z</time>
      </trkpt>
      <trkpt lat="46.76518" lon="5.86899">
        <ele>573.20001220703</ele>
        <time>2025-06-05T09:42:15.000Z</time>
      </trkpt>
      <trkpt lat="46.76523" lon="5.86902">
        <ele>573.40002441406</ele>
        <time>2025-06-05T09:42:16.000Z</time>
      </trkpt>
      <trkpt lat="46.76528" lon="5.86903">
        <ele>573.79998779297</ele>
        <time>2025-06-05T09:42:17.000Z</time>
      </trkpt>
      <trkpt lat="46.76533" lon="5.86901">
        <ele>573.79998779297</ele>
        <time>2025-06-05T09:42:18.000Z</time>
      </trkpt>
      <trkpt lat="46.76542" lon="5.86893">
        <ele>574</ele>
        <time>2025-06-05T09:42:20.000Z</time>
      </trkpt>
      <trkpt lat="46.76545" lon="5.86889">
        <ele>574.40002441406</ele>
        <time>2025-06-05T09:42:21.000Z</time>
      </trkpt>
      <trkpt lat="46.76555" lon="5.86873">
        <ele>574.79998779297</ele>
        <time>2025-06-05T09:42:24.000Z</time>
      </trkpt>
      <trkpt lat="46.76558" lon="5.86866">
        <ele>575</ele>
        <time>2025-06-05T09:42:25.000Z</time>
      </trkpt>
      <trkpt lat="46.76563" lon="5.86861">
        <ele>575</ele>
        <time>2025-06-05T09:42:26.000Z</time>
      </trkpt>
      <trkpt lat="46.76571" lon="5.8685">
        <ele>575.20001220703</ele>
        <time>2025-06-05T09:42:28.000Z</time>
      </trkpt>
      <trkpt lat="46.76582" lon="5.86835">
        <ele>575.40002441406</ele>
        <time>2025-06-05T09:42:31.000Z</time>
      </trkpt>
      <trkpt lat="46.76593" lon="5.86819">
        <ele>575.40002441406</ele>
        <time>2025-06-05T09:42:34.000Z</time>
      </trkpt>
      <trkpt lat="46.76609" lon="5.86797">
        <ele>575.59997558594</ele>
        <time>2025-06-05T09:42:38.000Z</time>
      </trkpt>
      <trkpt lat="46.76634" lon="5.86755">
        <ele>576.59997558594</ele>
        <time>2025-06-05T09:42:47.000Z</time>
      </trkpt>
      <trkpt lat="46.76637" lon="5.86749">
        <ele>576.79998779297</ele>
        <time>2025-06-05T09:42:48.000Z</time>
      </trkpt>
      <trkpt lat="46.76646" lon="5.86737">
        <ele>577.59997558594</ele>
        <time>2025-06-05T09:42:51.000Z</time>
      </trkpt>
      <trkpt lat="46.76651" lon="5.86728">
        <ele>578.20001220703</ele>
        <time>2025-06-05T09:42:53.000Z</time>
      </trkpt>
      <trkpt lat="46.76655" lon="5.86719">
        <ele>579</ele>
        <time>2025-06-05T09:42:55.000Z</time>
      </trkpt>
      <trkpt lat="46.76662" lon="5.86707">
        <ele>580.40002441406</ele>
        <time>2025-06-05T09:42:58.000Z</time>
      </trkpt>
      <trkpt lat="46.76665" lon="5.86702">
        <ele>580.59997558594</ele>
        <time>2025-06-05T09:42:59.000Z</time>
      </trkpt>
      <trkpt lat="46.76673" lon="5.86688">
        <ele>582</ele>
        <time>2025-06-05T09:43:02.000Z</time>
      </trkpt>
      <trkpt lat="46.76681" lon="5.86677">
        <ele>583</ele>
        <time>2025-06-05T09:43:05.000Z</time>
      </trkpt>
      <trkpt lat="46.76684" lon="5.86673">
        <ele>583.20001220703</ele>
        <time>2025-06-05T09:43:06.000Z</time>
      </trkpt>
      <trkpt lat="46.7669" lon="5.86664">
        <ele>584.20001220703</ele>
        <time>2025-06-05T09:43:08.000Z</time>
      </trkpt>
      <trkpt lat="46.76699" lon="5.8665">
        <ele>585.20001220703</ele>
        <time>2025-06-05T09:43:11.000Z</time>
      </trkpt>
      <trkpt lat="46.76703" lon="5.86646">
        <ele>585.40002441406</ele>
        <time>2025-06-05T09:43:12.000Z</time>
      </trkpt>
      <trkpt lat="46.76709" lon="5.86638">
        <ele>586.40002441406</ele>
        <time>2025-06-05T09:43:14.000Z</time>
      </trkpt>
      <trkpt lat="46.76716" lon="5.86627">
        <ele>587.79998779297</ele>
        <time>2025-06-05T09:43:17.000Z</time>
      </trkpt>
      <trkpt lat="46.76722" lon="5.86616">
        <ele>589</ele>
        <time>2025-06-05T09:43:20.000Z</time>
      </trkpt>
      <trkpt lat="46.76727" lon="5.86608">
        <ele>590</ele>
        <time>2025-06-05T09:43:22.000Z</time>
      </trkpt>
      <trkpt lat="46.76732" lon="5.866">
        <ele>591.20001220703</ele>
        <time>2025-06-05T09:43:25.000Z</time>
      </trkpt>
      <trkpt lat="46.76737" lon="5.86591">
        <ele>592</ele>
        <time>2025-06-05T09:43:28.000Z</time>
      </trkpt>
      <trkpt lat="46.76739" lon="5.86588">
        <ele>592.40002441406</ele>
        <time>2025-06-05T09:43:29.000Z</time>
      </trkpt>
      <trkpt lat="46.76746" lon="5.86579">
        <ele>593.40002441406</ele>
        <time>2025-06-05T09:43:32.000Z</time>
      </trkpt>
      <trkpt lat="46.76751" lon="5.8657">
        <ele>594</ele>
        <time>2025-06-05T09:43:35.000Z</time>
      </trkpt>
      <trkpt lat="46.76766" lon="5.86548">
        <ele>594.59997558594</ele>
        <time>2025-06-05T09:43:41.000Z</time>
      </trkpt>
      <trkpt lat="46.76767" lon="5.86545">
        <ele>594.59997558594</ele>
        <time>2025-06-05T09:43:42.000Z</time>
      </trkpt>
      <trkpt lat="46.76787" lon="5.86517">
        <ele>594.79998779297</ele>
        <time>2025-06-05T09:43:49.000Z</time>
      </trkpt>
      <trkpt lat="46.76804" lon="5.86487">
        <ele>595.40002441406</ele>
        <time>2025-06-05T09:43:56.000Z</time>
      </trkpt>
      <trkpt lat="46.76815" lon="5.8647">
        <ele>595.59997558594</ele>
        <time>2025-06-05T09:44:00.000Z</time>
      </trkpt>
      <trkpt lat="46.76819" lon="5.8646">
        <ele>595.79998779297</ele>
        <time>2025-06-05T09:44:02.000Z</time>
      </trkpt>
      <trkpt lat="46.7682" lon="5.86424">
        <ele>596.59997558594</ele>
        <time>2025-06-05T09:44:08.000Z</time>
      </trkpt>
      <trkpt lat="46.7682" lon="5.86421">
        <ele>596.79998779297</ele>
        <time>2025-06-05T09:44:09.000Z</time>
      </trkpt>
      <trkpt lat="46.7682" lon="5.86395">
        <ele>598</ele>
        <time>2025-06-05T09:44:14.000Z</time>
      </trkpt>
      <trkpt lat="46.76822" lon="5.86389">
        <ele>598.20001220703</ele>
        <time>2025-06-05T09:44:15.000Z</time>
      </trkpt>
      <trkpt lat="46.76825" lon="5.8637">
        <ele>599.40002441406</ele>
        <time>2025-06-05T09:44:19.000Z</time>
      </trkpt>
      <trkpt lat="46.76827" lon="5.86356">
        <ele>599.79998779297</ele>
        <time>2025-06-05T09:44:22.000Z</time>
      </trkpt>
      <trkpt lat="46.76827" lon="5.86346">
        <ele>600.20001220703</ele>
        <time>2025-06-05T09:44:24.000Z</time>
      </trkpt>
      <trkpt lat="46.76826" lon="5.86341">
        <ele>600.40002441406</ele>
        <time>2025-06-05T09:44:25.000Z</time>
      </trkpt>
      <trkpt lat="46.76826" lon="5.8633">
        <ele>600.59997558594</ele>
        <time>2025-06-05T09:44:27.000Z</time>
      </trkpt>
      <trkpt lat="46.76831" lon="5.86291">
        <ele>601</ele>
        <time>2025-06-05T09:44:34.000Z</time>
      </trkpt>
      <trkpt lat="46.76839" lon="5.86269">
        <ele>601.20001220703</ele>
        <time>2025-06-05T09:44:39.000Z</time>
      </trkpt>
      <trkpt lat="46.76852" lon="5.86263">
        <ele>601.40002441406</ele>
        <time>2025-06-05T09:44:44.000Z</time>
      </trkpt>
      <trkpt lat="46.76863" lon="5.86263">
        <ele>601.20001220703</ele>
        <time>2025-06-05T09:44:49.000Z</time>
      </trkpt>
      <trkpt lat="46.76881" lon="5.86257">
        <ele>601</ele>
        <time>2025-06-05T09:44:55.000Z</time>
      </trkpt>
      <trkpt lat="46.76891" lon="5.86252">
        <ele>600.79998779297</ele>
        <time>2025-06-05T09:44:58.000Z</time>
      </trkpt>
      <trkpt lat="46.769" lon="5.86248">
        <ele>600.79998779297</ele>
        <time>2025-06-05T09:45:00.000Z</time>
      </trkpt>
      <trkpt lat="46.76928" lon="5.8624">
        <ele>601.20001220703</ele>
        <time>2025-06-05T09:45:06.000Z</time>
      </trkpt>
      <trkpt lat="46.76938" lon="5.86237">
        <ele>601.59997558594</ele>
        <time>2025-06-05T09:45:08.000Z</time>
      </trkpt>
      <trkpt lat="46.76955" lon="5.8623">
        <ele>602.40002441406</ele>
        <time>2025-06-05T09:45:12.000Z</time>
      </trkpt>
      <trkpt lat="46.7696" lon="5.86226">
        <ele>602.79998779297</ele>
        <time>2025-06-05T09:45:13.000Z</time>
      </trkpt>
      <trkpt lat="46.76975" lon="5.86215">
        <ele>603.79998779297</ele>
        <time>2025-06-05T09:45:17.000Z</time>
      </trkpt>
      <trkpt lat="46.76978" lon="5.86212">
        <ele>604.20001220703</ele>
        <time>2025-06-05T09:45:18.000Z</time>
      </trkpt>
      <trkpt lat="46.76989" lon="5.86198">
        <ele>604.79998779297</ele>
        <time>2025-06-05T09:45:21.000Z</time>
      </trkpt>
      <trkpt lat="46.76993" lon="5.86194">
        <ele>605.20001220703</ele>
        <time>2025-06-05T09:45:22.000Z</time>
      </trkpt>
      <trkpt lat="46.76999" lon="5.86185">
        <ele>605.79998779297</ele>
        <time>2025-06-05T09:45:24.000Z</time>
      </trkpt>
      <trkpt lat="46.77007" lon="5.86171">
        <ele>607</ele>
        <time>2025-06-05T09:45:27.000Z</time>
      </trkpt>
      <trkpt lat="46.77013" lon="5.86161">
        <ele>607.20001220703</ele>
        <time>2025-06-05T09:45:29.000Z</time>
      </trkpt>
      <trkpt lat="46.77019" lon="5.86152">
        <ele>607.40002441406</ele>
        <time>2025-06-05T09:45:31.000Z</time>
      </trkpt>
      <trkpt lat="46.77025" lon="5.86145">
        <ele>607.40002441406</ele>
        <time>2025-06-05T09:45:33.000Z</time>
      </trkpt>
      <trkpt lat="46.77035" lon="5.8613">
        <ele>607.59997558594</ele>
        <time>2025-06-05T09:45:37.000Z</time>
      </trkpt>
      <trkpt lat="46.77047" lon="5.86111">
        <ele>608</ele>
        <time>2025-06-05T09:45:42.000Z</time>
      </trkpt>
      <trkpt lat="46.77049" lon="5.86107">
        <ele>608.20001220703</ele>
        <time>2025-06-05T09:45:43.000Z</time>
      </trkpt>
      <trkpt lat="46.77061" lon="5.8609">
        <ele>609.20001220703</ele>
        <time>2025-06-05T09:45:47.000Z</time>
      </trkpt>
      <trkpt lat="46.77063" lon="5.86086">
        <ele>609.40002441406</ele>
        <time>2025-06-05T09:45:48.000Z</time>
      </trkpt>
      <trkpt lat="46.77069" lon="5.86077">
        <ele>610.20001220703</ele>
        <time>2025-06-05T09:45:50.000Z</time>
      </trkpt>
      <trkpt lat="46.77076" lon="5.86067">
        <ele>611.20001220703</ele>
        <time>2025-06-05T09:45:52.000Z</time>
      </trkpt>
      <trkpt lat="46.77082" lon="5.86059">
        <ele>611.79998779297</ele>
        <time>2025-06-05T09:45:54.000Z</time>
      </trkpt>
      <trkpt lat="46.77091" lon="5.86044">
        <ele>612.59997558594</ele>
        <time>2025-06-05T09:45:58.000Z</time>
      </trkpt>
      <trkpt lat="46.77097" lon="5.86031">
        <ele>613.79998779297</ele>
        <time>2025-06-05T09:46:01.000Z</time>
      </trkpt>
      <trkpt lat="46.771" lon="5.86027">
        <ele>614.20001220703</ele>
        <time>2025-06-05T09:46:02.000Z</time>
      </trkpt>
      <trkpt lat="46.77109" lon="5.86012">
        <ele>615</ele>
        <time>2025-06-05T09:46:05.000Z</time>
      </trkpt>
      <trkpt lat="46.77122" lon="5.85994">
        <ele>616.20001220703</ele>
        <time>2025-06-05T09:46:09.000Z</time>
      </trkpt>
      <trkpt lat="46.77131" lon="5.85984">
        <ele>617.20001220703</ele>
        <time>2025-06-05T09:46:12.000Z</time>
      </trkpt>
      <trkpt lat="46.77142" lon="5.85964">
        <ele>618.40002441406</ele>
        <time>2025-06-05T09:46:16.000Z</time>
      </trkpt>
      <trkpt lat="46.77151" lon="5.85957">
        <ele>619.20001220703</ele>
        <time>2025-06-05T09:46:18.000Z</time>
      </trkpt>
      <trkpt lat="46.77155" lon="5.85953">
        <ele>619.59997558594</ele>
        <time>2025-06-05T09:46:19.000Z</time>
      </trkpt>
      <trkpt lat="46.77161" lon="5.85937">
        <ele>620.59997558594</ele>
        <time>2025-06-05T09:46:23.000Z</time>
      </trkpt>
      <trkpt lat="46.77177" lon="5.8591">
        <ele>621.20001220703</ele>
        <time>2025-06-05T09:46:30.000Z</time>
      </trkpt>
      <trkpt lat="46.77199" lon="5.8588">
        <ele>621.20001220703</ele>
        <time>2025-06-05T09:46:38.000Z</time>
      </trkpt>
      <trkpt lat="46.77209" lon="5.85857">
        <ele>620.79998779297</ele>
        <time>2025-06-05T09:46:44.000Z</time>
      </trkpt>
      <trkpt lat="46.77206" lon="5.85847">
        <ele>620.59997558594</ele>
        <time>2025-06-05T09:46:49.000Z</time>
      </trkpt>
      <trkpt lat="46.77206" lon="5.85847">
        <ele>620</ele>
        <time>2025-06-05T09:46:58.000Z</time>
      </trkpt>
      <trkpt lat="46.77205" lon="5.85843">
        <ele>620</ele>
        <time>2025-06-05T09:47:35.000Z</time>
      </trkpt>
      <trkpt lat="46.77204" lon="5.85837">
        <ele>619.79998779297</ele>
        <time>2025-06-05T09:47:42.000Z</time>
      </trkpt>
      <trkpt lat="46.77202" lon="5.85828">
        <ele>619.59997558594</ele>
        <time>2025-06-05T09:47:48.000Z</time>
      </trkpt>
      <trkpt lat="46.77202" lon="5.85827">
        <ele>619.40002441406</ele>
        <time>2025-06-05T09:47:49.000Z</time>
      </trkpt>
      <trkpt lat="46.77202" lon="5.85829">
        <ele>619.40002441406</ele>
        <time>2025-06-05T09:47:58.000Z</time>
      </trkpt>
      <trkpt lat="46.77202" lon="5.85832">
        <ele>619.59997558594</ele>
        <time>2025-06-05T09:48:01.000Z</time>
      </trkpt>
      <trkpt lat="46.77203" lon="5.85835">
        <ele>619.59997558594</ele>
        <time>2025-06-05T09:48:03.000Z</time>
      </trkpt>
      <trkpt lat="46.77203" lon="5.85836">
        <ele>619.59997558594</ele>
        <time>2025-06-05T09:48:04.000Z</time>
      </trkpt>
      <trkpt lat="46.77206" lon="5.85841">
        <ele>619.79998779297</ele>
        <time>2025-06-05T09:48:08.000Z</time>
      </trkpt>
      <trkpt lat="46.77208" lon="5.85846">
        <ele>619.79998779297</ele>
        <time>2025-06-05T09:48:13.000Z</time>
      </trkpt>
      <trkpt lat="46.77209" lon="5.85847">
        <ele>620</ele>
        <time>2025-06-05T09:48:15.000Z</time>
      </trkpt>
      <trkpt lat="46.77209" lon="5.85847">
        <ele>620.20001220703</ele>
        <time>2025-06-05T09:48:29.000Z</time>
      </trkpt>
      <trkpt lat="46.77213" lon="5.85844">
        <ele>619.79998779297</ele>
        <time>2025-06-05T09:49:29.000Z</time>
      </trkpt>
      <trkpt lat="46.77214" lon="5.85842">
        <ele>619.79998779297</ele>
        <time>2025-06-05T09:49:30.000Z</time>
      </trkpt>
      <trkpt lat="46.77227" lon="5.85827">
        <ele>620</ele>
        <time>2025-06-05T09:49:37.000Z</time>
      </trkpt>
      <trkpt lat="46.77239" lon="5.85808">
        <ele>619.59997558594</ele>
        <time>2025-06-05T09:49:42.000Z</time>
      </trkpt>
      <trkpt lat="46.77242" lon="5.85804">
        <ele>619.59997558594</ele>
        <time>2025-06-05T09:49:43.000Z</time>
      </trkpt>
      <trkpt lat="46.77253" lon="5.85789">
        <ele>619.59997558594</ele>
        <time>2025-06-05T09:49:47.000Z</time>
      </trkpt>
      <trkpt lat="46.77259" lon="5.85781">
        <ele>619.40002441406</ele>
        <time>2025-06-05T09:49:49.000Z</time>
      </trkpt>
      <trkpt lat="46.77269" lon="5.85766">
        <ele>619.20001220703</ele>
        <time>2025-06-05T09:49:52.000Z</time>
      </trkpt>
      <trkpt lat="46.77286" lon="5.85741">
        <ele>619</ele>
        <time>2025-06-05T09:49:57.000Z</time>
      </trkpt>
      <trkpt lat="46.77292" lon="5.85731">
        <ele>618.79998779297</ele>
        <time>2025-06-05T09:49:59.000Z</time>
      </trkpt>
      <trkpt lat="46.77304" lon="5.85714">
        <ele>619</ele>
        <time>2025-06-05T09:50:02.000Z</time>
      </trkpt>
      <trkpt lat="46.77319" lon="5.85687">
        <ele>619.40002441406</ele>
        <time>2025-06-05T09:50:06.000Z</time>
      </trkpt>
      <trkpt lat="46.77327" lon="5.85675">
        <ele>619.59997558594</ele>
        <time>2025-06-05T09:50:08.000Z</time>
      </trkpt>
      <trkpt lat="46.77338" lon="5.85647">
        <ele>619.79998779297</ele>
        <time>2025-06-05T09:50:12.000Z</time>
      </trkpt>
      <trkpt lat="46.7734" lon="5.8564">
        <ele>619.79998779297</ele>
        <time>2025-06-05T09:50:13.000Z</time>
      </trkpt>
      <trkpt lat="46.77353" lon="5.85589">
        <ele>619.79998779297</ele>
        <time>2025-06-05T09:50:20.000Z</time>
      </trkpt>
      <trkpt lat="46.77363" lon="5.85535">
        <ele>619.79998779297</ele>
        <time>2025-06-05T09:50:27.000Z</time>
      </trkpt>
      <trkpt lat="46.7737" lon="5.85502">
        <ele>619.40002441406</ele>
        <time>2025-06-05T09:50:31.000Z</time>
      </trkpt>
      <trkpt lat="46.77372" lon="5.85495">
        <ele>619.20001220703</ele>
        <time>2025-06-05T09:50:32.000Z</time>
      </trkpt>
      <trkpt lat="46.77376" lon="5.8548">
        <ele>619</ele>
        <time>2025-06-05T09:50:34.000Z</time>
      </trkpt>
      <trkpt lat="46.77379" lon="5.85467">
        <ele>619</ele>
        <time>2025-06-05T09:50:36.000Z</time>
      </trkpt>
      <trkpt lat="46.7738" lon="5.8546">
        <ele>619</ele>
        <time>2025-06-05T09:50:37.000Z</time>
      </trkpt>
      <trkpt lat="46.77382" lon="5.85453">
        <ele>619</ele>
        <time>2025-06-05T09:50:38.000Z</time>
      </trkpt>
      <trkpt lat="46.77385" lon="5.85437">
        <ele>619.20001220703</ele>
        <time>2025-06-05T09:50:40.000Z</time>
      </trkpt>
      <trkpt lat="46.77387" lon="5.85429">
        <ele>619.20001220703</ele>
        <time>2025-06-05T09:50:41.000Z</time>
      </trkpt>
      <trkpt lat="46.77389" lon="5.8542">
        <ele>619.40002441406</ele>
        <time>2025-06-05T09:50:42.000Z</time>
      </trkpt>
      <trkpt lat="46.77395" lon="5.85386">
        <ele>620</ele>
        <time>2025-06-05T09:50:46.000Z</time>
      </trkpt>
      <trkpt lat="46.77406" lon="5.85325">
        <ele>620.40002441406</ele>
        <time>2025-06-05T09:50:53.000Z</time>
      </trkpt>
      <trkpt lat="46.77416" lon="5.85274">
        <ele>620.20001220703</ele>
        <time>2025-06-05T09:50:59.000Z</time>
      </trkpt>
      <trkpt lat="46.77421" lon="5.85252">
        <ele>620</ele>
        <time>2025-06-05T09:51:02.000Z</time>
      </trkpt>
      <trkpt lat="46.77428" lon="5.85232">
        <ele>620</ele>
        <time>2025-06-05T09:51:05.000Z</time>
      </trkpt>
      <trkpt lat="46.77437" lon="5.852">
        <ele>620.20001220703</ele>
        <time>2025-06-05T09:51:09.000Z</time>
      </trkpt>
      <trkpt lat="46.77442" lon="5.85185">
        <ele>620.20001220703</ele>
        <time>2025-06-05T09:51:11.000Z</time>
      </trkpt>
      <trkpt lat="46.77445" lon="5.85173">
        <ele>620.20001220703</ele>
        <time>2025-06-05T09:51:13.000Z</time>
      </trkpt>
      <trkpt lat="46.7745" lon="5.85158">
        <ele>620</ele>
        <time>2025-06-05T09:51:15.000Z</time>
      </trkpt>
      <trkpt lat="46.77457" lon="5.8513">
        <ele>619.79998779297</ele>
        <time>2025-06-05T09:51:18.000Z</time>
      </trkpt>
      <trkpt lat="46.77467" lon="5.85068">
        <ele>618.79998779297</ele>
        <time>2025-06-05T09:51:24.000Z</time>
      </trkpt>
      <trkpt lat="46.7747" lon="5.85052">
        <ele>618.40002441406</ele>
        <time>2025-06-05T09:51:26.000Z</time>
      </trkpt>
      <trkpt lat="46.77477" lon="5.85026">
        <ele>618.20001220703</ele>
        <time>2025-06-05T09:51:29.000Z</time>
      </trkpt>
      <trkpt lat="46.77478" lon="5.85007">
        <ele>618</ele>
        <time>2025-06-05T09:51:31.000Z</time>
      </trkpt>
      <trkpt lat="46.77478" lon="5.84984">
        <ele>618</ele>
        <time>2025-06-05T09:51:33.000Z</time>
      </trkpt>
      <trkpt lat="46.77487" lon="5.84941">
        <ele>618.79998779297</ele>
        <time>2025-06-05T09:51:38.000Z</time>
      </trkpt>
      <trkpt lat="46.77488" lon="5.84931">
        <ele>618.79998779297</ele>
        <time>2025-06-05T09:51:39.000Z</time>
      </trkpt>
      <trkpt lat="46.775" lon="5.84874">
        <ele>619.20001220703</ele>
        <time>2025-06-05T09:51:46.000Z</time>
      </trkpt>
      <trkpt lat="46.77503" lon="5.84863">
        <ele>619.20001220703</ele>
        <time>2025-06-05T09:51:47.000Z</time>
      </trkpt>
      <trkpt lat="46.77503" lon="5.84842">
        <ele>618.79998779297</ele>
        <time>2025-06-05T09:51:49.000Z</time>
      </trkpt>
      <trkpt lat="46.77505" lon="5.84831">
        <ele>618.59997558594</ele>
        <time>2025-06-05T09:51:50.000Z</time>
      </trkpt>
      <trkpt lat="46.77518" lon="5.84783">
        <ele>617</ele>
        <time>2025-06-05T09:51:55.000Z</time>
      </trkpt>
      <trkpt lat="46.77521" lon="5.84775">
        <ele>616.59997558594</ele>
        <time>2025-06-05T09:51:56.000Z</time>
      </trkpt>
      <trkpt lat="46.77532" lon="5.84737">
        <ele>615.79998779297</ele>
        <time>2025-06-05T09:52:00.000Z</time>
      </trkpt>
      <trkpt lat="46.77535" lon="5.84727">
        <ele>615.79998779297</ele>
        <time>2025-06-05T09:52:01.000Z</time>
      </trkpt>
      <trkpt lat="46.77539" lon="5.8471">
        <ele>615.40002441406</ele>
        <time>2025-06-05T09:52:03.000Z</time>
      </trkpt>
      <trkpt lat="46.77543" lon="5.84691">
        <ele>615</ele>
        <time>2025-06-05T09:52:05.000Z</time>
      </trkpt>
      <trkpt lat="46.77545" lon="5.84683">
        <ele>614.79998779297</ele>
        <time>2025-06-05T09:52:06.000Z</time>
      </trkpt>
      <trkpt lat="46.77547" lon="5.8467">
        <ele>614.59997558594</ele>
        <time>2025-06-05T09:52:08.000Z</time>
      </trkpt>
      <trkpt lat="46.77549" lon="5.84663">
        <ele>614.40002441406</ele>
        <time>2025-06-05T09:52:09.000Z</time>
      </trkpt>
      <trkpt lat="46.77553" lon="5.84643">
        <ele>614.40002441406</ele>
        <time>2025-06-05T09:52:11.000Z</time>
      </trkpt>
      <trkpt lat="46.77559" lon="5.84618">
        <ele>614</ele>
        <time>2025-06-05T09:52:14.000Z</time>
      </trkpt>
      <trkpt lat="46.77568" lon="5.84591">
        <ele>614</ele>
        <time>2025-06-05T09:52:18.000Z</time>
      </trkpt>
      <trkpt lat="46.77571" lon="5.84586">
        <ele>614</ele>
        <time>2025-06-05T09:52:19.000Z</time>
      </trkpt>
      <trkpt lat="46.77577" lon="5.84576">
        <ele>614</ele>
        <time>2025-06-05T09:52:21.000Z</time>
      </trkpt>
      <trkpt lat="46.7758" lon="5.84571">
        <ele>614</ele>
        <time>2025-06-05T09:52:22.000Z</time>
      </trkpt>
      <trkpt lat="46.7759" lon="5.84551">
        <ele>614.20001220703</ele>
        <time>2025-06-05T09:52:25.000Z</time>
      </trkpt>
      <trkpt lat="46.776" lon="5.84536">
        <ele>614.40002441406</ele>
        <time>2025-06-05T09:52:27.000Z</time>
      </trkpt>
      <trkpt lat="46.77603" lon="5.84528">
        <ele>614.40002441406</ele>
        <time>2025-06-05T09:52:28.000Z</time>
      </trkpt>
      <trkpt lat="46.77607" lon="5.8451">
        <ele>614.40002441406</ele>
        <time>2025-06-05T09:52:30.000Z</time>
      </trkpt>
      <trkpt lat="46.77614" lon="5.84486">
        <ele>614.40002441406</ele>
        <time>2025-06-05T09:52:33.000Z</time>
      </trkpt>
      <trkpt lat="46.77623" lon="5.84468">
        <ele>614.59997558594</ele>
        <time>2025-06-05T09:52:36.000Z</time>
      </trkpt>
      <trkpt lat="46.77633" lon="5.84448">
        <ele>614.59997558594</ele>
        <time>2025-06-05T09:52:39.000Z</time>
      </trkpt>
      <trkpt lat="46.77642" lon="5.84436">
        <ele>614.59997558594</ele>
        <time>2025-06-05T09:52:41.000Z</time>
      </trkpt>
      <trkpt lat="46.77649" lon="5.84423">
        <ele>614.59997558594</ele>
        <time>2025-06-05T09:52:43.000Z</time>
      </trkpt>
      <trkpt lat="46.77653" lon="5.84417">
        <ele>614.79998779297</ele>
        <time>2025-06-05T09:52:44.000Z</time>
      </trkpt>
      <trkpt lat="46.77665" lon="5.84397">
        <ele>615</ele>
        <time>2025-06-05T09:52:47.000Z</time>
      </trkpt>
      <trkpt lat="46.7768" lon="5.84367">
        <ele>615.20001220703</ele>
        <time>2025-06-05T09:52:52.000Z</time>
      </trkpt>
      <trkpt lat="46.77684" lon="5.84354">
        <ele>615.20001220703</ele>
        <time>2025-06-05T09:52:54.000Z</time>
      </trkpt>
      <trkpt lat="46.77689" lon="5.84343">
        <ele>615.40002441406</ele>
        <time>2025-06-05T09:52:56.000Z</time>
      </trkpt>
      <trkpt lat="46.77697" lon="5.84332">
        <ele>615.40002441406</ele>
        <time>2025-06-05T09:52:58.000Z</time>
      </trkpt>
      <trkpt lat="46.77712" lon="5.84296">
        <ele>615.59997558594</ele>
        <time>2025-06-05T09:53:03.000Z</time>
      </trkpt>
      <trkpt lat="46.77732" lon="5.84252">
        <ele>615.20001220703</ele>
        <time>2025-06-05T09:53:08.000Z</time>
      </trkpt>
      <trkpt lat="46.77759" lon="5.84193">
        <ele>613.79998779297</ele>
        <time>2025-06-05T09:53:14.000Z</time>
      </trkpt>
      <trkpt lat="46.77769" lon="5.84174">
        <ele>612.59997558594</ele>
        <time>2025-06-05T09:53:16.000Z</time>
      </trkpt>
      <trkpt lat="46.77781" lon="5.84148">
        <ele>611.59997558594</ele>
        <time>2025-06-05T09:53:19.000Z</time>
      </trkpt>
      <trkpt lat="46.77788" lon="5.84133">
        <ele>611.59997558594</ele>
        <time>2025-06-05T09:53:21.000Z</time>
      </trkpt>
      <trkpt lat="46.77795" lon="5.84121">
        <ele>611.59997558594</ele>
        <time>2025-06-05T09:53:23.000Z</time>
      </trkpt>
      <trkpt lat="46.77797" lon="5.84115">
        <ele>611.59997558594</ele>
        <time>2025-06-05T09:53:24.000Z</time>
      </trkpt>
      <trkpt lat="46.7781" lon="5.8409">
        <ele>612.59997558594</ele>
        <time>2025-06-05T09:53:28.000Z</time>
      </trkpt>
      <trkpt lat="46.77817" lon="5.84079">
        <ele>613.79998779297</ele>
        <time>2025-06-05T09:53:30.000Z</time>
      </trkpt>
      <trkpt lat="46.77819" lon="5.84073">
        <ele>614.59997558594</ele>
        <time>2025-06-05T09:53:31.000Z</time>
      </trkpt>
      <trkpt lat="46.77821" lon="5.84067">
        <ele>614.79998779297</ele>
        <time>2025-06-05T09:53:32.000Z</time>
      </trkpt>
      <trkpt lat="46.77825" lon="5.84056">
        <ele>615.40002441406</ele>
        <time>2025-06-05T09:53:34.000Z</time>
      </trkpt>
      <trkpt lat="46.77827" lon="5.84051">
        <ele>616</ele>
        <time>2025-06-05T09:53:35.000Z</time>
      </trkpt>
      <trkpt lat="46.77834" lon="5.84035">
        <ele>616.79998779297</ele>
        <time>2025-06-05T09:53:38.000Z</time>
      </trkpt>
      <trkpt lat="46.77839" lon="5.84025">
        <ele>617.20001220703</ele>
        <time>2025-06-05T09:53:40.000Z</time>
      </trkpt>
      <trkpt lat="46.77851" lon="5.83997">
        <ele>617.59997558594</ele>
        <time>2025-06-05T09:53:45.000Z</time>
      </trkpt>
      <trkpt lat="46.77857" lon="5.83986">
        <ele>617.59997558594</ele>
        <time>2025-06-05T09:53:47.000Z</time>
      </trkpt>
      <trkpt lat="46.77873" lon="5.83954">
        <ele>617.40002441406</ele>
        <time>2025-06-05T09:53:53.000Z</time>
      </trkpt>
      <trkpt lat="46.77877" lon="5.83948">
        <ele>617.20001220703</ele>
        <time>2025-06-05T09:53:54.000Z</time>
      </trkpt>
      <trkpt lat="46.77879" lon="5.83929">
        <ele>617</ele>
        <time>2025-06-05T09:53:56.000Z</time>
      </trkpt>
      <trkpt lat="46.77882" lon="5.83905">
        <ele>616.59997558594</ele>
        <time>2025-06-05T09:53:59.000Z</time>
      </trkpt>
      <trkpt lat="46.77883" lon="5.83873">
        <ele>615.79998779297</ele>
        <time>2025-06-05T09:54:02.000Z</time>
      </trkpt>
      <trkpt lat="46.77884" lon="5.83851">
        <ele>615.20001220703</ele>
        <time>2025-06-05T09:54:04.000Z</time>
      </trkpt>
      <trkpt lat="46.77883" lon="5.83832">
        <ele>614.59997558594</ele>
        <time>2025-06-05T09:54:06.000Z</time>
      </trkpt>
      <trkpt lat="46.77879" lon="5.83821">
        <ele>614</ele>
        <time>2025-06-05T09:54:07.000Z</time>
      </trkpt>
      <trkpt lat="46.7788" lon="5.83801">
        <ele>613.40002441406</ele>
        <time>2025-06-05T09:54:09.000Z</time>
      </trkpt>
      <trkpt lat="46.77881" lon="5.8375">
        <ele>612.40002441406</ele>
        <time>2025-06-05T09:54:15.000Z</time>
      </trkpt>
      <trkpt lat="46.77882" lon="5.83743">
        <ele>612.20001220703</ele>
        <time>2025-06-05T09:54:16.000Z</time>
      </trkpt>
      <trkpt lat="46.77883" lon="5.83737">
        <ele>612.20001220703</ele>
        <time>2025-06-05T09:54:17.000Z</time>
      </trkpt>
      <trkpt lat="46.77883" lon="5.83722">
        <ele>612.20001220703</ele>
        <time>2025-06-05T09:54:19.000Z</time>
      </trkpt>
      <trkpt lat="46.77883" lon="5.83683">
        <ele>612</ele>
        <time>2025-06-05T09:54:24.000Z</time>
      </trkpt>
      <trkpt lat="46.77883" lon="5.83675">
        <ele>612</ele>
        <time>2025-06-05T09:54:25.000Z</time>
      </trkpt>
      <trkpt lat="46.77883" lon="5.83666">
        <ele>612</ele>
        <time>2025-06-05T09:54:26.000Z</time>
      </trkpt>
      <trkpt lat="46.77885" lon="5.83635">
        <ele>612</ele>
        <time>2025-06-05T09:54:30.000Z</time>
      </trkpt>
      <trkpt lat="46.77886" lon="5.83611">
        <ele>612.20001220703</ele>
        <time>2025-06-05T09:54:33.000Z</time>
      </trkpt>
      <trkpt lat="46.77887" lon="5.83588">
        <ele>611.79998779297</ele>
        <time>2025-06-05T09:54:36.000Z</time>
      </trkpt>
      <trkpt lat="46.77888" lon="5.83577">
        <ele>611.79998779297</ele>
        <time>2025-06-05T09:54:38.000Z</time>
      </trkpt>
      <trkpt lat="46.77887" lon="5.83567">
        <ele>611.79998779297</ele>
        <time>2025-06-05T09:54:39.000Z</time>
      </trkpt>
      <trkpt lat="46.77887" lon="5.8354">
        <ele>611.59997558594</ele>
        <time>2025-06-05T09:54:42.000Z</time>
      </trkpt>
      <trkpt lat="46.77887" lon="5.83524">
        <ele>611.20001220703</ele>
        <time>2025-06-05T09:54:44.000Z</time>
      </trkpt>
      <trkpt lat="46.77887" lon="5.83509">
        <ele>611.40002441406</ele>
        <time>2025-06-05T09:54:46.000Z</time>
      </trkpt>
      <trkpt lat="46.77887" lon="5.83493">
        <ele>611.40002441406</ele>
        <time>2025-06-05T09:54:48.000Z</time>
      </trkpt>
      <trkpt lat="46.77886" lon="5.83476">
        <ele>611.20001220703</ele>
        <time>2025-06-05T09:54:50.000Z</time>
      </trkpt>
      <trkpt lat="46.77885" lon="5.8346">
        <ele>611</ele>
        <time>2025-06-05T09:54:52.000Z</time>
      </trkpt>
      <trkpt lat="46.77884" lon="5.83451">
        <ele>611</ele>
        <time>2025-06-05T09:54:53.000Z</time>
      </trkpt>
      <trkpt lat="46.77884" lon="5.83443">
        <ele>611</ele>
        <time>2025-06-05T09:54:54.000Z</time>
      </trkpt>
      <trkpt lat="46.77884" lon="5.83404">
        <ele>610.79998779297</ele>
        <time>2025-06-05T09:54:58.000Z</time>
      </trkpt>
      <trkpt lat="46.77886" lon="5.83366">
        <ele>610</ele>
        <time>2025-06-05T09:55:02.000Z</time>
      </trkpt>
      <trkpt lat="46.77884" lon="5.83328">
        <ele>609.20001220703</ele>
        <time>2025-06-05T09:55:06.000Z</time>
      </trkpt>
      <trkpt lat="46.77886" lon="5.8331">
        <ele>608.79998779297</ele>
        <time>2025-06-05T09:55:08.000Z</time>
      </trkpt>
      <trkpt lat="46.77886" lon="5.83279">
        <ele>608.20001220703</ele>
        <time>2025-06-05T09:55:11.000Z</time>
      </trkpt>
      <trkpt lat="46.77886" lon="5.83267">
        <ele>608</ele>
        <time>2025-06-05T09:55:12.000Z</time>
      </trkpt>
      <trkpt lat="46.77886" lon="5.83244">
        <ele>607.79998779297</ele>
        <time>2025-06-05T09:55:14.000Z</time>
      </trkpt>
      <trkpt lat="46.77885" lon="5.83233">
        <ele>607.59997558594</ele>
        <time>2025-06-05T09:55:15.000Z</time>
      </trkpt>
      <trkpt lat="46.77886" lon="5.83212">
        <ele>607.20001220703</ele>
        <time>2025-06-05T09:55:17.000Z</time>
      </trkpt>
      <trkpt lat="46.77887" lon="5.8319">
        <ele>606.59997558594</ele>
        <time>2025-06-05T09:55:19.000Z</time>
      </trkpt>
      <trkpt lat="46.7789" lon="5.83148">
        <ele>605.20001220703</ele>
        <time>2025-06-05T09:55:23.000Z</time>
      </trkpt>
      <trkpt lat="46.7789" lon="5.83128">
        <ele>604.59997558594</ele>
        <time>2025-06-05T09:55:25.000Z</time>
      </trkpt>
      <trkpt lat="46.77892" lon="5.8311">
        <ele>604.20001220703</ele>
        <time>2025-06-05T09:55:27.000Z</time>
      </trkpt>
      <trkpt lat="46.77893" lon="5.83068">
        <ele>603.59997558594</ele>
        <time>2025-06-05T09:55:32.000Z</time>
      </trkpt>
      <trkpt lat="46.77895" lon="5.83056">
        <ele>603.40002441406</ele>
        <time>2025-06-05T09:55:34.000Z</time>
      </trkpt>
      <trkpt lat="46.77898" lon="5.83042">
        <ele>603.40002441406</ele>
        <time>2025-06-05T09:55:36.000Z</time>
      </trkpt>
      <trkpt lat="46.77906" lon="5.83006">
        <ele>603.20001220703</ele>
        <time>2025-06-05T09:55:41.000Z</time>
      </trkpt>
      <trkpt lat="46.77908" lon="5.82998">
        <ele>603</ele>
        <time>2025-06-05T09:55:42.000Z</time>
      </trkpt>
      <trkpt lat="46.77916" lon="5.82958">
        <ele>602.20001220703</ele>
        <time>2025-06-05T09:55:46.000Z</time>
      </trkpt>
      <trkpt lat="46.77917" lon="5.82948">
        <ele>602.20001220703</ele>
        <time>2025-06-05T09:55:47.000Z</time>
      </trkpt>
      <trkpt lat="46.77919" lon="5.82937">
        <ele>602</ele>
        <time>2025-06-05T09:55:48.000Z</time>
      </trkpt>
      <trkpt lat="46.77923" lon="5.82907">
        <ele>601</ele>
        <time>2025-06-05T09:55:51.000Z</time>
      </trkpt>
      <trkpt lat="46.77927" lon="5.82887">
        <ele>600.59997558594</ele>
        <time>2025-06-05T09:55:53.000Z</time>
      </trkpt>
      <trkpt lat="46.77929" lon="5.82876">
        <ele>600.40002441406</ele>
        <time>2025-06-05T09:55:54.000Z</time>
      </trkpt>
      <trkpt lat="46.77932" lon="5.82856">
        <ele>599.59997558594</ele>
        <time>2025-06-05T09:55:56.000Z</time>
      </trkpt>
      <trkpt lat="46.77936" lon="5.82835">
        <ele>598.79998779297</ele>
        <time>2025-06-05T09:55:58.000Z</time>
      </trkpt>
      <trkpt lat="46.77939" lon="5.82826">
        <ele>598.20001220703</ele>
        <time>2025-06-05T09:55:59.000Z</time>
      </trkpt>
      <trkpt lat="46.77942" lon="5.82817">
        <ele>597.59997558594</ele>
        <time>2025-06-05T09:56:00.000Z</time>
      </trkpt>
      <trkpt lat="46.7795" lon="5.82803">
        <ele>597.40002441406</ele>
        <time>2025-06-05T09:56:02.000Z</time>
      </trkpt>
      <trkpt lat="46.77955" lon="5.82796">
        <ele>597.20001220703</ele>
        <time>2025-06-05T09:56:03.000Z</time>
      </trkpt>
      <trkpt lat="46.77963" lon="5.82781">
        <ele>597</ele>
        <time>2025-06-05T09:56:05.000Z</time>
      </trkpt>
      <trkpt lat="46.77985" lon="5.82748">
        <ele>596</ele>
        <time>2025-06-05T09:56:10.000Z</time>
      </trkpt>
      <trkpt lat="46.78008" lon="5.82712">
        <ele>595</ele>
        <time>2025-06-05T09:56:15.000Z</time>
      </trkpt>
      <trkpt lat="46.78012" lon="5.82704">
        <ele>594.79998779297</ele>
        <time>2025-06-05T09:56:16.000Z</time>
      </trkpt>
      <trkpt lat="46.78026" lon="5.82682">
        <ele>593.79998779297</ele>
        <time>2025-06-05T09:56:19.000Z</time>
      </trkpt>
      <trkpt lat="46.78038" lon="5.8266">
        <ele>593.40002441406</ele>
        <time>2025-06-05T09:56:22.000Z</time>
      </trkpt>
      <trkpt lat="46.78059" lon="5.82625">
        <ele>593</ele>
        <time>2025-06-05T09:56:28.000Z</time>
      </trkpt>
      <trkpt lat="46.78078" lon="5.82593">
        <ele>593</ele>
        <time>2025-06-05T09:56:34.000Z</time>
      </trkpt>
      <trkpt lat="46.78095" lon="5.82567">
        <ele>593.20001220703</ele>
        <time>2025-06-05T09:56:41.000Z</time>
      </trkpt>
      <trkpt lat="46.78099" lon="5.82558">
        <ele>593.20001220703</ele>
        <time>2025-06-05T09:56:45.000Z</time>
      </trkpt>
      <trkpt lat="46.78099" lon="5.82556">
        <ele>593.20001220703</ele>
        <time>2025-06-05T09:56:51.000Z</time>
      </trkpt>
      <trkpt lat="46.78098" lon="5.82556">
        <ele>592.79998779297</ele>
        <time>2025-06-05T09:57:41.000Z</time>
      </trkpt>
      <trkpt lat="46.78095" lon="5.82557">
        <ele>592.79998779297</ele>
        <time>2025-06-05T09:57:43.000Z</time>
      </trkpt>
      <trkpt lat="46.78094" lon="5.82559">
        <ele>592.79998779297</ele>
        <time>2025-06-05T09:57:44.000Z</time>
      </trkpt>
      <trkpt lat="46.78089" lon="5.82571">
        <ele>592.79998779297</ele>
        <time>2025-06-05T09:57:48.000Z</time>
      </trkpt>
      <trkpt lat="46.78088" lon="5.82575">
        <ele>592.79998779297</ele>
        <time>2025-06-05T09:57:49.000Z</time>
      </trkpt>
      <trkpt lat="46.78078" lon="5.82592">
        <ele>592.59997558594</ele>
        <time>2025-06-05T09:57:54.000Z</time>
      </trkpt>
      <trkpt lat="46.78074" lon="5.82598">
        <ele>592.59997558594</ele>
        <time>2025-06-05T09:57:56.000Z</time>
      </trkpt>
      <trkpt lat="46.78067" lon="5.8261">
        <ele>592.40002441406</ele>
        <time>2025-06-05T09:58:01.000Z</time>
      </trkpt>
      <trkpt lat="46.78067" lon="5.82611">
        <ele>592.40002441406</ele>
        <time>2025-06-05T09:58:05.000Z</time>
      </trkpt>
      <trkpt lat="46.78067" lon="5.82611">
        <ele>592.40002441406</ele>
        <time>2025-06-05T09:58:15.000Z</time>
      </trkpt>
      <trkpt lat="46.78067" lon="5.82611">
        <ele>592.40002441406</ele>
        <time>2025-06-05T09:58:48.000Z</time>
      </trkpt>
      <trkpt lat="46.78067" lon="5.82611">
        <ele>592.20001220703</ele>
        <time>2025-06-05T09:58:56.000Z</time>
      </trkpt>
      <trkpt lat="46.78067" lon="5.82611">
        <ele>592.40002441406</ele>
        <time>2025-06-05T09:58:59.000Z</time>
      </trkpt>
      <trkpt lat="46.78076" lon="5.82595">
        <ele>592.40002441406</ele>
        <time>2025-06-05T09:59:04.000Z</time>
      </trkpt>
      <trkpt lat="46.78092" lon="5.8257">
        <ele>592.59997558594</ele>
        <time>2025-06-05T09:59:10.000Z</time>
      </trkpt>
      <trkpt lat="46.78101" lon="5.82551">
        <ele>592.79998779297</ele>
        <time>2025-06-05T09:59:15.000Z</time>
      </trkpt>
      <trkpt lat="46.78096" lon="5.82541">
        <ele>592.79998779297</ele>
        <time>2025-06-05T09:59:17.000Z</time>
      </trkpt>
      <trkpt lat="46.78091" lon="5.82536">
        <ele>592.79998779297</ele>
        <time>2025-06-05T09:59:18.000Z</time>
      </trkpt>
      <trkpt lat="46.78086" lon="5.82532">
        <ele>592.79998779297</ele>
        <time>2025-06-05T09:59:19.000Z</time>
      </trkpt>
      <trkpt lat="46.7807" lon="5.82522">
        <ele>593</ele>
        <time>2025-06-05T09:59:22.000Z</time>
      </trkpt>
      <trkpt lat="46.78027" lon="5.82494">
        <ele>592</ele>
        <time>2025-06-05T09:59:29.000Z</time>
      </trkpt>
      <trkpt lat="46.77993" lon="5.82473">
        <ele>591.20001220703</ele>
        <time>2025-06-05T09:59:34.000Z</time>
      </trkpt>
      <trkpt lat="46.77978" lon="5.82465">
        <ele>590.79998779297</ele>
        <time>2025-06-05T09:59:36.000Z</time>
      </trkpt>
      <trkpt lat="46.77949" lon="5.82446">
        <ele>590</ele>
        <time>2025-06-05T09:59:40.000Z</time>
      </trkpt>
      <trkpt lat="46.77925" lon="5.8243">
        <ele>588.79998779297</ele>
        <time>2025-06-05T09:59:43.000Z</time>
      </trkpt>
      <trkpt lat="46.77893" lon="5.82411">
        <ele>587.40002441406</ele>
        <time>2025-06-05T09:59:47.000Z</time>
      </trkpt>
      <trkpt lat="46.77869" lon="5.82395">
        <ele>586.59997558594</ele>
        <time>2025-06-05T09:59:50.000Z</time>
      </trkpt>
      <trkpt lat="46.7786" lon="5.8239">
        <ele>586.20001220703</ele>
        <time>2025-06-05T09:59:51.000Z</time>
      </trkpt>
      <trkpt lat="46.77835" lon="5.82375">
        <ele>585</ele>
        <time>2025-06-05T09:59:54.000Z</time>
      </trkpt>
      <trkpt lat="46.77803" lon="5.82355">
        <ele>583.40002441406</ele>
        <time>2025-06-05T09:59:58.000Z</time>
      </trkpt>
      <trkpt lat="46.77796" lon="5.82351">
        <ele>583.20001220703</ele>
        <time>2025-06-05T09:59:59.000Z</time>
      </trkpt>
      <trkpt lat="46.77782" lon="5.82341">
        <ele>582.20001220703</ele>
        <time>2025-06-05T10:00:01.000Z</time>
      </trkpt>
      <trkpt lat="46.7777" lon="5.82328">
        <ele>581.20001220703</ele>
        <time>2025-06-05T10:00:03.000Z</time>
      </trkpt>
      <trkpt lat="46.77765" lon="5.8232">
        <ele>581</ele>
        <time>2025-06-05T10:00:04.000Z</time>
      </trkpt>
      <trkpt lat="46.77761" lon="5.82311">
        <ele>580.59997558594</ele>
        <time>2025-06-05T10:00:05.000Z</time>
      </trkpt>
      <trkpt lat="46.77758" lon="5.82301">
        <ele>580.40002441406</ele>
        <time>2025-06-05T10:00:06.000Z</time>
      </trkpt>
      <trkpt lat="46.77755" lon="5.8229">
        <ele>579.79998779297</ele>
        <time>2025-06-05T10:00:07.000Z</time>
      </trkpt>
      <trkpt lat="46.77751" lon="5.82262">
        <ele>578.59997558594</ele>
        <time>2025-06-05T10:00:10.000Z</time>
      </trkpt>
      <trkpt lat="46.7775" lon="5.8224">
        <ele>577.59997558594</ele>
        <time>2025-06-05T10:00:13.000Z</time>
      </trkpt>
      <trkpt lat="46.7775" lon="5.82236">
        <ele>577.20001220703</ele>
        <time>2025-06-05T10:00:14.000Z</time>
      </trkpt>
      <trkpt lat="46.7775" lon="5.82233">
        <ele>576.59997558594</ele>
        <time>2025-06-05T10:00:17.000Z</time>
      </trkpt>
      <trkpt lat="46.7775" lon="5.82233">
        <ele>575.59997558594</ele>
        <time>2025-06-05T10:00:27.000Z</time>
      </trkpt>
      <trkpt lat="46.7775" lon="5.82233">
        <ele>575.20001220703</ele>
        <time>2025-06-05T10:01:01.000Z</time>
      </trkpt>
      <trkpt lat="46.7775" lon="5.82232">
        <ele>575</ele>
        <time>2025-06-05T10:02:17.000Z</time>
      </trkpt>
      <trkpt lat="46.77755" lon="5.82224">
        <ele>575.20001220703</ele>
        <time>2025-06-05T10:02:20.000Z</time>
      </trkpt>
      <trkpt lat="46.77764" lon="5.82208">
        <ele>575.20001220703</ele>
        <time>2025-06-05T10:02:25.000Z</time>
      </trkpt>
      <trkpt lat="46.7777" lon="5.82195">
        <ele>576.40002441406</ele>
        <time>2025-06-05T10:02:28.000Z</time>
      </trkpt>
      <trkpt lat="46.77779" lon="5.82177">
        <ele>577.40002441406</ele>
        <time>2025-06-05T10:02:32.000Z</time>
      </trkpt>
      <trkpt lat="46.77782" lon="5.82172">
        <ele>577.59997558594</ele>
        <time>2025-06-05T10:02:33.000Z</time>
      </trkpt>
      <trkpt lat="46.77795" lon="5.82141">
        <ele>578.59997558594</ele>
        <time>2025-06-05T10:02:39.000Z</time>
      </trkpt>
      <trkpt lat="46.77797" lon="5.82136">
        <ele>578.59997558594</ele>
        <time>2025-06-05T10:02:40.000Z</time>
      </trkpt>
      <trkpt lat="46.77811" lon="5.82105">
        <ele>579.59997558594</ele>
        <time>2025-06-05T10:02:46.000Z</time>
      </trkpt>
      <trkpt lat="46.77813" lon="5.821">
        <ele>579.59997558594</ele>
        <time>2025-06-05T10:02:47.000Z</time>
      </trkpt>
      <trkpt lat="46.77828" lon="5.8207">
        <ele>580.79998779297</ele>
        <time>2025-06-05T10:02:53.000Z</time>
      </trkpt>
      <trkpt lat="46.77844" lon="5.82038">
        <ele>581.79998779297</ele>
        <time>2025-06-05T10:03:00.000Z</time>
      </trkpt>
      <trkpt lat="46.77846" lon="5.82033">
        <ele>582</ele>
        <time>2025-06-05T10:03:01.000Z</time>
      </trkpt>
      <trkpt lat="46.77853" lon="5.82019">
        <ele>582.40002441406</ele>
        <time>2025-06-05T10:03:04.000Z</time>
      </trkpt>
      <trkpt lat="46.7786" lon="5.82006">
        <ele>582.79998779297</ele>
        <time>2025-06-05T10:03:07.000Z</time>
      </trkpt>
      <trkpt lat="46.77879" lon="5.81968">
        <ele>583.79998779297</ele>
        <time>2025-06-05T10:03:15.000Z</time>
      </trkpt>
      <trkpt lat="46.77881" lon="5.81963">
        <ele>584</ele>
        <time>2025-06-05T10:03:16.000Z</time>
      </trkpt>
      <trkpt lat="46.77889" lon="5.81943">
        <ele>585</ele>
        <time>2025-06-05T10:03:20.000Z</time>
      </trkpt>
      <trkpt lat="46.77897" lon="5.81927">
        <ele>585.59997558594</ele>
        <time>2025-06-05T10:03:23.000Z</time>
      </trkpt>
      <trkpt lat="46.77901" lon="5.81911">
        <ele>586</ele>
        <time>2025-06-05T10:03:26.000Z</time>
      </trkpt>
      <trkpt lat="46.7791" lon="5.81891">
        <ele>587</ele>
        <time>2025-06-05T10:03:30.000Z</time>
      </trkpt>
      <trkpt lat="46.77912" lon="5.81886">
        <ele>587.40002441406</ele>
        <time>2025-06-05T10:03:31.000Z</time>
      </trkpt>
      <trkpt lat="46.77913" lon="5.81871">
        <ele>588.20001220703</ele>
        <time>2025-06-05T10:03:34.000Z</time>
      </trkpt>
      <trkpt lat="46.77913" lon="5.81865">
        <ele>588.40002441406</ele>
        <time>2025-06-05T10:03:35.000Z</time>
      </trkpt>
      <trkpt lat="46.7791" lon="5.81851">
        <ele>589.59997558594</ele>
        <time>2025-06-05T10:03:38.000Z</time>
      </trkpt>
      <trkpt lat="46.77906" lon="5.81842">
        <ele>590.20001220703</ele>
        <time>2025-06-05T10:03:40.000Z</time>
      </trkpt>
      <trkpt lat="46.77894" lon="5.81813">
        <ele>590.59997558594</ele>
        <time>2025-06-05T10:03:46.000Z</time>
      </trkpt>
      <trkpt lat="46.77892" lon="5.81809">
        <ele>590.79998779297</ele>
        <time>2025-06-05T10:03:47.000Z</time>
      </trkpt>
      <trkpt lat="46.77884" lon="5.81796">
        <ele>591</ele>
        <time>2025-06-05T10:03:50.000Z</time>
      </trkpt>
      <trkpt lat="46.77877" lon="5.81767">
        <ele>591.40002441406</ele>
        <time>2025-06-05T10:03:56.000Z</time>
      </trkpt>
      <trkpt lat="46.77874" lon="5.81757">
        <ele>591.79998779297</ele>
        <time>2025-06-05T10:03:58.000Z</time>
      </trkpt>
      <trkpt lat="46.77873" lon="5.81752">
        <ele>592</ele>
        <time>2025-06-05T10:03:59.000Z</time>
      </trkpt>
      <trkpt lat="46.77872" lon="5.81745">
        <ele>592.79998779297</ele>
        <time>2025-06-05T10:04:00.000Z</time>
      </trkpt>
      <trkpt lat="46.7787" lon="5.81738">
        <ele>593.40002441406</ele>
        <time>2025-06-05T10:04:01.000Z</time>
      </trkpt>
      <trkpt lat="46.77867" lon="5.8173">
        <ele>593.79998779297</ele>
        <time>2025-06-05T10:04:03.000Z</time>
      </trkpt>
      <trkpt lat="46.77866" lon="5.8172">
        <ele>594.20001220703</ele>
        <time>2025-06-05T10:04:05.000Z</time>
      </trkpt>
      <trkpt lat="46.77851" lon="5.8169">
        <ele>595</ele>
        <time>2025-06-05T10:04:10.000Z</time>
      </trkpt>
      <trkpt lat="46.77843" lon="5.81668">
        <ele>595.40002441406</ele>
        <time>2025-06-05T10:04:14.000Z</time>
      </trkpt>
      <trkpt lat="46.7783" lon="5.81648">
        <ele>595.20001220703</ele>
        <time>2025-06-05T10:04:19.000Z</time>
      </trkpt>
      <trkpt lat="46.77822" lon="5.81641">
        <ele>595.20001220703</ele>
        <time>2025-06-05T10:04:21.000Z</time>
      </trkpt>
      <trkpt lat="46.77816" lon="5.81634">
        <ele>595.20001220703</ele>
        <time>2025-06-05T10:04:23.000Z</time>
      </trkpt>
      <trkpt lat="46.77812" lon="5.81631">
        <ele>595.20001220703</ele>
        <time>2025-06-05T10:04:24.000Z</time>
      </trkpt>
      <trkpt lat="46.77801" lon="5.81622">
        <ele>595</ele>
        <time>2025-06-05T10:04:26.000Z</time>
      </trkpt>
      <trkpt lat="46.77792" lon="5.81618">
        <ele>594.40002441406</ele>
        <time>2025-06-05T10:04:28.000Z</time>
      </trkpt>
      <trkpt lat="46.77777" lon="5.81614">
        <ele>593.59997558594</ele>
        <time>2025-06-05T10:04:30.000Z</time>
      </trkpt>
      <trkpt lat="46.77766" lon="5.81602">
        <ele>593</ele>
        <time>2025-06-05T10:04:32.000Z</time>
      </trkpt>
      <trkpt lat="46.7775" lon="5.81591">
        <ele>592.40002441406</ele>
        <time>2025-06-05T10:04:34.000Z</time>
      </trkpt>
      <trkpt lat="46.77731" lon="5.81575">
        <ele>591.59997558594</ele>
        <time>2025-06-05T10:04:37.000Z</time>
      </trkpt>
      <trkpt lat="46.77725" lon="5.81568">
        <ele>591.20001220703</ele>
        <time>2025-06-05T10:04:39.000Z</time>
      </trkpt>
      <trkpt lat="46.77712" lon="5.81555">
        <ele>590.59997558594</ele>
        <time>2025-06-05T10:04:42.000Z</time>
      </trkpt>
      <trkpt lat="46.77691" lon="5.81539">
        <ele>590</ele>
        <time>2025-06-05T10:04:47.000Z</time>
      </trkpt>
      <trkpt lat="46.77685" lon="5.81535">
        <ele>589</ele>
        <time>2025-06-05T10:04:49.000Z</time>
      </trkpt>
      <trkpt lat="46.77677" lon="5.81526">
        <ele>588.20001220703</ele>
        <time>2025-06-05T10:04:51.000Z</time>
      </trkpt>
      <trkpt lat="46.7767" lon="5.81522">
        <ele>587.40002441406</ele>
        <time>2025-06-05T10:04:52.000Z</time>
      </trkpt>
      <trkpt lat="46.77663" lon="5.81518">
        <ele>586.79998779297</ele>
        <time>2025-06-05T10:04:53.000Z</time>
      </trkpt>
      <trkpt lat="46.77657" lon="5.81515">
        <ele>586.59997558594</ele>
        <time>2025-06-05T10:04:54.000Z</time>
      </trkpt>
      <trkpt lat="46.77651" lon="5.8151">
        <ele>586.20001220703</ele>
        <time>2025-06-05T10:04:55.000Z</time>
      </trkpt>
      <trkpt lat="46.77638" lon="5.81494">
        <ele>585.40002441406</ele>
        <time>2025-06-05T10:04:58.000Z</time>
      </trkpt>
      <trkpt lat="46.77636" lon="5.81491">
        <ele>585</ele>
        <time>2025-06-05T10:04:59.000Z</time>
      </trkpt>
      <trkpt lat="46.77622" lon="5.81483">
        <ele>583.79998779297</ele>
        <time>2025-06-05T10:05:02.000Z</time>
      </trkpt>
      <trkpt lat="46.77615" lon="5.81475">
        <ele>583.20001220703</ele>
        <time>2025-06-05T10:05:04.000Z</time>
      </trkpt>
      <trkpt lat="46.77605" lon="5.81462">
        <ele>582.59997558594</ele>
        <time>2025-06-05T10:05:07.000Z</time>
      </trkpt>
      <trkpt lat="46.77601" lon="5.81458">
        <ele>581.59997558594</ele>
        <time>2025-06-05T10:05:09.000Z</time>
      </trkpt>
      <trkpt lat="46.77597" lon="5.81453">
        <ele>581.40002441406</ele>
        <time>2025-06-05T10:05:11.000Z</time>
      </trkpt>
      <trkpt lat="46.77587" lon="5.81446">
        <ele>581.40002441406</ele>
        <time>2025-06-05T10:05:15.000Z</time>
      </trkpt>
      <trkpt lat="46.77569" lon="5.81432">
        <ele>581.79998779297</ele>
        <time>2025-06-05T10:05:21.000Z</time>
      </trkpt>
      <trkpt lat="46.77561" lon="5.81427">
        <ele>581.79998779297</ele>
        <time>2025-06-05T10:05:25.000Z</time>
      </trkpt>
      <trkpt lat="46.77543" lon="5.81418">
        <ele>580.20001220703</ele>
        <time>2025-06-05T10:05:30.000Z</time>
      </trkpt>
      <trkpt lat="46.77532" lon="5.81407">
        <ele>579.20001220703</ele>
        <time>2025-06-05T10:05:33.000Z</time>
      </trkpt>
      <trkpt lat="46.77527" lon="5.81401">
        <ele>578.20001220703</ele>
        <time>2025-06-05T10:05:36.000Z</time>
      </trkpt>
      <trkpt lat="46.77526" lon="5.814">
        <ele>578</ele>
        <time>2025-06-05T10:05:37.000Z</time>
      </trkpt>
      <trkpt lat="46.77526" lon="5.81398">
        <ele>577.20001220703</ele>
        <time>2025-06-05T10:05:38.000Z</time>
      </trkpt>
      <trkpt lat="46.77522" lon="5.81395">
        <ele>576.59997558594</ele>
        <time>2025-06-05T10:05:40.000Z</time>
      </trkpt>
      <trkpt lat="46.77505" lon="5.81389">
        <ele>575.59997558594</ele>
        <time>2025-06-05T10:05:44.000Z</time>
      </trkpt>
      <trkpt lat="46.77501" lon="5.81387">
        <ele>575.20001220703</ele>
        <time>2025-06-05T10:05:45.000Z</time>
      </trkpt>
      <trkpt lat="46.77496" lon="5.81387">
        <ele>575</ele>
        <time>2025-06-05T10:05:46.000Z</time>
      </trkpt>
      <trkpt lat="46.77491" lon="5.81385">
        <ele>574.59997558594</ele>
        <time>2025-06-05T10:05:47.000Z</time>
      </trkpt>
      <trkpt lat="46.77481" lon="5.81382">
        <ele>574.20001220703</ele>
        <time>2025-06-05T10:05:49.000Z</time>
      </trkpt>
      <trkpt lat="46.77464" lon="5.81378">
        <ele>573.20001220703</ele>
        <time>2025-06-05T10:05:52.000Z</time>
      </trkpt>
      <trkpt lat="46.77453" lon="5.81375">
        <ele>572.20001220703</ele>
        <time>2025-06-05T10:05:54.000Z</time>
      </trkpt>
      <trkpt lat="46.77439" lon="5.81369">
        <ele>571</ele>
        <time>2025-06-05T10:05:57.000Z</time>
      </trkpt>
      <trkpt lat="46.77432" lon="5.81367">
        <ele>569.79998779297</ele>
        <time>2025-06-05T10:05:59.000Z</time>
      </trkpt>
      <trkpt lat="46.77428" lon="5.81365">
        <ele>569</ele>
        <time>2025-06-05T10:06:00.000Z</time>
      </trkpt>
      <trkpt lat="46.77426" lon="5.81363">
        <ele>568.20001220703</ele>
        <time>2025-06-05T10:06:01.000Z</time>
      </trkpt>
      <trkpt lat="46.77423" lon="5.81363">
        <ele>567.20001220703</ele>
        <time>2025-06-05T10:06:04.000Z</time>
      </trkpt>
      <trkpt lat="46.77423" lon="5.81363">
        <ele>566.20001220703</ele>
        <time>2025-06-05T10:06:07.000Z</time>
      </trkpt>
      <trkpt lat="46.77424" lon="5.81362">
        <ele>565.20001220703</ele>
        <time>2025-06-05T10:06:17.000Z</time>
      </trkpt>
      <trkpt lat="46.77424" lon="5.81362">
        <ele>565.59997558594</ele>
        <time>2025-06-05T10:06:25.000Z</time>
      </trkpt>
      <trkpt lat="46.77424" lon="5.81362">
        <ele>566.59997558594</ele>
        <time>2025-06-05T10:06:34.000Z</time>
      </trkpt>
      <trkpt lat="46.77426" lon="5.81358">
        <ele>567.20001220703</ele>
        <time>2025-06-05T10:11:34.000Z</time>
      </trkpt>
      <trkpt lat="46.77426" lon="5.81358">
        <ele>567.79998779297</ele>
        <time>2025-06-05T10:11:37.000Z</time>
      </trkpt>
      <trkpt lat="46.77426" lon="5.81358">
        <ele>568</ele>
        <time>2025-06-05T10:11:41.000Z</time>
      </trkpt>
      <trkpt lat="46.77431" lon="5.81354">
        <ele>568.40002441406</ele>
        <time>2025-06-05T10:11:49.000Z</time>
      </trkpt>
      <trkpt lat="46.77431" lon="5.81354">
        <ele>568.79998779297</ele>
        <time>2025-06-05T10:11:53.000Z</time>
      </trkpt>
      <trkpt lat="46.77432" lon="5.81351">
        <ele>569.59997558594</ele>
        <time>2025-06-05T10:11:59.000Z</time>
      </trkpt>
      <trkpt lat="46.77434" lon="5.81348">
        <ele>570</ele>
        <time>2025-06-05T10:12:01.000Z</time>
      </trkpt>
      <trkpt lat="46.77438" lon="5.81342">
        <ele>571</ele>
        <time>2025-06-05T10:12:06.000Z</time>
      </trkpt>
      <trkpt lat="46.77444" lon="5.81331">
        <ele>571.40002441406</ele>
        <time>2025-06-05T10:12:13.000Z</time>
      </trkpt>
      <trkpt lat="46.77448" lon="5.81322">
        <ele>571.59997558594</ele>
        <time>2025-06-05T10:12:17.000Z</time>
      </trkpt>
      <trkpt lat="46.77448" lon="5.81322">
        <ele>571.79998779297</ele>
        <time>2025-06-05T10:12:18.000Z</time>
      </trkpt>
      <trkpt lat="46.7745" lon="5.81318">
        <ele>572.20001220703</ele>
        <time>2025-06-05T10:12:19.000Z</time>
      </trkpt>
      <trkpt lat="46.77455" lon="5.81311">
        <ele>573.59997558594</ele>
        <time>2025-06-05T10:12:23.000Z</time>
      </trkpt>
      <trkpt lat="46.77458" lon="5.81307">
        <ele>574.40002441406</ele>
        <time>2025-06-05T10:12:26.000Z</time>
      </trkpt>
      <trkpt lat="46.7746" lon="5.81303">
        <ele>574.79998779297</ele>
        <time>2025-06-05T10:12:27.000Z</time>
      </trkpt>
      <trkpt lat="46.77464" lon="5.81296">
        <ele>576</ele>
        <time>2025-06-05T10:12:32.000Z</time>
      </trkpt>
      <trkpt lat="46.77465" lon="5.81288">
        <ele>577.20001220703</ele>
        <time>2025-06-05T10:12:36.000Z</time>
      </trkpt>
      <trkpt lat="46.77466" lon="5.81281">
        <ele>578</ele>
        <time>2025-06-05T10:12:39.000Z</time>
      </trkpt>
      <trkpt lat="46.77467" lon="5.81279">
        <ele>578.59997558594</ele>
        <time>2025-06-05T10:12:41.000Z</time>
      </trkpt>
      <trkpt lat="46.77468" lon="5.81273">
        <ele>579.59997558594</ele>
        <time>2025-06-05T10:12:45.000Z</time>
      </trkpt>
      <trkpt lat="46.77468" lon="5.81271">
        <ele>580.40002441406</ele>
        <time>2025-06-05T10:12:47.000Z</time>
      </trkpt>
      <trkpt lat="46.77468" lon="5.81269">
        <ele>580.79998779297</ele>
        <time>2025-06-05T10:12:48.000Z</time>
      </trkpt>
      <trkpt lat="46.77469" lon="5.81267">
        <ele>582.20001220703</ele>
        <time>2025-06-05T10:12:52.000Z</time>
      </trkpt>
      <trkpt lat="46.77468" lon="5.81262">
        <ele>582.79998779297</ele>
        <time>2025-06-05T10:12:54.000Z</time>
      </trkpt>
      <trkpt lat="46.77468" lon="5.81259">
        <ele>583.20001220703</ele>
        <time>2025-06-05T10:12:55.000Z</time>
      </trkpt>
      <trkpt lat="46.77467" lon="5.81251">
        <ele>584.59997558594</ele>
        <time>2025-06-05T10:12:59.000Z</time>
      </trkpt>
      <trkpt lat="46.7747" lon="5.81244">
        <ele>585.59997558594</ele>
        <time>2025-06-05T10:13:02.000Z</time>
      </trkpt>
      <trkpt lat="46.77469" lon="5.81236">
        <ele>586</ele>
        <time>2025-06-05T10:13:03.000Z</time>
      </trkpt>
      <trkpt lat="46.77468" lon="5.81233">
        <ele>586.79998779297</ele>
        <time>2025-06-05T10:13:04.000Z</time>
      </trkpt>
      <trkpt lat="46.77471" lon="5.8122">
        <ele>587.79998779297</ele>
        <time>2025-06-05T10:13:09.000Z</time>
      </trkpt>
      <trkpt lat="46.77467" lon="5.81217">
        <ele>588.59997558594</ele>
        <time>2025-06-05T10:13:11.000Z</time>
      </trkpt>
      <trkpt lat="46.77467" lon="5.81214">
        <ele>589.20001220703</ele>
        <time>2025-06-05T10:13:12.000Z</time>
      </trkpt>
      <trkpt lat="46.77467" lon="5.81213">
        <ele>590.20001220703</ele>
        <time>2025-06-05T10:13:14.000Z</time>
      </trkpt>
      <trkpt lat="46.77467" lon="5.81212">
        <ele>591.40002441406</ele>
        <time>2025-06-05T10:13:17.000Z</time>
      </trkpt>
      <trkpt lat="46.77467" lon="5.81212">
        <ele>591.59997558594</ele>
        <time>2025-06-05T10:13:18.000Z</time>
      </trkpt>
      <trkpt lat="46.77467" lon="5.81212">
        <ele>592.59997558594</ele>
        <time>2025-06-05T10:13:20.000Z</time>
      </trkpt>
      <trkpt lat="46.77468" lon="5.81211">
        <ele>593.40002441406</ele>
        <time>2025-06-05T10:13:27.000Z</time>
      </trkpt>
      <trkpt lat="46.77468" lon="5.81211">
        <ele>594</ele>
        <time>2025-06-05T10:13:29.000Z</time>
      </trkpt>
      <trkpt lat="46.77468" lon="5.8121">
        <ele>595</ele>
        <time>2025-06-05T10:13:36.000Z</time>
      </trkpt>
      <trkpt lat="46.77468" lon="5.8121">
        <ele>596</ele>
        <time>2025-06-05T10:13:41.000Z</time>
      </trkpt>
      <trkpt lat="46.77469" lon="5.81207">
        <ele>597.20001220703</ele>
        <time>2025-06-05T10:13:46.000Z</time>
      </trkpt>
      <trkpt lat="46.77469" lon="5.81205">
        <ele>598.20001220703</ele>
        <time>2025-06-05T10:13:55.000Z</time>
      </trkpt>
      <trkpt lat="46.77469" lon="5.81205">
        <ele>598.40002441406</ele>
        <time>2025-06-05T10:13:56.000Z</time>
      </trkpt>
      <trkpt lat="46.77469" lon="5.81205">
        <ele>599.20001220703</ele>
        <time>2025-06-05T10:14:01.000Z</time>
      </trkpt>
      <trkpt lat="46.77469" lon="5.81198">
        <ele>600.40002441406</ele>
        <time>2025-06-05T10:14:06.000Z</time>
      </trkpt>
      <trkpt lat="46.77471" lon="5.81192">
        <ele>600.79998779297</ele>
        <time>2025-06-05T10:14:08.000Z</time>
      </trkpt>
      <trkpt lat="46.77472" lon="5.81187">
        <ele>601.59997558594</ele>
        <time>2025-06-05T10:14:12.000Z</time>
      </trkpt>
      <trkpt lat="46.77472" lon="5.81186">
        <ele>602.40002441406</ele>
        <time>2025-06-05T10:14:18.000Z</time>
      </trkpt>
      <trkpt lat="46.77472" lon="5.81186">
        <ele>603.59997558594</ele>
        <time>2025-06-05T10:14:24.000Z</time>
      </trkpt>
      <trkpt lat="46.77472" lon="5.81186">
        <ele>603.79998779297</ele>
        <time>2025-06-05T10:14:26.000Z</time>
      </trkpt>
      <trkpt lat="46.77472" lon="5.81185">
        <ele>604.79998779297</ele>
        <time>2025-06-05T10:14:30.000Z</time>
      </trkpt>
      <trkpt lat="46.77472" lon="5.81185">
        <ele>605.59997558594</ele>
        <time>2025-06-05T10:14:35.000Z</time>
      </trkpt>
      <trkpt lat="46.77472" lon="5.81184">
        <ele>606</ele>
        <time>2025-06-05T10:14:37.000Z</time>
      </trkpt>
      <trkpt lat="46.77472" lon="5.8118">
        <ele>607.20001220703</ele>
        <time>2025-06-05T10:14:43.000Z</time>
      </trkpt>
      <trkpt lat="46.77472" lon="5.81172">
        <ele>608.40002441406</ele>
        <time>2025-06-05T10:14:52.000Z</time>
      </trkpt>
      <trkpt lat="46.77472" lon="5.81172">
        <ele>609.59997558594</ele>
        <time>2025-06-05T10:15:00.000Z</time>
      </trkpt>
      <trkpt lat="46.77472" lon="5.8117">
        <ele>610.59997558594</ele>
        <time>2025-06-05T10:15:06.000Z</time>
      </trkpt>
      <trkpt lat="46.77473" lon="5.81167">
        <ele>611.79998779297</ele>
        <time>2025-06-05T10:15:12.000Z</time>
      </trkpt>
      <trkpt lat="46.77475" lon="5.81162">
        <ele>613</ele>
        <time>2025-06-05T10:15:20.000Z</time>
      </trkpt>
      <trkpt lat="46.77477" lon="5.81157">
        <ele>614.20001220703</ele>
        <time>2025-06-05T10:15:28.000Z</time>
      </trkpt>
      <trkpt lat="46.77478" lon="5.81155">
        <ele>615.20001220703</ele>
        <time>2025-06-05T10:15:35.000Z</time>
      </trkpt>
      <trkpt lat="46.77479" lon="5.81152">
        <ele>616.40002441406</ele>
        <time>2025-06-05T10:15:40.000Z</time>
      </trkpt>
      <trkpt lat="46.7748" lon="5.8115">
        <ele>617.59997558594</ele>
        <time>2025-06-05T10:15:48.000Z</time>
      </trkpt>
      <trkpt lat="46.77482" lon="5.81148">
        <ele>619</ele>
        <time>2025-06-05T10:15:56.000Z</time>
      </trkpt>
      <trkpt lat="46.77483" lon="5.81146">
        <ele>620</ele>
        <time>2025-06-05T10:16:03.000Z</time>
      </trkpt>
      <trkpt lat="46.77486" lon="5.81143">
        <ele>620.59997558594</ele>
        <time>2025-06-05T10:16:06.000Z</time>
      </trkpt>
      <trkpt lat="46.77491" lon="5.81138">
        <ele>621</ele>
        <time>2025-06-05T10:16:09.000Z</time>
      </trkpt>
      <trkpt lat="46.77496" lon="5.81132">
        <ele>621.59997558594</ele>
        <time>2025-06-05T10:16:15.000Z</time>
      </trkpt>
      <trkpt lat="46.77496" lon="5.81132">
        <ele>622</ele>
        <time>2025-06-05T10:16:18.000Z</time>
      </trkpt>
      <trkpt lat="46.775" lon="5.8113">
        <ele>622.20001220703</ele>
        <time>2025-06-05T10:16:21.000Z</time>
      </trkpt>
      <trkpt lat="46.77504" lon="5.81129">
        <ele>622.40002441406</ele>
        <time>2025-06-05T10:16:22.000Z</time>
      </trkpt>
      <trkpt lat="46.77515" lon="5.81123">
        <ele>623</ele>
        <time>2025-06-05T10:16:28.000Z</time>
      </trkpt>
      <trkpt lat="46.77518" lon="5.81122">
        <ele>623.20001220703</ele>
        <time>2025-06-05T10:16:30.000Z</time>
      </trkpt>
      <trkpt lat="46.77526" lon="5.81116">
        <ele>623.79998779297</ele>
        <time>2025-06-05T10:16:33.000Z</time>
      </trkpt>
      <trkpt lat="46.77532" lon="5.81111">
        <ele>624.20001220703</ele>
        <time>2025-06-05T10:16:35.000Z</time>
      </trkpt>
      <trkpt lat="46.77533" lon="5.81109">
        <ele>624.40002441406</ele>
        <time>2025-06-05T10:16:36.000Z</time>
      </trkpt>
      <trkpt lat="46.77535" lon="5.81107">
        <ele>625</ele>
        <time>2025-06-05T10:16:38.000Z</time>
      </trkpt>
      <trkpt lat="46.77538" lon="5.81107">
        <ele>625.40002441406</ele>
        <time>2025-06-05T10:16:40.000Z</time>
      </trkpt>
      <trkpt lat="46.77539" lon="5.81107">
        <ele>625.59997558594</ele>
        <time>2025-06-05T10:16:41.000Z</time>
      </trkpt>
      <trkpt lat="46.77546" lon="5.81116">
        <ele>626.40002441406</ele>
        <time>2025-06-05T10:16:45.000Z</time>
      </trkpt>
      <trkpt lat="46.77547" lon="5.8112">
        <ele>626.59997558594</ele>
        <time>2025-06-05T10:16:47.000Z</time>
      </trkpt>
      <trkpt lat="46.77546" lon="5.81123">
        <ele>626.79998779297</ele>
        <time>2025-06-05T10:16:50.000Z</time>
      </trkpt>
      <trkpt lat="46.77559" lon="5.81135">
        <ele>626.79998779297</ele>
        <time>2025-06-05T10:16:58.000Z</time>
      </trkpt>
      <trkpt lat="46.77575" lon="5.81145">
        <ele>626.20001220703</ele>
        <time>2025-06-05T10:17:05.000Z</time>
      </trkpt>
      <trkpt lat="46.77589" lon="5.81149">
        <ele>626</ele>
        <time>2025-06-05T10:17:11.000Z</time>
      </trkpt>
      <trkpt lat="46.77599" lon="5.81151">
        <ele>625.79998779297</ele>
        <time>2025-06-05T10:17:14.000Z</time>
      </trkpt>
      <trkpt lat="46.77607" lon="5.81149">
        <ele>625.79998779297</ele>
        <time>2025-06-05T10:17:16.000Z</time>
      </trkpt>
      <trkpt lat="46.77611" lon="5.81149">
        <ele>625.59997558594</ele>
        <time>2025-06-05T10:17:17.000Z</time>
      </trkpt>
      <trkpt lat="46.77626" lon="5.81151">
        <ele>625.20001220703</ele>
        <time>2025-06-05T10:17:21.000Z</time>
      </trkpt>
      <trkpt lat="46.7764" lon="5.81153">
        <ele>625.59997558594</ele>
        <time>2025-06-05T10:17:26.000Z</time>
      </trkpt>
      <trkpt lat="46.77644" lon="5.81153">
        <ele>625.59997558594</ele>
        <time>2025-06-05T10:17:28.000Z</time>
      </trkpt>
      <trkpt lat="46.77647" lon="5.81151">
        <ele>626</ele>
        <time>2025-06-05T10:17:30.000Z</time>
      </trkpt>
      <trkpt lat="46.77648" lon="5.81146">
        <ele>626.20001220703</ele>
        <time>2025-06-05T10:17:34.000Z</time>
      </trkpt>
      <trkpt lat="46.77649" lon="5.81139">
        <ele>626.20001220703</ele>
        <time>2025-06-05T10:17:36.000Z</time>
      </trkpt>
      <trkpt lat="46.7765" lon="5.81134">
        <ele>626.20001220703</ele>
        <time>2025-06-05T10:17:37.000Z</time>
      </trkpt>
      <trkpt lat="46.77652" lon="5.8112">
        <ele>626</ele>
        <time>2025-06-05T10:17:41.000Z</time>
      </trkpt>
      <trkpt lat="46.77654" lon="5.81093">
        <ele>626.59997558594</ele>
        <time>2025-06-05T10:17:49.000Z</time>
      </trkpt>
      <trkpt lat="46.77654" lon="5.81091">
        <ele>626.79998779297</ele>
        <time>2025-06-05T10:17:50.000Z</time>
      </trkpt>
      <trkpt lat="46.77656" lon="5.81086">
        <ele>627.20001220703</ele>
        <time>2025-06-05T10:17:54.000Z</time>
      </trkpt>
      <trkpt lat="46.77658" lon="5.81084">
        <ele>627.79998779297</ele>
        <time>2025-06-05T10:17:57.000Z</time>
      </trkpt>
      <trkpt lat="46.7766" lon="5.81078">
        <ele>628.79998779297</ele>
        <time>2025-06-05T10:18:01.000Z</time>
      </trkpt>
      <trkpt lat="46.7766" lon="5.81078">
        <ele>628.79998779297</ele>
        <time>2025-06-05T10:18:02.000Z</time>
      </trkpt>
      <trkpt lat="46.7766" lon="5.81078">
        <ele>629.40002441406</ele>
        <time>2025-06-05T10:18:11.000Z</time>
      </trkpt>
      <trkpt lat="46.7766" lon="5.81078">
        <ele>629.40002441406</ele>
        <time>2025-06-05T10:19:21.000Z</time>
      </trkpt>
      <trkpt lat="46.7766" lon="5.81081">
        <ele>629.40002441406</ele>
        <time>2025-06-05T10:20:24.000Z</time>
      </trkpt>
      <trkpt lat="46.7766" lon="5.81086">
        <ele>629.20001220703</ele>
        <time>2025-06-05T10:20:26.000Z</time>
      </trkpt>
      <trkpt lat="46.77659" lon="5.81097">
        <ele>628.40002441406</ele>
        <time>2025-06-05T10:20:31.000Z</time>
      </trkpt>
      <trkpt lat="46.77659" lon="5.81099">
        <ele>627.79998779297</ele>
        <time>2025-06-05T10:20:32.000Z</time>
      </trkpt>
      <trkpt lat="46.77657" lon="5.81111">
        <ele>626.79998779297</ele>
        <time>2025-06-05T10:20:36.000Z</time>
      </trkpt>
      <trkpt lat="46.77656" lon="5.81114">
        <ele>626.79998779297</ele>
        <time>2025-06-05T10:20:37.000Z</time>
      </trkpt>
      <trkpt lat="46.77655" lon="5.81115">
        <ele>626.59997558594</ele>
        <time>2025-06-05T10:20:38.000Z</time>
      </trkpt>
      <trkpt lat="46.7765" lon="5.81122">
        <ele>626.40002441406</ele>
        <time>2025-06-05T10:20:42.000Z</time>
      </trkpt>
      <trkpt lat="46.77646" lon="5.81124">
        <ele>626.40002441406</ele>
        <time>2025-06-05T10:20:44.000Z</time>
      </trkpt>
      <trkpt lat="46.77626" lon="5.81129">
        <ele>626.59997558594</ele>
        <time>2025-06-05T10:20:50.000Z</time>
      </trkpt>
      <trkpt lat="46.77613" lon="5.8113">
        <ele>626.40002441406</ele>
        <time>2025-06-05T10:20:53.000Z</time>
      </trkpt>
      <trkpt lat="46.77604" lon="5.81133">
        <ele>626.40002441406</ele>
        <time>2025-06-05T10:20:55.000Z</time>
      </trkpt>
      <trkpt lat="46.776" lon="5.81133">
        <ele>626.20001220703</ele>
        <time>2025-06-05T10:20:56.000Z</time>
      </trkpt>
      <trkpt lat="46.77593" lon="5.81127">
        <ele>625.79998779297</ele>
        <time>2025-06-05T10:20:58.000Z</time>
      </trkpt>
      <trkpt lat="46.77587" lon="5.81126">
        <ele>625.59997558594</ele>
        <time>2025-06-05T10:21:00.000Z</time>
      </trkpt>
      <trkpt lat="46.77572" lon="5.81127">
        <ele>625.20001220703</ele>
        <time>2025-06-05T10:21:04.000Z</time>
      </trkpt>
      <trkpt lat="46.77569" lon="5.81125">
        <ele>625.40002441406</ele>
        <time>2025-06-05T10:21:05.000Z</time>
      </trkpt>
      <trkpt lat="46.77563" lon="5.81122">
        <ele>625.79998779297</ele>
        <time>2025-06-05T10:21:07.000Z</time>
      </trkpt>
      <trkpt lat="46.77548" lon="5.81108">
        <ele>626.20001220703</ele>
        <time>2025-06-05T10:21:12.000Z</time>
      </trkpt>
      <trkpt lat="46.77537" lon="5.81092">
        <ele>626.79998779297</ele>
        <time>2025-06-05T10:21:17.000Z</time>
      </trkpt>
      <trkpt lat="46.77535" lon="5.81089">
        <ele>627.20001220703</ele>
        <time>2025-06-05T10:21:18.000Z</time>
      </trkpt>
      <trkpt lat="46.77528" lon="5.81076">
        <ele>627.59997558594</ele>
        <time>2025-06-05T10:21:21.000Z</time>
      </trkpt>
      <trkpt lat="46.77525" lon="5.81073">
        <ele>628</ele>
        <time>2025-06-05T10:21:22.000Z</time>
      </trkpt>
      <trkpt lat="46.7752" lon="5.81066">
        <ele>628.40002441406</ele>
        <time>2025-06-05T10:21:24.000Z</time>
      </trkpt>
      <trkpt lat="46.77506" lon="5.81047">
        <ele>629.40002441406</ele>
        <time>2025-06-05T10:21:29.000Z</time>
      </trkpt>
      <trkpt lat="46.77502" lon="5.81044">
        <ele>629.79998779297</ele>
        <time>2025-06-05T10:21:30.000Z</time>
      </trkpt>
      <trkpt lat="46.77498" lon="5.81041">
        <ele>630</ele>
        <time>2025-06-05T10:21:31.000Z</time>
      </trkpt>
      <trkpt lat="46.77494" lon="5.81036">
        <ele>630.79998779297</ele>
        <time>2025-06-05T10:21:33.000Z</time>
      </trkpt>
      <trkpt lat="46.7749" lon="5.81032">
        <ele>631.20001220703</ele>
        <time>2025-06-05T10:21:34.000Z</time>
      </trkpt>
      <trkpt lat="46.77481" lon="5.81014">
        <ele>632.20001220703</ele>
        <time>2025-06-05T10:21:38.000Z</time>
      </trkpt>
      <trkpt lat="46.7747" lon="5.80998">
        <ele>633.20001220703</ele>
        <time>2025-06-05T10:21:41.000Z</time>
      </trkpt>
      <trkpt lat="46.77466" lon="5.80994">
        <ele>633.20001220703</ele>
        <time>2025-06-05T10:21:42.000Z</time>
      </trkpt>
      <trkpt lat="46.77444" lon="5.80971">
        <ele>633.40002441406</ele>
        <time>2025-06-05T10:21:48.000Z</time>
      </trkpt>
      <trkpt lat="46.77427" lon="5.80953">
        <ele>633.79998779297</ele>
        <time>2025-06-05T10:21:54.000Z</time>
      </trkpt>
      <trkpt lat="46.77422" lon="5.80946">
        <ele>635</ele>
        <time>2025-06-05T10:21:56.000Z</time>
      </trkpt>
      <trkpt lat="46.77415" lon="5.80939">
        <ele>635.79998779297</ele>
        <time>2025-06-05T10:21:58.000Z</time>
      </trkpt>
      <trkpt lat="46.77413" lon="5.80936">
        <ele>636.20001220703</ele>
        <time>2025-06-05T10:21:59.000Z</time>
      </trkpt>
      <trkpt lat="46.77403" lon="5.80928">
        <ele>637.20001220703</ele>
        <time>2025-06-05T10:22:02.000Z</time>
      </trkpt>
      <trkpt lat="46.77393" lon="5.8092">
        <ele>637.79998779297</ele>
        <time>2025-06-05T10:22:05.000Z</time>
      </trkpt>
      <trkpt lat="46.77382" lon="5.80909">
        <ele>638.20001220703</ele>
        <time>2025-06-05T10:22:08.000Z</time>
      </trkpt>
      <trkpt lat="46.77367" lon="5.809">
        <ele>639.40002441406</ele>
        <time>2025-06-05T10:22:12.000Z</time>
      </trkpt>
      <trkpt lat="46.7736" lon="5.80889">
        <ele>640</ele>
        <time>2025-06-05T10:22:14.000Z</time>
      </trkpt>
      <trkpt lat="46.77349" lon="5.80875">
        <ele>640</ele>
        <time>2025-06-05T10:22:17.000Z</time>
      </trkpt>
      <trkpt lat="46.77337" lon="5.80853">
        <ele>640</ele>
        <time>2025-06-05T10:22:21.000Z</time>
      </trkpt>
      <trkpt lat="46.77334" lon="5.80847">
        <ele>640</ele>
        <time>2025-06-05T10:22:22.000Z</time>
      </trkpt>
      <trkpt lat="46.77327" lon="5.80835">
        <ele>639.59997558594</ele>
        <time>2025-06-05T10:22:24.000Z</time>
      </trkpt>
      <trkpt lat="46.77316" lon="5.80822">
        <ele>639.20001220703</ele>
        <time>2025-06-05T10:22:27.000Z</time>
      </trkpt>
      <trkpt lat="46.77311" lon="5.80817">
        <ele>639</ele>
        <time>2025-06-05T10:22:28.000Z</time>
      </trkpt>
      <trkpt lat="46.77303" lon="5.80809">
        <ele>638.40002441406</ele>
        <time>2025-06-05T10:22:30.000Z</time>
      </trkpt>
      <trkpt lat="46.77295" lon="5.808">
        <ele>638.20001220703</ele>
        <time>2025-06-05T10:22:32.000Z</time>
      </trkpt>
      <trkpt lat="46.7727" lon="5.80775">
        <ele>637.40002441406</ele>
        <time>2025-06-05T10:22:38.000Z</time>
      </trkpt>
      <trkpt lat="46.77265" lon="5.80769">
        <ele>637</ele>
        <time>2025-06-05T10:22:39.000Z</time>
      </trkpt>
      <trkpt lat="46.77251" lon="5.80754">
        <ele>635.79998779297</ele>
        <time>2025-06-05T10:22:42.000Z</time>
      </trkpt>
      <trkpt lat="46.77239" lon="5.80742">
        <ele>635</ele>
        <time>2025-06-05T10:22:44.000Z</time>
      </trkpt>
      <trkpt lat="46.77232" lon="5.80738">
        <ele>634.79998779297</ele>
        <time>2025-06-05T10:22:45.000Z</time>
      </trkpt>
      <trkpt lat="46.77202" lon="5.80716">
        <ele>633.59997558594</ele>
        <time>2025-06-05T10:22:50.000Z</time>
      </trkpt>
      <trkpt lat="46.77195" lon="5.80711">
        <ele>632.40002441406</ele>
        <time>2025-06-05T10:22:51.000Z</time>
      </trkpt>
      <trkpt lat="46.77169" lon="5.80696">
        <ele>631.20001220703</ele>
        <time>2025-06-05T10:22:55.000Z</time>
      </trkpt>
      <trkpt lat="46.77163" lon="5.80693">
        <ele>631</ele>
        <time>2025-06-05T10:22:56.000Z</time>
      </trkpt>
      <trkpt lat="46.77142" lon="5.80677">
        <ele>630</ele>
        <time>2025-06-05T10:23:00.000Z</time>
      </trkpt>
      <trkpt lat="46.77131" lon="5.80668">
        <ele>630</ele>
        <time>2025-06-05T10:23:02.000Z</time>
      </trkpt>
      <trkpt lat="46.77123" lon="5.80661">
        <ele>630</ele>
        <time>2025-06-05T10:23:04.000Z</time>
      </trkpt>
      <trkpt lat="46.77107" lon="5.80647">
        <ele>629.59997558594</ele>
        <time>2025-06-05T10:23:07.000Z</time>
      </trkpt>
      <trkpt lat="46.771" lon="5.80639">
        <ele>629.40002441406</ele>
        <time>2025-06-05T10:23:09.000Z</time>
      </trkpt>
      <trkpt lat="46.77091" lon="5.80626">
        <ele>629.59997558594</ele>
        <time>2025-06-05T10:23:12.000Z</time>
      </trkpt>
      <trkpt lat="46.77089" lon="5.80621">
        <ele>629.40002441406</ele>
        <time>2025-06-05T10:23:13.000Z</time>
      </trkpt>
      <trkpt lat="46.77085" lon="5.80612">
        <ele>629</ele>
        <time>2025-06-05T10:23:15.000Z</time>
      </trkpt>
      <trkpt lat="46.77083" lon="5.80608">
        <ele>628.79998779297</ele>
        <time>2025-06-05T10:23:16.000Z</time>
      </trkpt>
      <trkpt lat="46.77082" lon="5.80605">
        <ele>628.79998779297</ele>
        <time>2025-06-05T10:23:17.000Z</time>
      </trkpt>
      <trkpt lat="46.7708" lon="5.80602">
        <ele>628.79998779297</ele>
        <time>2025-06-05T10:23:18.000Z</time>
      </trkpt>
      <trkpt lat="46.77068" lon="5.80584">
        <ele>628.79998779297</ele>
        <time>2025-06-05T10:23:22.000Z</time>
      </trkpt>
      <trkpt lat="46.77062" lon="5.80566">
        <ele>629</ele>
        <time>2025-06-05T10:23:27.000Z</time>
      </trkpt>
      <trkpt lat="46.7706" lon="5.80562">
        <ele>629</ele>
        <time>2025-06-05T10:23:29.000Z</time>
      </trkpt>
      <trkpt lat="46.77058" lon="5.80562">
        <ele>629</ele>
        <time>2025-06-05T10:23:31.000Z</time>
      </trkpt>
      <trkpt lat="46.77058" lon="5.80563">
        <ele>628.79998779297</ele>
        <time>2025-06-05T10:23:32.000Z</time>
      </trkpt>
      <trkpt lat="46.77059" lon="5.80565">
        <ele>628.79998779297</ele>
        <time>2025-06-05T10:23:34.000Z</time>
      </trkpt>
      <trkpt lat="46.7706" lon="5.80566">
        <ele>628.79998779297</ele>
        <time>2025-06-05T10:23:35.000Z</time>
      </trkpt>
      <trkpt lat="46.77061" lon="5.8057">
        <ele>628.79998779297</ele>
        <time>2025-06-05T10:23:37.000Z</time>
      </trkpt>
      <trkpt lat="46.77058" lon="5.80574">
        <ele>628.59997558594</ele>
        <time>2025-06-05T10:23:40.000Z</time>
      </trkpt>
      <trkpt lat="46.77048" lon="5.80581">
        <ele>628.79998779297</ele>
        <time>2025-06-05T10:23:47.000Z</time>
      </trkpt>
      <trkpt lat="46.77036" lon="5.80582">
        <ele>628.79998779297</ele>
        <time>2025-06-05T10:23:50.000Z</time>
      </trkpt>
      <trkpt lat="46.7703" lon="5.80586">
        <ele>628.79998779297</ele>
        <time>2025-06-05T10:23:52.000Z</time>
      </trkpt>
      <trkpt lat="46.77017" lon="5.80591">
        <ele>628.79998779297</ele>
        <time>2025-06-05T10:23:55.000Z</time>
      </trkpt>
      <trkpt lat="46.77001" lon="5.80593">
        <ele>629.20001220703</ele>
        <time>2025-06-05T10:23:58.000Z</time>
      </trkpt>
      <trkpt lat="46.76998" lon="5.80593">
        <ele>629.20001220703</ele>
        <time>2025-06-05T10:23:59.000Z</time>
      </trkpt>
      <trkpt lat="46.76985" lon="5.8059">
        <ele>629.40002441406</ele>
        <time>2025-06-05T10:24:02.000Z</time>
      </trkpt>
      <trkpt lat="46.76981" lon="5.80588">
        <ele>629.20001220703</ele>
        <time>2025-06-05T10:24:03.000Z</time>
      </trkpt>
      <trkpt lat="46.76976" lon="5.80584">
        <ele>629</ele>
        <time>2025-06-05T10:24:04.000Z</time>
      </trkpt>
      <trkpt lat="46.76958" lon="5.80567">
        <ele>629.40002441406</ele>
        <time>2025-06-05T10:24:09.000Z</time>
      </trkpt>
      <trkpt lat="46.76952" lon="5.80563">
        <ele>629.59997558594</ele>
        <time>2025-06-05T10:24:13.000Z</time>
      </trkpt>
      <trkpt lat="46.76952" lon="5.80563">
        <ele>630</ele>
        <time>2025-06-05T10:24:28.000Z</time>
      </trkpt>
      <trkpt lat="46.76951" lon="5.80561">
        <ele>630</ele>
        <time>2025-06-05T10:24:35.000Z</time>
      </trkpt>
      <trkpt lat="46.7694" lon="5.80557">
        <ele>629.79998779297</ele>
        <time>2025-06-05T10:24:38.000Z</time>
      </trkpt>
      <trkpt lat="46.76931" lon="5.80554">
        <ele>629.79998779297</ele>
        <time>2025-06-05T10:24:40.000Z</time>
      </trkpt>
      <trkpt lat="46.7692" lon="5.80544">
        <ele>629.20001220703</ele>
        <time>2025-06-05T10:24:44.000Z</time>
      </trkpt>
      <trkpt lat="46.76896" lon="5.80523">
        <ele>628.40002441406</ele>
        <time>2025-06-05T10:24:50.000Z</time>
      </trkpt>
      <trkpt lat="46.76886" lon="5.80517">
        <ele>628</ele>
        <time>2025-06-05T10:24:52.000Z</time>
      </trkpt>
      <trkpt lat="46.7688" lon="5.80512">
        <ele>627.79998779297</ele>
        <time>2025-06-05T10:24:54.000Z</time>
      </trkpt>
      <trkpt lat="46.76876" lon="5.8051">
        <ele>627.79998779297</ele>
        <time>2025-06-05T10:24:55.000Z</time>
      </trkpt>
      <trkpt lat="46.76873" lon="5.80507">
        <ele>627.59997558594</ele>
        <time>2025-06-05T10:24:56.000Z</time>
      </trkpt>
      <trkpt lat="46.76855" lon="5.80493">
        <ele>626.79998779297</ele>
        <time>2025-06-05T10:25:00.000Z</time>
      </trkpt>
      <trkpt lat="46.76837" lon="5.80482">
        <ele>625.79998779297</ele>
        <time>2025-06-05T10:25:04.000Z</time>
      </trkpt>
      <trkpt lat="46.76829" lon="5.80475">
        <ele>624.59997558594</ele>
        <time>2025-06-05T10:25:07.000Z</time>
      </trkpt>
      <trkpt lat="46.76827" lon="5.80473">
        <ele>624.40002441406</ele>
        <time>2025-06-05T10:25:08.000Z</time>
      </trkpt>
      <trkpt lat="46.76816" lon="5.80466">
        <ele>623.40002441406</ele>
        <time>2025-06-05T10:25:11.000Z</time>
      </trkpt>
      <trkpt lat="46.76812" lon="5.80462">
        <ele>623</ele>
        <time>2025-06-05T10:25:13.000Z</time>
      </trkpt>
      <trkpt lat="46.76809" lon="5.8046">
        <ele>622.40002441406</ele>
        <time>2025-06-05T10:25:17.000Z</time>
      </trkpt>
      <trkpt lat="46.76809" lon="5.8046">
        <ele>622.20001220703</ele>
        <time>2025-06-05T10:25:18.000Z</time>
      </trkpt>
      <trkpt lat="46.76812" lon="5.80461">
        <ele>621.59997558594</ele>
        <time>2025-06-05T10:25:25.000Z</time>
      </trkpt>
      <trkpt lat="46.76815" lon="5.80459">
        <ele>621.59997558594</ele>
        <time>2025-06-05T10:25:28.000Z</time>
      </trkpt>
      <trkpt lat="46.76815" lon="5.80459">
        <ele>621.59997558594</ele>
        <time>2025-06-05T10:25:30.000Z</time>
      </trkpt>
      <trkpt lat="46.76815" lon="5.80457">
        <ele>622.20001220703</ele>
        <time>2025-06-05T10:26:06.000Z</time>
      </trkpt>
      <trkpt lat="46.76815" lon="5.80456">
        <ele>622.20001220703</ele>
        <time>2025-06-05T10:26:08.000Z</time>
      </trkpt>
      <trkpt lat="46.76816" lon="5.80454">
        <ele>622.59997558594</ele>
        <time>2025-06-05T10:26:14.000Z</time>
      </trkpt>
      <trkpt lat="46.76815" lon="5.80446">
        <ele>623.20001220703</ele>
        <time>2025-06-05T10:26:17.000Z</time>
      </trkpt>
      <trkpt lat="46.76813" lon="5.80441">
        <ele>623.40002441406</ele>
        <time>2025-06-05T10:26:19.000Z</time>
      </trkpt>
      <trkpt lat="46.76812" lon="5.80439">
        <ele>623.40002441406</ele>
        <time>2025-06-05T10:26:20.000Z</time>
      </trkpt>
      <trkpt lat="46.7681" lon="5.80431">
        <ele>623.79998779297</ele>
        <time>2025-06-05T10:26:22.000Z</time>
      </trkpt>
      <trkpt lat="46.76809" lon="5.80423">
        <ele>624.40002441406</ele>
        <time>2025-06-05T10:26:24.000Z</time>
      </trkpt>
      <trkpt lat="46.76808" lon="5.80419">
        <ele>624.59997558594</ele>
        <time>2025-06-05T10:26:25.000Z</time>
      </trkpt>
      <trkpt lat="46.76803" lon="5.80413">
        <ele>625.40002441406</ele>
        <time>2025-06-05T10:26:27.000Z</time>
      </trkpt>
      <trkpt lat="46.76802" lon="5.8041">
        <ele>626</ele>
        <time>2025-06-05T10:26:28.000Z</time>
      </trkpt>
      <trkpt lat="46.76803" lon="5.80408">
        <ele>626.79998779297</ele>
        <time>2025-06-05T10:26:33.000Z</time>
      </trkpt>
      <trkpt lat="46.76803" lon="5.80406">
        <ele>626.79998779297</ele>
        <time>2025-06-05T10:26:34.000Z</time>
      </trkpt>
      <trkpt lat="46.76802" lon="5.80392">
        <ele>627.40002441406</ele>
        <time>2025-06-05T10:26:40.000Z</time>
      </trkpt>
      <trkpt lat="46.76802" lon="5.8039">
        <ele>627.79998779297</ele>
        <time>2025-06-05T10:26:42.000Z</time>
      </trkpt>
      <trkpt lat="46.76802" lon="5.80383">
        <ele>628.79998779297</ele>
        <time>2025-06-05T10:26:47.000Z</time>
      </trkpt>
      <trkpt lat="46.76801" lon="5.80381">
        <ele>629</ele>
        <time>2025-06-05T10:26:48.000Z</time>
      </trkpt>
      <trkpt lat="46.768" lon="5.80372">
        <ele>630</ele>
        <time>2025-06-05T10:26:54.000Z</time>
      </trkpt>
      <trkpt lat="46.76799" lon="5.8037">
        <ele>630</ele>
        <time>2025-06-05T10:26:55.000Z</time>
      </trkpt>
      <trkpt lat="46.76797" lon="5.80362">
        <ele>630.40002441406</ele>
        <time>2025-06-05T10:27:00.000Z</time>
      </trkpt>
      <trkpt lat="46.76796" lon="5.8036">
        <ele>630.79998779297</ele>
        <time>2025-06-05T10:27:02.000Z</time>
      </trkpt>
      <trkpt lat="46.76795" lon="5.80358">
        <ele>631.20001220703</ele>
        <time>2025-06-05T10:27:05.000Z</time>
      </trkpt>
      <trkpt lat="46.76793" lon="5.80357">
        <ele>631.40002441406</ele>
        <time>2025-06-05T10:27:07.000Z</time>
      </trkpt>
      <trkpt lat="46.76792" lon="5.80355">
        <ele>631.40002441406</ele>
        <time>2025-06-05T10:27:08.000Z</time>
      </trkpt>
      <trkpt lat="46.7679" lon="5.80353">
        <ele>631.40002441406</ele>
        <time>2025-06-05T10:27:09.000Z</time>
      </trkpt>
      <trkpt lat="46.76787" lon="5.8035">
        <ele>631.40002441406</ele>
        <time>2025-06-05T10:27:11.000Z</time>
      </trkpt>
      <trkpt lat="46.76787" lon="5.80347">
        <ele>631.40002441406</ele>
        <time>2025-06-05T10:27:12.000Z</time>
      </trkpt>
      <trkpt lat="46.76785" lon="5.80341">
        <ele>631.40002441406</ele>
        <time>2025-06-05T10:27:14.000Z</time>
      </trkpt>
      <trkpt lat="46.7678" lon="5.80334">
        <ele>631.40002441406</ele>
        <time>2025-06-05T10:27:17.000Z</time>
      </trkpt>
      <trkpt lat="46.76777" lon="5.80328">
        <ele>631.40002441406</ele>
        <time>2025-06-05T10:27:19.000Z</time>
      </trkpt>
      <trkpt lat="46.76774" lon="5.80317">
        <ele>631.20001220703</ele>
        <time>2025-06-05T10:27:22.000Z</time>
      </trkpt>
      <trkpt lat="46.76774" lon="5.80314">
        <ele>631.20001220703</ele>
        <time>2025-06-05T10:27:23.000Z</time>
      </trkpt>
      <trkpt lat="46.76777" lon="5.80307">
        <ele>631.20001220703</ele>
        <time>2025-06-05T10:27:25.000Z</time>
      </trkpt>
      <trkpt lat="46.76783" lon="5.80288">
        <ele>630.79998779297</ele>
        <time>2025-06-05T10:27:30.000Z</time>
      </trkpt>
      <trkpt lat="46.76789" lon="5.80274">
        <ele>630</ele>
        <time>2025-06-05T10:27:33.000Z</time>
      </trkpt>
      <trkpt lat="46.7679" lon="5.80264">
        <ele>629.59997558594</ele>
        <time>2025-06-05T10:27:35.000Z</time>
      </trkpt>
      <trkpt lat="46.76792" lon="5.80258">
        <ele>629.40002441406</ele>
        <time>2025-06-05T10:27:36.000Z</time>
      </trkpt>
      <trkpt lat="46.76795" lon="5.80252">
        <ele>629.40002441406</ele>
        <time>2025-06-05T10:27:37.000Z</time>
      </trkpt>
      <trkpt lat="46.76797" lon="5.80245">
        <ele>629</ele>
        <time>2025-06-05T10:27:38.000Z</time>
      </trkpt>
      <trkpt lat="46.76803" lon="5.80239">
        <ele>629</ele>
        <time>2025-06-05T10:27:39.000Z</time>
      </trkpt>
      <trkpt lat="46.76806" lon="5.80229">
        <ele>628.59997558594</ele>
        <time>2025-06-05T10:27:41.000Z</time>
      </trkpt>
      <trkpt lat="46.76806" lon="5.80215">
        <ele>628.20001220703</ele>
        <time>2025-06-05T10:27:43.000Z</time>
      </trkpt>
      <trkpt lat="46.76804" lon="5.80199">
        <ele>627.79998779297</ele>
        <time>2025-06-05T10:27:45.000Z</time>
      </trkpt>
      <trkpt lat="46.76803" lon="5.80189">
        <ele>627.59997558594</ele>
        <time>2025-06-05T10:27:47.000Z</time>
      </trkpt>
      <trkpt lat="46.76796" lon="5.8018">
        <ele>627.59997558594</ele>
        <time>2025-06-05T10:27:49.000Z</time>
      </trkpt>
      <trkpt lat="46.7679" lon="5.80172">
        <ele>627.40002441406</ele>
        <time>2025-06-05T10:27:51.000Z</time>
      </trkpt>
      <trkpt lat="46.76779" lon="5.80162">
        <ele>626.79998779297</ele>
        <time>2025-06-05T10:27:54.000Z</time>
      </trkpt>
      <trkpt lat="46.76771" lon="5.80147">
        <ele>626.20001220703</ele>
        <time>2025-06-05T10:27:57.000Z</time>
      </trkpt>
      <trkpt lat="46.7676" lon="5.80131">
        <ele>625.79998779297</ele>
        <time>2025-06-05T10:27:59.000Z</time>
      </trkpt>
      <trkpt lat="46.76752" lon="5.80115">
        <ele>625.59997558594</ele>
        <time>2025-06-05T10:28:01.000Z</time>
      </trkpt>
      <trkpt lat="46.76751" lon="5.8011">
        <ele>625.59997558594</ele>
        <time>2025-06-05T10:28:02.000Z</time>
      </trkpt>
      <trkpt lat="46.7675" lon="5.80106">
        <ele>625.40002441406</ele>
        <time>2025-06-05T10:28:03.000Z</time>
      </trkpt>
      <trkpt lat="46.76745" lon="5.80103">
        <ele>625.40002441406</ele>
        <time>2025-06-05T10:28:04.000Z</time>
      </trkpt>
      <trkpt lat="46.76737" lon="5.80094">
        <ele>625</ele>
        <time>2025-06-05T10:28:06.000Z</time>
      </trkpt>
      <trkpt lat="46.76732" lon="5.80087">
        <ele>624.59997558594</ele>
        <time>2025-06-05T10:28:07.000Z</time>
      </trkpt>
      <trkpt lat="46.76722" lon="5.80071">
        <ele>624.40002441406</ele>
        <time>2025-06-05T10:28:09.000Z</time>
      </trkpt>
      <trkpt lat="46.76714" lon="5.80064">
        <ele>624.20001220703</ele>
        <time>2025-06-05T10:28:11.000Z</time>
      </trkpt>
      <trkpt lat="46.76697" lon="5.80051">
        <ele>623.59997558594</ele>
        <time>2025-06-05T10:28:16.000Z</time>
      </trkpt>
      <trkpt lat="46.76694" lon="5.80049">
        <ele>623.59997558594</ele>
        <time>2025-06-05T10:28:17.000Z</time>
      </trkpt>
      <trkpt lat="46.76688" lon="5.80045">
        <ele>623.40002441406</ele>
        <time>2025-06-05T10:28:18.000Z</time>
      </trkpt>
      <trkpt lat="46.76684" lon="5.80039">
        <ele>623.40002441406</ele>
        <time>2025-06-05T10:28:20.000Z</time>
      </trkpt>
      <trkpt lat="46.76682" lon="5.80037">
        <ele>623.59997558594</ele>
        <time>2025-06-05T10:28:21.000Z</time>
      </trkpt>
      <trkpt lat="46.76663" lon="5.80027">
        <ele>623.59997558594</ele>
        <time>2025-06-05T10:28:24.000Z</time>
      </trkpt>
      <trkpt lat="46.76655" lon="5.8002">
        <ele>623.40002441406</ele>
        <time>2025-06-05T10:28:26.000Z</time>
      </trkpt>
      <trkpt lat="46.76651" lon="5.80016">
        <ele>623.40002441406</ele>
        <time>2025-06-05T10:28:27.000Z</time>
      </trkpt>
      <trkpt lat="46.76641" lon="5.80011">
        <ele>623.59997558594</ele>
        <time>2025-06-05T10:28:29.000Z</time>
      </trkpt>
      <trkpt lat="46.76629" lon="5.80004">
        <ele>623.59997558594</ele>
        <time>2025-06-05T10:28:31.000Z</time>
      </trkpt>
      <trkpt lat="46.76619" lon="5.79996">
        <ele>624</ele>
        <time>2025-06-05T10:28:33.000Z</time>
      </trkpt>
      <trkpt lat="46.76616" lon="5.79988">
        <ele>624</ele>
        <time>2025-06-05T10:28:35.000Z</time>
      </trkpt>
      <trkpt lat="46.76612" lon="5.79986">
        <ele>624</ele>
        <time>2025-06-05T10:28:36.000Z</time>
      </trkpt>
      <trkpt lat="46.76597" lon="5.79967">
        <ele>624</ele>
        <time>2025-06-05T10:28:39.000Z</time>
      </trkpt>
      <trkpt lat="46.76585" lon="5.79948">
        <ele>623.59997558594</ele>
        <time>2025-06-05T10:28:42.000Z</time>
      </trkpt>
      <trkpt lat="46.76582" lon="5.79941">
        <ele>623.59997558594</ele>
        <time>2025-06-05T10:28:43.000Z</time>
      </trkpt>
      <trkpt lat="46.76579" lon="5.79936">
        <ele>623.40002441406</ele>
        <time>2025-06-05T10:28:44.000Z</time>
      </trkpt>
      <trkpt lat="46.76566" lon="5.79926">
        <ele>623.20001220703</ele>
        <time>2025-06-05T10:28:47.000Z</time>
      </trkpt>
      <trkpt lat="46.76559" lon="5.79921">
        <ele>623</ele>
        <time>2025-06-05T10:28:49.000Z</time>
      </trkpt>
      <trkpt lat="46.76549" lon="5.79912">
        <ele>623</ele>
        <time>2025-06-05T10:28:51.000Z</time>
      </trkpt>
      <trkpt lat="46.76536" lon="5.79901">
        <ele>623.40002441406</ele>
        <time>2025-06-05T10:28:53.000Z</time>
      </trkpt>
      <trkpt lat="46.76526" lon="5.79892">
        <ele>624</ele>
        <time>2025-06-05T10:28:55.000Z</time>
      </trkpt>
      <trkpt lat="46.76519" lon="5.79887">
        <ele>624.20001220703</ele>
        <time>2025-06-05T10:28:56.000Z</time>
      </trkpt>
      <trkpt lat="46.76515" lon="5.79882">
        <ele>624.59997558594</ele>
        <time>2025-06-05T10:28:57.000Z</time>
      </trkpt>
      <trkpt lat="46.76511" lon="5.79875">
        <ele>624.79998779297</ele>
        <time>2025-06-05T10:28:59.000Z</time>
      </trkpt>
      <trkpt lat="46.76491" lon="5.7986">
        <ele>625.40002441406</ele>
        <time>2025-06-05T10:29:02.000Z</time>
      </trkpt>
      <trkpt lat="46.76488" lon="5.79857">
        <ele>625.59997558594</ele>
        <time>2025-06-05T10:29:03.000Z</time>
      </trkpt>
      <trkpt lat="46.76485" lon="5.79854">
        <ele>625.59997558594</ele>
        <time>2025-06-05T10:29:04.000Z</time>
      </trkpt>
      <trkpt lat="46.76476" lon="5.79842">
        <ele>626.20001220703</ele>
        <time>2025-06-05T10:29:08.000Z</time>
      </trkpt>
      <trkpt lat="46.76469" lon="5.79841">
        <ele>626.20001220703</ele>
        <time>2025-06-05T10:29:09.000Z</time>
      </trkpt>
      <trkpt lat="46.76448" lon="5.79825">
        <ele>626.40002441406</ele>
        <time>2025-06-05T10:29:12.000Z</time>
      </trkpt>
      <trkpt lat="46.76446" lon="5.79822">
        <ele>626.59997558594</ele>
        <time>2025-06-05T10:29:13.000Z</time>
      </trkpt>
      <trkpt lat="46.76445" lon="5.79819">
        <ele>626.59997558594</ele>
        <time>2025-06-05T10:29:14.000Z</time>
      </trkpt>
      <trkpt lat="46.76441" lon="5.79812">
        <ele>627</ele>
        <time>2025-06-05T10:29:16.000Z</time>
      </trkpt>
      <trkpt lat="46.7642" lon="5.79798">
        <ele>627</ele>
        <time>2025-06-05T10:29:19.000Z</time>
      </trkpt>
      <trkpt lat="46.76405" lon="5.79788">
        <ele>627</ele>
        <time>2025-06-05T10:29:22.000Z</time>
      </trkpt>
      <trkpt lat="46.76399" lon="5.79785">
        <ele>627</ele>
        <time>2025-06-05T10:29:23.000Z</time>
      </trkpt>
      <trkpt lat="46.76392" lon="5.79782">
        <ele>627</ele>
        <time>2025-06-05T10:29:24.000Z</time>
      </trkpt>
      <trkpt lat="46.76378" lon="5.79775">
        <ele>626.79998779297</ele>
        <time>2025-06-05T10:29:26.000Z</time>
      </trkpt>
      <trkpt lat="46.7637" lon="5.79772">
        <ele>626.59997558594</ele>
        <time>2025-06-05T10:29:27.000Z</time>
      </trkpt>
      <trkpt lat="46.76364" lon="5.7977">
        <ele>626.40002441406</ele>
        <time>2025-06-05T10:29:28.000Z</time>
      </trkpt>
      <trkpt lat="46.76344" lon="5.79766">
        <ele>625.79998779297</ele>
        <time>2025-06-05T10:29:31.000Z</time>
      </trkpt>
      <trkpt lat="46.76335" lon="5.79767">
        <ele>625.40002441406</ele>
        <time>2025-06-05T10:29:33.000Z</time>
      </trkpt>
      <trkpt lat="46.7633" lon="5.79766">
        <ele>625</ele>
        <time>2025-06-05T10:29:34.000Z</time>
      </trkpt>
      <trkpt lat="46.7632" lon="5.79764">
        <ele>624.59997558594</ele>
        <time>2025-06-05T10:29:36.000Z</time>
      </trkpt>
      <trkpt lat="46.76318" lon="5.79761">
        <ele>624.40002441406</ele>
        <time>2025-06-05T10:29:37.000Z</time>
      </trkpt>
      <trkpt lat="46.76317" lon="5.79757">
        <ele>624</ele>
        <time>2025-06-05T10:29:38.000Z</time>
      </trkpt>
      <trkpt lat="46.76314" lon="5.79753">
        <ele>623.79998779297</ele>
        <time>2025-06-05T10:29:40.000Z</time>
      </trkpt>
      <trkpt lat="46.76303" lon="5.79741">
        <ele>623.79998779297</ele>
        <time>2025-06-05T10:29:42.000Z</time>
      </trkpt>
      <trkpt lat="46.76289" lon="5.79723">
        <ele>623.79998779297</ele>
        <time>2025-06-05T10:29:44.000Z</time>
      </trkpt>
      <trkpt lat="46.76286" lon="5.79718">
        <ele>623.79998779297</ele>
        <time>2025-06-05T10:29:45.000Z</time>
      </trkpt>
      <trkpt lat="46.76279" lon="5.79698">
        <ele>623.79998779297</ele>
        <time>2025-06-05T10:29:48.000Z</time>
      </trkpt>
      <trkpt lat="46.76278" lon="5.79689">
        <ele>623.40002441406</ele>
        <time>2025-06-05T10:29:49.000Z</time>
      </trkpt>
      <trkpt lat="46.76275" lon="5.79682">
        <ele>623.20001220703</ele>
        <time>2025-06-05T10:29:50.000Z</time>
      </trkpt>
      <trkpt lat="46.76265" lon="5.79661">
        <ele>623</ele>
        <time>2025-06-05T10:29:53.000Z</time>
      </trkpt>
      <trkpt lat="46.76257" lon="5.79652">
        <ele>622.79998779297</ele>
        <time>2025-06-05T10:29:55.000Z</time>
      </trkpt>
      <trkpt lat="46.76244" lon="5.79639">
        <ele>622.40002441406</ele>
        <time>2025-06-05T10:29:57.000Z</time>
      </trkpt>
      <trkpt lat="46.76237" lon="5.79635">
        <ele>622.20001220703</ele>
        <time>2025-06-05T10:29:58.000Z</time>
      </trkpt>
      <trkpt lat="46.76222" lon="5.79624">
        <ele>622</ele>
        <time>2025-06-05T10:30:01.000Z</time>
      </trkpt>
      <trkpt lat="46.76204" lon="5.79617">
        <ele>621.79998779297</ele>
        <time>2025-06-05T10:30:05.000Z</time>
      </trkpt>
      <trkpt lat="46.76193" lon="5.79611">
        <ele>621.79998779297</ele>
        <time>2025-06-05T10:30:07.000Z</time>
      </trkpt>
      <trkpt lat="46.76178" lon="5.79598">
        <ele>622</ele>
        <time>2025-06-05T10:30:09.000Z</time>
      </trkpt>
      <trkpt lat="46.76172" lon="5.79586">
        <ele>621.79998779297</ele>
        <time>2025-06-05T10:30:11.000Z</time>
      </trkpt>
      <trkpt lat="46.76168" lon="5.79568">
        <ele>621.59997558594</ele>
        <time>2025-06-05T10:30:13.000Z</time>
      </trkpt>
      <trkpt lat="46.7617" lon="5.79559">
        <ele>622</ele>
        <time>2025-06-05T10:30:14.000Z</time>
      </trkpt>
      <trkpt lat="46.7617" lon="5.79548">
        <ele>622</ele>
        <time>2025-06-05T10:30:15.000Z</time>
      </trkpt>
      <trkpt lat="46.76171" lon="5.7954">
        <ele>622</ele>
        <time>2025-06-05T10:30:16.000Z</time>
      </trkpt>
      <trkpt lat="46.76172" lon="5.79532">
        <ele>622.20001220703</ele>
        <time>2025-06-05T10:30:17.000Z</time>
      </trkpt>
      <trkpt lat="46.76178" lon="5.79525">
        <ele>622.59997558594</ele>
        <time>2025-06-05T10:30:19.000Z</time>
      </trkpt>
      <trkpt lat="46.76181" lon="5.79521">
        <ele>622.59997558594</ele>
        <time>2025-06-05T10:30:20.000Z</time>
      </trkpt>
      <trkpt lat="46.76178" lon="5.79506">
        <ele>623.20001220703</ele>
        <time>2025-06-05T10:30:22.000Z</time>
      </trkpt>
      <trkpt lat="46.76176" lon="5.79502">
        <ele>623.40002441406</ele>
        <time>2025-06-05T10:30:23.000Z</time>
      </trkpt>
      <trkpt lat="46.76175" lon="5.79497">
        <ele>623.59997558594</ele>
        <time>2025-06-05T10:30:24.000Z</time>
      </trkpt>
      <trkpt lat="46.76168" lon="5.79485">
        <ele>624.79998779297</ele>
        <time>2025-06-05T10:30:26.000Z</time>
      </trkpt>
      <trkpt lat="46.76164" lon="5.79482">
        <ele>625</ele>
        <time>2025-06-05T10:30:27.000Z</time>
      </trkpt>
      <trkpt lat="46.76143" lon="5.79467">
        <ele>626</ele>
        <time>2025-06-05T10:30:30.000Z</time>
      </trkpt>
      <trkpt lat="46.76136" lon="5.79465">
        <ele>626.79998779297</ele>
        <time>2025-06-05T10:30:32.000Z</time>
      </trkpt>
      <trkpt lat="46.76133" lon="5.79464">
        <ele>627.20001220703</ele>
        <time>2025-06-05T10:30:33.000Z</time>
      </trkpt>
      <trkpt lat="46.76123" lon="5.79463">
        <ele>627.59997558594</ele>
        <time>2025-06-05T10:30:36.000Z</time>
      </trkpt>
      <trkpt lat="46.76108" lon="5.79461">
        <ele>628.40002441406</ele>
        <time>2025-06-05T10:30:39.000Z</time>
      </trkpt>
      <trkpt lat="46.76097" lon="5.79462">
        <ele>629</ele>
        <time>2025-06-05T10:30:42.000Z</time>
      </trkpt>
      <trkpt lat="46.7609" lon="5.79463">
        <ele>629.40002441406</ele>
        <time>2025-06-05T10:30:44.000Z</time>
      </trkpt>
      <trkpt lat="46.76085" lon="5.79462">
        <ele>629.59997558594</ele>
        <time>2025-06-05T10:30:46.000Z</time>
      </trkpt>
      <trkpt lat="46.76082" lon="5.79461">
        <ele>629.59997558594</ele>
        <time>2025-06-05T10:30:47.000Z</time>
      </trkpt>
      <trkpt lat="46.76079" lon="5.79459">
        <ele>629.59997558594</ele>
        <time>2025-06-05T10:30:48.000Z</time>
      </trkpt>
      <trkpt lat="46.76074" lon="5.79457">
        <ele>629.79998779297</ele>
        <time>2025-06-05T10:30:50.000Z</time>
      </trkpt>
      <trkpt lat="46.76067" lon="5.79452">
        <ele>630</ele>
        <time>2025-06-05T10:30:52.000Z</time>
      </trkpt>
      <trkpt lat="46.76054" lon="5.79447">
        <ele>630.20001220703</ele>
        <time>2025-06-05T10:30:55.000Z</time>
      </trkpt>
      <trkpt lat="46.76049" lon="5.79446">
        <ele>630.40002441406</ele>
        <time>2025-06-05T10:30:56.000Z</time>
      </trkpt>
      <trkpt lat="46.76045" lon="5.79445">
        <ele>630.59997558594</ele>
        <time>2025-06-05T10:30:57.000Z</time>
      </trkpt>
      <trkpt lat="46.76033" lon="5.79445">
        <ele>630.40002441406</ele>
        <time>2025-06-05T10:31:00.000Z</time>
      </trkpt>
      <trkpt lat="46.76013" lon="5.79446">
        <ele>630</ele>
        <time>2025-06-05T10:31:03.000Z</time>
      </trkpt>
      <trkpt lat="46.76001" lon="5.79446">
        <ele>628.79998779297</ele>
        <time>2025-06-05T10:31:05.000Z</time>
      </trkpt>
      <trkpt lat="46.75987" lon="5.79443">
        <ele>628</ele>
        <time>2025-06-05T10:31:07.000Z</time>
      </trkpt>
      <trkpt lat="46.75981" lon="5.79441">
        <ele>627.79998779297</ele>
        <time>2025-06-05T10:31:08.000Z</time>
      </trkpt>
      <trkpt lat="46.75944" lon="5.79427">
        <ele>626.79998779297</ele>
        <time>2025-06-05T10:31:14.000Z</time>
      </trkpt>
      <trkpt lat="46.75933" lon="5.79424">
        <ele>626.40002441406</ele>
        <time>2025-06-05T10:31:16.000Z</time>
      </trkpt>
      <trkpt lat="46.75919" lon="5.7942">
        <ele>625.79998779297</ele>
        <time>2025-06-05T10:31:18.000Z</time>
      </trkpt>
      <trkpt lat="46.75912" lon="5.79418">
        <ele>625.40002441406</ele>
        <time>2025-06-05T10:31:19.000Z</time>
      </trkpt>
      <trkpt lat="46.75906" lon="5.79417">
        <ele>624.79998779297</ele>
        <time>2025-06-05T10:31:20.000Z</time>
      </trkpt>
      <trkpt lat="46.75888" lon="5.79411">
        <ele>623.59997558594</ele>
        <time>2025-06-05T10:31:23.000Z</time>
      </trkpt>
      <trkpt lat="46.75884" lon="5.79409">
        <ele>623</ele>
        <time>2025-06-05T10:31:24.000Z</time>
      </trkpt>
      <trkpt lat="46.75882" lon="5.79407">
        <ele>622.59997558594</ele>
        <time>2025-06-05T10:31:25.000Z</time>
      </trkpt>
      <trkpt lat="46.7588" lon="5.79404">
        <ele>622.40002441406</ele>
        <time>2025-06-05T10:31:26.000Z</time>
      </trkpt>
      <trkpt lat="46.75878" lon="5.794">
        <ele>621.59997558594</ele>
        <time>2025-06-05T10:31:27.000Z</time>
      </trkpt>
      <trkpt lat="46.75876" lon="5.79395">
        <ele>621.20001220703</ele>
        <time>2025-06-05T10:31:28.000Z</time>
      </trkpt>
      <trkpt lat="46.75875" lon="5.7939">
        <ele>620.59997558594</ele>
        <time>2025-06-05T10:31:29.000Z</time>
      </trkpt>
      <trkpt lat="46.75874" lon="5.7938">
        <ele>620</ele>
        <time>2025-06-05T10:31:31.000Z</time>
      </trkpt>
      <trkpt lat="46.75874" lon="5.79376">
        <ele>620</ele>
        <time>2025-06-05T10:31:32.000Z</time>
      </trkpt>
      <trkpt lat="46.7587" lon="5.79369">
        <ele>619.40002441406</ele>
        <time>2025-06-05T10:31:34.000Z</time>
      </trkpt>
      <trkpt lat="46.75867" lon="5.79366">
        <ele>619.40002441406</ele>
        <time>2025-06-05T10:31:35.000Z</time>
      </trkpt>
      <trkpt lat="46.75862" lon="5.79362">
        <ele>619.40002441406</ele>
        <time>2025-06-05T10:31:36.000Z</time>
      </trkpt>
      <trkpt lat="46.75848" lon="5.79346">
        <ele>619.20001220703</ele>
        <time>2025-06-05T10:31:40.000Z</time>
      </trkpt>
      <trkpt lat="46.75841" lon="5.79338">
        <ele>619.20001220703</ele>
        <time>2025-06-05T10:31:42.000Z</time>
      </trkpt>
      <trkpt lat="46.75836" lon="5.79328">
        <ele>619.40002441406</ele>
        <time>2025-06-05T10:31:44.000Z</time>
      </trkpt>
      <trkpt lat="46.7583" lon="5.79315">
        <ele>619.79998779297</ele>
        <time>2025-06-05T10:31:46.000Z</time>
      </trkpt>
      <trkpt lat="46.75826" lon="5.79305">
        <ele>620.40002441406</ele>
        <time>2025-06-05T10:31:48.000Z</time>
      </trkpt>
      <trkpt lat="46.75821" lon="5.79293">
        <ele>620.79998779297</ele>
        <time>2025-06-05T10:31:50.000Z</time>
      </trkpt>
      <trkpt lat="46.75819" lon="5.79283">
        <ele>621</ele>
        <time>2025-06-05T10:31:52.000Z</time>
      </trkpt>
      <trkpt lat="46.75813" lon="5.79269">
        <ele>621</ele>
        <time>2025-06-05T10:31:54.000Z</time>
      </trkpt>
      <trkpt lat="46.75811" lon="5.79263">
        <ele>621</ele>
        <time>2025-06-05T10:31:55.000Z</time>
      </trkpt>
      <trkpt lat="46.75809" lon="5.79255">
        <ele>620.79998779297</ele>
        <time>2025-06-05T10:31:56.000Z</time>
      </trkpt>
      <trkpt lat="46.75802" lon="5.79231">
        <ele>620.79998779297</ele>
        <time>2025-06-05T10:31:59.000Z</time>
      </trkpt>
      <trkpt lat="46.75799" lon="5.79224">
        <ele>620.79998779297</ele>
        <time>2025-06-05T10:32:00.000Z</time>
      </trkpt>
      <trkpt lat="46.75793" lon="5.79218">
        <ele>620.79998779297</ele>
        <time>2025-06-05T10:32:01.000Z</time>
      </trkpt>
      <trkpt lat="46.75781" lon="5.79203">
        <ele>620.59997558594</ele>
        <time>2025-06-05T10:32:03.000Z</time>
      </trkpt>
      <trkpt lat="46.75772" lon="5.79195">
        <ele>620.40002441406</ele>
        <time>2025-06-05T10:32:04.000Z</time>
      </trkpt>
      <trkpt lat="46.75746" lon="5.79161">
        <ele>618.79998779297</ele>
        <time>2025-06-05T10:32:08.000Z</time>
      </trkpt>
      <trkpt lat="46.75742" lon="5.79155">
        <ele>618.40002441406</ele>
        <time>2025-06-05T10:32:09.000Z</time>
      </trkpt>
      <trkpt lat="46.7573" lon="5.79143">
        <ele>617.79998779297</ele>
        <time>2025-06-05T10:32:12.000Z</time>
      </trkpt>
      <trkpt lat="46.75725" lon="5.79142">
        <ele>617.59997558594</ele>
        <time>2025-06-05T10:32:13.000Z</time>
      </trkpt>
      <trkpt lat="46.75708" lon="5.79135">
        <ele>617.79998779297</ele>
        <time>2025-06-05T10:32:17.000Z</time>
      </trkpt>
      <trkpt lat="46.75696" lon="5.79131">
        <ele>617.79998779297</ele>
        <time>2025-06-05T10:32:19.000Z</time>
      </trkpt>
      <trkpt lat="46.75686" lon="5.79127">
        <ele>618</ele>
        <time>2025-06-05T10:32:21.000Z</time>
      </trkpt>
      <trkpt lat="46.75681" lon="5.79125">
        <ele>618</ele>
        <time>2025-06-05T10:32:22.000Z</time>
      </trkpt>
      <trkpt lat="46.75671" lon="5.79122">
        <ele>618.20001220703</ele>
        <time>2025-06-05T10:32:24.000Z</time>
      </trkpt>
      <trkpt lat="46.75663" lon="5.79119">
        <ele>618.59997558594</ele>
        <time>2025-06-05T10:32:26.000Z</time>
      </trkpt>
      <trkpt lat="46.7566" lon="5.79118">
        <ele>618.59997558594</ele>
        <time>2025-06-05T10:32:27.000Z</time>
      </trkpt>
      <trkpt lat="46.75656" lon="5.79116">
        <ele>618.79998779297</ele>
        <time>2025-06-05T10:32:28.000Z</time>
      </trkpt>
      <trkpt lat="46.75636" lon="5.79108">
        <ele>619.79998779297</ele>
        <time>2025-06-05T10:32:33.000Z</time>
      </trkpt>
      <trkpt lat="46.75626" lon="5.79099">
        <ele>621</ele>
        <time>2025-06-05T10:32:36.000Z</time>
      </trkpt>
      <trkpt lat="46.75616" lon="5.79096">
        <ele>621.79998779297</ele>
        <time>2025-06-05T10:32:38.000Z</time>
      </trkpt>
      <trkpt lat="46.75612" lon="5.79092">
        <ele>622</ele>
        <time>2025-06-05T10:32:39.000Z</time>
      </trkpt>
      <trkpt lat="46.75604" lon="5.7908">
        <ele>622.40002441406</ele>
        <time>2025-06-05T10:32:42.000Z</time>
      </trkpt>
      <trkpt lat="46.75588" lon="5.7907">
        <ele>623</ele>
        <time>2025-06-05T10:32:46.000Z</time>
      </trkpt>
      <trkpt lat="46.75585" lon="5.79068">
        <ele>623.20001220703</ele>
        <time>2025-06-05T10:32:47.000Z</time>
      </trkpt>
      <trkpt lat="46.75579" lon="5.79061">
        <ele>623.20001220703</ele>
        <time>2025-06-05T10:32:49.000Z</time>
      </trkpt>
      <trkpt lat="46.75573" lon="5.79058">
        <ele>623.40002441406</ele>
        <time>2025-06-05T10:32:50.000Z</time>
      </trkpt>
      <trkpt lat="46.75553" lon="5.79035">
        <ele>623.40002441406</ele>
        <time>2025-06-05T10:32:55.000Z</time>
      </trkpt>
      <trkpt lat="46.75542" lon="5.79023">
        <ele>623.20001220703</ele>
        <time>2025-06-05T10:32:57.000Z</time>
      </trkpt>
      <trkpt lat="46.75527" lon="5.79007">
        <ele>622.40002441406</ele>
        <time>2025-06-05T10:33:00.000Z</time>
      </trkpt>
      <trkpt lat="46.75514" lon="5.78995">
        <ele>621.40002441406</ele>
        <time>2025-06-05T10:33:02.000Z</time>
      </trkpt>
      <trkpt lat="46.75502" lon="5.78978">
        <ele>620.59997558594</ele>
        <time>2025-06-05T10:33:05.000Z</time>
      </trkpt>
      <trkpt lat="46.75485" lon="5.78965">
        <ele>620.20001220703</ele>
        <time>2025-06-05T10:33:09.000Z</time>
      </trkpt>
      <trkpt lat="46.75478" lon="5.78962">
        <ele>619.40002441406</ele>
        <time>2025-06-05T10:33:12.000Z</time>
      </trkpt>
      <trkpt lat="46.75478" lon="5.78961">
        <ele>619.20001220703</ele>
        <time>2025-06-05T10:33:13.000Z</time>
      </trkpt>
      <trkpt lat="46.7546" lon="5.7895">
        <ele>619</ele>
        <time>2025-06-05T10:33:16.000Z</time>
      </trkpt>
      <trkpt lat="46.75455" lon="5.78949">
        <ele>619</ele>
        <time>2025-06-05T10:33:17.000Z</time>
      </trkpt>
      <trkpt lat="46.75452" lon="5.78946">
        <ele>618.59997558594</ele>
        <time>2025-06-05T10:33:19.000Z</time>
      </trkpt>
      <trkpt lat="46.75442" lon="5.78945">
        <ele>617.79998779297</ele>
        <time>2025-06-05T10:33:22.000Z</time>
      </trkpt>
      <trkpt lat="46.75438" lon="5.78942">
        <ele>617.59997558594</ele>
        <time>2025-06-05T10:33:24.000Z</time>
      </trkpt>
      <trkpt lat="46.75421" lon="5.78934">
        <ele>617.40002441406</ele>
        <time>2025-06-05T10:33:28.000Z</time>
      </trkpt>
      <trkpt lat="46.75413" lon="5.7893">
        <ele>618</ele>
        <time>2025-06-05T10:33:32.000Z</time>
      </trkpt>
      <trkpt lat="46.75411" lon="5.78927">
        <ele>618.20001220703</ele>
        <time>2025-06-05T10:33:33.000Z</time>
      </trkpt>
      <trkpt lat="46.75404" lon="5.78913">
        <ele>619</ele>
        <time>2025-06-05T10:33:36.000Z</time>
      </trkpt>
      <trkpt lat="46.75402" lon="5.78908">
        <ele>619.40002441406</ele>
        <time>2025-06-05T10:33:38.000Z</time>
      </trkpt>
      <trkpt lat="46.754" lon="5.78902">
        <ele>619.79998779297</ele>
        <time>2025-06-05T10:33:40.000Z</time>
      </trkpt>
      <trkpt lat="46.75394" lon="5.78894">
        <ele>620</ele>
        <time>2025-06-05T10:33:42.000Z</time>
      </trkpt>
      <trkpt lat="46.75391" lon="5.78891">
        <ele>620.20001220703</ele>
        <time>2025-06-05T10:33:43.000Z</time>
      </trkpt>
      <trkpt lat="46.75367" lon="5.78875">
        <ele>620.79998779297</ele>
        <time>2025-06-05T10:33:48.000Z</time>
      </trkpt>
      <trkpt lat="46.75366" lon="5.78872">
        <ele>621</ele>
        <time>2025-06-05T10:33:49.000Z</time>
      </trkpt>
      <trkpt lat="46.75366" lon="5.78864">
        <ele>621.20001220703</ele>
        <time>2025-06-05T10:33:51.000Z</time>
      </trkpt>
      <trkpt lat="46.7536" lon="5.78851">
        <ele>622.40002441406</ele>
        <time>2025-06-05T10:33:56.000Z</time>
      </trkpt>
      <trkpt lat="46.75356" lon="5.78845">
        <ele>623.59997558594</ele>
        <time>2025-06-05T10:34:00.000Z</time>
      </trkpt>
      <trkpt lat="46.75343" lon="5.78833">
        <ele>624.20001220703</ele>
        <time>2025-06-05T10:34:03.000Z</time>
      </trkpt>
      <trkpt lat="46.75328" lon="5.78821">
        <ele>624.40002441406</ele>
        <time>2025-06-05T10:34:07.000Z</time>
      </trkpt>
      <trkpt lat="46.75326" lon="5.78818">
        <ele>624.40002441406</ele>
        <time>2025-06-05T10:34:08.000Z</time>
      </trkpt>
      <trkpt lat="46.75324" lon="5.78814">
        <ele>624.40002441406</ele>
        <time>2025-06-05T10:34:09.000Z</time>
      </trkpt>
      <trkpt lat="46.75312" lon="5.78797">
        <ele>624.40002441406</ele>
        <time>2025-06-05T10:34:13.000Z</time>
      </trkpt>
      <trkpt lat="46.75293" lon="5.78776">
        <ele>624.59997558594</ele>
        <time>2025-06-05T10:34:18.000Z</time>
      </trkpt>
      <trkpt lat="46.75287" lon="5.78772">
        <ele>624.59997558594</ele>
        <time>2025-06-05T10:34:20.000Z</time>
      </trkpt>
      <trkpt lat="46.75273" lon="5.78765">
        <ele>624.59997558594</ele>
        <time>2025-06-05T10:34:22.000Z</time>
      </trkpt>
      <trkpt lat="46.75267" lon="5.78758">
        <ele>624.40002441406</ele>
        <time>2025-06-05T10:34:24.000Z</time>
      </trkpt>
      <trkpt lat="46.75262" lon="5.78751">
        <ele>624.40002441406</ele>
        <time>2025-06-05T10:34:26.000Z</time>
      </trkpt>
      <trkpt lat="46.75245" lon="5.78736">
        <ele>624</ele>
        <time>2025-06-05T10:34:31.000Z</time>
      </trkpt>
      <trkpt lat="46.75244" lon="5.78734">
        <ele>624</ele>
        <time>2025-06-05T10:34:32.000Z</time>
      </trkpt>
      <trkpt lat="46.75243" lon="5.78733">
        <ele>624</ele>
        <time>2025-06-05T10:34:33.000Z</time>
      </trkpt>
      <trkpt lat="46.75239" lon="5.78727">
        <ele>624</ele>
        <time>2025-06-05T10:34:35.000Z</time>
      </trkpt>
      <trkpt lat="46.7523" lon="5.78722">
        <ele>624.20001220703</ele>
        <time>2025-06-05T10:34:38.000Z</time>
      </trkpt>
      <trkpt lat="46.75225" lon="5.78717">
        <ele>624.20001220703</ele>
        <time>2025-06-05T10:34:39.000Z</time>
      </trkpt>
      <trkpt lat="46.75208" lon="5.78711">
        <ele>624.20001220703</ele>
        <time>2025-06-05T10:34:43.000Z</time>
      </trkpt>
      <trkpt lat="46.75204" lon="5.78704">
        <ele>624</ele>
        <time>2025-06-05T10:34:45.000Z</time>
      </trkpt>
      <trkpt lat="46.75198" lon="5.78696">
        <ele>623.59997558594</ele>
        <time>2025-06-05T10:34:47.000Z</time>
      </trkpt>
      <trkpt lat="46.75196" lon="5.78693">
        <ele>623.40002441406</ele>
        <time>2025-06-05T10:34:48.000Z</time>
      </trkpt>
      <trkpt lat="46.75194" lon="5.7869">
        <ele>623.20001220703</ele>
        <time>2025-06-05T10:34:49.000Z</time>
      </trkpt>
      <trkpt lat="46.75188" lon="5.78676">
        <ele>622.59997558594</ele>
        <time>2025-06-05T10:34:52.000Z</time>
      </trkpt>
      <trkpt lat="46.75171" lon="5.78667">
        <ele>621.79998779297</ele>
        <time>2025-06-05T10:34:56.000Z</time>
      </trkpt>
      <trkpt lat="46.75167" lon="5.78666">
        <ele>621.40002441406</ele>
        <time>2025-06-05T10:34:58.000Z</time>
      </trkpt>
      <trkpt lat="46.75149" lon="5.78661">
        <ele>620.79998779297</ele>
        <time>2025-06-05T10:35:02.000Z</time>
      </trkpt>
      <trkpt lat="46.75144" lon="5.78659">
        <ele>620.59997558594</ele>
        <time>2025-06-05T10:35:03.000Z</time>
      </trkpt>
      <trkpt lat="46.75116" lon="5.78646">
        <ele>621</ele>
        <time>2025-06-05T10:35:10.000Z</time>
      </trkpt>
      <trkpt lat="46.75106" lon="5.78643">
        <ele>621.40002441406</ele>
        <time>2025-06-05T10:35:14.000Z</time>
      </trkpt>
      <trkpt lat="46.75104" lon="5.7864">
        <ele>621.59997558594</ele>
        <time>2025-06-05T10:35:15.000Z</time>
      </trkpt>
      <trkpt lat="46.75087" lon="5.78628">
        <ele>622</ele>
        <time>2025-06-05T10:35:22.000Z</time>
      </trkpt>
      <trkpt lat="46.75085" lon="5.78624">
        <ele>622.40002441406</ele>
        <time>2025-06-05T10:35:24.000Z</time>
      </trkpt>
      <trkpt lat="46.75077" lon="5.78615">
        <ele>622.40002441406</ele>
        <time>2025-06-05T10:35:28.000Z</time>
      </trkpt>
      <trkpt lat="46.75072" lon="5.78611">
        <ele>622.20001220703</ele>
        <time>2025-06-05T10:35:30.000Z</time>
      </trkpt>
      <trkpt lat="46.75064" lon="5.78602">
        <ele>622</ele>
        <time>2025-06-05T10:35:33.000Z</time>
      </trkpt>
      <trkpt lat="46.75054" lon="5.78587">
        <ele>621.79998779297</ele>
        <time>2025-06-05T10:35:38.000Z</time>
      </trkpt>
      <trkpt lat="46.75045" lon="5.78583">
        <ele>621.59997558594</ele>
        <time>2025-06-05T10:35:40.000Z</time>
      </trkpt>
      <trkpt lat="46.75022" lon="5.78573">
        <ele>621.20001220703</ele>
        <time>2025-06-05T10:35:45.000Z</time>
      </trkpt>
      <trkpt lat="46.75019" lon="5.78569">
        <ele>620.40002441406</ele>
        <time>2025-06-05T10:35:47.000Z</time>
      </trkpt>
      <trkpt lat="46.75007" lon="5.78564">
        <ele>619</ele>
        <time>2025-06-05T10:35:50.000Z</time>
      </trkpt>
      <trkpt lat="46.75003" lon="5.78561">
        <ele>618</ele>
        <time>2025-06-05T10:35:52.000Z</time>
      </trkpt>
      <trkpt lat="46.75002" lon="5.7856">
        <ele>617.59997558594</ele>
        <time>2025-06-05T10:35:53.000Z</time>
      </trkpt>
      <trkpt lat="46.74999" lon="5.78558">
        <ele>616.79998779297</ele>
        <time>2025-06-05T10:35:55.000Z</time>
      </trkpt>
      <trkpt lat="46.74994" lon="5.78555">
        <ele>616</ele>
        <time>2025-06-05T10:35:57.000Z</time>
      </trkpt>
      <trkpt lat="46.74994" lon="5.78555">
        <ele>615.79998779297</ele>
        <time>2025-06-05T10:35:58.000Z</time>
      </trkpt>
      <trkpt lat="46.74984" lon="5.78549">
        <ele>615.20001220703</ele>
        <time>2025-06-05T10:36:00.000Z</time>
      </trkpt>
      <trkpt lat="46.74977" lon="5.78547">
        <ele>614.79998779297</ele>
        <time>2025-06-05T10:36:02.000Z</time>
      </trkpt>
      <trkpt lat="46.74969" lon="5.78545">
        <ele>613.40002441406</ele>
        <time>2025-06-05T10:36:04.000Z</time>
      </trkpt>
      <trkpt lat="46.74955" lon="5.78545">
        <ele>612.40002441406</ele>
        <time>2025-06-05T10:36:07.000Z</time>
      </trkpt>
      <trkpt lat="46.74948" lon="5.78551">
        <ele>611.20001220703</ele>
        <time>2025-06-05T10:36:10.000Z</time>
      </trkpt>
      <trkpt lat="46.74943" lon="5.7856">
        <ele>610.20001220703</ele>
        <time>2025-06-05T10:36:13.000Z</time>
      </trkpt>
      <trkpt lat="46.74941" lon="5.78567">
        <ele>609.59997558594</ele>
        <time>2025-06-05T10:36:15.000Z</time>
      </trkpt>
      <trkpt lat="46.74937" lon="5.78569">
        <ele>609.20001220703</ele>
        <time>2025-06-05T10:36:16.000Z</time>
      </trkpt>
      <trkpt lat="46.74931" lon="5.78572">
        <ele>609</ele>
        <time>2025-06-05T10:36:17.000Z</time>
      </trkpt>
      <trkpt lat="46.74924" lon="5.78578">
        <ele>608</ele>
        <time>2025-06-05T10:36:19.000Z</time>
      </trkpt>
      <trkpt lat="46.74922" lon="5.78581">
        <ele>607.40002441406</ele>
        <time>2025-06-05T10:36:20.000Z</time>
      </trkpt>
      <trkpt lat="46.74917" lon="5.78586">
        <ele>607</ele>
        <time>2025-06-05T10:36:22.000Z</time>
      </trkpt>
      <trkpt lat="46.74909" lon="5.78588">
        <ele>605.59997558594</ele>
        <time>2025-06-05T10:36:25.000Z</time>
      </trkpt>
      <trkpt lat="46.74907" lon="5.7859">
        <ele>605.20001220703</ele>
        <time>2025-06-05T10:36:26.000Z</time>
      </trkpt>
      <trkpt lat="46.74905" lon="5.7859">
        <ele>604.40002441406</ele>
        <time>2025-06-05T10:36:27.000Z</time>
      </trkpt>
      <trkpt lat="46.74897" lon="5.78583">
        <ele>603.20001220703</ele>
        <time>2025-06-05T10:36:31.000Z</time>
      </trkpt>
      <trkpt lat="46.74884" lon="5.78573">
        <ele>603</ele>
        <time>2025-06-05T10:36:36.000Z</time>
      </trkpt>
      <trkpt lat="46.74863" lon="5.78563">
        <ele>603.40002441406</ele>
        <time>2025-06-05T10:36:42.000Z</time>
      </trkpt>
      <trkpt lat="46.74833" lon="5.78547">
        <ele>603.79998779297</ele>
        <time>2025-06-05T10:36:50.000Z</time>
      </trkpt>
      <trkpt lat="46.74818" lon="5.78539">
        <ele>603.59997558594</ele>
        <time>2025-06-05T10:36:55.000Z</time>
      </trkpt>
      <trkpt lat="46.74808" lon="5.78533">
        <ele>603.20001220703</ele>
        <time>2025-06-05T10:37:03.000Z</time>
      </trkpt>
      <trkpt lat="46.74808" lon="5.78533">
        <ele>602.59997558594</ele>
        <time>2025-06-05T10:37:28.000Z</time>
      </trkpt>
      <trkpt lat="46.74813" lon="5.78535">
        <ele>602.40002441406</ele>
        <time>2025-06-05T10:38:40.000Z</time>
      </trkpt>
      <trkpt lat="46.74827" lon="5.78544">
        <ele>602.59997558594</ele>
        <time>2025-06-05T10:38:46.000Z</time>
      </trkpt>
      <trkpt lat="46.74847" lon="5.78557">
        <ele>602.59997558594</ele>
        <time>2025-06-05T10:38:53.000Z</time>
      </trkpt>
      <trkpt lat="46.74863" lon="5.78565">
        <ele>603.20001220703</ele>
        <time>2025-06-05T10:38:58.000Z</time>
      </trkpt>
      <trkpt lat="46.74879" lon="5.78574">
        <ele>603.20001220703</ele>
        <time>2025-06-05T10:39:03.000Z</time>
      </trkpt>
      <trkpt lat="46.749" lon="5.78577">
        <ele>603</ele>
        <time>2025-06-05T10:39:09.000Z</time>
      </trkpt>
      <trkpt lat="46.74908" lon="5.78564">
        <ele>603</ele>
        <time>2025-06-05T10:39:13.000Z</time>
      </trkpt>
      <trkpt lat="46.7491" lon="5.78559">
        <ele>603</ele>
        <time>2025-06-05T10:39:14.000Z</time>
      </trkpt>
      <trkpt lat="46.74915" lon="5.78552">
        <ele>603.20001220703</ele>
        <time>2025-06-05T10:39:16.000Z</time>
      </trkpt>
      <trkpt lat="46.7492" lon="5.78547">
        <ele>603.40002441406</ele>
        <time>2025-06-05T10:39:18.000Z</time>
      </trkpt>
      <trkpt lat="46.74928" lon="5.78536">
        <ele>603.79998779297</ele>
        <time>2025-06-05T10:39:21.000Z</time>
      </trkpt>
      <trkpt lat="46.74935" lon="5.78527">
        <ele>604.40002441406</ele>
        <time>2025-06-05T10:39:23.000Z</time>
      </trkpt>
      <trkpt lat="46.74945" lon="5.78519">
        <ele>605</ele>
        <time>2025-06-05T10:39:26.000Z</time>
      </trkpt>
      <trkpt lat="46.74952" lon="5.78513">
        <ele>605.59997558594</ele>
        <time>2025-06-05T10:39:28.000Z</time>
      </trkpt>
      <trkpt lat="46.74964" lon="5.78507">
        <ele>606.20001220703</ele>
        <time>2025-06-05T10:39:31.000Z</time>
      </trkpt>
      <trkpt lat="46.7497" lon="5.78505">
        <ele>606.59997558594</ele>
        <time>2025-06-05T10:39:32.000Z</time>
      </trkpt>
      <trkpt lat="46.74974" lon="5.78503">
        <ele>606.59997558594</ele>
        <time>2025-06-05T10:39:33.000Z</time>
      </trkpt>
      <trkpt lat="46.7498" lon="5.78497">
        <ele>606.79998779297</ele>
        <time>2025-06-05T10:39:35.000Z</time>
      </trkpt>
      <trkpt lat="46.74984" lon="5.78495">
        <ele>606.79998779297</ele>
        <time>2025-06-05T10:39:36.000Z</time>
      </trkpt>
      <trkpt lat="46.74989" lon="5.78491">
        <ele>607</ele>
        <time>2025-06-05T10:39:37.000Z</time>
      </trkpt>
      <trkpt lat="46.74996" lon="5.78487">
        <ele>607</ele>
        <time>2025-06-05T10:39:39.000Z</time>
      </trkpt>
      <trkpt lat="46.75013" lon="5.78474">
        <ele>606.79998779297</ele>
        <time>2025-06-05T10:39:43.000Z</time>
      </trkpt>
      <trkpt lat="46.75032" lon="5.78454">
        <ele>606.20001220703</ele>
        <time>2025-06-05T10:39:48.000Z</time>
      </trkpt>
      <trkpt lat="46.75034" lon="5.78428">
        <ele>605.79998779297</ele>
        <time>2025-06-05T10:39:52.000Z</time>
      </trkpt>
      <trkpt lat="46.75028" lon="5.78406">
        <ele>605.40002441406</ele>
        <time>2025-06-05T10:39:55.000Z</time>
      </trkpt>
      <trkpt lat="46.75026" lon="5.78398">
        <ele>605.20001220703</ele>
        <time>2025-06-05T10:39:56.000Z</time>
      </trkpt>
      <trkpt lat="46.75023" lon="5.78382">
        <ele>604.40002441406</ele>
        <time>2025-06-05T10:39:59.000Z</time>
      </trkpt>
      <trkpt lat="46.75023" lon="5.78379">
        <ele>604.40002441406</ele>
        <time>2025-06-05T10:40:00.000Z</time>
      </trkpt>
      <trkpt lat="46.7502" lon="5.78373">
        <ele>604</ele>
        <time>2025-06-05T10:40:01.000Z</time>
      </trkpt>
      <trkpt lat="46.75019" lon="5.78369">
        <ele>603.79998779297</ele>
        <time>2025-06-05T10:40:02.000Z</time>
      </trkpt>
      <trkpt lat="46.75017" lon="5.78366">
        <ele>603.59997558594</ele>
        <time>2025-06-05T10:40:03.000Z</time>
      </trkpt>
      <trkpt lat="46.7501" lon="5.78359">
        <ele>603.40002441406</ele>
        <time>2025-06-05T10:40:05.000Z</time>
      </trkpt>
      <trkpt lat="46.75" lon="5.7835">
        <ele>603</ele>
        <time>2025-06-05T10:40:07.000Z</time>
      </trkpt>
      <trkpt lat="46.74991" lon="5.78341">
        <ele>603</ele>
        <time>2025-06-05T10:40:09.000Z</time>
      </trkpt>
      <trkpt lat="46.74978" lon="5.78333">
        <ele>603</ele>
        <time>2025-06-05T10:40:12.000Z</time>
      </trkpt>
      <trkpt lat="46.74973" lon="5.78326">
        <ele>603</ele>
        <time>2025-06-05T10:40:14.000Z</time>
      </trkpt>
      <trkpt lat="46.74968" lon="5.78317">
        <ele>603.40002441406</ele>
        <time>2025-06-05T10:40:17.000Z</time>
      </trkpt>
      <trkpt lat="46.74968" lon="5.78317">
        <ele>603.79998779297</ele>
        <time>2025-06-05T10:40:19.000Z</time>
      </trkpt>
      <trkpt lat="46.74968" lon="5.78317">
        <ele>603.79998779297</ele>
        <time>2025-06-05T10:40:27.000Z</time>
      </trkpt>
      <trkpt lat="46.74968" lon="5.78317">
        <ele>604</ele>
        <time>2025-06-05T10:40:50.000Z</time>
      </trkpt>
      <trkpt lat="46.74968" lon="5.78317">
        <ele>604.20001220703</ele>
        <time>2025-06-05T10:41:03.000Z</time>
      </trkpt>
      <trkpt lat="46.74975" lon="5.78323">
        <ele>604.20001220703</ele>
        <time>2025-06-05T10:41:07.000Z</time>
      </trkpt>
      <trkpt lat="46.74988" lon="5.78335">
        <ele>603.79998779297</ele>
        <time>2025-06-05T10:41:13.000Z</time>
      </trkpt>
      <trkpt lat="46.75004" lon="5.7835">
        <ele>603.40002441406</ele>
        <time>2025-06-05T10:41:18.000Z</time>
      </trkpt>
      <trkpt lat="46.75016" lon="5.78364">
        <ele>603</ele>
        <time>2025-06-05T10:41:22.000Z</time>
      </trkpt>
      <trkpt lat="46.75019" lon="5.78367">
        <ele>602.79998779297</ele>
        <time>2025-06-05T10:41:23.000Z</time>
      </trkpt>
      <trkpt lat="46.75031" lon="5.784">
        <ele>602.59997558594</ele>
        <time>2025-06-05T10:41:29.000Z</time>
      </trkpt>
      <trkpt lat="46.75036" lon="5.78424">
        <ele>603</ele>
        <time>2025-06-05T10:41:33.000Z</time>
      </trkpt>
      <trkpt lat="46.7504" lon="5.78435">
        <ele>603.59997558594</ele>
        <time>2025-06-05T10:41:36.000Z</time>
      </trkpt>
      <trkpt lat="46.75041" lon="5.78436">
        <ele>603.59997558594</ele>
        <time>2025-06-05T10:41:37.000Z</time>
      </trkpt>
      <trkpt lat="46.75046" lon="5.78436">
        <ele>604.20001220703</ele>
        <time>2025-06-05T10:41:39.000Z</time>
      </trkpt>
      <trkpt lat="46.75049" lon="5.78436">
        <ele>604.20001220703</ele>
        <time>2025-06-05T10:41:40.000Z</time>
      </trkpt>
      <trkpt lat="46.75057" lon="5.78436">
        <ele>604.59997558594</ele>
        <time>2025-06-05T10:41:42.000Z</time>
      </trkpt>
      <trkpt lat="46.75075" lon="5.78428">
        <ele>605</ele>
        <time>2025-06-05T10:41:46.000Z</time>
      </trkpt>
      <trkpt lat="46.7508" lon="5.78426">
        <ele>604.79998779297</ele>
        <time>2025-06-05T10:41:47.000Z</time>
      </trkpt>
      <trkpt lat="46.75089" lon="5.78422">
        <ele>604.79998779297</ele>
        <time>2025-06-05T10:41:49.000Z</time>
      </trkpt>
      <trkpt lat="46.75099" lon="5.78414">
        <ele>604.79998779297</ele>
        <time>2025-06-05T10:41:51.000Z</time>
      </trkpt>
      <trkpt lat="46.75102" lon="5.78409">
        <ele>604.79998779297</ele>
        <time>2025-06-05T10:41:52.000Z</time>
      </trkpt>
      <trkpt lat="46.75111" lon="5.78396">
        <ele>604.79998779297</ele>
        <time>2025-06-05T10:41:54.000Z</time>
      </trkpt>
      <trkpt lat="46.75118" lon="5.78384">
        <ele>604.40002441406</ele>
        <time>2025-06-05T10:41:56.000Z</time>
      </trkpt>
      <trkpt lat="46.75124" lon="5.78372">
        <ele>604.20001220703</ele>
        <time>2025-06-05T10:41:58.000Z</time>
      </trkpt>
      <trkpt lat="46.75131" lon="5.78354">
        <ele>604.20001220703</ele>
        <time>2025-06-05T10:42:00.000Z</time>
      </trkpt>
      <trkpt lat="46.75132" lon="5.78347">
        <ele>604</ele>
        <time>2025-06-05T10:42:01.000Z</time>
      </trkpt>
      <trkpt lat="46.75131" lon="5.78328">
        <ele>603.79998779297</ele>
        <time>2025-06-05T10:42:03.000Z</time>
      </trkpt>
      <trkpt lat="46.75124" lon="5.78301">
        <ele>603</ele>
        <time>2025-06-05T10:42:06.000Z</time>
      </trkpt>
      <trkpt lat="46.75121" lon="5.78293">
        <ele>602.79998779297</ele>
        <time>2025-06-05T10:42:07.000Z</time>
      </trkpt>
      <trkpt lat="46.75115" lon="5.7827">
        <ele>602.20001220703</ele>
        <time>2025-06-05T10:42:10.000Z</time>
      </trkpt>
      <trkpt lat="46.75108" lon="5.78246">
        <ele>602</ele>
        <time>2025-06-05T10:42:13.000Z</time>
      </trkpt>
      <trkpt lat="46.75104" lon="5.7823">
        <ele>601.79998779297</ele>
        <time>2025-06-05T10:42:15.000Z</time>
      </trkpt>
      <trkpt lat="46.75089" lon="5.78176">
        <ele>602.20001220703</ele>
        <time>2025-06-05T10:42:22.000Z</time>
      </trkpt>
      <trkpt lat="46.75085" lon="5.78164">
        <ele>602.40002441406</ele>
        <time>2025-06-05T10:42:24.000Z</time>
      </trkpt>
      <trkpt lat="46.75079" lon="5.78144">
        <ele>602.79998779297</ele>
        <time>2025-06-05T10:42:27.000Z</time>
      </trkpt>
      <trkpt lat="46.75075" lon="5.78138">
        <ele>602.79998779297</ele>
        <time>2025-06-05T10:42:28.000Z</time>
      </trkpt>
      <trkpt lat="46.75059" lon="5.7811">
        <ele>603.20001220703</ele>
        <time>2025-06-05T10:42:32.000Z</time>
      </trkpt>
      <trkpt lat="46.75052" lon="5.78097">
        <ele>603.59997558594</ele>
        <time>2025-06-05T10:42:34.000Z</time>
      </trkpt>
      <trkpt lat="46.75042" lon="5.78076">
        <ele>604</ele>
        <time>2025-06-05T10:42:37.000Z</time>
      </trkpt>
      <trkpt lat="46.75037" lon="5.78068">
        <ele>604.20001220703</ele>
        <time>2025-06-05T10:42:38.000Z</time>
      </trkpt>
      <trkpt lat="46.75028" lon="5.7805">
        <ele>604.79998779297</ele>
        <time>2025-06-05T10:42:41.000Z</time>
      </trkpt>
      <trkpt lat="46.75024" lon="5.78044">
        <ele>605.20001220703</ele>
        <time>2025-06-05T10:42:42.000Z</time>
      </trkpt>
      <trkpt lat="46.75021" lon="5.78038">
        <ele>605.20001220703</ele>
        <time>2025-06-05T10:42:43.000Z</time>
      </trkpt>
      <trkpt lat="46.7502" lon="5.78033">
        <ele>605.40002441406</ele>
        <time>2025-06-05T10:42:44.000Z</time>
      </trkpt>
      <trkpt lat="46.75017" lon="5.78028">
        <ele>605.40002441406</ele>
        <time>2025-06-05T10:42:45.000Z</time>
      </trkpt>
      <trkpt lat="46.75008" lon="5.78018">
        <ele>605.79998779297</ele>
        <time>2025-06-05T10:42:47.000Z</time>
      </trkpt>
      <trkpt lat="46.74998" lon="5.7801">
        <ele>606.20001220703</ele>
        <time>2025-06-05T10:42:49.000Z</time>
      </trkpt>
      <trkpt lat="46.74989" lon="5.77995">
        <ele>606.40002441406</ele>
        <time>2025-06-05T10:42:52.000Z</time>
      </trkpt>
      <trkpt lat="46.74983" lon="5.77984">
        <ele>606.59997558594</ele>
        <time>2025-06-05T10:42:54.000Z</time>
      </trkpt>
      <trkpt lat="46.74978" lon="5.7797">
        <ele>607</ele>
        <time>2025-06-05T10:42:56.000Z</time>
      </trkpt>
      <trkpt lat="46.74972" lon="5.77959">
        <ele>607.59997558594</ele>
        <time>2025-06-05T10:42:58.000Z</time>
      </trkpt>
      <trkpt lat="46.74967" lon="5.77945">
        <ele>608</ele>
        <time>2025-06-05T10:43:00.000Z</time>
      </trkpt>
      <trkpt lat="46.74964" lon="5.77931">
        <ele>608.79998779297</ele>
        <time>2025-06-05T10:43:02.000Z</time>
      </trkpt>
      <trkpt lat="46.74964" lon="5.77923">
        <ele>609.40002441406</ele>
        <time>2025-06-05T10:43:04.000Z</time>
      </trkpt>
      <trkpt lat="46.74963" lon="5.77911">
        <ele>609.79998779297</ele>
        <time>2025-06-05T10:43:06.000Z</time>
      </trkpt>
      <trkpt lat="46.74958" lon="5.77899">
        <ele>610.20001220703</ele>
        <time>2025-06-05T10:43:08.000Z</time>
      </trkpt>
      <trkpt lat="46.74952" lon="5.77889">
        <ele>610.79998779297</ele>
        <time>2025-06-05T10:43:10.000Z</time>
      </trkpt>
      <trkpt lat="46.7495" lon="5.77884">
        <ele>611.59997558594</ele>
        <time>2025-06-05T10:43:11.000Z</time>
      </trkpt>
      <trkpt lat="46.74949" lon="5.77879">
        <ele>611.79998779297</ele>
        <time>2025-06-05T10:43:12.000Z</time>
      </trkpt>
      <trkpt lat="46.74948" lon="5.77872">
        <ele>612.20001220703</ele>
        <time>2025-06-05T10:43:13.000Z</time>
      </trkpt>
      <trkpt lat="46.74948" lon="5.77865">
        <ele>612.59997558594</ele>
        <time>2025-06-05T10:43:14.000Z</time>
      </trkpt>
      <trkpt lat="46.74946" lon="5.77858">
        <ele>612.79998779297</ele>
        <time>2025-06-05T10:43:15.000Z</time>
      </trkpt>
      <trkpt lat="46.7494" lon="5.77844">
        <ele>613.40002441406</ele>
        <time>2025-06-05T10:43:17.000Z</time>
      </trkpt>
      <trkpt lat="46.74937" lon="5.77837">
        <ele>613.59997558594</ele>
        <time>2025-06-05T10:43:18.000Z</time>
      </trkpt>
      <trkpt lat="46.74936" lon="5.77829">
        <ele>614</ele>
        <time>2025-06-05T10:43:19.000Z</time>
      </trkpt>
      <trkpt lat="46.74933" lon="5.7782">
        <ele>614.20001220703</ele>
        <time>2025-06-05T10:43:20.000Z</time>
      </trkpt>
      <trkpt lat="46.74929" lon="5.77805">
        <ele>614.59997558594</ele>
        <time>2025-06-05T10:43:22.000Z</time>
      </trkpt>
      <trkpt lat="46.74924" lon="5.7778">
        <ele>615.20001220703</ele>
        <time>2025-06-05T10:43:25.000Z</time>
      </trkpt>
      <trkpt lat="46.74924" lon="5.77775">
        <ele>615.20001220703</ele>
        <time>2025-06-05T10:43:26.000Z</time>
      </trkpt>
      <trkpt lat="46.74921" lon="5.7777">
        <ele>615.40002441406</ele>
        <time>2025-06-05T10:43:27.000Z</time>
      </trkpt>
      <trkpt lat="46.74917" lon="5.77754">
        <ele>616.20001220703</ele>
        <time>2025-06-05T10:43:30.000Z</time>
      </trkpt>
      <trkpt lat="46.74908" lon="5.7774">
        <ele>617.20001220703</ele>
        <time>2025-06-05T10:43:33.000Z</time>
      </trkpt>
      <trkpt lat="46.74898" lon="5.77732">
        <ele>617.59997558594</ele>
        <time>2025-06-05T10:43:35.000Z</time>
      </trkpt>
      <trkpt lat="46.74885" lon="5.77719">
        <ele>618.40002441406</ele>
        <time>2025-06-05T10:43:38.000Z</time>
      </trkpt>
      <trkpt lat="46.74883" lon="5.77717">
        <ele>618.59997558594</ele>
        <time>2025-06-05T10:43:39.000Z</time>
      </trkpt>
      <trkpt lat="46.74881" lon="5.77715">
        <ele>619</ele>
        <time>2025-06-05T10:43:40.000Z</time>
      </trkpt>
      <trkpt lat="46.74875" lon="5.77708">
        <ele>619.40002441406</ele>
        <time>2025-06-05T10:43:42.000Z</time>
      </trkpt>
      <trkpt lat="46.74871" lon="5.77703">
        <ele>619.59997558594</ele>
        <time>2025-06-05T10:43:43.000Z</time>
      </trkpt>
      <trkpt lat="46.74864" lon="5.77694">
        <ele>620</ele>
        <time>2025-06-05T10:43:45.000Z</time>
      </trkpt>
      <trkpt lat="46.7486" lon="5.77686">
        <ele>620</ele>
        <time>2025-06-05T10:43:46.000Z</time>
      </trkpt>
      <trkpt lat="46.7484" lon="5.7765">
        <ele>620.40002441406</ele>
        <time>2025-06-05T10:43:51.000Z</time>
      </trkpt>
      <trkpt lat="46.74821" lon="5.77626">
        <ele>620.59997558594</ele>
        <time>2025-06-05T10:43:55.000Z</time>
      </trkpt>
      <trkpt lat="46.74811" lon="5.77611">
        <ele>620.79998779297</ele>
        <time>2025-06-05T10:43:57.000Z</time>
      </trkpt>
      <trkpt lat="46.74799" lon="5.77594">
        <ele>620.79998779297</ele>
        <time>2025-06-05T10:44:00.000Z</time>
      </trkpt>
      <trkpt lat="46.74791" lon="5.77581">
        <ele>621</ele>
        <time>2025-06-05T10:44:03.000Z</time>
      </trkpt>
      <trkpt lat="46.74776" lon="5.77559">
        <ele>621</ele>
        <time>2025-06-05T10:44:06.000Z</time>
      </trkpt>
      <trkpt lat="46.7477" lon="5.77547">
        <ele>621</ele>
        <time>2025-06-05T10:44:08.000Z</time>
      </trkpt>
      <trkpt lat="46.74743" lon="5.77504">
        <ele>621.20001220703</ele>
        <time>2025-06-05T10:44:14.000Z</time>
      </trkpt>
      <trkpt lat="46.74706" lon="5.77461">
        <ele>621.20001220703</ele>
        <time>2025-06-05T10:44:22.000Z</time>
      </trkpt>
      <trkpt lat="46.74677" lon="5.77424">
        <ele>621.59997558594</ele>
        <time>2025-06-05T10:44:29.000Z</time>
      </trkpt>
      <trkpt lat="46.74665" lon="5.7741">
        <ele>621.79998779297</ele>
        <time>2025-06-05T10:44:32.000Z</time>
      </trkpt>
      <trkpt lat="46.7466" lon="5.77406">
        <ele>621.79998779297</ele>
        <time>2025-06-05T10:44:33.000Z</time>
      </trkpt>
      <trkpt lat="46.74644" lon="5.77396">
        <ele>621.79998779297</ele>
        <time>2025-06-05T10:44:36.000Z</time>
      </trkpt>
      <trkpt lat="46.74633" lon="5.77392">
        <ele>622</ele>
        <time>2025-06-05T10:44:38.000Z</time>
      </trkpt>
      <trkpt lat="46.74623" lon="5.77393">
        <ele>622</ele>
        <time>2025-06-05T10:44:40.000Z</time>
      </trkpt>
      <trkpt lat="46.74617" lon="5.77393">
        <ele>622.20001220703</ele>
        <time>2025-06-05T10:44:41.000Z</time>
      </trkpt>
      <trkpt lat="46.74595" lon="5.77396">
        <ele>622.59997558594</ele>
        <time>2025-06-05T10:44:45.000Z</time>
      </trkpt>
      <trkpt lat="46.7459" lon="5.77397">
        <ele>623</ele>
        <time>2025-06-05T10:44:46.000Z</time>
      </trkpt>
      <trkpt lat="46.7458" lon="5.77398">
        <ele>623.20001220703</ele>
        <time>2025-06-05T10:44:48.000Z</time>
      </trkpt>
      <trkpt lat="46.74565" lon="5.77401">
        <ele>623.59997558594</ele>
        <time>2025-06-05T10:44:51.000Z</time>
      </trkpt>
      <trkpt lat="46.74555" lon="5.77403">
        <ele>624</ele>
        <time>2025-06-05T10:44:53.000Z</time>
      </trkpt>
      <trkpt lat="46.74551" lon="5.77405">
        <ele>624</ele>
        <time>2025-06-05T10:44:54.000Z</time>
      </trkpt>
      <trkpt lat="46.74538" lon="5.77407">
        <ele>624.40002441406</ele>
        <time>2025-06-05T10:44:56.000Z</time>
      </trkpt>
      <trkpt lat="46.74518" lon="5.77408">
        <ele>625</ele>
        <time>2025-06-05T10:44:59.000Z</time>
      </trkpt>
      <trkpt lat="46.74506" lon="5.77411">
        <ele>625.40002441406</ele>
        <time>2025-06-05T10:45:01.000Z</time>
      </trkpt>
      <trkpt lat="46.74495" lon="5.77412">
        <ele>625.59997558594</ele>
        <time>2025-06-05T10:45:03.000Z</time>
      </trkpt>
      <trkpt lat="46.7448" lon="5.77415">
        <ele>625.79998779297</ele>
        <time>2025-06-05T10:45:06.000Z</time>
      </trkpt>
      <trkpt lat="46.74471" lon="5.77411">
        <ele>625.79998779297</ele>
        <time>2025-06-05T10:45:08.000Z</time>
      </trkpt>
      <trkpt lat="46.74466" lon="5.77407">
        <ele>625.79998779297</ele>
        <time>2025-06-05T10:45:09.000Z</time>
      </trkpt>
      <trkpt lat="46.74461" lon="5.77404">
        <ele>625.79998779297</ele>
        <time>2025-06-05T10:45:10.000Z</time>
      </trkpt>
      <trkpt lat="46.74451" lon="5.77399">
        <ele>625.40002441406</ele>
        <time>2025-06-05T10:45:12.000Z</time>
      </trkpt>
      <trkpt lat="46.74435" lon="5.77392">
        <ele>625</ele>
        <time>2025-06-05T10:45:14.000Z</time>
      </trkpt>
      <trkpt lat="46.74426" lon="5.77387">
        <ele>624.59997558594</ele>
        <time>2025-06-05T10:45:15.000Z</time>
      </trkpt>
      <trkpt lat="46.74411" lon="5.77376">
        <ele>623.79998779297</ele>
        <time>2025-06-05T10:45:17.000Z</time>
      </trkpt>
      <trkpt lat="46.74401" lon="5.77369">
        <ele>623.40002441406</ele>
        <time>2025-06-05T10:45:18.000Z</time>
      </trkpt>
      <trkpt lat="46.74385" lon="5.77355">
        <ele>622.59997558594</ele>
        <time>2025-06-05T10:45:20.000Z</time>
      </trkpt>
      <trkpt lat="46.74373" lon="5.77343">
        <ele>621.59997558594</ele>
        <time>2025-06-05T10:45:22.000Z</time>
      </trkpt>
      <trkpt lat="46.74367" lon="5.77336">
        <ele>621.40002441406</ele>
        <time>2025-06-05T10:45:23.000Z</time>
      </trkpt>
      <trkpt lat="46.74355" lon="5.77324">
        <ele>620.40002441406</ele>
        <time>2025-06-05T10:45:25.000Z</time>
      </trkpt>
      <trkpt lat="46.74341" lon="5.77312">
        <ele>619.40002441406</ele>
        <time>2025-06-05T10:45:27.000Z</time>
      </trkpt>
      <trkpt lat="46.74333" lon="5.77305">
        <ele>619.20001220703</ele>
        <time>2025-06-05T10:45:28.000Z</time>
      </trkpt>
      <trkpt lat="46.7431" lon="5.77291">
        <ele>617.79998779297</ele>
        <time>2025-06-05T10:45:31.000Z</time>
      </trkpt>
      <trkpt lat="46.7429" lon="5.77281">
        <ele>617.20001220703</ele>
        <time>2025-06-05T10:45:33.000Z</time>
      </trkpt>
      <trkpt lat="46.74282" lon="5.77277">
        <ele>616.59997558594</ele>
        <time>2025-06-05T10:45:34.000Z</time>
      </trkpt>
      <trkpt lat="46.74255" lon="5.77263">
        <ele>615.40002441406</ele>
        <time>2025-06-05T10:45:37.000Z</time>
      </trkpt>
      <trkpt lat="46.74246" lon="5.77258">
        <ele>615</ele>
        <time>2025-06-05T10:45:38.000Z</time>
      </trkpt>
      <trkpt lat="46.74231" lon="5.7725">
        <ele>614</ele>
        <time>2025-06-05T10:45:40.000Z</time>
      </trkpt>
      <trkpt lat="46.74199" lon="5.77232">
        <ele>612.79998779297</ele>
        <time>2025-06-05T10:45:44.000Z</time>
      </trkpt>
      <trkpt lat="46.74183" lon="5.77225">
        <ele>612.20001220703</ele>
        <time>2025-06-05T10:45:46.000Z</time>
      </trkpt>
      <trkpt lat="46.74176" lon="5.77222">
        <ele>611.79998779297</ele>
        <time>2025-06-05T10:45:47.000Z</time>
      </trkpt>
      <trkpt lat="46.74162" lon="5.77215">
        <ele>611.20001220703</ele>
        <time>2025-06-05T10:45:50.000Z</time>
      </trkpt>
      <trkpt lat="46.74158" lon="5.77212">
        <ele>610.79998779297</ele>
        <time>2025-06-05T10:45:51.000Z</time>
      </trkpt>
      <trkpt lat="46.7415" lon="5.77207">
        <ele>610.40002441406</ele>
        <time>2025-06-05T10:45:54.000Z</time>
      </trkpt>
      <trkpt lat="46.74143" lon="5.77203">
        <ele>610.20001220703</ele>
        <time>2025-06-05T10:46:00.000Z</time>
      </trkpt>
      <trkpt lat="46.74143" lon="5.77203">
        <ele>609.79998779297</ele>
        <time>2025-06-05T10:46:05.000Z</time>
      </trkpt>
      <trkpt lat="46.74137" lon="5.77196">
        <ele>609.59997558594</ele>
        <time>2025-06-05T10:46:13.000Z</time>
      </trkpt>
      <trkpt lat="46.74125" lon="5.77184">
        <ele>609.79998779297</ele>
        <time>2025-06-05T10:46:17.000Z</time>
      </trkpt>
      <trkpt lat="46.74102" lon="5.77151">
        <ele>609.79998779297</ele>
        <time>2025-06-05T10:46:24.000Z</time>
      </trkpt>
      <trkpt lat="46.74098" lon="5.77144">
        <ele>609.79998779297</ele>
        <time>2025-06-05T10:46:25.000Z</time>
      </trkpt>
      <trkpt lat="46.74076" lon="5.77112">
        <ele>609.79998779297</ele>
        <time>2025-06-05T10:46:31.000Z</time>
      </trkpt>
      <trkpt lat="46.74038" lon="5.77056">
        <ele>610.20001220703</ele>
        <time>2025-06-05T10:46:41.000Z</time>
      </trkpt>
      <trkpt lat="46.73998" lon="5.77001">
        <ele>610.40002441406</ele>
        <time>2025-06-05T10:46:51.000Z</time>
      </trkpt>
      <trkpt lat="46.73968" lon="5.76955">
        <ele>611</ele>
        <time>2025-06-05T10:46:59.000Z</time>
      </trkpt>
      <trkpt lat="46.7396" lon="5.76942">
        <ele>611.40002441406</ele>
        <time>2025-06-05T10:47:01.000Z</time>
      </trkpt>
      <trkpt lat="46.73939" lon="5.76913">
        <ele>611.79998779297</ele>
        <time>2025-06-05T10:47:06.000Z</time>
      </trkpt>
      <trkpt lat="46.73926" lon="5.76899">
        <ele>612</ele>
        <time>2025-06-05T10:47:09.000Z</time>
      </trkpt>
      <trkpt lat="46.73917" lon="5.7689">
        <ele>612.20001220703</ele>
        <time>2025-06-05T10:47:11.000Z</time>
      </trkpt>
      <trkpt lat="46.73899" lon="5.76873">
        <ele>612.59997558594</ele>
        <time>2025-06-05T10:47:15.000Z</time>
      </trkpt>
      <trkpt lat="46.73895" lon="5.7687">
        <ele>612.79998779297</ele>
        <time>2025-06-05T10:47:16.000Z</time>
      </trkpt>
      <trkpt lat="46.73876" lon="5.76854">
        <ele>613.40002441406</ele>
        <time>2025-06-05T10:47:20.000Z</time>
      </trkpt>
      <trkpt lat="46.73872" lon="5.7685">
        <ele>613.59997558594</ele>
        <time>2025-06-05T10:47:21.000Z</time>
      </trkpt>
      <trkpt lat="46.73853" lon="5.76834">
        <ele>614.40002441406</ele>
        <time>2025-06-05T10:47:25.000Z</time>
      </trkpt>
      <trkpt lat="46.73848" lon="5.7683">
        <ele>614.59997558594</ele>
        <time>2025-06-05T10:47:26.000Z</time>
      </trkpt>
      <trkpt lat="46.73835" lon="5.76819">
        <ele>615.40002441406</ele>
        <time>2025-06-05T10:47:29.000Z</time>
      </trkpt>
      <trkpt lat="46.73822" lon="5.76808">
        <ele>615.79998779297</ele>
        <time>2025-06-05T10:47:32.000Z</time>
      </trkpt>
      <trkpt lat="46.73804" lon="5.76791">
        <ele>616.20001220703</ele>
        <time>2025-06-05T10:47:36.000Z</time>
      </trkpt>
      <trkpt lat="46.73796" lon="5.7678">
        <ele>616.40002441406</ele>
        <time>2025-06-05T10:47:38.000Z</time>
      </trkpt>
      <trkpt lat="46.73787" lon="5.7676">
        <ele>616.40002441406</ele>
        <time>2025-06-05T10:47:41.000Z</time>
      </trkpt>
      <trkpt lat="46.73774" lon="5.76719">
        <ele>616</ele>
        <time>2025-06-05T10:47:46.000Z</time>
      </trkpt>
      <trkpt lat="46.73762" lon="5.7668">
        <ele>615.20001220703</ele>
        <time>2025-06-05T10:47:50.000Z</time>
      </trkpt>
      <trkpt lat="46.73751" lon="5.76647">
        <ele>614.59997558594</ele>
        <time>2025-06-05T10:47:53.000Z</time>
      </trkpt>
      <trkpt lat="46.73745" lon="5.76626">
        <ele>613.59997558594</ele>
        <time>2025-06-05T10:47:55.000Z</time>
      </trkpt>
      <trkpt lat="46.73743" lon="5.76616">
        <ele>613</ele>
        <time>2025-06-05T10:47:56.000Z</time>
      </trkpt>
      <trkpt lat="46.73738" lon="5.76591">
        <ele>612.20001220703</ele>
        <time>2025-06-05T10:47:58.000Z</time>
      </trkpt>
      <trkpt lat="46.73733" lon="5.76546">
        <ele>610.79998779297</ele>
        <time>2025-06-05T10:48:02.000Z</time>
      </trkpt>
      <trkpt lat="46.73729" lon="5.76511">
        <ele>609.79998779297</ele>
        <time>2025-06-05T10:48:05.000Z</time>
      </trkpt>
      <trkpt lat="46.73721" lon="5.76453">
        <ele>608.40002441406</ele>
        <time>2025-06-05T10:48:10.000Z</time>
      </trkpt>
      <trkpt lat="46.73712" lon="5.76404">
        <ele>607.79998779297</ele>
        <time>2025-06-05T10:48:15.000Z</time>
      </trkpt>
      <trkpt lat="46.73704" lon="5.76359">
        <ele>607.40002441406</ele>
        <time>2025-06-05T10:48:20.000Z</time>
      </trkpt>
      <trkpt lat="46.73702" lon="5.7635">
        <ele>607.40002441406</ele>
        <time>2025-06-05T10:48:21.000Z</time>
      </trkpt>
      <trkpt lat="46.73684" lon="5.76301">
        <ele>607.40002441406</ele>
        <time>2025-06-05T10:48:27.000Z</time>
      </trkpt>
      <trkpt lat="46.73668" lon="5.76264">
        <ele>607.20001220703</ele>
        <time>2025-06-05T10:48:32.000Z</time>
      </trkpt>
      <trkpt lat="46.73662" lon="5.76248">
        <ele>607.20001220703</ele>
        <time>2025-06-05T10:48:34.000Z</time>
      </trkpt>
      <trkpt lat="46.73657" lon="5.76233">
        <ele>607</ele>
        <time>2025-06-05T10:48:36.000Z</time>
      </trkpt>
      <trkpt lat="46.7365" lon="5.76211">
        <ele>606.59997558594</ele>
        <time>2025-06-05T10:48:39.000Z</time>
      </trkpt>
      <trkpt lat="46.73642" lon="5.76189">
        <ele>606.40002441406</ele>
        <time>2025-06-05T10:48:42.000Z</time>
      </trkpt>
      <trkpt lat="46.73635" lon="5.76167">
        <ele>606.20001220703</ele>
        <time>2025-06-05T10:48:45.000Z</time>
      </trkpt>
      <trkpt lat="46.73629" lon="5.76141">
        <ele>606.59997558594</ele>
        <time>2025-06-05T10:48:49.000Z</time>
      </trkpt>
      <trkpt lat="46.73627" lon="5.76128">
        <ele>606.59997558594</ele>
        <time>2025-06-05T10:48:51.000Z</time>
      </trkpt>
      <trkpt lat="46.73631" lon="5.76112">
        <ele>607</ele>
        <time>2025-06-05T10:48:54.000Z</time>
      </trkpt>
      <trkpt lat="46.73645" lon="5.76095">
        <ele>607</ele>
        <time>2025-06-05T10:48:59.000Z</time>
      </trkpt>
      <trkpt lat="46.7366" lon="5.7608">
        <ele>607.20001220703</ele>
        <time>2025-06-05T10:49:04.000Z</time>
      </trkpt>
      <trkpt lat="46.73665" lon="5.76065">
        <ele>607.59997558594</ele>
        <time>2025-06-05T10:49:09.000Z</time>
      </trkpt>
      <trkpt lat="46.73666" lon="5.76063">
        <ele>607.79998779297</ele>
        <time>2025-06-05T10:49:10.000Z</time>
      </trkpt>
      <trkpt lat="46.73668" lon="5.76057">
        <ele>608</ele>
        <time>2025-06-05T10:49:13.000Z</time>
      </trkpt>
      <trkpt lat="46.73668" lon="5.76056">
        <ele>608.20001220703</ele>
        <time>2025-06-05T10:49:14.000Z</time>
      </trkpt>
      <trkpt lat="46.73672" lon="5.76051">
        <ele>608</ele>
        <time>2025-06-05T10:49:17.000Z</time>
      </trkpt>
      <trkpt lat="46.73674" lon="5.76049">
        <ele>608</ele>
        <time>2025-06-05T10:49:18.000Z</time>
      </trkpt>
      <trkpt lat="46.73686" lon="5.76037">
        <ele>607.59997558594</ele>
        <time>2025-06-05T10:49:23.000Z</time>
      </trkpt>
      <trkpt lat="46.73704" lon="5.7602">
        <ele>607.20001220703</ele>
        <time>2025-06-05T10:49:30.000Z</time>
      </trkpt>
      <trkpt lat="46.7371" lon="5.76015">
        <ele>606.59997558594</ele>
        <time>2025-06-05T10:49:32.000Z</time>
      </trkpt>
      <trkpt lat="46.7373" lon="5.76006">
        <ele>605.79998779297</ele>
        <time>2025-06-05T10:49:37.000Z</time>
      </trkpt>
      <trkpt lat="46.73734" lon="5.76003">
        <ele>605.59997558594</ele>
        <time>2025-06-05T10:49:38.000Z</time>
      </trkpt>
      <trkpt lat="46.73737" lon="5.76">
        <ele>605.40002441406</ele>
        <time>2025-06-05T10:49:39.000Z</time>
      </trkpt>
      <trkpt lat="46.73747" lon="5.75995">
        <ele>604.20001220703</ele>
        <time>2025-06-05T10:49:42.000Z</time>
      </trkpt>
      <trkpt lat="46.73754" lon="5.75991">
        <ele>603.20001220703</ele>
        <time>2025-06-05T10:49:44.000Z</time>
      </trkpt>
      <trkpt lat="46.73764" lon="5.75988">
        <ele>601.79998779297</ele>
        <time>2025-06-05T10:49:47.000Z</time>
      </trkpt>
      <trkpt lat="46.73773" lon="5.75981">
        <ele>600.20001220703</ele>
        <time>2025-06-05T10:49:51.000Z</time>
      </trkpt>
      <trkpt lat="46.73773" lon="5.75981">
        <ele>600</ele>
        <time>2025-06-05T10:49:52.000Z</time>
      </trkpt>
      <trkpt lat="46.73772" lon="5.7598">
        <ele>599</ele>
        <time>2025-06-05T10:49:56.000Z</time>
      </trkpt>
      <trkpt lat="46.73772" lon="5.75975">
        <ele>598.59997558594</ele>
        <time>2025-06-05T10:49:58.000Z</time>
      </trkpt>
      <trkpt lat="46.73764" lon="5.75961">
        <ele>598</ele>
        <time>2025-06-05T10:50:03.000Z</time>
      </trkpt>
      <trkpt lat="46.73762" lon="5.75957">
        <ele>598</ele>
        <time>2025-06-05T10:50:05.000Z</time>
      </trkpt>
      <trkpt lat="46.73747" lon="5.75939">
        <ele>597.59997558594</ele>
        <time>2025-06-05T10:50:10.000Z</time>
      </trkpt>
      <trkpt lat="46.73745" lon="5.75935">
        <ele>598</ele>
        <time>2025-06-05T10:50:12.000Z</time>
      </trkpt>
      <trkpt lat="46.73741" lon="5.7593">
        <ele>597.59997558594</ele>
        <time>2025-06-05T10:50:14.000Z</time>
      </trkpt>
      <trkpt lat="46.7373" lon="5.75911">
        <ele>597.59997558594</ele>
        <time>2025-06-05T10:50:19.000Z</time>
      </trkpt>
      <trkpt lat="46.73727" lon="5.75906">
        <ele>597.59997558594</ele>
        <time>2025-06-05T10:50:21.000Z</time>
      </trkpt>
      <trkpt lat="46.73719" lon="5.75892">
        <ele>597.40002441406</ele>
        <time>2025-06-05T10:50:24.000Z</time>
      </trkpt>
      <trkpt lat="46.73714" lon="5.7587">
        <ele>597.20001220703</ele>
        <time>2025-06-05T10:50:29.000Z</time>
      </trkpt>
      <trkpt lat="46.73711" lon="5.7586">
        <ele>596.79998779297</ele>
        <time>2025-06-05T10:50:31.000Z</time>
      </trkpt>
      <trkpt lat="46.73708" lon="5.75853">
        <ele>596.59997558594</ele>
        <time>2025-06-05T10:50:32.000Z</time>
      </trkpt>
      <trkpt lat="46.73699" lon="5.75842">
        <ele>596</ele>
        <time>2025-06-05T10:50:34.000Z</time>
      </trkpt>
      <trkpt lat="46.73693" lon="5.7583">
        <ele>595.59997558594</ele>
        <time>2025-06-05T10:50:36.000Z</time>
      </trkpt>
      <trkpt lat="46.73684" lon="5.75818">
        <ele>594.79998779297</ele>
        <time>2025-06-05T10:50:39.000Z</time>
      </trkpt>
      <trkpt lat="46.73682" lon="5.75808">
        <ele>594.59997558594</ele>
        <time>2025-06-05T10:50:41.000Z</time>
      </trkpt>
      <trkpt lat="46.73674" lon="5.75797">
        <ele>594.40002441406</ele>
        <time>2025-06-05T10:50:44.000Z</time>
      </trkpt>
      <trkpt lat="46.73652" lon="5.75778">
        <ele>593.79998779297</ele>
        <time>2025-06-05T10:50:50.000Z</time>
      </trkpt>
      <trkpt lat="46.7365" lon="5.75774">
        <ele>593.79998779297</ele>
        <time>2025-06-05T10:50:51.000Z</time>
      </trkpt>
      <trkpt lat="46.73638" lon="5.75752">
        <ele>594.20001220703</ele>
        <time>2025-06-05T10:50:56.000Z</time>
      </trkpt>
      <trkpt lat="46.73628" lon="5.75741">
        <ele>594.40002441406</ele>
        <time>2025-06-05T10:50:59.000Z</time>
      </trkpt>
      <trkpt lat="46.73619" lon="5.75734">
        <ele>594.40002441406</ele>
        <time>2025-06-05T10:51:01.000Z</time>
      </trkpt>
      <trkpt lat="46.7361" lon="5.75724">
        <ele>594.59997558594</ele>
        <time>2025-06-05T10:51:04.000Z</time>
      </trkpt>
      <trkpt lat="46.73605" lon="5.75716">
        <ele>594.59997558594</ele>
        <time>2025-06-05T10:51:05.000Z</time>
      </trkpt>
      <trkpt lat="46.73586" lon="5.75696">
        <ele>594.59997558594</ele>
        <time>2025-06-05T10:51:10.000Z</time>
      </trkpt>
      <trkpt lat="46.73567" lon="5.75677">
        <ele>594.20001220703</ele>
        <time>2025-06-05T10:51:16.000Z</time>
      </trkpt>
      <trkpt lat="46.73558" lon="5.75669">
        <ele>594.40002441406</ele>
        <time>2025-06-05T10:51:19.000Z</time>
      </trkpt>
      <trkpt lat="46.73551" lon="5.75662">
        <ele>594</ele>
        <time>2025-06-05T10:51:21.000Z</time>
      </trkpt>
      <trkpt lat="46.73544" lon="5.75652">
        <ele>593.79998779297</ele>
        <time>2025-06-05T10:51:24.000Z</time>
      </trkpt>
      <trkpt lat="46.7354" lon="5.75644">
        <ele>593.40002441406</ele>
        <time>2025-06-05T10:51:26.000Z</time>
      </trkpt>
      <trkpt lat="46.73534" lon="5.75633">
        <ele>593</ele>
        <time>2025-06-05T10:51:28.000Z</time>
      </trkpt>
      <trkpt lat="46.73526" lon="5.75624">
        <ele>592.79998779297</ele>
        <time>2025-06-05T10:51:30.000Z</time>
      </trkpt>
      <trkpt lat="46.73516" lon="5.75613">
        <ele>592.59997558594</ele>
        <time>2025-06-05T10:51:32.000Z</time>
      </trkpt>
      <trkpt lat="46.73512" lon="5.75609">
        <ele>592.40002441406</ele>
        <time>2025-06-05T10:51:33.000Z</time>
      </trkpt>
      <trkpt lat="46.73507" lon="5.75604">
        <ele>592.20001220703</ele>
        <time>2025-06-05T10:51:34.000Z</time>
      </trkpt>
      <trkpt lat="46.73503" lon="5.75598">
        <ele>592</ele>
        <time>2025-06-05T10:51:35.000Z</time>
      </trkpt>
      <trkpt lat="46.73501" lon="5.75593">
        <ele>591.79998779297</ele>
        <time>2025-06-05T10:51:36.000Z</time>
      </trkpt>
      <trkpt lat="46.73497" lon="5.75583">
        <ele>591.40002441406</ele>
        <time>2025-06-05T10:51:38.000Z</time>
      </trkpt>
      <trkpt lat="46.73493" lon="5.75574">
        <ele>591.20001220703</ele>
        <time>2025-06-05T10:51:40.000Z</time>
      </trkpt>
      <trkpt lat="46.73484" lon="5.75563">
        <ele>591.20001220703</ele>
        <time>2025-06-05T10:51:42.000Z</time>
      </trkpt>
      <trkpt lat="46.73483" lon="5.75558">
        <ele>591.20001220703</ele>
        <time>2025-06-05T10:51:43.000Z</time>
      </trkpt>
      <trkpt lat="46.73482" lon="5.75554">
        <ele>591</ele>
        <time>2025-06-05T10:51:44.000Z</time>
      </trkpt>
      <trkpt lat="46.73473" lon="5.75543">
        <ele>590.79998779297</ele>
        <time>2025-06-05T10:51:46.000Z</time>
      </trkpt>
      <trkpt lat="46.73464" lon="5.75523">
        <ele>590.20001220703</ele>
        <time>2025-06-05T10:51:49.000Z</time>
      </trkpt>
      <trkpt lat="46.73459" lon="5.75506">
        <ele>589.79998779297</ele>
        <time>2025-06-05T10:51:52.000Z</time>
      </trkpt>
      <trkpt lat="46.73456" lon="5.75496">
        <ele>589.20001220703</ele>
        <time>2025-06-05T10:51:54.000Z</time>
      </trkpt>
      <trkpt lat="46.73451" lon="5.7548">
        <ele>588.79998779297</ele>
        <time>2025-06-05T10:51:57.000Z</time>
      </trkpt>
      <trkpt lat="46.73454" lon="5.7547">
        <ele>588</ele>
        <time>2025-06-05T10:51:59.000Z</time>
      </trkpt>
      <trkpt lat="46.73449" lon="5.75459">
        <ele>587.79998779297</ele>
        <time>2025-06-05T10:52:01.000Z</time>
      </trkpt>
      <trkpt lat="46.73436" lon="5.7544">
        <ele>587</ele>
        <time>2025-06-05T10:52:04.000Z</time>
      </trkpt>
      <trkpt lat="46.73433" lon="5.75434">
        <ele>587</ele>
        <time>2025-06-05T10:52:05.000Z</time>
      </trkpt>
      <trkpt lat="46.73428" lon="5.75427">
        <ele>586.79998779297</ele>
        <time>2025-06-05T10:52:06.000Z</time>
      </trkpt>
      <trkpt lat="46.73417" lon="5.75417">
        <ele>586.59997558594</ele>
        <time>2025-06-05T10:52:08.000Z</time>
      </trkpt>
      <trkpt lat="46.73411" lon="5.75407">
        <ele>586.40002441406</ele>
        <time>2025-06-05T10:52:10.000Z</time>
      </trkpt>
      <trkpt lat="46.73402" lon="5.75398">
        <ele>586.40002441406</ele>
        <time>2025-06-05T10:52:12.000Z</time>
      </trkpt>
      <trkpt lat="46.73387" lon="5.75386">
        <ele>586.40002441406</ele>
        <time>2025-06-05T10:52:15.000Z</time>
      </trkpt>
      <trkpt lat="46.73359" lon="5.75363">
        <ele>587.20001220703</ele>
        <time>2025-06-05T10:52:20.000Z</time>
      </trkpt>
      <trkpt lat="46.73341" lon="5.75347">
        <ele>587.40002441406</ele>
        <time>2025-06-05T10:52:24.000Z</time>
      </trkpt>
      <trkpt lat="46.73336" lon="5.75341">
        <ele>587.40002441406</ele>
        <time>2025-06-05T10:52:25.000Z</time>
      </trkpt>
      <trkpt lat="46.73296" lon="5.75297">
        <ele>587</ele>
        <time>2025-06-05T10:52:34.000Z</time>
      </trkpt>
      <trkpt lat="46.73292" lon="5.75294">
        <ele>587</ele>
        <time>2025-06-05T10:52:35.000Z</time>
      </trkpt>
      <trkpt lat="46.73287" lon="5.7529">
        <ele>587.20001220703</ele>
        <time>2025-06-05T10:52:36.000Z</time>
      </trkpt>
      <trkpt lat="46.73266" lon="5.7528">
        <ele>587</ele>
        <time>2025-06-05T10:52:40.000Z</time>
      </trkpt>
      <trkpt lat="46.73255" lon="5.75274">
        <ele>586.79998779297</ele>
        <time>2025-06-05T10:52:42.000Z</time>
      </trkpt>
      <trkpt lat="46.73248" lon="5.75265">
        <ele>586.79998779297</ele>
        <time>2025-06-05T10:52:44.000Z</time>
      </trkpt>
      <trkpt lat="46.73231" lon="5.75228">
        <ele>587.20001220703</ele>
        <time>2025-06-05T10:52:49.000Z</time>
      </trkpt>
      <trkpt lat="46.73222" lon="5.75206">
        <ele>587</ele>
        <time>2025-06-05T10:52:52.000Z</time>
      </trkpt>
      <trkpt lat="46.73205" lon="5.75177">
        <ele>586.79998779297</ele>
        <time>2025-06-05T10:52:56.000Z</time>
      </trkpt>
      <trkpt lat="46.73185" lon="5.75148">
        <ele>586</ele>
        <time>2025-06-05T10:53:00.000Z</time>
      </trkpt>
      <trkpt lat="46.73174" lon="5.75135">
        <ele>585.40002441406</ele>
        <time>2025-06-05T10:53:02.000Z</time>
      </trkpt>
      <trkpt lat="46.73161" lon="5.75114">
        <ele>585</ele>
        <time>2025-06-05T10:53:05.000Z</time>
      </trkpt>
      <trkpt lat="46.73151" lon="5.75093">
        <ele>584.40002441406</ele>
        <time>2025-06-05T10:53:08.000Z</time>
      </trkpt>
      <trkpt lat="46.73149" lon="5.75086">
        <ele>584.40002441406</ele>
        <time>2025-06-05T10:53:09.000Z</time>
      </trkpt>
      <trkpt lat="46.73144" lon="5.75072">
        <ele>584.20001220703</ele>
        <time>2025-06-05T10:53:11.000Z</time>
      </trkpt>
      <trkpt lat="46.73139" lon="5.75057">
        <ele>583.59997558594</ele>
        <time>2025-06-05T10:53:13.000Z</time>
      </trkpt>
      <trkpt lat="46.73131" lon="5.75033">
        <ele>583.59997558594</ele>
        <time>2025-06-05T10:53:16.000Z</time>
      </trkpt>
      <trkpt lat="46.7312" lon="5.75011">
        <ele>583</ele>
        <time>2025-06-05T10:53:19.000Z</time>
      </trkpt>
      <trkpt lat="46.73116" lon="5.75005">
        <ele>582.79998779297</ele>
        <time>2025-06-05T10:53:20.000Z</time>
      </trkpt>
      <trkpt lat="46.73107" lon="5.74994">
        <ele>582.79998779297</ele>
        <time>2025-06-05T10:53:22.000Z</time>
      </trkpt>
      <trkpt lat="46.73091" lon="5.7498">
        <ele>582.40002441406</ele>
        <time>2025-06-05T10:53:25.000Z</time>
      </trkpt>
      <trkpt lat="46.73071" lon="5.74964">
        <ele>582.40002441406</ele>
        <time>2025-06-05T10:53:29.000Z</time>
      </trkpt>
      <trkpt lat="46.73066" lon="5.74959">
        <ele>582.20001220703</ele>
        <time>2025-06-05T10:53:30.000Z</time>
      </trkpt>
      <trkpt lat="46.73063" lon="5.74954">
        <ele>582.20001220703</ele>
        <time>2025-06-05T10:53:31.000Z</time>
      </trkpt>
      <trkpt lat="46.73056" lon="5.74941">
        <ele>582.20001220703</ele>
        <time>2025-06-05T10:53:33.000Z</time>
      </trkpt>
      <trkpt lat="46.73053" lon="5.74934">
        <ele>582.20001220703</ele>
        <time>2025-06-05T10:53:34.000Z</time>
      </trkpt>
      <trkpt lat="46.73052" lon="5.74927">
        <ele>582.20001220703</ele>
        <time>2025-06-05T10:53:35.000Z</time>
      </trkpt>
      <trkpt lat="46.73043" lon="5.74894">
        <ele>582.20001220703</ele>
        <time>2025-06-05T10:53:39.000Z</time>
      </trkpt>
      <trkpt lat="46.73035" lon="5.74855">
        <ele>582.20001220703</ele>
        <time>2025-06-05T10:53:44.000Z</time>
      </trkpt>
      <trkpt lat="46.73033" lon="5.74848">
        <ele>582.20001220703</ele>
        <time>2025-06-05T10:53:45.000Z</time>
      </trkpt>
      <trkpt lat="46.7303" lon="5.74841">
        <ele>582</ele>
        <time>2025-06-05T10:53:46.000Z</time>
      </trkpt>
      <trkpt lat="46.73016" lon="5.7481">
        <ele>581.59997558594</ele>
        <time>2025-06-05T10:53:50.000Z</time>
      </trkpt>
      <trkpt lat="46.73006" lon="5.74785">
        <ele>580.79998779297</ele>
        <time>2025-06-05T10:53:53.000Z</time>
      </trkpt>
      <trkpt lat="46.73001" lon="5.7477">
        <ele>580.40002441406</ele>
        <time>2025-06-05T10:53:55.000Z</time>
      </trkpt>
      <trkpt lat="46.72999" lon="5.74762">
        <ele>579.59997558594</ele>
        <time>2025-06-05T10:53:56.000Z</time>
      </trkpt>
      <trkpt lat="46.72983" lon="5.74715">
        <ele>579.59997558594</ele>
        <time>2025-06-05T10:54:02.000Z</time>
      </trkpt>
      <trkpt lat="46.72975" lon="5.74672">
        <ele>579.79998779297</ele>
        <time>2025-06-05T10:54:08.000Z</time>
      </trkpt>
      <trkpt lat="46.72967" lon="5.74637">
        <ele>580</ele>
        <time>2025-06-05T10:54:14.000Z</time>
      </trkpt>
      <trkpt lat="46.72966" lon="5.74631">
        <ele>580</ele>
        <time>2025-06-05T10:54:15.000Z</time>
      </trkpt>
      <trkpt lat="46.72961" lon="5.74603">
        <ele>579.79998779297</ele>
        <time>2025-06-05T10:54:19.000Z</time>
      </trkpt>
      <trkpt lat="46.72958" lon="5.74597">
        <ele>579.59997558594</ele>
        <time>2025-06-05T10:54:20.000Z</time>
      </trkpt>
      <trkpt lat="46.72953" lon="5.74587">
        <ele>579.79998779297</ele>
        <time>2025-06-05T10:54:22.000Z</time>
      </trkpt>
      <trkpt lat="46.7294" lon="5.74565">
        <ele>579.59997558594</ele>
        <time>2025-06-05T10:54:26.000Z</time>
      </trkpt>
      <trkpt lat="46.72923" lon="5.74537">
        <ele>579.40002441406</ele>
        <time>2025-06-05T10:54:32.000Z</time>
      </trkpt>
      <trkpt lat="46.72914" lon="5.74516">
        <ele>579.20001220703</ele>
        <time>2025-06-05T10:54:37.000Z</time>
      </trkpt>
      <trkpt lat="46.72913" lon="5.74512">
        <ele>579.20001220703</ele>
        <time>2025-06-05T10:54:38.000Z</time>
      </trkpt>
      <trkpt lat="46.72907" lon="5.74504">
        <ele>579.20001220703</ele>
        <time>2025-06-05T10:54:40.000Z</time>
      </trkpt>
      <trkpt lat="46.72903" lon="5.745">
        <ele>579.20001220703</ele>
        <time>2025-06-05T10:54:41.000Z</time>
      </trkpt>
      <trkpt lat="46.7289" lon="5.74491">
        <ele>579.20001220703</ele>
        <time>2025-06-05T10:54:44.000Z</time>
      </trkpt>
      <trkpt lat="46.7288" lon="5.74487">
        <ele>578.79998779297</ele>
        <time>2025-06-05T10:54:46.000Z</time>
      </trkpt>
      <trkpt lat="46.72843" lon="5.74474">
        <ele>578</ele>
        <time>2025-06-05T10:54:53.000Z</time>
      </trkpt>
      <trkpt lat="46.72807" lon="5.74464">
        <ele>578</ele>
        <time>2025-06-05T10:55:00.000Z</time>
      </trkpt>
      <trkpt lat="46.72802" lon="5.74461">
        <ele>578</ele>
        <time>2025-06-05T10:55:01.000Z</time>
      </trkpt>
      <trkpt lat="46.72798" lon="5.74457">
        <ele>578</ele>
        <time>2025-06-05T10:55:02.000Z</time>
      </trkpt>
      <trkpt lat="46.72788" lon="5.74441">
        <ele>578</ele>
        <time>2025-06-05T10:55:05.000Z</time>
      </trkpt>
      <trkpt lat="46.72784" lon="5.74436">
        <ele>578</ele>
        <time>2025-06-05T10:55:06.000Z</time>
      </trkpt>
      <trkpt lat="46.72776" lon="5.74429">
        <ele>578</ele>
        <time>2025-06-05T10:55:08.000Z</time>
      </trkpt>
      <trkpt lat="46.72771" lon="5.74427">
        <ele>578</ele>
        <time>2025-06-05T10:55:09.000Z</time>
      </trkpt>
      <trkpt lat="46.72766" lon="5.74424">
        <ele>578</ele>
        <time>2025-06-05T10:55:10.000Z</time>
      </trkpt>
      <trkpt lat="46.72728" lon="5.7441">
        <ele>578</ele>
        <time>2025-06-05T10:55:17.000Z</time>
      </trkpt>
      <trkpt lat="46.7272" lon="5.74403">
        <ele>578</ele>
        <time>2025-06-05T10:55:19.000Z</time>
      </trkpt>
      <trkpt lat="46.72714" lon="5.74394">
        <ele>577.79998779297</ele>
        <time>2025-06-05T10:55:21.000Z</time>
      </trkpt>
      <trkpt lat="46.72695" lon="5.74367">
        <ele>577.40002441406</ele>
        <time>2025-06-05T10:55:26.000Z</time>
      </trkpt>
      <trkpt lat="46.72686" lon="5.74358">
        <ele>576.59997558594</ele>
        <time>2025-06-05T10:55:28.000Z</time>
      </trkpt>
      <trkpt lat="46.72683" lon="5.74354">
        <ele>576.40002441406</ele>
        <time>2025-06-05T10:55:29.000Z</time>
      </trkpt>
      <trkpt lat="46.72675" lon="5.74342">
        <ele>576</ele>
        <time>2025-06-05T10:55:32.000Z</time>
      </trkpt>
      <trkpt lat="46.72667" lon="5.74328">
        <ele>575.59997558594</ele>
        <time>2025-06-05T10:55:36.000Z</time>
      </trkpt>
      <trkpt lat="46.72667" lon="5.74326">
        <ele>575.40002441406</ele>
        <time>2025-06-05T10:55:38.000Z</time>
      </trkpt>
      <trkpt lat="46.72665" lon="5.74325">
        <ele>575.20001220703</ele>
        <time>2025-06-05T10:55:42.000Z</time>
      </trkpt>
      <trkpt lat="46.72667" lon="5.74328">
        <ele>575.20001220703</ele>
        <time>2025-06-05T10:55:45.000Z</time>
      </trkpt>
      <trkpt lat="46.72668" lon="5.7433">
        <ele>575.20001220703</ele>
        <time>2025-06-05T10:55:46.000Z</time>
      </trkpt>
      <trkpt lat="46.72675" lon="5.74338">
        <ele>575.20001220703</ele>
        <time>2025-06-05T10:55:50.000Z</time>
      </trkpt>
      <trkpt lat="46.72689" lon="5.74357">
        <ele>575.20001220703</ele>
        <time>2025-06-05T10:55:56.000Z</time>
      </trkpt>
      <trkpt lat="46.7271" lon="5.74386">
        <ele>575.59997558594</ele>
        <time>2025-06-05T10:56:03.000Z</time>
      </trkpt>
      <trkpt lat="46.72714" lon="5.74398">
        <ele>575.79998779297</ele>
        <time>2025-06-05T10:56:06.000Z</time>
      </trkpt>
      <trkpt lat="46.72713" lon="5.74402">
        <ele>576</ele>
        <time>2025-06-05T10:56:07.000Z</time>
      </trkpt>
      <trkpt lat="46.72703" lon="5.74411">
        <ele>576.59997558594</ele>
        <time>2025-06-05T10:56:11.000Z</time>
      </trkpt>
      <trkpt lat="46.72687" lon="5.74407">
        <ele>576.79998779297</ele>
        <time>2025-06-05T10:56:16.000Z</time>
      </trkpt>
      <trkpt lat="46.72684" lon="5.74406">
        <ele>576.79998779297</ele>
        <time>2025-06-05T10:56:17.000Z</time>
      </trkpt>
      <trkpt lat="46.72674" lon="5.74402">
        <ele>576.79998779297</ele>
        <time>2025-06-05T10:56:20.000Z</time>
      </trkpt>
      <trkpt lat="46.72667" lon="5.74398">
        <ele>576.79998779297</ele>
        <time>2025-06-05T10:56:22.000Z</time>
      </trkpt>
      <trkpt lat="46.72664" lon="5.74395">
        <ele>576.79998779297</ele>
        <time>2025-06-05T10:56:23.000Z</time>
      </trkpt>
      <trkpt lat="46.72658" lon="5.74391">
        <ele>576.59997558594</ele>
        <time>2025-06-05T10:56:25.000Z</time>
      </trkpt>
      <trkpt lat="46.7265" lon="5.74388">
        <ele>576.59997558594</ele>
        <time>2025-06-05T10:56:27.000Z</time>
      </trkpt>
      <trkpt lat="46.72648" lon="5.74388">
        <ele>576.40002441406</ele>
        <time>2025-06-05T10:56:28.000Z</time>
      </trkpt>
      <trkpt lat="46.72645" lon="5.74388">
        <ele>576.40002441406</ele>
        <time>2025-06-05T10:56:29.000Z</time>
      </trkpt>
      <trkpt lat="46.7264" lon="5.74388">
        <ele>576.40002441406</ele>
        <time>2025-06-05T10:56:31.000Z</time>
      </trkpt>
      <trkpt lat="46.72629" lon="5.74387">
        <ele>576.40002441406</ele>
        <time>2025-06-05T10:56:34.000Z</time>
      </trkpt>
      <trkpt lat="46.72624" lon="5.74382">
        <ele>576.59997558594</ele>
        <time>2025-06-05T10:56:36.000Z</time>
      </trkpt>
      <trkpt lat="46.72614" lon="5.7437">
        <ele>577.20001220703</ele>
        <time>2025-06-05T10:56:39.000Z</time>
      </trkpt>
      <trkpt lat="46.72602" lon="5.74357">
        <ele>577.20001220703</ele>
        <time>2025-06-05T10:56:42.000Z</time>
      </trkpt>
      <trkpt lat="46.72595" lon="5.74347">
        <ele>577.40002441406</ele>
        <time>2025-06-05T10:56:44.000Z</time>
      </trkpt>
      <trkpt lat="46.7259" lon="5.74342">
        <ele>577.40002441406</ele>
        <time>2025-06-05T10:56:45.000Z</time>
      </trkpt>
      <trkpt lat="46.72581" lon="5.74334">
        <ele>577.40002441406</ele>
        <time>2025-06-05T10:56:47.000Z</time>
      </trkpt>
      <trkpt lat="46.7256" lon="5.7431">
        <ele>577.40002441406</ele>
        <time>2025-06-05T10:56:51.000Z</time>
      </trkpt>
      <trkpt lat="46.72555" lon="5.74307">
        <ele>577.40002441406</ele>
        <time>2025-06-05T10:56:52.000Z</time>
      </trkpt>
      <trkpt lat="46.72549" lon="5.74302">
        <ele>577.40002441406</ele>
        <time>2025-06-05T10:56:54.000Z</time>
      </trkpt>
      <trkpt lat="46.72539" lon="5.74289">
        <ele>577.59997558594</ele>
        <time>2025-06-05T10:56:57.000Z</time>
      </trkpt>
      <trkpt lat="46.72534" lon="5.74284">
        <ele>577.59997558594</ele>
        <time>2025-06-05T10:56:58.000Z</time>
      </trkpt>
      <trkpt lat="46.72528" lon="5.74279">
        <ele>577.59997558594</ele>
        <time>2025-06-05T10:56:59.000Z</time>
      </trkpt>
      <trkpt lat="46.72519" lon="5.74263">
        <ele>577.59997558594</ele>
        <time>2025-06-05T10:57:02.000Z</time>
      </trkpt>
      <trkpt lat="46.7251" lon="5.7425">
        <ele>577.40002441406</ele>
        <time>2025-06-05T10:57:05.000Z</time>
      </trkpt>
      <trkpt lat="46.72499" lon="5.74238">
        <ele>577</ele>
        <time>2025-06-05T10:57:07.000Z</time>
      </trkpt>
      <trkpt lat="46.72496" lon="5.74235">
        <ele>576.59997558594</ele>
        <time>2025-06-05T10:57:08.000Z</time>
      </trkpt>
      <trkpt lat="46.72493" lon="5.74232">
        <ele>576.40002441406</ele>
        <time>2025-06-05T10:57:09.000Z</time>
      </trkpt>
      <trkpt lat="46.72489" lon="5.74225">
        <ele>576</ele>
        <time>2025-06-05T10:57:11.000Z</time>
      </trkpt>
      <trkpt lat="46.72481" lon="5.74215">
        <ele>575.79998779297</ele>
        <time>2025-06-05T10:57:13.000Z</time>
      </trkpt>
      <trkpt lat="46.72475" lon="5.74208">
        <ele>575.79998779297</ele>
        <time>2025-06-05T10:57:14.000Z</time>
      </trkpt>
      <trkpt lat="46.7247" lon="5.74198">
        <ele>575.59997558594</ele>
        <time>2025-06-05T10:57:16.000Z</time>
      </trkpt>
      <trkpt lat="46.7246" lon="5.74188">
        <ele>575.40002441406</ele>
        <time>2025-06-05T10:57:18.000Z</time>
      </trkpt>
      <trkpt lat="46.72454" lon="5.74183">
        <ele>575.20001220703</ele>
        <time>2025-06-05T10:57:19.000Z</time>
      </trkpt>
      <trkpt lat="46.72447" lon="5.74175">
        <ele>575.20001220703</ele>
        <time>2025-06-05T10:57:21.000Z</time>
      </trkpt>
      <trkpt lat="46.7244" lon="5.74165">
        <ele>575.20001220703</ele>
        <time>2025-06-05T10:57:23.000Z</time>
      </trkpt>
      <trkpt lat="46.72436" lon="5.7416">
        <ele>575.20001220703</ele>
        <time>2025-06-05T10:57:24.000Z</time>
      </trkpt>
      <trkpt lat="46.72427" lon="5.74153">
        <ele>575.59997558594</ele>
        <time>2025-06-05T10:57:27.000Z</time>
      </trkpt>
      <trkpt lat="46.72415" lon="5.7414">
        <ele>575.79998779297</ele>
        <time>2025-06-05T10:57:31.000Z</time>
      </trkpt>
      <trkpt lat="46.72408" lon="5.74131">
        <ele>575.59997558594</ele>
        <time>2025-06-05T10:57:33.000Z</time>
      </trkpt>
      <trkpt lat="46.72402" lon="5.74124">
        <ele>575.40002441406</ele>
        <time>2025-06-05T10:57:35.000Z</time>
      </trkpt>
      <trkpt lat="46.72381" lon="5.74099">
        <ele>575.59997558594</ele>
        <time>2025-06-05T10:57:40.000Z</time>
      </trkpt>
      <trkpt lat="46.72378" lon="5.74094">
        <ele>575.59997558594</ele>
        <time>2025-06-05T10:57:41.000Z</time>
      </trkpt>
      <trkpt lat="46.72375" lon="5.74081">
        <ele>575.59997558594</ele>
        <time>2025-06-05T10:57:43.000Z</time>
      </trkpt>
      <trkpt lat="46.72372" lon="5.74075">
        <ele>576</ele>
        <time>2025-06-05T10:57:44.000Z</time>
      </trkpt>
      <trkpt lat="46.72364" lon="5.74067">
        <ele>576.40002441406</ele>
        <time>2025-06-05T10:57:46.000Z</time>
      </trkpt>
      <trkpt lat="46.72339" lon="5.74036">
        <ele>576.79998779297</ele>
        <time>2025-06-05T10:57:52.000Z</time>
      </trkpt>
      <trkpt lat="46.72335" lon="5.74027">
        <ele>576.79998779297</ele>
        <time>2025-06-05T10:57:54.000Z</time>
      </trkpt>
      <trkpt lat="46.72334" lon="5.74022">
        <ele>576.79998779297</ele>
        <time>2025-06-05T10:57:55.000Z</time>
      </trkpt>
      <trkpt lat="46.72331" lon="5.74015">
        <ele>577</ele>
        <time>2025-06-05T10:57:56.000Z</time>
      </trkpt>
      <trkpt lat="46.72327" lon="5.74007">
        <ele>577.59997558594</ele>
        <time>2025-06-05T10:57:58.000Z</time>
      </trkpt>
      <trkpt lat="46.72324" lon="5.74003">
        <ele>577.59997558594</ele>
        <time>2025-06-05T10:57:59.000Z</time>
      </trkpt>
      <trkpt lat="46.72318" lon="5.73996">
        <ele>577.79998779297</ele>
        <time>2025-06-05T10:58:00.000Z</time>
      </trkpt>
      <trkpt lat="46.72311" lon="5.73986">
        <ele>577.79998779297</ele>
        <time>2025-06-05T10:58:02.000Z</time>
      </trkpt>
      <trkpt lat="46.7229" lon="5.73967">
        <ele>577.79998779297</ele>
        <time>2025-06-05T10:58:05.000Z</time>
      </trkpt>
      <trkpt lat="46.72277" lon="5.7397">
        <ele>576.79998779297</ele>
        <time>2025-06-05T10:58:10.000Z</time>
      </trkpt>
      <trkpt lat="46.72266" lon="5.73968">
        <ele>576.20001220703</ele>
        <time>2025-06-05T10:58:15.000Z</time>
      </trkpt>
      <trkpt lat="46.72261" lon="5.73967">
        <ele>576</ele>
        <time>2025-06-05T10:58:20.000Z</time>
      </trkpt>
      <trkpt lat="46.72247" lon="5.73954">
        <ele>576.40002441406</ele>
        <time>2025-06-05T10:58:28.000Z</time>
      </trkpt>
      <trkpt lat="46.72245" lon="5.73953">
        <ele>576.40002441406</ele>
        <time>2025-06-05T10:58:33.000Z</time>
      </trkpt>
      <trkpt lat="46.72237" lon="5.73952">
        <ele>576.20001220703</ele>
        <time>2025-06-05T10:58:37.000Z</time>
      </trkpt>
      <trkpt lat="46.72226" lon="5.7395">
        <ele>576.20001220703</ele>
        <time>2025-06-05T10:58:40.000Z</time>
      </trkpt>
      <trkpt lat="46.72204" lon="5.73953">
        <ele>576</ele>
        <time>2025-06-05T10:58:45.000Z</time>
      </trkpt>
      <trkpt lat="46.722" lon="5.73955">
        <ele>576</ele>
        <time>2025-06-05T10:58:46.000Z</time>
      </trkpt>
      <trkpt lat="46.72191" lon="5.73954">
        <ele>576</ele>
        <time>2025-06-05T10:58:48.000Z</time>
      </trkpt>
      <trkpt lat="46.72177" lon="5.73945">
        <ele>576</ele>
        <time>2025-06-05T10:58:50.000Z</time>
      </trkpt>
      <trkpt lat="46.72158" lon="5.73939">
        <ele>576.40002441406</ele>
        <time>2025-06-05T10:58:53.000Z</time>
      </trkpt>
      <trkpt lat="46.72137" lon="5.7393">
        <ele>577</ele>
        <time>2025-06-05T10:58:58.000Z</time>
      </trkpt>
      <trkpt lat="46.72116" lon="5.73931">
        <ele>578.20001220703</ele>
        <time>2025-06-05T10:59:03.000Z</time>
      </trkpt>
      <trkpt lat="46.72098" lon="5.73935">
        <ele>579.20001220703</ele>
        <time>2025-06-05T10:59:08.000Z</time>
      </trkpt>
      <trkpt lat="46.72094" lon="5.73934">
        <ele>579.40002441406</ele>
        <time>2025-06-05T10:59:09.000Z</time>
      </trkpt>
      <trkpt lat="46.72072" lon="5.73941">
        <ele>579.59997558594</ele>
        <time>2025-06-05T10:59:14.000Z</time>
      </trkpt>
      <trkpt lat="46.72056" lon="5.73945">
        <ele>579.40002441406</ele>
        <time>2025-06-05T10:59:18.000Z</time>
      </trkpt>
      <trkpt lat="46.72051" lon="5.73943">
        <ele>579.20001220703</ele>
        <time>2025-06-05T10:59:19.000Z</time>
      </trkpt>
      <trkpt lat="46.72048" lon="5.7394">
        <ele>579.20001220703</ele>
        <time>2025-06-05T10:59:20.000Z</time>
      </trkpt>
      <trkpt lat="46.72034" lon="5.73927">
        <ele>579</ele>
        <time>2025-06-05T10:59:23.000Z</time>
      </trkpt>
      <trkpt lat="46.72025" lon="5.73918">
        <ele>578.79998779297</ele>
        <time>2025-06-05T10:59:25.000Z</time>
      </trkpt>
      <trkpt lat="46.72013" lon="5.73902">
        <ele>578.40002441406</ele>
        <time>2025-06-05T10:59:28.000Z</time>
      </trkpt>
      <trkpt lat="46.72009" lon="5.73896">
        <ele>578</ele>
        <time>2025-06-05T10:59:29.000Z</time>
      </trkpt>
      <trkpt lat="46.72002" lon="5.73886">
        <ele>577.59997558594</ele>
        <time>2025-06-05T10:59:31.000Z</time>
      </trkpt>
      <trkpt lat="46.71994" lon="5.73875">
        <ele>577.20001220703</ele>
        <time>2025-06-05T10:59:33.000Z</time>
      </trkpt>
      <trkpt lat="46.71987" lon="5.73867">
        <ele>576.79998779297</ele>
        <time>2025-06-05T10:59:35.000Z</time>
      </trkpt>
      <trkpt lat="46.71982" lon="5.73858">
        <ele>576.79998779297</ele>
        <time>2025-06-05T10:59:37.000Z</time>
      </trkpt>
      <trkpt lat="46.71978" lon="5.73851">
        <ele>576.79998779297</ele>
        <time>2025-06-05T10:59:39.000Z</time>
      </trkpt>
      <trkpt lat="46.71973" lon="5.73843">
        <ele>577</ele>
        <time>2025-06-05T10:59:41.000Z</time>
      </trkpt>
      <trkpt lat="46.71967" lon="5.73834">
        <ele>577</ele>
        <time>2025-06-05T10:59:43.000Z</time>
      </trkpt>
      <trkpt lat="46.71964" lon="5.73828">
        <ele>576.79998779297</ele>
        <time>2025-06-05T10:59:44.000Z</time>
      </trkpt>
      <trkpt lat="46.71961" lon="5.73822">
        <ele>576.79998779297</ele>
        <time>2025-06-05T10:59:45.000Z</time>
      </trkpt>
      <trkpt lat="46.71953" lon="5.73808">
        <ele>576.59997558594</ele>
        <time>2025-06-05T10:59:48.000Z</time>
      </trkpt>
      <trkpt lat="46.7195" lon="5.73803">
        <ele>576.59997558594</ele>
        <time>2025-06-05T10:59:49.000Z</time>
      </trkpt>
      <trkpt lat="46.71947" lon="5.73798">
        <ele>576.59997558594</ele>
        <time>2025-06-05T10:59:50.000Z</time>
      </trkpt>
      <trkpt lat="46.71943" lon="5.7379">
        <ele>576.40002441406</ele>
        <time>2025-06-05T10:59:52.000Z</time>
      </trkpt>
      <trkpt lat="46.71937" lon="5.73783">
        <ele>576.20001220703</ele>
        <time>2025-06-05T10:59:54.000Z</time>
      </trkpt>
      <trkpt lat="46.71935" lon="5.73778">
        <ele>576.20001220703</ele>
        <time>2025-06-05T10:59:55.000Z</time>
      </trkpt>
      <trkpt lat="46.71926" lon="5.73768">
        <ele>576.20001220703</ele>
        <time>2025-06-05T10:59:57.000Z</time>
      </trkpt>
      <trkpt lat="46.71915" lon="5.73759">
        <ele>576.40002441406</ele>
        <time>2025-06-05T10:59:59.000Z</time>
      </trkpt>
      <trkpt lat="46.71911" lon="5.73757">
        <ele>576.40002441406</ele>
        <time>2025-06-05T11:00:00.000Z</time>
      </trkpt>
      <trkpt lat="46.71905" lon="5.73752">
        <ele>576.40002441406</ele>
        <time>2025-06-05T11:00:02.000Z</time>
      </trkpt>
      <trkpt lat="46.71893" lon="5.73742">
        <ele>576.79998779297</ele>
        <time>2025-06-05T11:00:04.000Z</time>
      </trkpt>
      <trkpt lat="46.71869" lon="5.73723">
        <ele>576.59997558594</ele>
        <time>2025-06-05T11:00:09.000Z</time>
      </trkpt>
      <trkpt lat="46.71858" lon="5.73717">
        <ele>576.59997558594</ele>
        <time>2025-06-05T11:00:11.000Z</time>
      </trkpt>
      <trkpt lat="46.7184" lon="5.73701">
        <ele>576.20001220703</ele>
        <time>2025-06-05T11:00:15.000Z</time>
      </trkpt>
      <trkpt lat="46.71815" lon="5.73687">
        <ele>576</ele>
        <time>2025-06-05T11:00:20.000Z</time>
      </trkpt>
      <trkpt lat="46.71808" lon="5.73683">
        <ele>576</ele>
        <time>2025-06-05T11:00:22.000Z</time>
      </trkpt>
      <trkpt lat="46.71804" lon="5.73681">
        <ele>576.20001220703</ele>
        <time>2025-06-05T11:00:23.000Z</time>
      </trkpt>
      <trkpt lat="46.71797" lon="5.73678">
        <ele>576.20001220703</ele>
        <time>2025-06-05T11:00:25.000Z</time>
      </trkpt>
      <trkpt lat="46.7179" lon="5.73673">
        <ele>576.59997558594</ele>
        <time>2025-06-05T11:00:27.000Z</time>
      </trkpt>
      <trkpt lat="46.71781" lon="5.73669">
        <ele>576.59997558594</ele>
        <time>2025-06-05T11:00:29.000Z</time>
      </trkpt>
      <trkpt lat="46.71769" lon="5.73657">
        <ele>576.20001220703</ele>
        <time>2025-06-05T11:00:33.000Z</time>
      </trkpt>
      <trkpt lat="46.71764" lon="5.73651">
        <ele>575.79998779297</ele>
        <time>2025-06-05T11:00:35.000Z</time>
      </trkpt>
      <trkpt lat="46.71761" lon="5.73644">
        <ele>575.40002441406</ele>
        <time>2025-06-05T11:00:37.000Z</time>
      </trkpt>
      <trkpt lat="46.71758" lon="5.73638">
        <ele>575.40002441406</ele>
        <time>2025-06-05T11:00:38.000Z</time>
      </trkpt>
      <trkpt lat="46.71755" lon="5.73633">
        <ele>575.20001220703</ele>
        <time>2025-06-05T11:00:39.000Z</time>
      </trkpt>
      <trkpt lat="46.71746" lon="5.73617">
        <ele>575.59997558594</ele>
        <time>2025-06-05T11:00:42.000Z</time>
      </trkpt>
      <trkpt lat="46.7174" lon="5.7361">
        <ele>575.59997558594</ele>
        <time>2025-06-05T11:00:44.000Z</time>
      </trkpt>
      <trkpt lat="46.71733" lon="5.73604">
        <ele>575.59997558594</ele>
        <time>2025-06-05T11:00:46.000Z</time>
      </trkpt>
      <trkpt lat="46.7173" lon="5.73603">
        <ele>575.79998779297</ele>
        <time>2025-06-05T11:00:47.000Z</time>
      </trkpt>
      <trkpt lat="46.71711" lon="5.73597">
        <ele>575.59997558594</ele>
        <time>2025-06-05T11:00:52.000Z</time>
      </trkpt>
      <trkpt lat="46.71705" lon="5.7359">
        <ele>575</ele>
        <time>2025-06-05T11:00:54.000Z</time>
      </trkpt>
      <trkpt lat="46.7169" lon="5.73577">
        <ele>574.79998779297</ele>
        <time>2025-06-05T11:00:57.000Z</time>
      </trkpt>
      <trkpt lat="46.71684" lon="5.73574">
        <ele>574.79998779297</ele>
        <time>2025-06-05T11:00:58.000Z</time>
      </trkpt>
      <trkpt lat="46.71681" lon="5.73571">
        <ele>574.79998779297</ele>
        <time>2025-06-05T11:00:59.000Z</time>
      </trkpt>
      <trkpt lat="46.71675" lon="5.73565">
        <ele>574.59997558594</ele>
        <time>2025-06-05T11:01:03.000Z</time>
      </trkpt>
      <trkpt lat="46.71654" lon="5.7354">
        <ele>575.40002441406</ele>
        <time>2025-06-05T11:01:09.000Z</time>
      </trkpt>
      <trkpt lat="46.71651" lon="5.73537">
        <ele>575.40002441406</ele>
        <time>2025-06-05T11:01:10.000Z</time>
      </trkpt>
      <trkpt lat="46.71642" lon="5.73524">
        <ele>575.79998779297</ele>
        <time>2025-06-05T11:01:13.000Z</time>
      </trkpt>
      <trkpt lat="46.71636" lon="5.73518">
        <ele>575.79998779297</ele>
        <time>2025-06-05T11:01:15.000Z</time>
      </trkpt>
      <trkpt lat="46.71634" lon="5.73514">
        <ele>575.79998779297</ele>
        <time>2025-06-05T11:01:16.000Z</time>
      </trkpt>
      <trkpt lat="46.71623" lon="5.73501">
        <ele>575.59997558594</ele>
        <time>2025-06-05T11:01:18.000Z</time>
      </trkpt>
      <trkpt lat="46.71614" lon="5.73496">
        <ele>575.40002441406</ele>
        <time>2025-06-05T11:01:20.000Z</time>
      </trkpt>
      <trkpt lat="46.71606" lon="5.73493">
        <ele>575.20001220703</ele>
        <time>2025-06-05T11:01:21.000Z</time>
      </trkpt>
      <trkpt lat="46.71589" lon="5.73489">
        <ele>575.20001220703</ele>
        <time>2025-06-05T11:01:25.000Z</time>
      </trkpt>
      <trkpt lat="46.71587" lon="5.7349">
        <ele>575</ele>
        <time>2025-06-05T11:01:26.000Z</time>
      </trkpt>
      <trkpt lat="46.71579" lon="5.73489">
        <ele>575.20001220703</ele>
        <time>2025-06-05T11:01:28.000Z</time>
      </trkpt>
      <trkpt lat="46.71556" lon="5.7349">
        <ele>575.59997558594</ele>
        <time>2025-06-05T11:01:34.000Z</time>
      </trkpt>
      <trkpt lat="46.71548" lon="5.73488">
        <ele>575.40002441406</ele>
        <time>2025-06-05T11:01:35.000Z</time>
      </trkpt>
      <trkpt lat="46.71526" lon="5.73485">
        <ele>575</ele>
        <time>2025-06-05T11:01:39.000Z</time>
      </trkpt>
      <trkpt lat="46.71517" lon="5.73481">
        <ele>574.59997558594</ele>
        <time>2025-06-05T11:01:41.000Z</time>
      </trkpt>
      <trkpt lat="46.71505" lon="5.73482">
        <ele>574.59997558594</ele>
        <time>2025-06-05T11:01:44.000Z</time>
      </trkpt>
      <trkpt lat="46.71505" lon="5.73482">
        <ele>574.59997558594</ele>
        <time>2025-06-05T11:01:45.000Z</time>
      </trkpt>
      <trkpt lat="46.71502" lon="5.73483">
        <ele>574.59997558594</ele>
        <time>2025-06-05T11:01:46.000Z</time>
      </trkpt>
      <trkpt lat="46.71499" lon="5.73478">
        <ele>574.79998779297</ele>
        <time>2025-06-05T11:01:48.000Z</time>
      </trkpt>
      <trkpt lat="46.71497" lon="5.73476">
        <ele>574.79998779297</ele>
        <time>2025-06-05T11:01:49.000Z</time>
      </trkpt>
      <trkpt lat="46.71494" lon="5.73474">
        <ele>574.79998779297</ele>
        <time>2025-06-05T11:01:50.000Z</time>
      </trkpt>
      <trkpt lat="46.71487" lon="5.73468">
        <ele>575</ele>
        <time>2025-06-05T11:01:52.000Z</time>
      </trkpt>
      <trkpt lat="46.71484" lon="5.73465">
        <ele>575</ele>
        <time>2025-06-05T11:01:53.000Z</time>
      </trkpt>
      <trkpt lat="46.71468" lon="5.7345">
        <ele>575.20001220703</ele>
        <time>2025-06-05T11:02:00.000Z</time>
      </trkpt>
      <trkpt lat="46.71461" lon="5.7344">
        <ele>575.20001220703</ele>
        <time>2025-06-05T11:02:05.000Z</time>
      </trkpt>
      <trkpt lat="46.71453" lon="5.73432">
        <ele>575</ele>
        <time>2025-06-05T11:02:08.000Z</time>
      </trkpt>
      <trkpt lat="46.7144" lon="5.73423">
        <ele>575.20001220703</ele>
        <time>2025-06-05T11:02:10.000Z</time>
      </trkpt>
      <trkpt lat="46.71428" lon="5.73412">
        <ele>575.40002441406</ele>
        <time>2025-06-05T11:02:13.000Z</time>
      </trkpt>
      <trkpt lat="46.71421" lon="5.73407">
        <ele>575.59997558594</ele>
        <time>2025-06-05T11:02:15.000Z</time>
      </trkpt>
      <trkpt lat="46.71417" lon="5.73404">
        <ele>575.59997558594</ele>
        <time>2025-06-05T11:02:16.000Z</time>
      </trkpt>
      <trkpt lat="46.7141" lon="5.73399">
        <ele>575.79998779297</ele>
        <time>2025-06-05T11:02:17.000Z</time>
      </trkpt>
      <trkpt lat="46.71407" lon="5.73398">
        <ele>576.20001220703</ele>
        <time>2025-06-05T11:02:18.000Z</time>
      </trkpt>
      <trkpt lat="46.71403" lon="5.73397">
        <ele>576.20001220703</ele>
        <time>2025-06-05T11:02:19.000Z</time>
      </trkpt>
      <trkpt lat="46.71392" lon="5.73392">
        <ele>576.40002441406</ele>
        <time>2025-06-05T11:02:21.000Z</time>
      </trkpt>
      <trkpt lat="46.71383" lon="5.7339">
        <ele>576.59997558594</ele>
        <time>2025-06-05T11:02:23.000Z</time>
      </trkpt>
      <trkpt lat="46.71371" lon="5.73387">
        <ele>576.59997558594</ele>
        <time>2025-06-05T11:02:25.000Z</time>
      </trkpt>
      <trkpt lat="46.71362" lon="5.73384">
        <ele>576.20001220703</ele>
        <time>2025-06-05T11:02:27.000Z</time>
      </trkpt>
      <trkpt lat="46.71362" lon="5.73384">
        <ele>576</ele>
        <time>2025-06-05T11:02:28.000Z</time>
      </trkpt>
      <trkpt lat="46.7135" lon="5.73377">
        <ele>576</ele>
        <time>2025-06-05T11:02:29.000Z</time>
      </trkpt>
      <trkpt lat="46.71344" lon="5.73371">
        <ele>576</ele>
        <time>2025-06-05T11:02:31.000Z</time>
      </trkpt>
      <trkpt lat="46.71338" lon="5.73367">
        <ele>576</ele>
        <time>2025-06-05T11:02:32.000Z</time>
      </trkpt>
      <trkpt lat="46.71334" lon="5.73366">
        <ele>576</ele>
        <time>2025-06-05T11:02:33.000Z</time>
      </trkpt>
      <trkpt lat="46.71327" lon="5.73363">
        <ele>576</ele>
        <time>2025-06-05T11:02:35.000Z</time>
      </trkpt>
      <trkpt lat="46.7132" lon="5.73361">
        <ele>575.79998779297</ele>
        <time>2025-06-05T11:02:37.000Z</time>
      </trkpt>
      <trkpt lat="46.71307" lon="5.73358">
        <ele>575.79998779297</ele>
        <time>2025-06-05T11:02:39.000Z</time>
      </trkpt>
      <trkpt lat="46.71287" lon="5.73356">
        <ele>575.59997558594</ele>
        <time>2025-06-05T11:02:41.000Z</time>
      </trkpt>
      <trkpt lat="46.71276" lon="5.73358">
        <ele>575.59997558594</ele>
        <time>2025-06-05T11:02:43.000Z</time>
      </trkpt>
      <trkpt lat="46.71262" lon="5.73359">
        <ele>575.40002441406</ele>
        <time>2025-06-05T11:02:46.000Z</time>
      </trkpt>
      <trkpt lat="46.71254" lon="5.7336">
        <ele>575.20001220703</ele>
        <time>2025-06-05T11:02:48.000Z</time>
      </trkpt>
      <trkpt lat="46.71252" lon="5.73359">
        <ele>575.20001220703</ele>
        <time>2025-06-05T11:02:49.000Z</time>
      </trkpt>
      <trkpt lat="46.7125" lon="5.73359">
        <ele>575.20001220703</ele>
        <time>2025-06-05T11:02:50.000Z</time>
      </trkpt>
      <trkpt lat="46.71237" lon="5.73349">
        <ele>575.40002441406</ele>
        <time>2025-06-05T11:02:52.000Z</time>
      </trkpt>
      <trkpt lat="46.71234" lon="5.73348">
        <ele>575.59997558594</ele>
        <time>2025-06-05T11:02:53.000Z</time>
      </trkpt>
      <trkpt lat="46.71233" lon="5.73348">
        <ele>575.79998779297</ele>
        <time>2025-06-05T11:02:54.000Z</time>
      </trkpt>
      <trkpt lat="46.71215" lon="5.73339">
        <ele>575.79998779297</ele>
        <time>2025-06-05T11:02:57.000Z</time>
      </trkpt>
      <trkpt lat="46.71207" lon="5.73332">
        <ele>575.79998779297</ele>
        <time>2025-06-05T11:02:59.000Z</time>
      </trkpt>
      <trkpt lat="46.71203" lon="5.73327">
        <ele>576</ele>
        <time>2025-06-05T11:03:01.000Z</time>
      </trkpt>
      <trkpt lat="46.712" lon="5.73322">
        <ele>576</ele>
        <time>2025-06-05T11:03:02.000Z</time>
      </trkpt>
      <trkpt lat="46.71193" lon="5.73314">
        <ele>575.79998779297</ele>
        <time>2025-06-05T11:03:04.000Z</time>
      </trkpt>
      <trkpt lat="46.7119" lon="5.73306">
        <ele>575.79998779297</ele>
        <time>2025-06-05T11:03:06.000Z</time>
      </trkpt>
      <trkpt lat="46.71188" lon="5.73302">
        <ele>575.79998779297</ele>
        <time>2025-06-05T11:03:07.000Z</time>
      </trkpt>
      <trkpt lat="46.71182" lon="5.73291">
        <ele>575.79998779297</ele>
        <time>2025-06-05T11:03:09.000Z</time>
      </trkpt>
      <trkpt lat="46.71179" lon="5.73287">
        <ele>576</ele>
        <time>2025-06-05T11:03:10.000Z</time>
      </trkpt>
      <trkpt lat="46.71176" lon="5.73283">
        <ele>576</ele>
        <time>2025-06-05T11:03:11.000Z</time>
      </trkpt>
      <trkpt lat="46.71169" lon="5.73275">
        <ele>576</ele>
        <time>2025-06-05T11:03:14.000Z</time>
      </trkpt>
      <trkpt lat="46.71157" lon="5.73266">
        <ele>576.20001220703</ele>
        <time>2025-06-05T11:03:17.000Z</time>
      </trkpt>
      <trkpt lat="46.71147" lon="5.73263">
        <ele>576.20001220703</ele>
        <time>2025-06-05T11:03:19.000Z</time>
      </trkpt>
      <trkpt lat="46.71127" lon="5.73258">
        <ele>576</ele>
        <time>2025-06-05T11:03:23.000Z</time>
      </trkpt>
      <trkpt lat="46.71124" lon="5.73255">
        <ele>575.40002441406</ele>
        <time>2025-06-05T11:03:24.000Z</time>
      </trkpt>
      <trkpt lat="46.71116" lon="5.73252">
        <ele>575.59997558594</ele>
        <time>2025-06-05T11:03:26.000Z</time>
      </trkpt>
      <trkpt lat="46.71105" lon="5.73245">
        <ele>575.40002441406</ele>
        <time>2025-06-05T11:03:28.000Z</time>
      </trkpt>
      <trkpt lat="46.71101" lon="5.7324">
        <ele>575.20001220703</ele>
        <time>2025-06-05T11:03:29.000Z</time>
      </trkpt>
      <trkpt lat="46.71097" lon="5.73234">
        <ele>575.20001220703</ele>
        <time>2025-06-05T11:03:30.000Z</time>
      </trkpt>
      <trkpt lat="46.71088" lon="5.73219">
        <ele>575.20001220703</ele>
        <time>2025-06-05T11:03:32.000Z</time>
      </trkpt>
      <trkpt lat="46.71085" lon="5.73214">
        <ele>575.20001220703</ele>
        <time>2025-06-05T11:03:33.000Z</time>
      </trkpt>
      <trkpt lat="46.71081" lon="5.73209">
        <ele>575.20001220703</ele>
        <time>2025-06-05T11:03:34.000Z</time>
      </trkpt>
      <trkpt lat="46.71077" lon="5.73202">
        <ele>575.20001220703</ele>
        <time>2025-06-05T11:03:36.000Z</time>
      </trkpt>
      <trkpt lat="46.71064" lon="5.73182">
        <ele>575.20001220703</ele>
        <time>2025-06-05T11:03:39.000Z</time>
      </trkpt>
      <trkpt lat="46.7106" lon="5.73174">
        <ele>575</ele>
        <time>2025-06-05T11:03:41.000Z</time>
      </trkpt>
      <trkpt lat="46.71057" lon="5.73167">
        <ele>575</ele>
        <time>2025-06-05T11:03:42.000Z</time>
      </trkpt>
      <trkpt lat="46.71049" lon="5.73153">
        <ele>575.20001220703</ele>
        <time>2025-06-05T11:03:44.000Z</time>
      </trkpt>
      <trkpt lat="46.71041" lon="5.73145">
        <ele>574.79998779297</ele>
        <time>2025-06-05T11:03:46.000Z</time>
      </trkpt>
      <trkpt lat="46.71036" lon="5.7314">
        <ele>574.59997558594</ele>
        <time>2025-06-05T11:03:47.000Z</time>
      </trkpt>
      <trkpt lat="46.71025" lon="5.73135">
        <ele>574.40002441406</ele>
        <time>2025-06-05T11:03:49.000Z</time>
      </trkpt>
      <trkpt lat="46.71019" lon="5.73131">
        <ele>574</ele>
        <time>2025-06-05T11:03:51.000Z</time>
      </trkpt>
      <trkpt lat="46.71011" lon="5.73121">
        <ele>573.59997558594</ele>
        <time>2025-06-05T11:03:53.000Z</time>
      </trkpt>
      <trkpt lat="46.70999" lon="5.73112">
        <ele>573.40002441406</ele>
        <time>2025-06-05T11:03:55.000Z</time>
      </trkpt>
      <trkpt lat="46.70999" lon="5.73112">
        <ele>573.40002441406</ele>
        <time>2025-06-05T11:03:56.000Z</time>
      </trkpt>
      <trkpt lat="46.70981" lon="5.731">
        <ele>573.40002441406</ele>
        <time>2025-06-05T11:04:01.000Z</time>
      </trkpt>
      <trkpt lat="46.70975" lon="5.73098">
        <ele>573.20001220703</ele>
        <time>2025-06-05T11:04:03.000Z</time>
      </trkpt>
      <trkpt lat="46.70967" lon="5.73092">
        <ele>573.40002441406</ele>
        <time>2025-06-05T11:04:06.000Z</time>
      </trkpt>
      <trkpt lat="46.70947" lon="5.73093">
        <ele>573.40002441406</ele>
        <time>2025-06-05T11:04:12.000Z</time>
      </trkpt>
      <trkpt lat="46.70945" lon="5.73091">
        <ele>573.40002441406</ele>
        <time>2025-06-05T11:04:13.000Z</time>
      </trkpt>
      <trkpt lat="46.70939" lon="5.73087">
        <ele>573.40002441406</ele>
        <time>2025-06-05T11:04:15.000Z</time>
      </trkpt>
      <trkpt lat="46.70932" lon="5.73081">
        <ele>573.20001220703</ele>
        <time>2025-06-05T11:04:17.000Z</time>
      </trkpt>
      <trkpt lat="46.70925" lon="5.73079">
        <ele>573</ele>
        <time>2025-06-05T11:04:18.000Z</time>
      </trkpt>
      <trkpt lat="46.7092" lon="5.73076">
        <ele>573</ele>
        <time>2025-06-05T11:04:19.000Z</time>
      </trkpt>
      <trkpt lat="46.70904" lon="5.73073">
        <ele>572.59997558594</ele>
        <time>2025-06-05T11:04:23.000Z</time>
      </trkpt>
      <trkpt lat="46.70883" lon="5.73066">
        <ele>572.40002441406</ele>
        <time>2025-06-05T11:04:26.000Z</time>
      </trkpt>
      <trkpt lat="46.70875" lon="5.73062">
        <ele>572.20001220703</ele>
        <time>2025-06-05T11:04:29.000Z</time>
      </trkpt>
      <trkpt lat="46.70864" lon="5.73058">
        <ele>572.20001220703</ele>
        <time>2025-06-05T11:04:31.000Z</time>
      </trkpt>
      <trkpt lat="46.70854" lon="5.73056">
        <ele>572.20001220703</ele>
        <time>2025-06-05T11:04:33.000Z</time>
      </trkpt>
      <trkpt lat="46.70848" lon="5.73056">
        <ele>572.20001220703</ele>
        <time>2025-06-05T11:04:34.000Z</time>
      </trkpt>
      <trkpt lat="46.70839" lon="5.73059">
        <ele>572</ele>
        <time>2025-06-05T11:04:35.000Z</time>
      </trkpt>
      <trkpt lat="46.70834" lon="5.73064">
        <ele>572</ele>
        <time>2025-06-05T11:04:36.000Z</time>
      </trkpt>
      <trkpt lat="46.70828" lon="5.73071">
        <ele>571.79998779297</ele>
        <time>2025-06-05T11:04:37.000Z</time>
      </trkpt>
      <trkpt lat="46.70824" lon="5.73078">
        <ele>571.79998779297</ele>
        <time>2025-06-05T11:04:38.000Z</time>
      </trkpt>
      <trkpt lat="46.70792" lon="5.73098">
        <ele>571.20001220703</ele>
        <time>2025-06-05T11:04:44.000Z</time>
      </trkpt>
      <trkpt lat="46.70776" lon="5.73104">
        <ele>571.20001220703</ele>
        <time>2025-06-05T11:04:47.000Z</time>
      </trkpt>
      <trkpt lat="46.70771" lon="5.73103">
        <ele>571.20001220703</ele>
        <time>2025-06-05T11:04:48.000Z</time>
      </trkpt>
      <trkpt lat="46.70765" lon="5.73102">
        <ele>571.40002441406</ele>
        <time>2025-06-05T11:04:49.000Z</time>
      </trkpt>
      <trkpt lat="46.70742" lon="5.73093">
        <ele>571.40002441406</ele>
        <time>2025-06-05T11:04:53.000Z</time>
      </trkpt>
      <trkpt lat="46.70712" lon="5.73072">
        <ele>571.40002441406</ele>
        <time>2025-06-05T11:04:59.000Z</time>
      </trkpt>
      <trkpt lat="46.70694" lon="5.73058">
        <ele>572</ele>
        <time>2025-06-05T11:05:03.000Z</time>
      </trkpt>
      <trkpt lat="46.7069" lon="5.73055">
        <ele>572.79998779297</ele>
        <time>2025-06-05T11:05:05.000Z</time>
      </trkpt>
      <trkpt lat="46.7068" lon="5.73052">
        <ele>573.20001220703</ele>
        <time>2025-06-05T11:05:06.000Z</time>
      </trkpt>
      <trkpt lat="46.70676" lon="5.73049">
        <ele>573.40002441406</ele>
        <time>2025-06-05T11:05:07.000Z</time>
      </trkpt>
      <trkpt lat="46.70671" lon="5.73041">
        <ele>574</ele>
        <time>2025-06-05T11:05:09.000Z</time>
      </trkpt>
      <trkpt lat="46.70668" lon="5.73028">
        <ele>574.59997558594</ele>
        <time>2025-06-05T11:05:11.000Z</time>
      </trkpt>
      <trkpt lat="46.7066" lon="5.73004">
        <ele>575.20001220703</ele>
        <time>2025-06-05T11:05:14.000Z</time>
      </trkpt>
      <trkpt lat="46.70642" lon="5.72952">
        <ele>574.40002441406</ele>
        <time>2025-06-05T11:05:21.000Z</time>
      </trkpt>
      <trkpt lat="46.70624" lon="5.72932">
        <ele>573.40002441406</ele>
        <time>2025-06-05T11:05:25.000Z</time>
      </trkpt>
      <trkpt lat="46.70585" lon="5.72905">
        <ele>572.59997558594</ele>
        <time>2025-06-05T11:05:32.000Z</time>
      </trkpt>
      <trkpt lat="46.70579" lon="5.72901">
        <ele>572.40002441406</ele>
        <time>2025-06-05T11:05:33.000Z</time>
      </trkpt>
      <trkpt lat="46.70569" lon="5.7289">
        <ele>571</ele>
        <time>2025-06-05T11:05:35.000Z</time>
      </trkpt>
      <trkpt lat="46.70559" lon="5.72878">
        <ele>570.59997558594</ele>
        <time>2025-06-05T11:05:37.000Z</time>
      </trkpt>
      <trkpt lat="46.70545" lon="5.72861">
        <ele>570.20001220703</ele>
        <time>2025-06-05T11:05:40.000Z</time>
      </trkpt>
      <trkpt lat="46.70535" lon="5.72853">
        <ele>570</ele>
        <time>2025-06-05T11:05:42.000Z</time>
      </trkpt>
      <trkpt lat="46.70529" lon="5.72849">
        <ele>570</ele>
        <time>2025-06-05T11:05:43.000Z</time>
      </trkpt>
      <trkpt lat="46.70495" lon="5.72834">
        <ele>569.40002441406</ele>
        <time>2025-06-05T11:05:49.000Z</time>
      </trkpt>
      <trkpt lat="46.7048" lon="5.72827">
        <ele>569</ele>
        <time>2025-06-05T11:05:52.000Z</time>
      </trkpt>
      <trkpt lat="46.70464" lon="5.72819">
        <ele>568.79998779297</ele>
        <time>2025-06-05T11:05:55.000Z</time>
      </trkpt>
      <trkpt lat="46.70432" lon="5.728">
        <ele>568</ele>
        <time>2025-06-05T11:06:01.000Z</time>
      </trkpt>
      <trkpt lat="46.70411" lon="5.7279">
        <ele>567.40002441406</ele>
        <time>2025-06-05T11:06:05.000Z</time>
      </trkpt>
      <trkpt lat="46.70405" lon="5.72788">
        <ele>567.40002441406</ele>
        <time>2025-06-05T11:06:06.000Z</time>
      </trkpt>
      <trkpt lat="46.70388" lon="5.72782">
        <ele>567.40002441406</ele>
        <time>2025-06-05T11:06:09.000Z</time>
      </trkpt>
      <trkpt lat="46.70377" lon="5.72778">
        <ele>567.59997558594</ele>
        <time>2025-06-05T11:06:11.000Z</time>
      </trkpt>
      <trkpt lat="46.70372" lon="5.72775">
        <ele>567.59997558594</ele>
        <time>2025-06-05T11:06:12.000Z</time>
      </trkpt>
      <trkpt lat="46.70366" lon="5.72772">
        <ele>567.59997558594</ele>
        <time>2025-06-05T11:06:13.000Z</time>
      </trkpt>
      <trkpt lat="46.70357" lon="5.72763">
        <ele>567.79998779297</ele>
        <time>2025-06-05T11:06:15.000Z</time>
      </trkpt>
      <trkpt lat="46.70354" lon="5.72758">
        <ele>568</ele>
        <time>2025-06-05T11:06:16.000Z</time>
      </trkpt>
      <trkpt lat="46.70353" lon="5.72752">
        <ele>568.20001220703</ele>
        <time>2025-06-05T11:06:17.000Z</time>
      </trkpt>
      <trkpt lat="46.70351" lon="5.72738">
        <ele>568.20001220703</ele>
        <time>2025-06-05T11:06:19.000Z</time>
      </trkpt>
      <trkpt lat="46.70352" lon="5.72723">
        <ele>568.40002441406</ele>
        <time>2025-06-05T11:06:21.000Z</time>
      </trkpt>
      <trkpt lat="46.70353" lon="5.72716">
        <ele>568.40002441406</ele>
        <time>2025-06-05T11:06:22.000Z</time>
      </trkpt>
      <trkpt lat="46.70362" lon="5.72671">
        <ele>568.79998779297</ele>
        <time>2025-06-05T11:06:28.000Z</time>
      </trkpt>
      <trkpt lat="46.70362" lon="5.72663">
        <ele>568.79998779297</ele>
        <time>2025-06-05T11:06:29.000Z</time>
      </trkpt>
      <trkpt lat="46.70362" lon="5.72655">
        <ele>568.79998779297</ele>
        <time>2025-06-05T11:06:30.000Z</time>
      </trkpt>
      <trkpt lat="46.70359" lon="5.72643">
        <ele>568.79998779297</ele>
        <time>2025-06-05T11:06:32.000Z</time>
      </trkpt>
      <trkpt lat="46.70354" lon="5.72633">
        <ele>569</ele>
        <time>2025-06-05T11:06:34.000Z</time>
      </trkpt>
      <trkpt lat="46.70345" lon="5.72628">
        <ele>569</ele>
        <time>2025-06-05T11:06:36.000Z</time>
      </trkpt>
      <trkpt lat="46.7034" lon="5.72626">
        <ele>568.59997558594</ele>
        <time>2025-06-05T11:06:37.000Z</time>
      </trkpt>
      <trkpt lat="46.70323" lon="5.72621">
        <ele>568.40002441406</ele>
        <time>2025-06-05T11:06:40.000Z</time>
      </trkpt>
      <trkpt lat="46.70289" lon="5.72603">
        <ele>567</ele>
        <time>2025-06-05T11:06:46.000Z</time>
      </trkpt>
      <trkpt lat="46.70265" lon="5.72591">
        <ele>566.79998779297</ele>
        <time>2025-06-05T11:06:50.000Z</time>
      </trkpt>
      <trkpt lat="46.70254" lon="5.72586">
        <ele>566.79998779297</ele>
        <time>2025-06-05T11:06:52.000Z</time>
      </trkpt>
      <trkpt lat="46.70216" lon="5.72561">
        <ele>567.40002441406</ele>
        <time>2025-06-05T11:06:59.000Z</time>
      </trkpt>
      <trkpt lat="46.70206" lon="5.72551">
        <ele>567.59997558594</ele>
        <time>2025-06-05T11:07:00.000Z</time>
      </trkpt>
      <trkpt lat="46.70198" lon="5.72537">
        <ele>567.79998779297</ele>
        <time>2025-06-05T11:07:02.000Z</time>
      </trkpt>
      <trkpt lat="46.70186" lon="5.72498">
        <ele>567.59997558594</ele>
        <time>2025-06-05T11:07:07.000Z</time>
      </trkpt>
      <trkpt lat="46.70184" lon="5.7249">
        <ele>567.40002441406</ele>
        <time>2025-06-05T11:07:08.000Z</time>
      </trkpt>
      <trkpt lat="46.70173" lon="5.72469">
        <ele>567</ele>
        <time>2025-06-05T11:07:11.000Z</time>
      </trkpt>
      <trkpt lat="46.70155" lon="5.72447">
        <ele>566.79998779297</ele>
        <time>2025-06-05T11:07:16.000Z</time>
      </trkpt>
      <trkpt lat="46.70146" lon="5.7244">
        <ele>566.59997558594</ele>
        <time>2025-06-05T11:07:18.000Z</time>
      </trkpt>
      <trkpt lat="46.70137" lon="5.72436">
        <ele>566.59997558594</ele>
        <time>2025-06-05T11:07:20.000Z</time>
      </trkpt>
      <trkpt lat="46.70132" lon="5.72435">
        <ele>566.40002441406</ele>
        <time>2025-06-05T11:07:21.000Z</time>
      </trkpt>
      <trkpt lat="46.70118" lon="5.72428">
        <ele>566.59997558594</ele>
        <time>2025-06-05T11:07:24.000Z</time>
      </trkpt>
      <trkpt lat="46.70108" lon="5.7242">
        <ele>566.59997558594</ele>
        <time>2025-06-05T11:07:26.000Z</time>
      </trkpt>
      <trkpt lat="46.70104" lon="5.72416">
        <ele>566.59997558594</ele>
        <time>2025-06-05T11:07:27.000Z</time>
      </trkpt>
      <trkpt lat="46.70095" lon="5.72405">
        <ele>567</ele>
        <time>2025-06-05T11:07:29.000Z</time>
      </trkpt>
      <trkpt lat="46.70079" lon="5.72385">
        <ele>567.20001220703</ele>
        <time>2025-06-05T11:07:33.000Z</time>
      </trkpt>
      <trkpt lat="46.70061" lon="5.72367">
        <ele>567.40002441406</ele>
        <time>2025-06-05T11:07:37.000Z</time>
      </trkpt>
      <trkpt lat="46.70051" lon="5.72361">
        <ele>567.59997558594</ele>
        <time>2025-06-05T11:07:39.000Z</time>
      </trkpt>
      <trkpt lat="46.7004" lon="5.72356">
        <ele>568.40002441406</ele>
        <time>2025-06-05T11:07:41.000Z</time>
      </trkpt>
      <trkpt lat="46.70035" lon="5.72354">
        <ele>568.79998779297</ele>
        <time>2025-06-05T11:07:42.000Z</time>
      </trkpt>
      <trkpt lat="46.7003" lon="5.72353">
        <ele>569.59997558594</ele>
        <time>2025-06-05T11:07:43.000Z</time>
      </trkpt>
      <trkpt lat="46.70019" lon="5.72353">
        <ele>570.20001220703</ele>
        <time>2025-06-05T11:07:45.000Z</time>
      </trkpt>
      <trkpt lat="46.69998" lon="5.72361">
        <ele>570.59997558594</ele>
        <time>2025-06-05T11:07:49.000Z</time>
      </trkpt>
      <trkpt lat="46.69994" lon="5.72364">
        <ele>570.79998779297</ele>
        <time>2025-06-05T11:07:50.000Z</time>
      </trkpt>
      <trkpt lat="46.69961" lon="5.72394">
        <ele>571.59997558594</ele>
        <time>2025-06-05T11:07:58.000Z</time>
      </trkpt>
      <trkpt lat="46.69958" lon="5.72398">
        <ele>571.79998779297</ele>
        <time>2025-06-05T11:07:59.000Z</time>
      </trkpt>
      <trkpt lat="46.69944" lon="5.72421">
        <ele>572.79998779297</ele>
        <time>2025-06-05T11:08:04.000Z</time>
      </trkpt>
      <trkpt lat="46.69942" lon="5.72426">
        <ele>573</ele>
        <time>2025-06-05T11:08:05.000Z</time>
      </trkpt>
      <trkpt lat="46.69941" lon="5.72443">
        <ele>573.20001220703</ele>
        <time>2025-06-05T11:08:08.000Z</time>
      </trkpt>
      <trkpt lat="46.69942" lon="5.72465">
        <ele>573.59997558594</ele>
        <time>2025-06-05T11:08:12.000Z</time>
      </trkpt>
      <trkpt lat="46.69942" lon="5.72477">
        <ele>573.79998779297</ele>
        <time>2025-06-05T11:08:14.000Z</time>
      </trkpt>
      <trkpt lat="46.69945" lon="5.7249">
        <ele>574</ele>
        <time>2025-06-05T11:08:16.000Z</time>
      </trkpt>
      <trkpt lat="46.69948" lon="5.7251">
        <ele>574</ele>
        <time>2025-06-05T11:08:19.000Z</time>
      </trkpt>
      <trkpt lat="46.69951" lon="5.72531">
        <ele>574</ele>
        <time>2025-06-05T11:08:22.000Z</time>
      </trkpt>
      <trkpt lat="46.69953" lon="5.72554">
        <ele>574</ele>
        <time>2025-06-05T11:08:25.000Z</time>
      </trkpt>
      <trkpt lat="46.69956" lon="5.72588">
        <ele>573.79998779297</ele>
        <time>2025-06-05T11:08:30.000Z</time>
      </trkpt>
      <trkpt lat="46.69956" lon="5.72602">
        <ele>573.79998779297</ele>
        <time>2025-06-05T11:08:32.000Z</time>
      </trkpt>
      <trkpt lat="46.69955" lon="5.72624">
        <ele>574.20001220703</ele>
        <time>2025-06-05T11:08:35.000Z</time>
      </trkpt>
      <trkpt lat="46.69955" lon="5.72631">
        <ele>574.40002441406</ele>
        <time>2025-06-05T11:08:36.000Z</time>
      </trkpt>
      <trkpt lat="46.69953" lon="5.72645">
        <ele>574.59997558594</ele>
        <time>2025-06-05T11:08:38.000Z</time>
      </trkpt>
      <trkpt lat="46.69949" lon="5.72673">
        <ele>575.59997558594</ele>
        <time>2025-06-05T11:08:42.000Z</time>
      </trkpt>
      <trkpt lat="46.69949" lon="5.7268">
        <ele>575.79998779297</ele>
        <time>2025-06-05T11:08:43.000Z</time>
      </trkpt>
      <trkpt lat="46.6995" lon="5.72694">
        <ele>576.40002441406</ele>
        <time>2025-06-05T11:08:45.000Z</time>
      </trkpt>
      <trkpt lat="46.69953" lon="5.727">
        <ele>577</ele>
        <time>2025-06-05T11:08:46.000Z</time>
      </trkpt>
      <trkpt lat="46.69955" lon="5.72706">
        <ele>577.20001220703</ele>
        <time>2025-06-05T11:08:47.000Z</time>
      </trkpt>
      <trkpt lat="46.69959" lon="5.72713">
        <ele>578</ele>
        <time>2025-06-05T11:08:49.000Z</time>
      </trkpt>
      <trkpt lat="46.69965" lon="5.72722">
        <ele>578.20001220703</ele>
        <time>2025-06-05T11:08:50.000Z</time>
      </trkpt>
      <trkpt lat="46.69972" lon="5.72731">
        <ele>579</ele>
        <time>2025-06-05T11:08:52.000Z</time>
      </trkpt>
      <trkpt lat="46.69983" lon="5.72743">
        <ele>580.20001220703</ele>
        <time>2025-06-05T11:08:55.000Z</time>
      </trkpt>
      <trkpt lat="46.69989" lon="5.72752">
        <ele>580.79998779297</ele>
        <time>2025-06-05T11:08:57.000Z</time>
      </trkpt>
      <trkpt lat="46.69992" lon="5.72758">
        <ele>581.20001220703</ele>
        <time>2025-06-05T11:08:58.000Z</time>
      </trkpt>
      <trkpt lat="46.69995" lon="5.72763">
        <ele>581.40002441406</ele>
        <time>2025-06-05T11:08:59.000Z</time>
      </trkpt>
      <trkpt lat="46.69996" lon="5.72769">
        <ele>582</ele>
        <time>2025-06-05T11:09:00.000Z</time>
      </trkpt>
      <trkpt lat="46.69998" lon="5.72783">
        <ele>582.40002441406</ele>
        <time>2025-06-05T11:09:02.000Z</time>
      </trkpt>
      <trkpt lat="46.69998" lon="5.72789">
        <ele>582.59997558594</ele>
        <time>2025-06-05T11:09:03.000Z</time>
      </trkpt>
      <trkpt lat="46.69993" lon="5.72813">
        <ele>584</ele>
        <time>2025-06-05T11:09:07.000Z</time>
      </trkpt>
      <trkpt lat="46.69984" lon="5.72832">
        <ele>585.20001220703</ele>
        <time>2025-06-05T11:09:11.000Z</time>
      </trkpt>
      <trkpt lat="46.69982" lon="5.72837">
        <ele>585.40002441406</ele>
        <time>2025-06-05T11:09:12.000Z</time>
      </trkpt>
      <trkpt lat="46.69969" lon="5.72865">
        <ele>586.40002441406</ele>
        <time>2025-06-05T11:09:18.000Z</time>
      </trkpt>
      <trkpt lat="46.69967" lon="5.72869">
        <ele>586.59997558594</ele>
        <time>2025-06-05T11:09:19.000Z</time>
      </trkpt>
      <trkpt lat="46.69956" lon="5.72893">
        <ele>587.40002441406</ele>
        <time>2025-06-05T11:09:25.000Z</time>
      </trkpt>
      <trkpt lat="46.6995" lon="5.72902">
        <ele>587.20001220703</ele>
        <time>2025-06-05T11:09:30.000Z</time>
      </trkpt>
      <trkpt lat="46.69947" lon="5.72905">
        <ele>587.20001220703</ele>
        <time>2025-06-05T11:09:31.000Z</time>
      </trkpt>
      <trkpt lat="46.69947" lon="5.72907">
        <ele>587</ele>
        <time>2025-06-05T11:09:33.000Z</time>
      </trkpt>
      <trkpt lat="46.69947" lon="5.72908">
        <ele>586.59997558594</ele>
        <time>2025-06-05T11:09:37.000Z</time>
      </trkpt>
      <trkpt lat="46.69947" lon="5.72908">
        <ele>586.40002441406</ele>
        <time>2025-06-05T11:09:48.000Z</time>
      </trkpt>
      <trkpt lat="46.69951" lon="5.7291">
        <ele>586.59997558594</ele>
        <time>2025-06-05T11:10:34.000Z</time>
      </trkpt>
      <trkpt lat="46.69954" lon="5.72916">
        <ele>586.79998779297</ele>
        <time>2025-06-05T11:10:36.000Z</time>
      </trkpt>
      <trkpt lat="46.69966" lon="5.72942">
        <ele>586.79998779297</ele>
        <time>2025-06-05T11:10:42.000Z</time>
      </trkpt>
      <trkpt lat="46.69963" lon="5.72977">
        <ele>586.59997558594</ele>
        <time>2025-06-05T11:10:47.000Z</time>
      </trkpt>
      <trkpt lat="46.69953" lon="5.73031">
        <ele>586.59997558594</ele>
        <time>2025-06-05T11:10:55.000Z</time>
      </trkpt>
      <trkpt lat="46.69952" lon="5.73037">
        <ele>586.59997558594</ele>
        <time>2025-06-05T11:10:57.000Z</time>
      </trkpt>
      <trkpt lat="46.69944" lon="5.7306">
        <ele>586.59997558594</ele>
        <time>2025-06-05T11:11:00.000Z</time>
      </trkpt>
      <trkpt lat="46.69943" lon="5.73065">
        <ele>586.79998779297</ele>
        <time>2025-06-05T11:11:01.000Z</time>
      </trkpt>
      <trkpt lat="46.69939" lon="5.73083">
        <ele>587</ele>
        <time>2025-06-05T11:11:04.000Z</time>
      </trkpt>
      <trkpt lat="46.69937" lon="5.73095">
        <ele>587.59997558594</ele>
        <time>2025-06-05T11:11:06.000Z</time>
      </trkpt>
      <trkpt lat="46.69936" lon="5.73105">
        <ele>588.40002441406</ele>
        <time>2025-06-05T11:11:09.000Z</time>
      </trkpt>
      <trkpt lat="46.69934" lon="5.73117">
        <ele>588.59997558594</ele>
        <time>2025-06-05T11:11:10.000Z</time>
      </trkpt>
      <trkpt lat="46.69933" lon="5.73134">
        <ele>589.59997558594</ele>
        <time>2025-06-05T11:11:13.000Z</time>
      </trkpt>
      <trkpt lat="46.69934" lon="5.73147">
        <ele>590.20001220703</ele>
        <time>2025-06-05T11:11:15.000Z</time>
      </trkpt>
      <trkpt lat="46.69935" lon="5.73152">
        <ele>591</ele>
        <time>2025-06-05T11:11:17.000Z</time>
      </trkpt>
      <trkpt lat="46.69937" lon="5.73166">
        <ele>592</ele>
        <time>2025-06-05T11:11:19.000Z</time>
      </trkpt>
      <trkpt lat="46.6994" lon="5.73175">
        <ele>593.20001220703</ele>
        <time>2025-06-05T11:11:22.000Z</time>
      </trkpt>
      <trkpt lat="46.69946" lon="5.7319">
        <ele>594.40002441406</ele>
        <time>2025-06-05T11:11:25.000Z</time>
      </trkpt>
      <trkpt lat="46.6995" lon="5.732">
        <ele>595.59997558594</ele>
        <time>2025-06-05T11:11:28.000Z</time>
      </trkpt>
      <trkpt lat="46.69951" lon="5.73204">
        <ele>595.79998779297</ele>
        <time>2025-06-05T11:11:29.000Z</time>
      </trkpt>
      <trkpt lat="46.69953" lon="5.73207">
        <ele>596.20001220703</ele>
        <time>2025-06-05T11:11:30.000Z</time>
      </trkpt>
      <trkpt lat="46.69953" lon="5.73207">
        <ele>597</ele>
        <time>2025-06-05T11:11:31.000Z</time>
      </trkpt>
      <trkpt lat="46.6996" lon="5.73222">
        <ele>598.20001220703</ele>
        <time>2025-06-05T11:11:35.000Z</time>
      </trkpt>
      <trkpt lat="46.69961" lon="5.73225">
        <ele>599.20001220703</ele>
        <time>2025-06-05T11:11:37.000Z</time>
      </trkpt>
      <trkpt lat="46.69962" lon="5.73231">
        <ele>599.59997558594</ele>
        <time>2025-06-05T11:11:38.000Z</time>
      </trkpt>
      <trkpt lat="46.69962" lon="5.73234">
        <ele>600.40002441406</ele>
        <time>2025-06-05T11:11:40.000Z</time>
      </trkpt>
      <trkpt lat="46.69959" lon="5.73239">
        <ele>600.79998779297</ele>
        <time>2025-06-05T11:11:41.000Z</time>
      </trkpt>
      <trkpt lat="46.69955" lon="5.73241">
        <ele>601.40002441406</ele>
        <time>2025-06-05T11:11:43.000Z</time>
      </trkpt>
      <trkpt lat="46.69955" lon="5.73241">
        <ele>602</ele>
        <time>2025-06-05T11:11:44.000Z</time>
      </trkpt>
      <trkpt lat="46.69948" lon="5.73241">
        <ele>603</ele>
        <time>2025-06-05T11:11:46.000Z</time>
      </trkpt>
      <trkpt lat="46.69948" lon="5.73241">
        <ele>603.59997558594</ele>
        <time>2025-06-05T11:11:47.000Z</time>
      </trkpt>
      <trkpt lat="46.69944" lon="5.73242">
        <ele>604.20001220703</ele>
        <time>2025-06-05T11:11:49.000Z</time>
      </trkpt>
      <trkpt lat="46.69934" lon="5.73244">
        <ele>605.40002441406</ele>
        <time>2025-06-05T11:11:52.000Z</time>
      </trkpt>
      <trkpt lat="46.6993" lon="5.73245">
        <ele>606.40002441406</ele>
        <time>2025-06-05T11:11:54.000Z</time>
      </trkpt>
      <trkpt lat="46.69921" lon="5.73246">
        <ele>607.59997558594</ele>
        <time>2025-06-05T11:11:58.000Z</time>
      </trkpt>
      <trkpt lat="46.69916" lon="5.73246">
        <ele>608</ele>
        <time>2025-06-05T11:12:00.000Z</time>
      </trkpt>
      <trkpt lat="46.69911" lon="5.73246">
        <ele>608.59997558594</ele>
        <time>2025-06-05T11:12:02.000Z</time>
      </trkpt>
      <trkpt lat="46.69904" lon="5.73248">
        <ele>609.79998779297</ele>
        <time>2025-06-05T11:12:05.000Z</time>
      </trkpt>
      <trkpt lat="46.69895" lon="5.73249">
        <ele>610.40002441406</ele>
        <time>2025-06-05T11:12:09.000Z</time>
      </trkpt>
      <trkpt lat="46.69893" lon="5.73249">
        <ele>610.79998779297</ele>
        <time>2025-06-05T11:12:10.000Z</time>
      </trkpt>
      <trkpt lat="46.69883" lon="5.73251">
        <ele>612</ele>
        <time>2025-06-05T11:12:14.000Z</time>
      </trkpt>
      <trkpt lat="46.69877" lon="5.73254">
        <ele>612.59997558594</ele>
        <time>2025-06-05T11:12:17.000Z</time>
      </trkpt>
      <trkpt lat="46.69873" lon="5.73257">
        <ele>613.20001220703</ele>
        <time>2025-06-05T11:12:19.000Z</time>
      </trkpt>
      <trkpt lat="46.69866" lon="5.73264">
        <ele>614.20001220703</ele>
        <time>2025-06-05T11:12:23.000Z</time>
      </trkpt>
      <trkpt lat="46.69861" lon="5.7327">
        <ele>615.40002441406</ele>
        <time>2025-06-05T11:12:26.000Z</time>
      </trkpt>
      <trkpt lat="46.69854" lon="5.73282">
        <ele>616.40002441406</ele>
        <time>2025-06-05T11:12:31.000Z</time>
      </trkpt>
      <trkpt lat="46.6985" lon="5.73286">
        <ele>616.79998779297</ele>
        <time>2025-06-05T11:12:33.000Z</time>
      </trkpt>
      <trkpt lat="46.69847" lon="5.73287">
        <ele>617.59997558594</ele>
        <time>2025-06-05T11:12:35.000Z</time>
      </trkpt>
      <trkpt lat="46.69845" lon="5.73289">
        <ele>617.79998779297</ele>
        <time>2025-06-05T11:12:36.000Z</time>
      </trkpt>
      <trkpt lat="46.69845" lon="5.7329">
        <ele>618</ele>
        <time>2025-06-05T11:12:38.000Z</time>
      </trkpt>
      <trkpt lat="46.69845" lon="5.7329">
        <ele>619</ele>
        <time>2025-06-05T11:12:41.000Z</time>
      </trkpt>
      <trkpt lat="46.69845" lon="5.73291">
        <ele>619.59997558594</ele>
        <time>2025-06-05T11:12:49.000Z</time>
      </trkpt>
      <trkpt lat="46.69845" lon="5.73291">
        <ele>619</ele>
        <time>2025-06-05T11:14:05.000Z</time>
      </trkpt>
      <trkpt lat="46.69846" lon="5.73289">
        <ele>619</ele>
        <time>2025-06-05T11:16:10.000Z</time>
      </trkpt>
      <trkpt lat="46.69846" lon="5.73289">
        <ele>619</ele>
        <time>2025-06-05T11:16:12.000Z</time>
      </trkpt>
      <trkpt lat="46.6985" lon="5.73293">
        <ele>619</ele>
        <time>2025-06-05T11:16:14.000Z</time>
      </trkpt>
      <trkpt lat="46.69854" lon="5.73314">
        <ele>618.79998779297</ele>
        <time>2025-06-05T11:16:20.000Z</time>
      </trkpt>
      <trkpt lat="46.69857" lon="5.73345">
        <ele>619.40002441406</ele>
        <time>2025-06-05T11:16:28.000Z</time>
      </trkpt>
      <trkpt lat="46.69861" lon="5.73357">
        <ele>619.79998779297</ele>
        <time>2025-06-05T11:16:33.000Z</time>
      </trkpt>
      <trkpt lat="46.69863" lon="5.7336">
        <ele>620.20001220703</ele>
        <time>2025-06-05T11:16:35.000Z</time>
      </trkpt>
      <trkpt lat="46.69869" lon="5.73367">
        <ele>621.20001220703</ele>
        <time>2025-06-05T11:16:38.000Z</time>
      </trkpt>
      <trkpt lat="46.69878" lon="5.73385">
        <ele>622.40002441406</ele>
        <time>2025-06-05T11:16:44.000Z</time>
      </trkpt>
      <trkpt lat="46.6988" lon="5.73386">
        <ele>622.40002441406</ele>
        <time>2025-06-05T11:16:45.000Z</time>
      </trkpt>
      <trkpt lat="46.69886" lon="5.73393">
        <ele>623.59997558594</ele>
        <time>2025-06-05T11:16:48.000Z</time>
      </trkpt>
      <trkpt lat="46.69889" lon="5.73396">
        <ele>624.40002441406</ele>
        <time>2025-06-05T11:16:50.000Z</time>
      </trkpt>
      <trkpt lat="46.69891" lon="5.73398">
        <ele>624.79998779297</ele>
        <time>2025-06-05T11:16:51.000Z</time>
      </trkpt>
      <trkpt lat="46.69899" lon="5.73405">
        <ele>626.20001220703</ele>
        <time>2025-06-05T11:16:54.000Z</time>
      </trkpt>
      <trkpt lat="46.69906" lon="5.7341">
        <ele>626.79998779297</ele>
        <time>2025-06-05T11:16:57.000Z</time>
      </trkpt>
      <trkpt lat="46.69915" lon="5.73416">
        <ele>627.40002441406</ele>
        <time>2025-06-05T11:17:01.000Z</time>
      </trkpt>
      <trkpt lat="46.69919" lon="5.7342">
        <ele>628.20001220703</ele>
        <time>2025-06-05T11:17:03.000Z</time>
      </trkpt>
      <trkpt lat="46.69921" lon="5.73422">
        <ele>628.40002441406</ele>
        <time>2025-06-05T11:17:04.000Z</time>
      </trkpt>
      <trkpt lat="46.69929" lon="5.73429">
        <ele>629.79998779297</ele>
        <time>2025-06-05T11:17:07.000Z</time>
      </trkpt>
      <trkpt lat="46.69933" lon="5.73435">
        <ele>630.40002441406</ele>
        <time>2025-06-05T11:17:09.000Z</time>
      </trkpt>
      <trkpt lat="46.69934" lon="5.73438">
        <ele>630.79998779297</ele>
        <time>2025-06-05T11:17:10.000Z</time>
      </trkpt>
      <trkpt lat="46.69935" lon="5.7344">
        <ele>630.79998779297</ele>
        <time>2025-06-05T11:17:11.000Z</time>
      </trkpt>
      <trkpt lat="46.69939" lon="5.73447">
        <ele>631.59997558594</ele>
        <time>2025-06-05T11:17:14.000Z</time>
      </trkpt>
      <trkpt lat="46.69946" lon="5.73454">
        <ele>632</ele>
        <time>2025-06-05T11:17:16.000Z</time>
      </trkpt>
      <trkpt lat="46.69954" lon="5.73463">
        <ele>633</ele>
        <time>2025-06-05T11:17:20.000Z</time>
      </trkpt>
      <trkpt lat="46.69956" lon="5.73466">
        <ele>633.20001220703</ele>
        <time>2025-06-05T11:17:21.000Z</time>
      </trkpt>
      <trkpt lat="46.69967" lon="5.73476">
        <ele>634.40002441406</ele>
        <time>2025-06-05T11:17:26.000Z</time>
      </trkpt>
      <trkpt lat="46.69969" lon="5.73478">
        <ele>634.59997558594</ele>
        <time>2025-06-05T11:17:27.000Z</time>
      </trkpt>
      <trkpt lat="46.69979" lon="5.7349">
        <ele>635.59997558594</ele>
        <time>2025-06-05T11:17:32.000Z</time>
      </trkpt>
      <trkpt lat="46.69983" lon="5.73492">
        <ele>636</ele>
        <time>2025-06-05T11:17:34.000Z</time>
      </trkpt>
      <trkpt lat="46.69993" lon="5.73499">
        <ele>636.79998779297</ele>
        <time>2025-06-05T11:17:39.000Z</time>
      </trkpt>
      <trkpt lat="46.69996" lon="5.73502">
        <ele>637.20001220703</ele>
        <time>2025-06-05T11:17:42.000Z</time>
      </trkpt>
      <trkpt lat="46.69996" lon="5.73502">
        <ele>637.79998779297</ele>
        <time>2025-06-05T11:17:44.000Z</time>
      </trkpt>
      <trkpt lat="46.69997" lon="5.73502">
        <ele>638.40002441406</ele>
        <time>2025-06-05T11:18:07.000Z</time>
      </trkpt>
      <trkpt lat="46.69997" lon="5.73502">
        <ele>639.40002441406</ele>
        <time>2025-06-05T11:18:12.000Z</time>
      </trkpt>
      <trkpt lat="46.69997" lon="5.73502">
        <ele>639.79998779297</ele>
        <time>2025-06-05T11:18:14.000Z</time>
      </trkpt>
      <trkpt lat="46.69997" lon="5.73502">
        <ele>640.40002441406</ele>
        <time>2025-06-05T11:18:17.000Z</time>
      </trkpt>
      <trkpt lat="46.69999" lon="5.73502">
        <ele>641.59997558594</ele>
        <time>2025-06-05T11:18:22.000Z</time>
      </trkpt>
      <trkpt lat="46.70001" lon="5.73501">
        <ele>642.59997558594</ele>
        <time>2025-06-05T11:18:27.000Z</time>
      </trkpt>
      <trkpt lat="46.70003" lon="5.73499">
        <ele>643</ele>
        <time>2025-06-05T11:18:34.000Z</time>
      </trkpt>
      <trkpt lat="46.70002" lon="5.73496">
        <ele>643.20001220703</ele>
        <time>2025-06-05T11:18:36.000Z</time>
      </trkpt>
      <trkpt lat="46.70002" lon="5.73492">
        <ele>643.20001220703</ele>
        <time>2025-06-05T11:18:37.000Z</time>
      </trkpt>
      <trkpt lat="46.7" lon="5.73483">
        <ele>643.40002441406</ele>
        <time>2025-06-05T11:18:39.000Z</time>
      </trkpt>
      <trkpt lat="46.69998" lon="5.73478">
        <ele>643.59997558594</ele>
        <time>2025-06-05T11:18:41.000Z</time>
      </trkpt>
      <trkpt lat="46.69996" lon="5.73474">
        <ele>643.59997558594</ele>
        <time>2025-06-05T11:18:42.000Z</time>
      </trkpt>
      <trkpt lat="46.69995" lon="5.73471">
        <ele>643.79998779297</ele>
        <time>2025-06-05T11:18:43.000Z</time>
      </trkpt>
      <trkpt lat="46.69991" lon="5.73464">
        <ele>644.40002441406</ele>
        <time>2025-06-05T11:18:45.000Z</time>
      </trkpt>
      <trkpt lat="46.69983" lon="5.73447">
        <ele>645</ele>
        <time>2025-06-05T11:18:50.000Z</time>
      </trkpt>
      <trkpt lat="46.69971" lon="5.73422">
        <ele>645.20001220703</ele>
        <time>2025-06-05T11:18:56.000Z</time>
      </trkpt>
      <trkpt lat="46.6997" lon="5.73418">
        <ele>645.20001220703</ele>
        <time>2025-06-05T11:18:57.000Z</time>
      </trkpt>
      <trkpt lat="46.69972" lon="5.73412">
        <ele>645.20001220703</ele>
        <time>2025-06-05T11:18:59.000Z</time>
      </trkpt>
      <trkpt lat="46.69971" lon="5.73411">
        <ele>646</ele>
        <time>2025-06-05T11:19:04.000Z</time>
      </trkpt>
      <trkpt lat="46.69971" lon="5.73411">
        <ele>646</ele>
        <time>2025-06-05T11:19:05.000Z</time>
      </trkpt>
      <trkpt lat="46.69971" lon="5.73411">
        <ele>646.40002441406</ele>
        <time>2025-06-05T11:19:13.000Z</time>
      </trkpt>
      <trkpt lat="46.69971" lon="5.73404">
        <ele>646.40002441406</ele>
        <time>2025-06-05T11:19:19.000Z</time>
      </trkpt>
      <trkpt lat="46.69971" lon="5.73403">
        <ele>647.40002441406</ele>
        <time>2025-06-05T11:19:25.000Z</time>
      </trkpt>
      <trkpt lat="46.69971" lon="5.73403">
        <ele>647.40002441406</ele>
        <time>2025-06-05T11:19:27.000Z</time>
      </trkpt>
      <trkpt lat="46.69974" lon="5.73403">
        <ele>648.40002441406</ele>
        <time>2025-06-05T11:19:39.000Z</time>
      </trkpt>
      <trkpt lat="46.69974" lon="5.73403">
        <ele>648.40002441406</ele>
        <time>2025-06-05T11:19:40.000Z</time>
      </trkpt>
      <trkpt lat="46.69979" lon="5.73405">
        <ele>649.59997558594</ele>
        <time>2025-06-05T11:19:48.000Z</time>
      </trkpt>
      <trkpt lat="46.69979" lon="5.73406">
        <ele>650.40002441406</ele>
        <time>2025-06-05T11:19:55.000Z</time>
      </trkpt>
      <trkpt lat="46.69981" lon="5.73406">
        <ele>650.59997558594</ele>
        <time>2025-06-05T11:19:59.000Z</time>
      </trkpt>
      <trkpt lat="46.69981" lon="5.73406">
        <ele>650.79998779297</ele>
        <time>2025-06-05T11:20:02.000Z</time>
      </trkpt>
      <trkpt lat="46.69982" lon="5.73406">
        <ele>651.40002441406</ele>
        <time>2025-06-05T11:20:13.000Z</time>
      </trkpt>
      <trkpt lat="46.69987" lon="5.73411">
        <ele>652</ele>
        <time>2025-06-05T11:20:18.000Z</time>
      </trkpt>
      <trkpt lat="46.69988" lon="5.73412">
        <ele>652</ele>
        <time>2025-06-05T11:20:19.000Z</time>
      </trkpt>
      <trkpt lat="46.69993" lon="5.73417">
        <ele>653</ele>
        <time>2025-06-05T11:20:24.000Z</time>
      </trkpt>
      <trkpt lat="46.69996" lon="5.73419">
        <ele>654</ele>
        <time>2025-06-05T11:20:27.000Z</time>
      </trkpt>
      <trkpt lat="46.69998" lon="5.7342">
        <ele>654.59997558594</ele>
        <time>2025-06-05T11:20:30.000Z</time>
      </trkpt>
      <trkpt lat="46.7" lon="5.73422">
        <ele>655</ele>
        <time>2025-06-05T11:20:33.000Z</time>
      </trkpt>
      <trkpt lat="46.70002" lon="5.73424">
        <ele>656.20001220703</ele>
        <time>2025-06-05T11:20:38.000Z</time>
      </trkpt>
      <trkpt lat="46.70003" lon="5.73424">
        <ele>656.40002441406</ele>
        <time>2025-06-05T11:20:39.000Z</time>
      </trkpt>
      <trkpt lat="46.70006" lon="5.73427">
        <ele>657.59997558594</ele>
        <time>2025-06-05T11:20:45.000Z</time>
      </trkpt>
      <trkpt lat="46.70006" lon="5.73428">
        <ele>658</ele>
        <time>2025-06-05T11:20:48.000Z</time>
      </trkpt>
      <trkpt lat="46.70006" lon="5.73428">
        <ele>658.59997558594</ele>
        <time>2025-06-05T11:20:52.000Z</time>
      </trkpt>
      <trkpt lat="46.70006" lon="5.73428">
        <ele>658</ele>
        <time>2025-06-05T11:21:07.000Z</time>
      </trkpt>
      <trkpt lat="46.70006" lon="5.73428">
        <ele>658</ele>
        <time>2025-06-05T11:21:10.000Z</time>
      </trkpt>
      <trkpt lat="46.70006" lon="5.73428">
        <ele>658.59997558594</ele>
        <time>2025-06-05T11:21:17.000Z</time>
      </trkpt>
      <trkpt lat="46.70007" lon="5.73428">
        <ele>659.79998779297</ele>
        <time>2025-06-05T11:21:25.000Z</time>
      </trkpt>
      <trkpt lat="46.70008" lon="5.73429">
        <ele>660</ele>
        <time>2025-06-05T11:21:27.000Z</time>
      </trkpt>
      <trkpt lat="46.70012" lon="5.73433">
        <ele>660.79998779297</ele>
        <time>2025-06-05T11:21:31.000Z</time>
      </trkpt>
      <trkpt lat="46.70018" lon="5.7344">
        <ele>661.79998779297</ele>
        <time>2025-06-05T11:21:35.000Z</time>
      </trkpt>
      <trkpt lat="46.7002" lon="5.73442">
        <ele>662.20001220703</ele>
        <time>2025-06-05T11:21:37.000Z</time>
      </trkpt>
      <trkpt lat="46.70024" lon="5.73446">
        <ele>663.40002441406</ele>
        <time>2025-06-05T11:21:42.000Z</time>
      </trkpt>
      <trkpt lat="46.70026" lon="5.73447">
        <ele>663.59997558594</ele>
        <time>2025-06-05T11:21:44.000Z</time>
      </trkpt>
      <trkpt lat="46.70027" lon="5.73447">
        <ele>664</ele>
        <time>2025-06-05T11:21:45.000Z</time>
      </trkpt>
      <trkpt lat="46.7003" lon="5.73446">
        <ele>664.40002441406</ele>
        <time>2025-06-05T11:21:48.000Z</time>
      </trkpt>
      <trkpt lat="46.70032" lon="5.73446">
        <ele>664.59997558594</ele>
        <time>2025-06-05T11:21:50.000Z</time>
      </trkpt>
      <trkpt lat="46.70036" lon="5.73444">
        <ele>664.79998779297</ele>
        <time>2025-06-05T11:21:54.000Z</time>
      </trkpt>
      <trkpt lat="46.70038" lon="5.73444">
        <ele>665</ele>
        <time>2025-06-05T11:21:56.000Z</time>
      </trkpt>
      <trkpt lat="46.70039" lon="5.73444">
        <ele>665</ele>
        <time>2025-06-05T11:21:58.000Z</time>
      </trkpt>
      <trkpt lat="46.70039" lon="5.73444">
        <ele>665</ele>
        <time>2025-06-05T11:22:07.000Z</time>
      </trkpt>
      <trkpt lat="46.70039" lon="5.73444">
        <ele>664.59997558594</ele>
        <time>2025-06-05T11:22:56.000Z</time>
      </trkpt>
      <trkpt lat="46.70038" lon="5.73444">
        <ele>665.59997558594</ele>
        <time>2025-06-05T11:25:33.000Z</time>
      </trkpt>
      <trkpt lat="46.70035" lon="5.73446">
        <ele>665.79998779297</ele>
        <time>2025-06-05T11:25:36.000Z</time>
      </trkpt>
      <trkpt lat="46.70033" lon="5.73446">
        <ele>665.79998779297</ele>
        <time>2025-06-05T11:25:37.000Z</time>
      </trkpt>
      <trkpt lat="46.70025" lon="5.73445">
        <ele>665.79998779297</ele>
        <time>2025-06-05T11:25:43.000Z</time>
      </trkpt>
      <trkpt lat="46.70024" lon="5.73443">
        <ele>665.59997558594</ele>
        <time>2025-06-05T11:25:45.000Z</time>
      </trkpt>
      <trkpt lat="46.70022" lon="5.7344">
        <ele>665.20001220703</ele>
        <time>2025-06-05T11:25:47.000Z</time>
      </trkpt>
      <trkpt lat="46.70016" lon="5.73433">
        <ele>664.40002441406</ele>
        <time>2025-06-05T11:25:50.000Z</time>
      </trkpt>
      <trkpt lat="46.70013" lon="5.73431">
        <ele>664.40002441406</ele>
        <time>2025-06-05T11:25:51.000Z</time>
      </trkpt>
      <trkpt lat="46.70008" lon="5.73426">
        <ele>663.20001220703</ele>
        <time>2025-06-05T11:25:53.000Z</time>
      </trkpt>
      <trkpt lat="46.70002" lon="5.7342">
        <ele>662</ele>
        <time>2025-06-05T11:25:55.000Z</time>
      </trkpt>
      <trkpt lat="46.69997" lon="5.73416">
        <ele>661.20001220703</ele>
        <time>2025-06-05T11:25:57.000Z</time>
      </trkpt>
      <trkpt lat="46.69994" lon="5.73413">
        <ele>660.79998779297</ele>
        <time>2025-06-05T11:25:58.000Z</time>
      </trkpt>
      <trkpt lat="46.69992" lon="5.73411">
        <ele>660</ele>
        <time>2025-06-05T11:25:59.000Z</time>
      </trkpt>
      <trkpt lat="46.6999" lon="5.73409">
        <ele>658.59997558594</ele>
        <time>2025-06-05T11:26:00.000Z</time>
      </trkpt>
      <trkpt lat="46.69988" lon="5.73406">
        <ele>656.20001220703</ele>
        <time>2025-06-05T11:26:02.000Z</time>
      </trkpt>
      <trkpt lat="46.69988" lon="5.73406">
        <ele>655.59997558594</ele>
        <time>2025-06-05T11:26:03.000Z</time>
      </trkpt>
      <trkpt lat="46.69988" lon="5.73406">
        <ele>655</ele>
        <time>2025-06-05T11:26:04.000Z</time>
      </trkpt>
      <trkpt lat="46.69988" lon="5.73405">
        <ele>653.79998779297</ele>
        <time>2025-06-05T11:26:06.000Z</time>
      </trkpt>
      <trkpt lat="46.69985" lon="5.73404">
        <ele>653</ele>
        <time>2025-06-05T11:26:11.000Z</time>
      </trkpt>
      <trkpt lat="46.69985" lon="5.73404">
        <ele>652.79998779297</ele>
        <time>2025-06-05T11:26:13.000Z</time>
      </trkpt>
      <trkpt lat="46.69985" lon="5.73404">
        <ele>652.40002441406</ele>
        <time>2025-06-05T11:26:19.000Z</time>
      </trkpt>
      <trkpt lat="46.69983" lon="5.73402">
        <ele>652.20001220703</ele>
        <time>2025-06-05T11:26:21.000Z</time>
      </trkpt>
      <trkpt lat="46.69981" lon="5.73398">
        <ele>652.20001220703</ele>
        <time>2025-06-05T11:26:23.000Z</time>
      </trkpt>
      <trkpt lat="46.69979" lon="5.73396">
        <ele>652</ele>
        <time>2025-06-05T11:26:24.000Z</time>
      </trkpt>
      <trkpt lat="46.69976" lon="5.73396">
        <ele>652</ele>
        <time>2025-06-05T11:26:25.000Z</time>
      </trkpt>
      <trkpt lat="46.69974" lon="5.73397">
        <ele>651.40002441406</ele>
        <time>2025-06-05T11:26:27.000Z</time>
      </trkpt>
      <trkpt lat="46.69972" lon="5.73399">
        <ele>651.20001220703</ele>
        <time>2025-06-05T11:26:28.000Z</time>
      </trkpt>
      <trkpt lat="46.69969" lon="5.7341">
        <ele>650.20001220703</ele>
        <time>2025-06-05T11:26:31.000Z</time>
      </trkpt>
      <trkpt lat="46.6997" lon="5.73414">
        <ele>649.79998779297</ele>
        <time>2025-06-05T11:26:32.000Z</time>
      </trkpt>
      <trkpt lat="46.69974" lon="5.73423">
        <ele>648.59997558594</ele>
        <time>2025-06-05T11:26:34.000Z</time>
      </trkpt>
      <trkpt lat="46.69977" lon="5.73429">
        <ele>647.40002441406</ele>
        <time>2025-06-05T11:26:36.000Z</time>
      </trkpt>
      <trkpt lat="46.69979" lon="5.73432">
        <ele>647.20001220703</ele>
        <time>2025-06-05T11:26:37.000Z</time>
      </trkpt>
      <trkpt lat="46.69992" lon="5.73449">
        <ele>646.59997558594</ele>
        <time>2025-06-05T11:26:43.000Z</time>
      </trkpt>
      <trkpt lat="46.69997" lon="5.73455">
        <ele>646.59997558594</ele>
        <time>2025-06-05T11:26:45.000Z</time>
      </trkpt>
      <trkpt lat="46.70003" lon="5.73464">
        <ele>646.79998779297</ele>
        <time>2025-06-05T11:26:49.000Z</time>
      </trkpt>
      <trkpt lat="46.70006" lon="5.73471">
        <ele>646.59997558594</ele>
        <time>2025-06-05T11:26:52.000Z</time>
      </trkpt>
      <trkpt lat="46.70007" lon="5.73477">
        <ele>646.59997558594</ele>
        <time>2025-06-05T11:26:54.000Z</time>
      </trkpt>
      <trkpt lat="46.70007" lon="5.73479">
        <ele>646.40002441406</ele>
        <time>2025-06-05T11:26:55.000Z</time>
      </trkpt>
      <trkpt lat="46.70004" lon="5.73483">
        <ele>645.59997558594</ele>
        <time>2025-06-05T11:26:58.000Z</time>
      </trkpt>
      <trkpt lat="46.70002" lon="5.73485">
        <ele>645.40002441406</ele>
        <time>2025-06-05T11:26:59.000Z</time>
      </trkpt>
      <trkpt lat="46.70001" lon="5.73486">
        <ele>645.20001220703</ele>
        <time>2025-06-05T11:27:00.000Z</time>
      </trkpt>
      <trkpt lat="46.69999" lon="5.73488">
        <ele>644.79998779297</ele>
        <time>2025-06-05T11:27:01.000Z</time>
      </trkpt>
      <trkpt lat="46.69999" lon="5.73491">
        <ele>644</ele>
        <time>2025-06-05T11:27:02.000Z</time>
      </trkpt>
      <trkpt lat="46.7" lon="5.73493">
        <ele>643.20001220703</ele>
        <time>2025-06-05T11:27:03.000Z</time>
      </trkpt>
      <trkpt lat="46.70001" lon="5.73494">
        <ele>642.40002441406</ele>
        <time>2025-06-05T11:27:04.000Z</time>
      </trkpt>
      <trkpt lat="46.70006" lon="5.73498">
        <ele>641.40002441406</ele>
        <time>2025-06-05T11:27:06.000Z</time>
      </trkpt>
      <trkpt lat="46.70014" lon="5.73509">
        <ele>640.59997558594</ele>
        <time>2025-06-05T11:27:09.000Z</time>
      </trkpt>
      <trkpt lat="46.70017" lon="5.73512">
        <ele>640.20001220703</ele>
        <time>2025-06-05T11:27:10.000Z</time>
      </trkpt>
      <trkpt lat="46.7002" lon="5.73516">
        <ele>640.20001220703</ele>
        <time>2025-06-05T11:27:11.000Z</time>
      </trkpt>
      <trkpt lat="46.70023" lon="5.73525">
        <ele>640</ele>
        <time>2025-06-05T11:27:13.000Z</time>
      </trkpt>
      <trkpt lat="46.70039" lon="5.73547">
        <ele>639.79998779297</ele>
        <time>2025-06-05T11:27:19.000Z</time>
      </trkpt>
      <trkpt lat="46.70048" lon="5.73555">
        <ele>640.20001220703</ele>
        <time>2025-06-05T11:27:22.000Z</time>
      </trkpt>
      <trkpt lat="46.7005" lon="5.73563">
        <ele>640.20001220703</ele>
        <time>2025-06-05T11:27:24.000Z</time>
      </trkpt>
      <trkpt lat="46.70068" lon="5.73581">
        <ele>639.79998779297</ele>
        <time>2025-06-05T11:27:29.000Z</time>
      </trkpt>
      <trkpt lat="46.70071" lon="5.73586">
        <ele>639.79998779297</ele>
        <time>2025-06-05T11:27:30.000Z</time>
      </trkpt>
      <trkpt lat="46.7008" lon="5.73595">
        <ele>639.59997558594</ele>
        <time>2025-06-05T11:27:33.000Z</time>
      </trkpt>
      <trkpt lat="46.70084" lon="5.73598">
        <ele>639.40002441406</ele>
        <time>2025-06-05T11:27:34.000Z</time>
      </trkpt>
      <trkpt lat="46.70094" lon="5.73606">
        <ele>639.40002441406</ele>
        <time>2025-06-05T11:27:36.000Z</time>
      </trkpt>
      <trkpt lat="46.70098" lon="5.7361">
        <ele>639.40002441406</ele>
        <time>2025-06-05T11:27:37.000Z</time>
      </trkpt>
      <trkpt lat="46.70105" lon="5.73613">
        <ele>639</ele>
        <time>2025-06-05T11:27:39.000Z</time>
      </trkpt>
      <trkpt lat="46.70114" lon="5.7362">
        <ele>638.59997558594</ele>
        <time>2025-06-05T11:27:41.000Z</time>
      </trkpt>
      <trkpt lat="46.70124" lon="5.73627">
        <ele>638.40002441406</ele>
        <time>2025-06-05T11:27:43.000Z</time>
      </trkpt>
      <trkpt lat="46.70134" lon="5.73634">
        <ele>638</ele>
        <time>2025-06-05T11:27:46.000Z</time>
      </trkpt>
      <trkpt lat="46.70137" lon="5.73636">
        <ele>637.59997558594</ele>
        <time>2025-06-05T11:27:47.000Z</time>
      </trkpt>
      <trkpt lat="46.70144" lon="5.73641">
        <ele>637.59997558594</ele>
        <time>2025-06-05T11:27:49.000Z</time>
      </trkpt>
      <trkpt lat="46.70157" lon="5.73642">
        <ele>637.79998779297</ele>
        <time>2025-06-05T11:27:53.000Z</time>
      </trkpt>
      <trkpt lat="46.70173" lon="5.73649">
        <ele>639</ele>
        <time>2025-06-05T11:27:58.000Z</time>
      </trkpt>
      <trkpt lat="46.70176" lon="5.73651">
        <ele>639.20001220703</ele>
        <time>2025-06-05T11:27:59.000Z</time>
      </trkpt>
      <trkpt lat="46.70188" lon="5.7366">
        <ele>640</ele>
        <time>2025-06-05T11:28:04.000Z</time>
      </trkpt>
      <trkpt lat="46.70199" lon="5.73672">
        <ele>641</ele>
        <time>2025-06-05T11:28:08.000Z</time>
      </trkpt>
      <trkpt lat="46.70204" lon="5.7368">
        <ele>641.59997558594</ele>
        <time>2025-06-05T11:28:10.000Z</time>
      </trkpt>
      <trkpt lat="46.70212" lon="5.73687">
        <ele>642</ele>
        <time>2025-06-05T11:28:14.000Z</time>
      </trkpt>
      <trkpt lat="46.70229" lon="5.73704">
        <ele>643</ele>
        <time>2025-06-05T11:28:20.000Z</time>
      </trkpt>
      <trkpt lat="46.70231" lon="5.73705">
        <ele>643.20001220703</ele>
        <time>2025-06-05T11:28:21.000Z</time>
      </trkpt>
      <trkpt lat="46.70238" lon="5.73711">
        <ele>644.20001220703</ele>
        <time>2025-06-05T11:28:24.000Z</time>
      </trkpt>
      <trkpt lat="46.70248" lon="5.73721">
        <ele>644.79998779297</ele>
        <time>2025-06-05T11:28:28.000Z</time>
      </trkpt>
      <trkpt lat="46.70261" lon="5.73734">
        <ele>645.20001220703</ele>
        <time>2025-06-05T11:28:33.000Z</time>
      </trkpt>
      <trkpt lat="46.70267" lon="5.73741">
        <ele>645.40002441406</ele>
        <time>2025-06-05T11:28:36.000Z</time>
      </trkpt>
      <trkpt lat="46.70277" lon="5.7375">
        <ele>645.40002441406</ele>
        <time>2025-06-05T11:28:39.000Z</time>
      </trkpt>
      <trkpt lat="46.70285" lon="5.73755">
        <ele>645.59997558594</ele>
        <time>2025-06-05T11:28:42.000Z</time>
      </trkpt>
      <trkpt lat="46.70301" lon="5.73768">
        <ele>645.59997558594</ele>
        <time>2025-06-05T11:28:49.000Z</time>
      </trkpt>
      <trkpt lat="46.70302" lon="5.7377">
        <ele>645.40002441406</ele>
        <time>2025-06-05T11:28:50.000Z</time>
      </trkpt>
      <trkpt lat="46.70308" lon="5.73779">
        <ele>645</ele>
        <time>2025-06-05T11:28:53.000Z</time>
      </trkpt>
      <trkpt lat="46.70324" lon="5.73796">
        <ele>644.40002441406</ele>
        <time>2025-06-05T11:28:59.000Z</time>
      </trkpt>
      <trkpt lat="46.70327" lon="5.73799">
        <ele>644.20001220703</ele>
        <time>2025-06-05T11:29:00.000Z</time>
      </trkpt>
      <trkpt lat="46.70337" lon="5.73811">
        <ele>643</ele>
        <time>2025-06-05T11:29:05.000Z</time>
      </trkpt>
      <trkpt lat="46.70339" lon="5.73818">
        <ele>642</ele>
        <time>2025-06-05T11:29:12.000Z</time>
      </trkpt>
      <trkpt lat="46.70339" lon="5.7382">
        <ele>641.59997558594</ele>
        <time>2025-06-05T11:29:19.000Z</time>
      </trkpt>
      <trkpt lat="46.70341" lon="5.73824">
        <ele>641.40002441406</ele>
        <time>2025-06-05T11:29:28.000Z</time>
      </trkpt>
      <trkpt lat="46.70345" lon="5.73828">
        <ele>641.20001220703</ele>
        <time>2025-06-05T11:29:34.000Z</time>
      </trkpt>
      <trkpt lat="46.70345" lon="5.73828">
        <ele>641.20001220703</ele>
        <time>2025-06-05T11:29:40.000Z</time>
      </trkpt>
      <trkpt lat="46.70345" lon="5.73828">
        <ele>641.20001220703</ele>
        <time>2025-06-05T11:29:41.000Z</time>
      </trkpt>
      <trkpt lat="46.70341" lon="5.73832">
        <ele>641</ele>
        <time>2025-06-05T11:29:43.000Z</time>
      </trkpt>
      <trkpt lat="46.70339" lon="5.73834">
        <ele>641</ele>
        <time>2025-06-05T11:29:44.000Z</time>
      </trkpt>
      <trkpt lat="46.70337" lon="5.73841">
        <ele>641</ele>
        <time>2025-06-05T11:29:46.000Z</time>
      </trkpt>
      <trkpt lat="46.70337" lon="5.73847">
        <ele>641</ele>
        <time>2025-06-05T11:29:48.000Z</time>
      </trkpt>
      <trkpt lat="46.70337" lon="5.7385">
        <ele>641</ele>
        <time>2025-06-05T11:29:49.000Z</time>
      </trkpt>
      <trkpt lat="46.70336" lon="5.73853">
        <ele>641.20001220703</ele>
        <time>2025-06-05T11:29:50.000Z</time>
      </trkpt>
      <trkpt lat="46.70337" lon="5.73859">
        <ele>642</ele>
        <time>2025-06-05T11:29:52.000Z</time>
      </trkpt>
      <trkpt lat="46.70337" lon="5.73861">
        <ele>642.40002441406</ele>
        <time>2025-06-05T11:29:53.000Z</time>
      </trkpt>
      <trkpt lat="46.70336" lon="5.73863">
        <ele>643.40002441406</ele>
        <time>2025-06-05T11:29:57.000Z</time>
      </trkpt>
      <trkpt lat="46.70336" lon="5.73863">
        <ele>644</ele>
        <time>2025-06-05T11:30:00.000Z</time>
      </trkpt>
      <trkpt lat="46.70335" lon="5.73866">
        <ele>644.40002441406</ele>
        <time>2025-06-05T11:30:08.000Z</time>
      </trkpt>
      <trkpt lat="46.70334" lon="5.73871">
        <ele>644.20001220703</ele>
        <time>2025-06-05T11:30:10.000Z</time>
      </trkpt>
      <trkpt lat="46.70333" lon="5.73882">
        <ele>643.79998779297</ele>
        <time>2025-06-05T11:30:13.000Z</time>
      </trkpt>
      <trkpt lat="46.7033" lon="5.73898">
        <ele>642.79998779297</ele>
        <time>2025-06-05T11:30:18.000Z</time>
      </trkpt>
      <trkpt lat="46.70329" lon="5.73901">
        <ele>642.40002441406</ele>
        <time>2025-06-05T11:30:19.000Z</time>
      </trkpt>
      <trkpt lat="46.70326" lon="5.73908">
        <ele>642.20001220703</ele>
        <time>2025-06-05T11:30:21.000Z</time>
      </trkpt>
      <trkpt lat="46.70324" lon="5.73917">
        <ele>642</ele>
        <time>2025-06-05T11:30:23.000Z</time>
      </trkpt>
      <trkpt lat="46.70326" lon="5.73924">
        <ele>641.79998779297</ele>
        <time>2025-06-05T11:30:24.000Z</time>
      </trkpt>
      <trkpt lat="46.70328" lon="5.73929">
        <ele>641.40002441406</ele>
        <time>2025-06-05T11:30:28.000Z</time>
      </trkpt>
      <trkpt lat="46.70328" lon="5.73929">
        <ele>641</ele>
        <time>2025-06-05T11:30:30.000Z</time>
      </trkpt>
      <trkpt lat="46.70328" lon="5.73936">
        <ele>640.40002441406</ele>
        <time>2025-06-05T11:30:36.000Z</time>
      </trkpt>
      <trkpt lat="46.70325" lon="5.7395">
        <ele>640.20001220703</ele>
        <time>2025-06-05T11:30:40.000Z</time>
      </trkpt>
      <trkpt lat="46.70325" lon="5.73959">
        <ele>640.40002441406</ele>
        <time>2025-06-05T11:30:42.000Z</time>
      </trkpt>
      <trkpt lat="46.7032" lon="5.73972">
        <ele>640.40002441406</ele>
        <time>2025-06-05T11:30:45.000Z</time>
      </trkpt>
      <trkpt lat="46.70318" lon="5.73976">
        <ele>640.40002441406</ele>
        <time>2025-06-05T11:30:46.000Z</time>
      </trkpt>
      <trkpt lat="46.70307" lon="5.74">
        <ele>640.20001220703</ele>
        <time>2025-06-05T11:30:51.000Z</time>
      </trkpt>
      <trkpt lat="46.70303" lon="5.74009">
        <ele>639.79998779297</ele>
        <time>2025-06-05T11:30:53.000Z</time>
      </trkpt>
      <trkpt lat="46.70301" lon="5.74014">
        <ele>639.59997558594</ele>
        <time>2025-06-05T11:30:54.000Z</time>
      </trkpt>
      <trkpt lat="46.70289" lon="5.7404">
        <ele>639</ele>
        <time>2025-06-05T11:30:58.000Z</time>
      </trkpt>
      <trkpt lat="46.70288" lon="5.74043">
        <ele>638.79998779297</ele>
        <time>2025-06-05T11:30:59.000Z</time>
      </trkpt>
      <trkpt lat="46.70286" lon="5.74045">
        <ele>637.79998779297</ele>
        <time>2025-06-05T11:31:02.000Z</time>
      </trkpt>
      <trkpt lat="46.70279" lon="5.74054">
        <ele>637.40002441406</ele>
        <time>2025-06-05T11:31:06.000Z</time>
      </trkpt>
      <trkpt lat="46.70262" lon="5.74076">
        <ele>636.79998779297</ele>
        <time>2025-06-05T11:31:12.000Z</time>
      </trkpt>
      <trkpt lat="46.70253" lon="5.74079">
        <ele>636</ele>
        <time>2025-06-05T11:31:16.000Z</time>
      </trkpt>
      <trkpt lat="46.70246" lon="5.74083">
        <ele>635.20001220703</ele>
        <time>2025-06-05T11:31:18.000Z</time>
      </trkpt>
      <trkpt lat="46.70236" lon="5.74088">
        <ele>633.59997558594</ele>
        <time>2025-06-05T11:31:21.000Z</time>
      </trkpt>
      <trkpt lat="46.70231" lon="5.74086">
        <ele>632.40002441406</ele>
        <time>2025-06-05T11:31:23.000Z</time>
      </trkpt>
      <trkpt lat="46.70222" lon="5.74088">
        <ele>631.59997558594</ele>
        <time>2025-06-05T11:31:25.000Z</time>
      </trkpt>
      <trkpt lat="46.70219" lon="5.74088">
        <ele>631.40002441406</ele>
        <time>2025-06-05T11:31:26.000Z</time>
      </trkpt>
      <trkpt lat="46.7021" lon="5.74097">
        <ele>630.20001220703</ele>
        <time>2025-06-05T11:31:29.000Z</time>
      </trkpt>
      <trkpt lat="46.70207" lon="5.74096">
        <ele>629.79998779297</ele>
        <time>2025-06-05T11:31:30.000Z</time>
      </trkpt>
      <trkpt lat="46.70204" lon="5.74095">
        <ele>629.59997558594</ele>
        <time>2025-06-05T11:31:31.000Z</time>
      </trkpt>
      <trkpt lat="46.70201" lon="5.74095">
        <ele>628.79998779297</ele>
        <time>2025-06-05T11:31:32.000Z</time>
      </trkpt>
      <trkpt lat="46.70196" lon="5.74094">
        <ele>628.40002441406</ele>
        <time>2025-06-05T11:31:33.000Z</time>
      </trkpt>
      <trkpt lat="46.7019" lon="5.74094">
        <ele>627.40002441406</ele>
        <time>2025-06-05T11:31:34.000Z</time>
      </trkpt>
      <trkpt lat="46.70186" lon="5.74092">
        <ele>627.20001220703</ele>
        <time>2025-06-05T11:31:35.000Z</time>
      </trkpt>
      <trkpt lat="46.70183" lon="5.7409">
        <ele>626.59997558594</ele>
        <time>2025-06-05T11:31:36.000Z</time>
      </trkpt>
      <trkpt lat="46.70179" lon="5.74089">
        <ele>626.20001220703</ele>
        <time>2025-06-05T11:31:37.000Z</time>
      </trkpt>
      <trkpt lat="46.70168" lon="5.74085">
        <ele>625</ele>
        <time>2025-06-05T11:31:41.000Z</time>
      </trkpt>
      <trkpt lat="46.70159" lon="5.74078">
        <ele>623.79998779297</ele>
        <time>2025-06-05T11:31:45.000Z</time>
      </trkpt>
      <trkpt lat="46.70156" lon="5.74075">
        <ele>623.59997558594</ele>
        <time>2025-06-05T11:31:47.000Z</time>
      </trkpt>
      <trkpt lat="46.70153" lon="5.74072">
        <ele>623.20001220703</ele>
        <time>2025-06-05T11:31:49.000Z</time>
      </trkpt>
      <trkpt lat="46.70149" lon="5.74065">
        <ele>623</ele>
        <time>2025-06-05T11:31:52.000Z</time>
      </trkpt>
      <trkpt lat="46.70146" lon="5.74058">
        <ele>622.79998779297</ele>
        <time>2025-06-05T11:31:54.000Z</time>
      </trkpt>
      <trkpt lat="46.70127" lon="5.74036">
        <ele>622</ele>
        <time>2025-06-05T11:32:01.000Z</time>
      </trkpt>
      <trkpt lat="46.70125" lon="5.74034">
        <ele>621.40002441406</ele>
        <time>2025-06-05T11:32:02.000Z</time>
      </trkpt>
      <trkpt lat="46.70116" lon="5.74029">
        <ele>620.40002441406</ele>
        <time>2025-06-05T11:32:05.000Z</time>
      </trkpt>
      <trkpt lat="46.70112" lon="5.74026">
        <ele>619.20001220703</ele>
        <time>2025-06-05T11:32:07.000Z</time>
      </trkpt>
      <trkpt lat="46.70109" lon="5.74025">
        <ele>618.79998779297</ele>
        <time>2025-06-05T11:32:08.000Z</time>
      </trkpt>
      <trkpt lat="46.70102" lon="5.74024">
        <ele>618.20001220703</ele>
        <time>2025-06-05T11:32:10.000Z</time>
      </trkpt>
      <trkpt lat="46.70093" lon="5.74021">
        <ele>617.59997558594</ele>
        <time>2025-06-05T11:32:13.000Z</time>
      </trkpt>
      <trkpt lat="46.70085" lon="5.74023">
        <ele>617.20001220703</ele>
        <time>2025-06-05T11:32:16.000Z</time>
      </trkpt>
      <trkpt lat="46.70069" lon="5.74031">
        <ele>616.40002441406</ele>
        <time>2025-06-05T11:32:19.000Z</time>
      </trkpt>
      <trkpt lat="46.70063" lon="5.74034">
        <ele>616</ele>
        <time>2025-06-05T11:32:20.000Z</time>
      </trkpt>
      <trkpt lat="46.70054" lon="5.74039">
        <ele>615.40002441406</ele>
        <time>2025-06-05T11:32:22.000Z</time>
      </trkpt>
      <trkpt lat="46.70049" lon="5.74041">
        <ele>615.20001220703</ele>
        <time>2025-06-05T11:32:23.000Z</time>
      </trkpt>
      <trkpt lat="46.70045" lon="5.74043">
        <ele>614.40002441406</ele>
        <time>2025-06-05T11:32:24.000Z</time>
      </trkpt>
      <trkpt lat="46.70033" lon="5.74048">
        <ele>613.59997558594</ele>
        <time>2025-06-05T11:32:26.000Z</time>
      </trkpt>
      <trkpt lat="46.70032" lon="5.74054">
        <ele>613</ele>
        <time>2025-06-05T11:32:27.000Z</time>
      </trkpt>
      <trkpt lat="46.70029" lon="5.74058">
        <ele>612.79998779297</ele>
        <time>2025-06-05T11:32:28.000Z</time>
      </trkpt>
      <trkpt lat="46.70026" lon="5.74062">
        <ele>612</ele>
        <time>2025-06-05T11:32:29.000Z</time>
      </trkpt>
      <trkpt lat="46.70023" lon="5.74069">
        <ele>611</ele>
        <time>2025-06-05T11:32:31.000Z</time>
      </trkpt>
      <trkpt lat="46.70016" lon="5.74075">
        <ele>610</ele>
        <time>2025-06-05T11:32:34.000Z</time>
      </trkpt>
      <trkpt lat="46.70014" lon="5.74075">
        <ele>609.79998779297</ele>
        <time>2025-06-05T11:32:35.000Z</time>
      </trkpt>
      <trkpt lat="46.70013" lon="5.74077">
        <ele>608.59997558594</ele>
        <time>2025-06-05T11:32:41.000Z</time>
      </trkpt>
      <trkpt lat="46.70013" lon="5.74086">
        <ele>608.20001220703</ele>
        <time>2025-06-05T11:32:51.000Z</time>
      </trkpt>
      <trkpt lat="46.70013" lon="5.7409">
        <ele>608.40002441406</ele>
        <time>2025-06-05T11:32:59.000Z</time>
      </trkpt>
      <trkpt lat="46.70012" lon="5.74094">
        <ele>608.40002441406</ele>
        <time>2025-06-05T11:33:12.000Z</time>
      </trkpt>
      <trkpt lat="46.70008" lon="5.74104">
        <ele>608.40002441406</ele>
        <time>2025-06-05T11:33:15.000Z</time>
      </trkpt>
      <trkpt lat="46.70001" lon="5.74112">
        <ele>608</ele>
        <time>2025-06-05T11:33:18.000Z</time>
      </trkpt>
      <trkpt lat="46.69999" lon="5.74116">
        <ele>607.79998779297</ele>
        <time>2025-06-05T11:33:19.000Z</time>
      </trkpt>
      <trkpt lat="46.69989" lon="5.74129">
        <ele>607.59997558594</ele>
        <time>2025-06-05T11:33:23.000Z</time>
      </trkpt>
      <trkpt lat="46.69977" lon="5.74143">
        <ele>607.59997558594</ele>
        <time>2025-06-05T11:33:28.000Z</time>
      </trkpt>
      <trkpt lat="46.69976" lon="5.74146">
        <ele>607.59997558594</ele>
        <time>2025-06-05T11:33:29.000Z</time>
      </trkpt>
      <trkpt lat="46.69975" lon="5.7415">
        <ele>607.59997558594</ele>
        <time>2025-06-05T11:33:30.000Z</time>
      </trkpt>
      <trkpt lat="46.69967" lon="5.74162">
        <ele>607.40002441406</ele>
        <time>2025-06-05T11:33:33.000Z</time>
      </trkpt>
      <trkpt lat="46.69965" lon="5.74165">
        <ele>607.20001220703</ele>
        <time>2025-06-05T11:33:34.000Z</time>
      </trkpt>
      <trkpt lat="46.69958" lon="5.74175">
        <ele>606.20001220703</ele>
        <time>2025-06-05T11:33:37.000Z</time>
      </trkpt>
      <trkpt lat="46.69957" lon="5.74177">
        <ele>606.20001220703</ele>
        <time>2025-06-05T11:33:38.000Z</time>
      </trkpt>
      <trkpt lat="46.69952" lon="5.74186">
        <ele>606</ele>
        <time>2025-06-05T11:33:40.000Z</time>
      </trkpt>
      <trkpt lat="46.69948" lon="5.74192">
        <ele>605.20001220703</ele>
        <time>2025-06-05T11:33:43.000Z</time>
      </trkpt>
      <trkpt lat="46.69935" lon="5.74201">
        <ele>603.79998779297</ele>
        <time>2025-06-05T11:33:47.000Z</time>
      </trkpt>
      <trkpt lat="46.69931" lon="5.74205">
        <ele>603.59997558594</ele>
        <time>2025-06-05T11:33:48.000Z</time>
      </trkpt>
      <trkpt lat="46.69923" lon="5.74215">
        <ele>602.79998779297</ele>
        <time>2025-06-05T11:33:53.000Z</time>
      </trkpt>
      <trkpt lat="46.69921" lon="5.74218">
        <ele>602.40002441406</ele>
        <time>2025-06-05T11:33:54.000Z</time>
      </trkpt>
      <trkpt lat="46.6992" lon="5.74233">
        <ele>601.59997558594</ele>
        <time>2025-06-05T11:33:58.000Z</time>
      </trkpt>
      <trkpt lat="46.69923" lon="5.7424">
        <ele>601.59997558594</ele>
        <time>2025-06-05T11:34:00.000Z</time>
      </trkpt>
      <trkpt lat="46.69935" lon="5.74262">
        <ele>601.20001220703</ele>
        <time>2025-06-05T11:34:05.000Z</time>
      </trkpt>
      <trkpt lat="46.69945" lon="5.74282">
        <ele>600.59997558594</ele>
        <time>2025-06-05T11:34:09.000Z</time>
      </trkpt>
      <trkpt lat="46.69946" lon="5.74286">
        <ele>600.20001220703</ele>
        <time>2025-06-05T11:34:10.000Z</time>
      </trkpt>
      <trkpt lat="46.69942" lon="5.74291">
        <ele>599.79998779297</ele>
        <time>2025-06-05T11:34:12.000Z</time>
      </trkpt>
      <trkpt lat="46.69939" lon="5.74292">
        <ele>599.59997558594</ele>
        <time>2025-06-05T11:34:13.000Z</time>
      </trkpt>
      <trkpt lat="46.69935" lon="5.74293">
        <ele>599.59997558594</ele>
        <time>2025-06-05T11:34:14.000Z</time>
      </trkpt>
      <trkpt lat="46.69927" lon="5.74294">
        <ele>599.20001220703</ele>
        <time>2025-06-05T11:34:16.000Z</time>
      </trkpt>
      <trkpt lat="46.69917" lon="5.74299">
        <ele>598.59997558594</ele>
        <time>2025-06-05T11:34:18.000Z</time>
      </trkpt>
      <trkpt lat="46.69912" lon="5.74302">
        <ele>598.40002441406</ele>
        <time>2025-06-05T11:34:19.000Z</time>
      </trkpt>
      <trkpt lat="46.69889" lon="5.74313">
        <ele>597.20001220703</ele>
        <time>2025-06-05T11:34:23.000Z</time>
      </trkpt>
      <trkpt lat="46.69884" lon="5.74315">
        <ele>597.40002441406</ele>
        <time>2025-06-05T11:34:24.000Z</time>
      </trkpt>
      <trkpt lat="46.6987" lon="5.74321">
        <ele>596.79998779297</ele>
        <time>2025-06-05T11:34:27.000Z</time>
      </trkpt>
      <trkpt lat="46.69866" lon="5.74325">
        <ele>596</ele>
        <time>2025-06-05T11:34:28.000Z</time>
      </trkpt>
      <trkpt lat="46.69863" lon="5.74327">
        <ele>596</ele>
        <time>2025-06-05T11:34:29.000Z</time>
      </trkpt>
      <trkpt lat="46.69847" lon="5.74335">
        <ele>595.79998779297</ele>
        <time>2025-06-05T11:34:33.000Z</time>
      </trkpt>
      <trkpt lat="46.69838" lon="5.74337">
        <ele>595.79998779297</ele>
        <time>2025-06-05T11:34:35.000Z</time>
      </trkpt>
      <trkpt lat="46.69829" lon="5.74339">
        <ele>595.79998779297</ele>
        <time>2025-06-05T11:34:37.000Z</time>
      </trkpt>
      <trkpt lat="46.69812" lon="5.74339">
        <ele>595.79998779297</ele>
        <time>2025-06-05T11:34:40.000Z</time>
      </trkpt>
      <trkpt lat="46.69789" lon="5.74338">
        <ele>595.59997558594</ele>
        <time>2025-06-05T11:34:44.000Z</time>
      </trkpt>
      <trkpt lat="46.69778" lon="5.74337">
        <ele>594.79998779297</ele>
        <time>2025-06-05T11:34:46.000Z</time>
      </trkpt>
      <trkpt lat="46.69773" lon="5.74336">
        <ele>594.59997558594</ele>
        <time>2025-06-05T11:34:47.000Z</time>
      </trkpt>
      <trkpt lat="46.69769" lon="5.74336">
        <ele>594.20001220703</ele>
        <time>2025-06-05T11:34:48.000Z</time>
      </trkpt>
      <trkpt lat="46.6976" lon="5.74341">
        <ele>593.79998779297</ele>
        <time>2025-06-05T11:34:50.000Z</time>
      </trkpt>
      <trkpt lat="46.69745" lon="5.74355">
        <ele>592.59997558594</ele>
        <time>2025-06-05T11:34:53.000Z</time>
      </trkpt>
      <trkpt lat="46.6974" lon="5.74359">
        <ele>592.40002441406</ele>
        <time>2025-06-05T11:34:54.000Z</time>
      </trkpt>
      <trkpt lat="46.6973" lon="5.74366">
        <ele>591.59997558594</ele>
        <time>2025-06-05T11:34:56.000Z</time>
      </trkpt>
      <trkpt lat="46.69725" lon="5.7437">
        <ele>591</ele>
        <time>2025-06-05T11:34:57.000Z</time>
      </trkpt>
      <trkpt lat="46.6972" lon="5.74374">
        <ele>590</ele>
        <time>2025-06-05T11:34:58.000Z</time>
      </trkpt>
      <trkpt lat="46.69716" lon="5.7438">
        <ele>589.79998779297</ele>
        <time>2025-06-05T11:34:59.000Z</time>
      </trkpt>
      <trkpt lat="46.69707" lon="5.74389">
        <ele>589</ele>
        <time>2025-06-05T11:35:01.000Z</time>
      </trkpt>
      <trkpt lat="46.69702" lon="5.74394">
        <ele>588.59997558594</ele>
        <time>2025-06-05T11:35:02.000Z</time>
      </trkpt>
      <trkpt lat="46.69695" lon="5.744">
        <ele>588.40002441406</ele>
        <time>2025-06-05T11:35:03.000Z</time>
      </trkpt>
      <trkpt lat="46.69675" lon="5.74425">
        <ele>587</ele>
        <time>2025-06-05T11:35:06.000Z</time>
      </trkpt>
      <trkpt lat="46.69663" lon="5.74437">
        <ele>585.79998779297</ele>
        <time>2025-06-05T11:35:08.000Z</time>
      </trkpt>
      <trkpt lat="46.69658" lon="5.74445">
        <ele>584.59997558594</ele>
        <time>2025-06-05T11:35:09.000Z</time>
      </trkpt>
      <trkpt lat="46.69651" lon="5.74459">
        <ele>583</ele>
        <time>2025-06-05T11:35:11.000Z</time>
      </trkpt>
      <trkpt lat="46.69647" lon="5.74467">
        <ele>582.59997558594</ele>
        <time>2025-06-05T11:35:12.000Z</time>
      </trkpt>
      <trkpt lat="46.69643" lon="5.74477">
        <ele>581.79998779297</ele>
        <time>2025-06-05T11:35:13.000Z</time>
      </trkpt>
      <trkpt lat="46.6964" lon="5.74487">
        <ele>580.59997558594</ele>
        <time>2025-06-05T11:35:14.000Z</time>
      </trkpt>
      <trkpt lat="46.69633" lon="5.74503">
        <ele>579.59997558594</ele>
        <time>2025-06-05T11:35:16.000Z</time>
      </trkpt>
      <trkpt lat="46.69629" lon="5.74517">
        <ele>578.40002441406</ele>
        <time>2025-06-05T11:35:18.000Z</time>
      </trkpt>
      <trkpt lat="46.69621" lon="5.74542">
        <ele>577.20001220703</ele>
        <time>2025-06-05T11:35:21.000Z</time>
      </trkpt>
      <trkpt lat="46.69618" lon="5.7455">
        <ele>576.40002441406</ele>
        <time>2025-06-05T11:35:22.000Z</time>
      </trkpt>
      <trkpt lat="46.69614" lon="5.74557">
        <ele>576</ele>
        <time>2025-06-05T11:35:23.000Z</time>
      </trkpt>
      <trkpt lat="46.69611" lon="5.74574">
        <ele>574.59997558594</ele>
        <time>2025-06-05T11:35:25.000Z</time>
      </trkpt>
      <trkpt lat="46.69604" lon="5.74587">
        <ele>574</ele>
        <time>2025-06-05T11:35:27.000Z</time>
      </trkpt>
      <trkpt lat="46.69599" lon="5.74594">
        <ele>573.59997558594</ele>
        <time>2025-06-05T11:35:28.000Z</time>
      </trkpt>
      <trkpt lat="46.69597" lon="5.746">
        <ele>573</ele>
        <time>2025-06-05T11:35:29.000Z</time>
      </trkpt>
      <trkpt lat="46.69595" lon="5.74604">
        <ele>572.20001220703</ele>
        <time>2025-06-05T11:35:30.000Z</time>
      </trkpt>
      <trkpt lat="46.69594" lon="5.74608">
        <ele>571.79998779297</ele>
        <time>2025-06-05T11:35:31.000Z</time>
      </trkpt>
      <trkpt lat="46.69592" lon="5.74614">
        <ele>570.59997558594</ele>
        <time>2025-06-05T11:35:32.000Z</time>
      </trkpt>
      <trkpt lat="46.69588" lon="5.7463">
        <ele>569.20001220703</ele>
        <time>2025-06-05T11:35:34.000Z</time>
      </trkpt>
      <trkpt lat="46.69585" lon="5.7464">
        <ele>569</ele>
        <time>2025-06-05T11:35:35.000Z</time>
      </trkpt>
      <trkpt lat="46.69585" lon="5.74648">
        <ele>567.59997558594</ele>
        <time>2025-06-05T11:35:36.000Z</time>
      </trkpt>
      <trkpt lat="46.69586" lon="5.74655">
        <ele>567.20001220703</ele>
        <time>2025-06-05T11:35:37.000Z</time>
      </trkpt>
      <trkpt lat="46.69589" lon="5.74662">
        <ele>566.59997558594</ele>
        <time>2025-06-05T11:35:38.000Z</time>
      </trkpt>
      <trkpt lat="46.69592" lon="5.74669">
        <ele>565.79998779297</ele>
        <time>2025-06-05T11:35:39.000Z</time>
      </trkpt>
      <trkpt lat="46.69595" lon="5.74686">
        <ele>565.20001220703</ele>
        <time>2025-06-05T11:35:41.000Z</time>
      </trkpt>
      <trkpt lat="46.69598" lon="5.74702">
        <ele>564</ele>
        <time>2025-06-05T11:35:43.000Z</time>
      </trkpt>
      <trkpt lat="46.69598" lon="5.74712">
        <ele>563.59997558594</ele>
        <time>2025-06-05T11:35:44.000Z</time>
      </trkpt>
      <trkpt lat="46.696" lon="5.7472">
        <ele>562.59997558594</ele>
        <time>2025-06-05T11:35:45.000Z</time>
      </trkpt>
      <trkpt lat="46.69602" lon="5.74727">
        <ele>561.79998779297</ele>
        <time>2025-06-05T11:35:46.000Z</time>
      </trkpt>
      <trkpt lat="46.69606" lon="5.74733">
        <ele>561.59997558594</ele>
        <time>2025-06-05T11:35:47.000Z</time>
      </trkpt>
      <trkpt lat="46.6961" lon="5.74738">
        <ele>560.79998779297</ele>
        <time>2025-06-05T11:35:48.000Z</time>
      </trkpt>
      <trkpt lat="46.69614" lon="5.74743">
        <ele>560.20001220703</ele>
        <time>2025-06-05T11:35:49.000Z</time>
      </trkpt>
      <trkpt lat="46.69618" lon="5.74747">
        <ele>558.59997558594</ele>
        <time>2025-06-05T11:35:50.000Z</time>
      </trkpt>
      <trkpt lat="46.6962" lon="5.74751">
        <ele>558</ele>
        <time>2025-06-05T11:35:51.000Z</time>
      </trkpt>
      <trkpt lat="46.69623" lon="5.74755">
        <ele>557</ele>
        <time>2025-06-05T11:35:52.000Z</time>
      </trkpt>
      <trkpt lat="46.69626" lon="5.74767">
        <ele>555.79998779297</ele>
        <time>2025-06-05T11:35:54.000Z</time>
      </trkpt>
      <trkpt lat="46.69626" lon="5.74774">
        <ele>555.20001220703</ele>
        <time>2025-06-05T11:35:55.000Z</time>
      </trkpt>
      <trkpt lat="46.69628" lon="5.74791">
        <ele>554.20001220703</ele>
        <time>2025-06-05T11:35:57.000Z</time>
      </trkpt>
      <trkpt lat="46.6963" lon="5.74805">
        <ele>553.20001220703</ele>
        <time>2025-06-05T11:35:59.000Z</time>
      </trkpt>
      <trkpt lat="46.69631" lon="5.74811">
        <ele>552.79998779297</ele>
        <time>2025-06-05T11:36:00.000Z</time>
      </trkpt>
      <trkpt lat="46.69634" lon="5.74821">
        <ele>552</ele>
        <time>2025-06-05T11:36:02.000Z</time>
      </trkpt>
      <trkpt lat="46.69637" lon="5.74829">
        <ele>551.20001220703</ele>
        <time>2025-06-05T11:36:04.000Z</time>
      </trkpt>
      <trkpt lat="46.69638" lon="5.74833">
        <ele>551</ele>
        <time>2025-06-05T11:36:05.000Z</time>
      </trkpt>
      <trkpt lat="46.6964" lon="5.74838">
        <ele>550.59997558594</ele>
        <time>2025-06-05T11:36:06.000Z</time>
      </trkpt>
      <trkpt lat="46.69644" lon="5.7485">
        <ele>549.79998779297</ele>
        <time>2025-06-05T11:36:08.000Z</time>
      </trkpt>
      <trkpt lat="46.69646" lon="5.74857">
        <ele>549.59997558594</ele>
        <time>2025-06-05T11:36:09.000Z</time>
      </trkpt>
      <trkpt lat="46.69653" lon="5.74873">
        <ele>547.79998779297</ele>
        <time>2025-06-05T11:36:11.000Z</time>
      </trkpt>
      <trkpt lat="46.6966" lon="5.74885">
        <ele>546.20001220703</ele>
        <time>2025-06-05T11:36:13.000Z</time>
      </trkpt>
      <trkpt lat="46.69666" lon="5.74888">
        <ele>545</ele>
        <time>2025-06-05T11:36:15.000Z</time>
      </trkpt>
      <trkpt lat="46.69669" lon="5.74889">
        <ele>544.59997558594</ele>
        <time>2025-06-05T11:36:16.000Z</time>
      </trkpt>
      <trkpt lat="46.69672" lon="5.74891">
        <ele>544</ele>
        <time>2025-06-05T11:36:17.000Z</time>
      </trkpt>
      <trkpt lat="46.69676" lon="5.74892">
        <ele>543.79998779297</ele>
        <time>2025-06-05T11:36:18.000Z</time>
      </trkpt>
      <trkpt lat="46.6968" lon="5.74892">
        <ele>543.40002441406</ele>
        <time>2025-06-05T11:36:19.000Z</time>
      </trkpt>
      <trkpt lat="46.69684" lon="5.74892">
        <ele>542.59997558594</ele>
        <time>2025-06-05T11:36:20.000Z</time>
      </trkpt>
      <trkpt lat="46.69696" lon="5.74893">
        <ele>541.40002441406</ele>
        <time>2025-06-05T11:36:22.000Z</time>
      </trkpt>
      <trkpt lat="46.69708" lon="5.74897">
        <ele>540.59997558594</ele>
        <time>2025-06-05T11:36:24.000Z</time>
      </trkpt>
      <trkpt lat="46.69715" lon="5.74902">
        <ele>540.40002441406</ele>
        <time>2025-06-05T11:36:25.000Z</time>
      </trkpt>
      <trkpt lat="46.69722" lon="5.74908">
        <ele>540</ele>
        <time>2025-06-05T11:36:26.000Z</time>
      </trkpt>
      <trkpt lat="46.69729" lon="5.74913">
        <ele>538.79998779297</ele>
        <time>2025-06-05T11:36:27.000Z</time>
      </trkpt>
      <trkpt lat="46.69737" lon="5.74922">
        <ele>537.20001220703</ele>
        <time>2025-06-05T11:36:29.000Z</time>
      </trkpt>
      <trkpt lat="46.69741" lon="5.74928">
        <ele>536.79998779297</ele>
        <time>2025-06-05T11:36:30.000Z</time>
      </trkpt>
      <trkpt lat="46.69757" lon="5.74956">
        <ele>536</ele>
        <time>2025-06-05T11:36:34.000Z</time>
      </trkpt>
      <trkpt lat="46.69761" lon="5.74962">
        <ele>535.40002441406</ele>
        <time>2025-06-05T11:36:35.000Z</time>
      </trkpt>
      <trkpt lat="46.69766" lon="5.74968">
        <ele>534</ele>
        <time>2025-06-05T11:36:36.000Z</time>
      </trkpt>
      <trkpt lat="46.6977" lon="5.74974">
        <ele>533</ele>
        <time>2025-06-05T11:36:37.000Z</time>
      </trkpt>
      <trkpt lat="46.69773" lon="5.74981">
        <ele>532</ele>
        <time>2025-06-05T11:36:38.000Z</time>
      </trkpt>
      <trkpt lat="46.69776" lon="5.74987">
        <ele>531.59997558594</ele>
        <time>2025-06-05T11:36:39.000Z</time>
      </trkpt>
      <trkpt lat="46.69777" lon="5.74995">
        <ele>531</ele>
        <time>2025-06-05T11:36:40.000Z</time>
      </trkpt>
      <trkpt lat="46.69779" lon="5.75002">
        <ele>530.79998779297</ele>
        <time>2025-06-05T11:36:41.000Z</time>
      </trkpt>
      <trkpt lat="46.69784" lon="5.75016">
        <ele>529.20001220703</ele>
        <time>2025-06-05T11:36:43.000Z</time>
      </trkpt>
      <trkpt lat="46.69786" lon="5.75029">
        <ele>527.59997558594</ele>
        <time>2025-06-05T11:36:45.000Z</time>
      </trkpt>
      <trkpt lat="46.69787" lon="5.75035">
        <ele>527.20001220703</ele>
        <time>2025-06-05T11:36:46.000Z</time>
      </trkpt>
      <trkpt lat="46.69788" lon="5.75041">
        <ele>526.40002441406</ele>
        <time>2025-06-05T11:36:47.000Z</time>
      </trkpt>
      <trkpt lat="46.69791" lon="5.75061">
        <ele>525.20001220703</ele>
        <time>2025-06-05T11:36:50.000Z</time>
      </trkpt>
      <trkpt lat="46.69794" lon="5.75069">
        <ele>524.59997558594</ele>
        <time>2025-06-05T11:36:51.000Z</time>
      </trkpt>
      <trkpt lat="46.69796" lon="5.75076">
        <ele>524</ele>
        <time>2025-06-05T11:36:52.000Z</time>
      </trkpt>
      <trkpt lat="46.69798" lon="5.75085">
        <ele>523.59997558594</ele>
        <time>2025-06-05T11:36:53.000Z</time>
      </trkpt>
      <trkpt lat="46.69799" lon="5.75098">
        <ele>523</ele>
        <time>2025-06-05T11:36:55.000Z</time>
      </trkpt>
      <trkpt lat="46.69799" lon="5.75104">
        <ele>522.79998779297</ele>
        <time>2025-06-05T11:36:56.000Z</time>
      </trkpt>
      <trkpt lat="46.69802" lon="5.75114">
        <ele>521.79998779297</ele>
        <time>2025-06-05T11:36:58.000Z</time>
      </trkpt>
      <trkpt lat="46.69804" lon="5.75121">
        <ele>520.59997558594</ele>
        <time>2025-06-05T11:36:59.000Z</time>
      </trkpt>
      <trkpt lat="46.69807" lon="5.75128">
        <ele>520.20001220703</ele>
        <time>2025-06-05T11:37:00.000Z</time>
      </trkpt>
      <trkpt lat="46.69808" lon="5.75136">
        <ele>519.40002441406</ele>
        <time>2025-06-05T11:37:01.000Z</time>
      </trkpt>
      <trkpt lat="46.69811" lon="5.75155">
        <ele>518.59997558594</ele>
        <time>2025-06-05T11:37:03.000Z</time>
      </trkpt>
      <trkpt lat="46.69814" lon="5.75171">
        <ele>518.20001220703</ele>
        <time>2025-06-05T11:37:05.000Z</time>
      </trkpt>
      <trkpt lat="46.69816" lon="5.75186">
        <ele>517.79998779297</ele>
        <time>2025-06-05T11:37:07.000Z</time>
      </trkpt>
      <trkpt lat="46.69816" lon="5.75192">
        <ele>517</ele>
        <time>2025-06-05T11:37:08.000Z</time>
      </trkpt>
      <trkpt lat="46.69815" lon="5.75198">
        <ele>516.79998779297</ele>
        <time>2025-06-05T11:37:09.000Z</time>
      </trkpt>
      <trkpt lat="46.69813" lon="5.75204">
        <ele>515.79998779297</ele>
        <time>2025-06-05T11:37:10.000Z</time>
      </trkpt>
      <trkpt lat="46.69808" lon="5.75212">
        <ele>514.40002441406</ele>
        <time>2025-06-05T11:37:12.000Z</time>
      </trkpt>
      <trkpt lat="46.69804" lon="5.75214">
        <ele>514</ele>
        <time>2025-06-05T11:37:13.000Z</time>
      </trkpt>
      <trkpt lat="46.698" lon="5.75215">
        <ele>513</ele>
        <time>2025-06-05T11:37:14.000Z</time>
      </trkpt>
      <trkpt lat="46.69791" lon="5.75211">
        <ele>511.79998779297</ele>
        <time>2025-06-05T11:37:16.000Z</time>
      </trkpt>
      <trkpt lat="46.69778" lon="5.75201">
        <ele>510.39999389648</ele>
        <time>2025-06-05T11:37:19.000Z</time>
      </trkpt>
      <trkpt lat="46.69763" lon="5.75195">
        <ele>509.60000610352</ele>
        <time>2025-06-05T11:37:22.000Z</time>
      </trkpt>
      <trkpt lat="46.69758" lon="5.75193">
        <ele>508.79998779297</ele>
        <time>2025-06-05T11:37:23.000Z</time>
      </trkpt>
      <trkpt lat="46.69747" lon="5.75192">
        <ele>507.79998779297</ele>
        <time>2025-06-05T11:37:25.000Z</time>
      </trkpt>
      <trkpt lat="46.69742" lon="5.75193">
        <ele>507.60000610352</ele>
        <time>2025-06-05T11:37:26.000Z</time>
      </trkpt>
      <trkpt lat="46.69738" lon="5.75194">
        <ele>507.20001220703</ele>
        <time>2025-06-05T11:37:27.000Z</time>
      </trkpt>
      <trkpt lat="46.69723" lon="5.75201">
        <ele>506.39999389648</ele>
        <time>2025-06-05T11:37:30.000Z</time>
      </trkpt>
      <trkpt lat="46.69715" lon="5.75206">
        <ele>506</ele>
        <time>2025-06-05T11:37:32.000Z</time>
      </trkpt>
      <trkpt lat="46.69705" lon="5.75208">
        <ele>505.79998779297</ele>
        <time>2025-06-05T11:37:34.000Z</time>
      </trkpt>
      <trkpt lat="46.69697" lon="5.75207">
        <ele>505.60000610352</ele>
        <time>2025-06-05T11:37:36.000Z</time>
      </trkpt>
      <trkpt lat="46.69692" lon="5.75205">
        <ele>505.20001220703</ele>
        <time>2025-06-05T11:37:37.000Z</time>
      </trkpt>
      <trkpt lat="46.69688" lon="5.75203">
        <ele>505.20001220703</ele>
        <time>2025-06-05T11:37:38.000Z</time>
      </trkpt>
      <trkpt lat="46.69676" lon="5.75195">
        <ele>505</ele>
        <time>2025-06-05T11:37:41.000Z</time>
      </trkpt>
      <trkpt lat="46.69673" lon="5.7519">
        <ele>504.79998779297</ele>
        <time>2025-06-05T11:37:42.000Z</time>
      </trkpt>
      <trkpt lat="46.69657" lon="5.75173">
        <ele>504.60000610352</ele>
        <time>2025-06-05T11:37:46.000Z</time>
      </trkpt>
      <trkpt lat="46.69648" lon="5.75165">
        <ele>504.60000610352</ele>
        <time>2025-06-05T11:37:48.000Z</time>
      </trkpt>
      <trkpt lat="46.69619" lon="5.75139">
        <ele>504.39999389648</ele>
        <time>2025-06-05T11:37:55.000Z</time>
      </trkpt>
      <trkpt lat="46.6961" lon="5.75133">
        <ele>504.20001220703</ele>
        <time>2025-06-05T11:37:57.000Z</time>
      </trkpt>
      <trkpt lat="46.69597" lon="5.75125">
        <ele>504</ele>
        <time>2025-06-05T11:38:00.000Z</time>
      </trkpt>
      <trkpt lat="46.69593" lon="5.75123">
        <ele>504</ele>
        <time>2025-06-05T11:38:01.000Z</time>
      </trkpt>
      <trkpt lat="46.6957" lon="5.75109">
        <ele>503.79998779297</ele>
        <time>2025-06-05T11:38:06.000Z</time>
      </trkpt>
      <trkpt lat="46.69551" lon="5.75097">
        <ele>503.60000610352</ele>
        <time>2025-06-05T11:38:10.000Z</time>
      </trkpt>
      <trkpt lat="46.69541" lon="5.75092">
        <ele>503.20001220703</ele>
        <time>2025-06-05T11:38:12.000Z</time>
      </trkpt>
      <trkpt lat="46.69535" lon="5.7509">
        <ele>503</ele>
        <time>2025-06-05T11:38:13.000Z</time>
      </trkpt>
      <trkpt lat="46.69529" lon="5.75088">
        <ele>502.79998779297</ele>
        <time>2025-06-05T11:38:14.000Z</time>
      </trkpt>
      <trkpt lat="46.69499" lon="5.75074">
        <ele>501.79998779297</ele>
        <time>2025-06-05T11:38:20.000Z</time>
      </trkpt>
      <trkpt lat="46.69495" lon="5.75073">
        <ele>501.39999389648</ele>
        <time>2025-06-05T11:38:21.000Z</time>
      </trkpt>
      <trkpt lat="46.69486" lon="5.75075">
        <ele>500.79998779297</ele>
        <time>2025-06-05T11:38:23.000Z</time>
      </trkpt>
      <trkpt lat="46.6948" lon="5.7508">
        <ele>500.79998779297</ele>
        <time>2025-06-05T11:38:24.000Z</time>
      </trkpt>
      <trkpt lat="46.69464" lon="5.75096">
        <ele>500.60000610352</ele>
        <time>2025-06-05T11:38:27.000Z</time>
      </trkpt>
      <trkpt lat="46.69448" lon="5.75113">
        <ele>499.60000610352</ele>
        <time>2025-06-05T11:38:30.000Z</time>
      </trkpt>
      <trkpt lat="46.69431" lon="5.75129">
        <ele>498.39999389648</ele>
        <time>2025-06-05T11:38:33.000Z</time>
      </trkpt>
      <trkpt lat="46.69427" lon="5.75134">
        <ele>498</ele>
        <time>2025-06-05T11:38:34.000Z</time>
      </trkpt>
      <trkpt lat="46.69413" lon="5.75149">
        <ele>497.60000610352</ele>
        <time>2025-06-05T11:38:37.000Z</time>
      </trkpt>
      <trkpt lat="46.69403" lon="5.75159">
        <ele>497.60000610352</ele>
        <time>2025-06-05T11:38:39.000Z</time>
      </trkpt>
      <trkpt lat="46.69368" lon="5.75196">
        <ele>497.39999389648</ele>
        <time>2025-06-05T11:38:46.000Z</time>
      </trkpt>
      <trkpt lat="46.69363" lon="5.75202">
        <ele>497.39999389648</ele>
        <time>2025-06-05T11:38:47.000Z</time>
      </trkpt>
      <trkpt lat="46.69316" lon="5.75251">
        <ele>497</ele>
        <time>2025-06-05T11:38:57.000Z</time>
      </trkpt>
      <trkpt lat="46.69304" lon="5.75264">
        <ele>497.20001220703</ele>
        <time>2025-06-05T11:39:00.000Z</time>
      </trkpt>
      <trkpt lat="46.69292" lon="5.75277">
        <ele>497.39999389648</ele>
        <time>2025-06-05T11:39:03.000Z</time>
      </trkpt>
      <trkpt lat="46.69267" lon="5.75305">
        <ele>498.20001220703</ele>
        <time>2025-06-05T11:39:10.000Z</time>
      </trkpt>
      <trkpt lat="46.69256" lon="5.75316">
        <ele>498.79998779297</ele>
        <time>2025-06-05T11:39:13.000Z</time>
      </trkpt>
      <trkpt lat="46.6924" lon="5.75331">
        <ele>499.39999389648</ele>
        <time>2025-06-05T11:39:17.000Z</time>
      </trkpt>
      <trkpt lat="46.69237" lon="5.75335">
        <ele>500</ele>
        <time>2025-06-05T11:39:18.000Z</time>
      </trkpt>
      <trkpt lat="46.69212" lon="5.7536">
        <ele>501.20001220703</ele>
        <time>2025-06-05T11:39:25.000Z</time>
      </trkpt>
      <trkpt lat="46.69192" lon="5.75383">
        <ele>501.20001220703</ele>
        <time>2025-06-05T11:39:31.000Z</time>
      </trkpt>
      <trkpt lat="46.69185" lon="5.7539">
        <ele>501.79998779297</ele>
        <time>2025-06-05T11:39:33.000Z</time>
      </trkpt>
      <trkpt lat="46.69182" lon="5.75393">
        <ele>502</ele>
        <time>2025-06-05T11:39:34.000Z</time>
      </trkpt>
      <trkpt lat="46.69168" lon="5.75408">
        <ele>502.20001220703</ele>
        <time>2025-06-05T11:39:38.000Z</time>
      </trkpt>
      <trkpt lat="46.69165" lon="5.75411">
        <ele>502.39999389648</ele>
        <time>2025-06-05T11:39:39.000Z</time>
      </trkpt>
      <trkpt lat="46.6914" lon="5.75437">
        <ele>503.20001220703</ele>
        <time>2025-06-05T11:39:46.000Z</time>
      </trkpt>
      <trkpt lat="46.69136" lon="5.75441">
        <ele>503.39999389648</ele>
        <time>2025-06-05T11:39:47.000Z</time>
      </trkpt>
      <trkpt lat="46.69133" lon="5.75445">
        <ele>503.60000610352</ele>
        <time>2025-06-05T11:39:48.000Z</time>
      </trkpt>
      <trkpt lat="46.69114" lon="5.75464">
        <ele>504.20001220703</ele>
        <time>2025-06-05T11:39:53.000Z</time>
      </trkpt>
      <trkpt lat="46.69107" lon="5.75472">
        <ele>504.39999389648</ele>
        <time>2025-06-05T11:39:55.000Z</time>
      </trkpt>
      <trkpt lat="46.69104" lon="5.75476">
        <ele>504.60000610352</ele>
        <time>2025-06-05T11:39:56.000Z</time>
      </trkpt>
      <trkpt lat="46.69096" lon="5.75482">
        <ele>504.60000610352</ele>
        <time>2025-06-05T11:39:58.000Z</time>
      </trkpt>
      <trkpt lat="46.69092" lon="5.75487">
        <ele>504.60000610352</ele>
        <time>2025-06-05T11:39:59.000Z</time>
      </trkpt>
      <trkpt lat="46.69069" lon="5.75515">
        <ele>504.79998779297</ele>
        <time>2025-06-05T11:40:06.000Z</time>
      </trkpt>
      <trkpt lat="46.69065" lon="5.75519">
        <ele>504.79998779297</ele>
        <time>2025-06-05T11:40:07.000Z</time>
      </trkpt>
      <trkpt lat="46.69046" lon="5.75537">
        <ele>505.60000610352</ele>
        <time>2025-06-05T11:40:12.000Z</time>
      </trkpt>
      <trkpt lat="46.69042" lon="5.7554">
        <ele>506</ele>
        <time>2025-06-05T11:40:13.000Z</time>
      </trkpt>
      <trkpt lat="46.69038" lon="5.75544">
        <ele>506</ele>
        <time>2025-06-05T11:40:14.000Z</time>
      </trkpt>
      <trkpt lat="46.68994" lon="5.75593">
        <ele>506.39999389648</ele>
        <time>2025-06-05T11:40:26.000Z</time>
      </trkpt>
      <trkpt lat="46.68986" lon="5.75601">
        <ele>506.60000610352</ele>
        <time>2025-06-05T11:40:28.000Z</time>
      </trkpt>
      <trkpt lat="46.68967" lon="5.75622">
        <ele>507.20001220703</ele>
        <time>2025-06-05T11:40:33.000Z</time>
      </trkpt>
      <trkpt lat="46.68941" lon="5.7565">
        <ele>507.39999389648</ele>
        <time>2025-06-05T11:40:40.000Z</time>
      </trkpt>
      <trkpt lat="46.68937" lon="5.75654">
        <ele>507.39999389648</ele>
        <time>2025-06-05T11:40:41.000Z</time>
      </trkpt>
      <trkpt lat="46.6893" lon="5.75661">
        <ele>507.20001220703</ele>
        <time>2025-06-05T11:40:43.000Z</time>
      </trkpt>
      <trkpt lat="46.68916" lon="5.75676">
        <ele>507.60000610352</ele>
        <time>2025-06-05T11:40:47.000Z</time>
      </trkpt>
      <trkpt lat="46.68906" lon="5.75687">
        <ele>507.60000610352</ele>
        <time>2025-06-05T11:40:50.000Z</time>
      </trkpt>
      <trkpt lat="46.68889" lon="5.75706">
        <ele>508</ele>
        <time>2025-06-05T11:40:56.000Z</time>
      </trkpt>
      <trkpt lat="46.68872" lon="5.75722">
        <ele>508.60000610352</ele>
        <time>2025-06-05T11:41:02.000Z</time>
      </trkpt>
      <trkpt lat="46.6885" lon="5.75754">
        <ele>507.79998779297</ele>
        <time>2025-06-05T11:41:10.000Z</time>
      </trkpt>
      <trkpt lat="46.68839" lon="5.7578">
        <ele>507.60000610352</ele>
        <time>2025-06-05T11:41:14.000Z</time>
      </trkpt>
      <trkpt lat="46.68835" lon="5.75796">
        <ele>507</ele>
        <time>2025-06-05T11:41:16.000Z</time>
      </trkpt>
      <trkpt lat="46.68834" lon="5.75804">
        <ele>506.60000610352</ele>
        <time>2025-06-05T11:41:17.000Z</time>
      </trkpt>
      <trkpt lat="46.68833" lon="5.75822">
        <ele>506.20001220703</ele>
        <time>2025-06-05T11:41:19.000Z</time>
      </trkpt>
      <trkpt lat="46.68833" lon="5.75831">
        <ele>506</ele>
        <time>2025-06-05T11:41:20.000Z</time>
      </trkpt>
      <trkpt lat="46.68833" lon="5.75841">
        <ele>505.39999389648</ele>
        <time>2025-06-05T11:41:21.000Z</time>
      </trkpt>
      <trkpt lat="46.68831" lon="5.7587">
        <ele>504.20001220703</ele>
        <time>2025-06-05T11:41:24.000Z</time>
      </trkpt>
      <trkpt lat="46.6883" lon="5.7589">
        <ele>503.60000610352</ele>
        <time>2025-06-05T11:41:26.000Z</time>
      </trkpt>
      <trkpt lat="46.68831" lon="5.75922">
        <ele>503.20001220703</ele>
        <time>2025-06-05T11:41:29.000Z</time>
      </trkpt>
      <trkpt lat="46.68831" lon="5.75933">
        <ele>503</ele>
        <time>2025-06-05T11:41:30.000Z</time>
      </trkpt>
      <trkpt lat="46.68828" lon="5.75956">
        <ele>502</ele>
        <time>2025-06-05T11:41:32.000Z</time>
      </trkpt>
      <trkpt lat="46.68822" lon="5.75995">
        <ele>500.79998779297</ele>
        <time>2025-06-05T11:41:36.000Z</time>
      </trkpt>
      <trkpt lat="46.68819" lon="5.76018">
        <ele>499.20001220703</ele>
        <time>2025-06-05T11:41:39.000Z</time>
      </trkpt>
      <trkpt lat="46.68819" lon="5.76026">
        <ele>498.79998779297</ele>
        <time>2025-06-05T11:41:40.000Z</time>
      </trkpt>
      <trkpt lat="46.68818" lon="5.76034">
        <ele>498.60000610352</ele>
        <time>2025-06-05T11:41:41.000Z</time>
      </trkpt>
      <trkpt lat="46.68817" lon="5.76062">
        <ele>498.20001220703</ele>
        <time>2025-06-05T11:41:44.000Z</time>
      </trkpt>
      <trkpt lat="46.68816" lon="5.76083">
        <ele>497.60000610352</ele>
        <time>2025-06-05T11:41:46.000Z</time>
      </trkpt>
      <trkpt lat="46.68815" lon="5.76093">
        <ele>497</ele>
        <time>2025-06-05T11:41:47.000Z</time>
      </trkpt>
      <trkpt lat="46.68815" lon="5.76112">
        <ele>495.60000610352</ele>
        <time>2025-06-05T11:41:49.000Z</time>
      </trkpt>
      <trkpt lat="46.68814" lon="5.76131">
        <ele>494.20001220703</ele>
        <time>2025-06-05T11:41:51.000Z</time>
      </trkpt>
      <trkpt lat="46.68813" lon="5.76142">
        <ele>493.79998779297</ele>
        <time>2025-06-05T11:41:52.000Z</time>
      </trkpt>
      <trkpt lat="46.6881" lon="5.76171">
        <ele>493.20001220703</ele>
        <time>2025-06-05T11:41:55.000Z</time>
      </trkpt>
      <trkpt lat="46.68804" lon="5.762">
        <ele>492.20001220703</ele>
        <time>2025-06-05T11:41:58.000Z</time>
      </trkpt>
      <trkpt lat="46.68796" lon="5.76242">
        <ele>490.79998779297</ele>
        <time>2025-06-05T11:42:02.000Z</time>
      </trkpt>
      <trkpt lat="46.68789" lon="5.76284">
        <ele>489.60000610352</ele>
        <time>2025-06-05T11:42:06.000Z</time>
      </trkpt>
      <trkpt lat="46.68784" lon="5.76306">
        <ele>488.20001220703</ele>
        <time>2025-06-05T11:42:08.000Z</time>
      </trkpt>
      <trkpt lat="46.68777" lon="5.7634">
        <ele>486.60000610352</ele>
        <time>2025-06-05T11:42:11.000Z</time>
      </trkpt>
      <trkpt lat="46.68772" lon="5.76364">
        <ele>485.60000610352</ele>
        <time>2025-06-05T11:42:13.000Z</time>
      </trkpt>
      <trkpt lat="46.68768" lon="5.76387">
        <ele>484.39999389648</ele>
        <time>2025-06-05T11:42:15.000Z</time>
      </trkpt>
      <trkpt lat="46.68763" lon="5.76424">
        <ele>483</ele>
        <time>2025-06-05T11:42:18.000Z</time>
      </trkpt>
      <trkpt lat="46.68761" lon="5.76437">
        <ele>482.39999389648</ele>
        <time>2025-06-05T11:42:19.000Z</time>
      </trkpt>
      <trkpt lat="46.68757" lon="5.76462">
        <ele>481.60000610352</ele>
        <time>2025-06-05T11:42:21.000Z</time>
      </trkpt>
      <trkpt lat="46.68748" lon="5.76515">
        <ele>480.39999389648</ele>
        <time>2025-06-05T11:42:25.000Z</time>
      </trkpt>
      <trkpt lat="46.68743" lon="5.76555">
        <ele>479</ele>
        <time>2025-06-05T11:42:28.000Z</time>
      </trkpt>
      <trkpt lat="46.68732" lon="5.76611">
        <ele>477.79998779297</ele>
        <time>2025-06-05T11:42:32.000Z</time>
      </trkpt>
      <trkpt lat="46.68725" lon="5.76647">
        <ele>476.39999389648</ele>
        <time>2025-06-05T11:42:35.000Z</time>
      </trkpt>
      <trkpt lat="46.68722" lon="5.76659">
        <ele>475.79998779297</ele>
        <time>2025-06-05T11:42:36.000Z</time>
      </trkpt>
      <trkpt lat="46.68718" lon="5.76672">
        <ele>474.79998779297</ele>
        <time>2025-06-05T11:42:37.000Z</time>
      </trkpt>
      <trkpt lat="46.68714" lon="5.76679">
        <ele>474</ele>
        <time>2025-06-05T11:42:38.000Z</time>
      </trkpt>
      <trkpt lat="46.68707" lon="5.76687">
        <ele>473.20001220703</ele>
        <time>2025-06-05T11:42:39.000Z</time>
      </trkpt>
      <trkpt lat="46.687" lon="5.76693">
        <ele>472.79998779297</ele>
        <time>2025-06-05T11:42:40.000Z</time>
      </trkpt>
      <trkpt lat="46.68685" lon="5.76705">
        <ele>472.20001220703</ele>
        <time>2025-06-05T11:42:42.000Z</time>
      </trkpt>
      <trkpt lat="46.68672" lon="5.76712">
        <ele>471.39999389648</ele>
        <time>2025-06-05T11:42:44.000Z</time>
      </trkpt>
      <trkpt lat="46.68665" lon="5.76715">
        <ele>471.20001220703</ele>
        <time>2025-06-05T11:42:45.000Z</time>
      </trkpt>
      <trkpt lat="46.68658" lon="5.76717">
        <ele>471</ele>
        <time>2025-06-05T11:42:46.000Z</time>
      </trkpt>
      <trkpt lat="46.68639" lon="5.76721">
        <ele>470.79998779297</ele>
        <time>2025-06-05T11:42:49.000Z</time>
      </trkpt>
      <trkpt lat="46.68632" lon="5.76721">
        <ele>470.39999389648</ele>
        <time>2025-06-05T11:42:50.000Z</time>
      </trkpt>
      <trkpt lat="46.68607" lon="5.7672">
        <ele>470</ele>
        <time>2025-06-05T11:42:55.000Z</time>
      </trkpt>
      <trkpt lat="46.68603" lon="5.76719">
        <ele>470</ele>
        <time>2025-06-05T11:42:56.000Z</time>
      </trkpt>
      <trkpt lat="46.68589" lon="5.76718">
        <ele>469.60000610352</ele>
        <time>2025-06-05T11:43:01.000Z</time>
      </trkpt>
      <trkpt lat="46.68586" lon="5.76717">
        <ele>469.60000610352</ele>
        <time>2025-06-05T11:43:05.000Z</time>
      </trkpt>
      <trkpt lat="46.68586" lon="5.76717">
        <ele>469.20001220703</ele>
        <time>2025-06-05T11:43:28.000Z</time>
      </trkpt>
      <trkpt lat="46.68578" lon="5.76717">
        <ele>469.20001220703</ele>
        <time>2025-06-05T11:43:31.000Z</time>
      </trkpt>
      <trkpt lat="46.68556" lon="5.76716">
        <ele>469.60000610352</ele>
        <time>2025-06-05T11:43:37.000Z</time>
      </trkpt>
      <trkpt lat="46.68543" lon="5.76728">
        <ele>469.79998779297</ele>
        <time>2025-06-05T11:43:42.000Z</time>
      </trkpt>
      <trkpt lat="46.6854" lon="5.76734">
        <ele>470</ele>
        <time>2025-06-05T11:43:45.000Z</time>
      </trkpt>
      <trkpt lat="46.6854" lon="5.76737">
        <ele>470.20001220703</ele>
        <time>2025-06-05T11:43:46.000Z</time>
      </trkpt>
      <trkpt lat="46.68543" lon="5.76748">
        <ele>470.20001220703</ele>
        <time>2025-06-05T11:43:50.000Z</time>
      </trkpt>
      <trkpt lat="46.68544" lon="5.76753">
        <ele>470.20001220703</ele>
        <time>2025-06-05T11:43:51.000Z</time>
      </trkpt>
      <trkpt lat="46.68543" lon="5.76771">
        <ele>470.20001220703</ele>
        <time>2025-06-05T11:43:55.000Z</time>
      </trkpt>
      <trkpt lat="46.68542" lon="5.7678">
        <ele>469.79998779297</ele>
        <time>2025-06-05T11:43:57.000Z</time>
      </trkpt>
      <trkpt lat="46.68543" lon="5.76792">
        <ele>469.79998779297</ele>
        <time>2025-06-05T11:43:59.000Z</time>
      </trkpt>
      <trkpt lat="46.68544" lon="5.76829">
        <ele>469.60000610352</ele>
        <time>2025-06-05T11:44:05.000Z</time>
      </trkpt>
      <trkpt lat="46.68544" lon="5.76847">
        <ele>469.60000610352</ele>
        <time>2025-06-05T11:44:09.000Z</time>
      </trkpt>
      <trkpt lat="46.68542" lon="5.7686">
        <ele>469.60000610352</ele>
        <time>2025-06-05T11:44:13.000Z</time>
      </trkpt>
      <trkpt lat="46.68541" lon="5.7686">
        <ele>469.39999389648</ele>
        <time>2025-06-05T11:44:14.000Z</time>
      </trkpt>
      <trkpt lat="46.68541" lon="5.76863">
        <ele>469.39999389648</ele>
        <time>2025-06-05T11:44:19.000Z</time>
      </trkpt>
      <trkpt lat="46.68541" lon="5.76865">
        <ele>469.39999389648</ele>
        <time>2025-06-05T11:44:20.000Z</time>
      </trkpt>
      <trkpt lat="46.68538" lon="5.76882">
        <ele>469.39999389648</ele>
        <time>2025-06-05T11:44:24.000Z</time>
      </trkpt>
      <trkpt lat="46.68537" lon="5.76903">
        <ele>469.20001220703</ele>
        <time>2025-06-05T11:44:29.000Z</time>
      </trkpt>
      <trkpt lat="46.68537" lon="5.76911">
        <ele>469.20001220703</ele>
        <time>2025-06-05T11:44:31.000Z</time>
      </trkpt>
      <trkpt lat="46.68537" lon="5.76913">
        <ele>469.20001220703</ele>
        <time>2025-06-05T11:44:32.000Z</time>
      </trkpt>
      <trkpt lat="46.68538" lon="5.7692">
        <ele>469.20001220703</ele>
        <time>2025-06-05T11:44:34.000Z</time>
      </trkpt>
      <trkpt lat="46.68538" lon="5.76922">
        <ele>469.20001220703</ele>
        <time>2025-06-05T11:44:35.000Z</time>
      </trkpt>
      <trkpt lat="46.6854" lon="5.76924">
        <ele>469.20001220703</ele>
        <time>2025-06-05T11:44:36.000Z</time>
      </trkpt>
      <trkpt lat="46.68542" lon="5.76924">
        <ele>469.39999389648</ele>
        <time>2025-06-05T11:44:38.000Z</time>
      </trkpt>
      <trkpt lat="46.68543" lon="5.76909">
        <ele>469.20001220703</ele>
        <time>2025-06-05T11:44:44.000Z</time>
      </trkpt>
      <trkpt lat="46.68547" lon="5.76891">
        <ele>469.20001220703</ele>
        <time>2025-06-05T11:44:49.000Z</time>
      </trkpt>
      <trkpt lat="46.6855" lon="5.76876">
        <ele>469.20001220703</ele>
        <time>2025-06-05T11:44:52.000Z</time>
      </trkpt>
      <trkpt lat="46.68551" lon="5.76869">
        <ele>469.20001220703</ele>
        <time>2025-06-05T11:44:53.000Z</time>
      </trkpt>
      <trkpt lat="46.68551" lon="5.76856">
        <ele>469.20001220703</ele>
        <time>2025-06-05T11:44:55.000Z</time>
      </trkpt>
      <trkpt lat="46.68551" lon="5.76831">
        <ele>469.20001220703</ele>
        <time>2025-06-05T11:44:59.000Z</time>
      </trkpt>
      <trkpt lat="46.6855" lon="5.76824">
        <ele>469.20001220703</ele>
        <time>2025-06-05T11:45:00.000Z</time>
      </trkpt>
      <trkpt lat="46.68549" lon="5.76803">
        <ele>469.20001220703</ele>
        <time>2025-06-05T11:45:03.000Z</time>
      </trkpt>
      <trkpt lat="46.68549" lon="5.7679">
        <ele>469.20001220703</ele>
        <time>2025-06-05T11:45:05.000Z</time>
      </trkpt>
      <trkpt lat="46.68548" lon="5.76779">
        <ele>469.39999389648</ele>
        <time>2025-06-05T11:45:07.000Z</time>
      </trkpt>
      <trkpt lat="46.68546" lon="5.76766">
        <ele>469.39999389648</ele>
        <time>2025-06-05T11:45:09.000Z</time>
      </trkpt>
      <trkpt lat="46.68546" lon="5.76759">
        <ele>469.39999389648</ele>
        <time>2025-06-05T11:45:10.000Z</time>
      </trkpt>
      <trkpt lat="46.68542" lon="5.76751">
        <ele>469.60000610352</ele>
        <time>2025-06-05T11:45:12.000Z</time>
      </trkpt>
      <trkpt lat="46.68537" lon="5.76757">
        <ele>469.79998779297</ele>
        <time>2025-06-05T11:45:15.000Z</time>
      </trkpt>
      <trkpt lat="46.68537" lon="5.76774">
        <ele>470.39999389648</ele>
        <time>2025-06-05T11:45:19.000Z</time>
      </trkpt>
      <trkpt lat="46.68537" lon="5.76778">
        <ele>470.60000610352</ele>
        <time>2025-06-05T11:45:20.000Z</time>
      </trkpt>
      <trkpt lat="46.68534" lon="5.76808">
        <ele>471.39999389648</ele>
        <time>2025-06-05T11:45:26.000Z</time>
      </trkpt>
      <trkpt lat="46.68534" lon="5.76813">
        <ele>471.60000610352</ele>
        <time>2025-06-05T11:45:27.000Z</time>
      </trkpt>
      <trkpt lat="46.68534" lon="5.76841">
        <ele>472.79998779297</ele>
        <time>2025-06-05T11:45:32.000Z</time>
      </trkpt>
      <trkpt lat="46.68533" lon="5.76851">
        <ele>473.39999389648</ele>
        <time>2025-06-05T11:45:34.000Z</time>
      </trkpt>
      <trkpt lat="46.68532" lon="5.76863">
        <ele>473.79998779297</ele>
        <time>2025-06-05T11:45:36.000Z</time>
      </trkpt>
      <trkpt lat="46.68527" lon="5.76886">
        <ele>474.79998779297</ele>
        <time>2025-06-05T11:45:40.000Z</time>
      </trkpt>
      <trkpt lat="46.68525" lon="5.76891">
        <ele>475</ele>
        <time>2025-06-05T11:45:41.000Z</time>
      </trkpt>
      <trkpt lat="46.68523" lon="5.76913">
        <ele>476</ele>
        <time>2025-06-05T11:45:45.000Z</time>
      </trkpt>
      <trkpt lat="46.68521" lon="5.76925">
        <ele>476.39999389648</ele>
        <time>2025-06-05T11:45:47.000Z</time>
      </trkpt>
      <trkpt lat="46.6852" lon="5.76936">
        <ele>476.79998779297</ele>
        <time>2025-06-05T11:45:49.000Z</time>
      </trkpt>
      <trkpt lat="46.6852" lon="5.76942">
        <ele>477.20001220703</ele>
        <time>2025-06-05T11:45:50.000Z</time>
      </trkpt>
      <trkpt lat="46.6852" lon="5.76968">
        <ele>478.20001220703</ele>
        <time>2025-06-05T11:45:54.000Z</time>
      </trkpt>
      <trkpt lat="46.6852" lon="5.76974">
        <ele>478.20001220703</ele>
        <time>2025-06-05T11:45:55.000Z</time>
      </trkpt>
      <trkpt lat="46.68522" lon="5.77011">
        <ele>479.39999389648</ele>
        <time>2025-06-05T11:46:01.000Z</time>
      </trkpt>
      <trkpt lat="46.68523" lon="5.77016">
        <ele>479.39999389648</ele>
        <time>2025-06-05T11:46:02.000Z</time>
      </trkpt>
      <trkpt lat="46.68527" lon="5.77034">
        <ele>480.39999389648</ele>
        <time>2025-06-05T11:46:05.000Z</time>
      </trkpt>
      <trkpt lat="46.68532" lon="5.77051">
        <ele>481.79998779297</ele>
        <time>2025-06-05T11:46:08.000Z</time>
      </trkpt>
      <trkpt lat="46.68535" lon="5.77061">
        <ele>482.20001220703</ele>
        <time>2025-06-05T11:46:10.000Z</time>
      </trkpt>
      <trkpt lat="46.68541" lon="5.77077">
        <ele>482.79998779297</ele>
        <time>2025-06-05T11:46:13.000Z</time>
      </trkpt>
      <trkpt lat="46.68543" lon="5.77083">
        <ele>483</ele>
        <time>2025-06-05T11:46:14.000Z</time>
      </trkpt>
      <trkpt lat="46.68546" lon="5.77101">
        <ele>483.60000610352</ele>
        <time>2025-06-05T11:46:17.000Z</time>
      </trkpt>
      <trkpt lat="46.68547" lon="5.77112">
        <ele>483.79998779297</ele>
        <time>2025-06-05T11:46:19.000Z</time>
      </trkpt>
      <trkpt lat="46.68546" lon="5.77131">
        <ele>485</ele>
        <time>2025-06-05T11:46:23.000Z</time>
      </trkpt>
      <trkpt lat="46.68546" lon="5.77135">
        <ele>486</ele>
        <time>2025-06-05T11:46:24.000Z</time>
      </trkpt>
      <trkpt lat="46.68547" lon="5.77144">
        <ele>487.60000610352</ele>
        <time>2025-06-05T11:46:26.000Z</time>
      </trkpt>
      <trkpt lat="46.68549" lon="5.77157">
        <ele>488.79998779297</ele>
        <time>2025-06-05T11:46:29.000Z</time>
      </trkpt>
      <trkpt lat="46.68549" lon="5.77167">
        <ele>490.39999389648</ele>
        <time>2025-06-05T11:46:31.000Z</time>
      </trkpt>
      <trkpt lat="46.68551" lon="5.77176">
        <ele>491.60000610352</ele>
        <time>2025-06-05T11:46:33.000Z</time>
      </trkpt>
      <trkpt lat="46.68553" lon="5.77185">
        <ele>492.60000610352</ele>
        <time>2025-06-05T11:46:35.000Z</time>
      </trkpt>
      <trkpt lat="46.68556" lon="5.77198">
        <ele>494</ele>
        <time>2025-06-05T11:46:38.000Z</time>
      </trkpt>
      <trkpt lat="46.68559" lon="5.77207">
        <ele>494.60000610352</ele>
        <time>2025-06-05T11:46:40.000Z</time>
      </trkpt>
      <trkpt lat="46.68561" lon="5.77211">
        <ele>495</ele>
        <time>2025-06-05T11:46:41.000Z</time>
      </trkpt>
      <trkpt lat="46.68567" lon="5.77227">
        <ele>496.20001220703</ele>
        <time>2025-06-05T11:46:45.000Z</time>
      </trkpt>
      <trkpt lat="46.68569" lon="5.77231">
        <ele>496.20001220703</ele>
        <time>2025-06-05T11:46:46.000Z</time>
      </trkpt>
      <trkpt lat="46.68577" lon="5.77254">
        <ele>497.20001220703</ele>
        <time>2025-06-05T11:46:51.000Z</time>
      </trkpt>
      <trkpt lat="46.68581" lon="5.77262">
        <ele>497.20001220703</ele>
        <time>2025-06-05T11:46:53.000Z</time>
      </trkpt>
      <trkpt lat="46.68589" lon="5.77276">
        <ele>497.39999389648</ele>
        <time>2025-06-05T11:46:56.000Z</time>
      </trkpt>
      <trkpt lat="46.68598" lon="5.7729">
        <ele>497.39999389648</ele>
        <time>2025-06-05T11:46:59.000Z</time>
      </trkpt>
      <trkpt lat="46.68605" lon="5.77299">
        <ele>497.20001220703</ele>
        <time>2025-06-05T11:47:01.000Z</time>
      </trkpt>
      <trkpt lat="46.68618" lon="5.77315">
        <ele>497.20001220703</ele>
        <time>2025-06-05T11:47:05.000Z</time>
      </trkpt>
      <trkpt lat="46.68632" lon="5.77331">
        <ele>497</ele>
        <time>2025-06-05T11:47:10.000Z</time>
      </trkpt>
      <trkpt lat="46.68646" lon="5.7735">
        <ele>497</ele>
        <time>2025-06-05T11:47:16.000Z</time>
      </trkpt>
      <trkpt lat="46.68662" lon="5.77374">
        <ele>498</ele>
        <time>2025-06-05T11:47:23.000Z</time>
      </trkpt>
      <trkpt lat="46.68664" lon="5.77378">
        <ele>498.39999389648</ele>
        <time>2025-06-05T11:47:24.000Z</time>
      </trkpt>
      <trkpt lat="46.68674" lon="5.77396">
        <ele>499.39999389648</ele>
        <time>2025-06-05T11:47:29.000Z</time>
      </trkpt>
      <trkpt lat="46.68676" lon="5.77399">
        <ele>499.60000610352</ele>
        <time>2025-06-05T11:47:30.000Z</time>
      </trkpt>
      <trkpt lat="46.68688" lon="5.77421">
        <ele>500.39999389648</ele>
        <time>2025-06-05T11:47:36.000Z</time>
      </trkpt>
      <trkpt lat="46.6869" lon="5.77425">
        <ele>500.60000610352</ele>
        <time>2025-06-05T11:47:37.000Z</time>
      </trkpt>
      <trkpt lat="46.68698" lon="5.77445">
        <ele>501.79998779297</ele>
        <time>2025-06-05T11:47:42.000Z</time>
      </trkpt>
      <trkpt lat="46.68699" lon="5.77454">
        <ele>502.39999389648</ele>
        <time>2025-06-05T11:47:44.000Z</time>
      </trkpt>
      <trkpt lat="46.68699" lon="5.77464">
        <ele>502.79998779297</ele>
        <time>2025-06-05T11:47:46.000Z</time>
      </trkpt>
      <trkpt lat="46.68696" lon="5.77478">
        <ele>503.60000610352</ele>
        <time>2025-06-05T11:47:49.000Z</time>
      </trkpt>
      <trkpt lat="46.68692" lon="5.77486">
        <ele>504.20001220703</ele>
        <time>2025-06-05T11:47:51.000Z</time>
      </trkpt>
      <trkpt lat="46.68685" lon="5.77503">
        <ele>505.20001220703</ele>
        <time>2025-06-05T11:47:55.000Z</time>
      </trkpt>
      <trkpt lat="46.68676" lon="5.77524">
        <ele>506.39999389648</ele>
        <time>2025-06-05T11:48:00.000Z</time>
      </trkpt>
      <trkpt lat="46.68671" lon="5.77536">
        <ele>507.20001220703</ele>
        <time>2025-06-05T11:48:03.000Z</time>
      </trkpt>
      <trkpt lat="46.68665" lon="5.77547">
        <ele>507.60000610352</ele>
        <time>2025-06-05T11:48:06.000Z</time>
      </trkpt>
      <trkpt lat="46.68658" lon="5.77561">
        <ele>508.39999389648</ele>
        <time>2025-06-05T11:48:10.000Z</time>
      </trkpt>
      <trkpt lat="46.68653" lon="5.77569">
        <ele>508.60000610352</ele>
        <time>2025-06-05T11:48:12.000Z</time>
      </trkpt>
      <trkpt lat="46.68633" lon="5.77596">
        <ele>509.39999389648</ele>
        <time>2025-06-05T11:48:19.000Z</time>
      </trkpt>
      <trkpt lat="46.68614" lon="5.77619">
        <ele>509.60000610352</ele>
        <time>2025-06-05T11:48:25.000Z</time>
      </trkpt>
      <trkpt lat="46.68584" lon="5.77655">
        <ele>509.39999389648</ele>
        <time>2025-06-05T11:48:34.000Z</time>
      </trkpt>
      <trkpt lat="46.68559" lon="5.77686">
        <ele>508.79998779297</ele>
        <time>2025-06-05T11:48:41.000Z</time>
      </trkpt>
      <trkpt lat="46.68527" lon="5.77726">
        <ele>507.79998779297</ele>
        <time>2025-06-05T11:48:49.000Z</time>
      </trkpt>
      <trkpt lat="46.68522" lon="5.77732">
        <ele>507.39999389648</ele>
        <time>2025-06-05T11:48:50.000Z</time>
      </trkpt>
      <trkpt lat="46.68499" lon="5.77761">
        <ele>506.39999389648</ele>
        <time>2025-06-05T11:48:56.000Z</time>
      </trkpt>
      <trkpt lat="46.6849" lon="5.77774">
        <ele>506.39999389648</ele>
        <time>2025-06-05T11:48:58.000Z</time>
      </trkpt>
      <trkpt lat="46.68479" lon="5.77793">
        <ele>505.39999389648</ele>
        <time>2025-06-05T11:49:01.000Z</time>
      </trkpt>
      <trkpt lat="46.68476" lon="5.77798">
        <ele>505.39999389648</ele>
        <time>2025-06-05T11:49:02.000Z</time>
      </trkpt>
      <trkpt lat="46.68472" lon="5.77804">
        <ele>505.20001220703</ele>
        <time>2025-06-05T11:49:03.000Z</time>
      </trkpt>
      <trkpt lat="46.6845" lon="5.77845">
        <ele>505.20001220703</ele>
        <time>2025-06-05T11:49:10.000Z</time>
      </trkpt>
      <trkpt lat="46.68439" lon="5.77869">
        <ele>506</ele>
        <time>2025-06-05T11:49:15.000Z</time>
      </trkpt>
      <trkpt lat="46.68434" lon="5.77882">
        <ele>506.39999389648</ele>
        <time>2025-06-05T11:49:17.000Z</time>
      </trkpt>
      <trkpt lat="46.68431" lon="5.77888">
        <ele>506.39999389648</ele>
        <time>2025-06-05T11:49:18.000Z</time>
      </trkpt>
      <trkpt lat="46.68418" lon="5.77915">
        <ele>507</ele>
        <time>2025-06-05T11:49:23.000Z</time>
      </trkpt>
      <trkpt lat="46.68404" lon="5.77943">
        <ele>507.79998779297</ele>
        <time>2025-06-05T11:49:28.000Z</time>
      </trkpt>
      <trkpt lat="46.68392" lon="5.77965">
        <ele>508.20001220703</ele>
        <time>2025-06-05T11:49:32.000Z</time>
      </trkpt>
      <trkpt lat="46.68385" lon="5.77981">
        <ele>508.79998779297</ele>
        <time>2025-06-05T11:49:35.000Z</time>
      </trkpt>
      <trkpt lat="46.68371" lon="5.78009">
        <ele>509.39999389648</ele>
        <time>2025-06-05T11:49:40.000Z</time>
      </trkpt>
      <trkpt lat="46.68361" lon="5.78032">
        <ele>510</ele>
        <time>2025-06-05T11:49:44.000Z</time>
      </trkpt>
      <trkpt lat="46.68359" lon="5.78038">
        <ele>510</ele>
        <time>2025-06-05T11:49:45.000Z</time>
      </trkpt>
      <trkpt lat="46.68355" lon="5.78055">
        <ele>510.39999389648</ele>
        <time>2025-06-05T11:49:48.000Z</time>
      </trkpt>
      <trkpt lat="46.68349" lon="5.78075">
        <ele>511.20001220703</ele>
        <time>2025-06-05T11:49:51.000Z</time>
      </trkpt>
      <trkpt lat="46.68345" lon="5.78093">
        <ele>512.40002441406</ele>
        <time>2025-06-05T11:49:54.000Z</time>
      </trkpt>
      <trkpt lat="46.68344" lon="5.781">
        <ele>512.59997558594</ele>
        <time>2025-06-05T11:49:55.000Z</time>
      </trkpt>
      <trkpt lat="46.68342" lon="5.78111">
        <ele>513.40002441406</ele>
        <time>2025-06-05T11:49:57.000Z</time>
      </trkpt>
      <trkpt lat="46.68338" lon="5.78131">
        <ele>514.59997558594</ele>
        <time>2025-06-05T11:50:00.000Z</time>
      </trkpt>
      <trkpt lat="46.68336" lon="5.78142">
        <ele>515.40002441406</ele>
        <time>2025-06-05T11:50:02.000Z</time>
      </trkpt>
      <trkpt lat="46.68334" lon="5.78149">
        <ele>515.79998779297</ele>
        <time>2025-06-05T11:50:03.000Z</time>
      </trkpt>
      <trkpt lat="46.68329" lon="5.78172">
        <ele>516.79998779297</ele>
        <time>2025-06-05T11:50:07.000Z</time>
      </trkpt>
      <trkpt lat="46.68326" lon="5.78178">
        <ele>517.40002441406</ele>
        <time>2025-06-05T11:50:08.000Z</time>
      </trkpt>
      <trkpt lat="46.68324" lon="5.78183">
        <ele>517.79998779297</ele>
        <time>2025-06-05T11:50:09.000Z</time>
      </trkpt>
      <trkpt lat="46.68321" lon="5.78188">
        <ele>518.40002441406</ele>
        <time>2025-06-05T11:50:10.000Z</time>
      </trkpt>
      <trkpt lat="46.68311" lon="5.78205">
        <ele>519.79998779297</ele>
        <time>2025-06-05T11:50:14.000Z</time>
      </trkpt>
      <trkpt lat="46.683" lon="5.78223">
        <ele>520.79998779297</ele>
        <time>2025-06-05T11:50:18.000Z</time>
      </trkpt>
      <trkpt lat="46.68281" lon="5.78254">
        <ele>522.20001220703</ele>
        <time>2025-06-05T11:50:26.000Z</time>
      </trkpt>
      <trkpt lat="46.68279" lon="5.78257">
        <ele>522.20001220703</ele>
        <time>2025-06-05T11:50:27.000Z</time>
      </trkpt>
      <trkpt lat="46.68267" lon="5.78256">
        <ele>522.40002441406</ele>
        <time>2025-06-05T11:50:31.000Z</time>
      </trkpt>
      <trkpt lat="46.68249" lon="5.78245">
        <ele>522.59997558594</ele>
        <time>2025-06-05T11:50:37.000Z</time>
      </trkpt>
      <trkpt lat="46.68223" lon="5.78224">
        <ele>522.59997558594</ele>
        <time>2025-06-05T11:50:45.000Z</time>
      </trkpt>
      <trkpt lat="46.68196" lon="5.78207">
        <ele>522.20001220703</ele>
        <time>2025-06-05T11:50:51.000Z</time>
      </trkpt>
      <trkpt lat="46.68187" lon="5.78207">
        <ele>522</ele>
        <time>2025-06-05T11:50:53.000Z</time>
      </trkpt>
      <trkpt lat="46.68177" lon="5.78204">
        <ele>521.79998779297</ele>
        <time>2025-06-05T11:50:55.000Z</time>
      </trkpt>
      <trkpt lat="46.68165" lon="5.78193">
        <ele>521.20001220703</ele>
        <time>2025-06-05T11:50:58.000Z</time>
      </trkpt>
      <trkpt lat="46.68151" lon="5.78178">
        <ele>520.40002441406</ele>
        <time>2025-06-05T11:51:01.000Z</time>
      </trkpt>
      <trkpt lat="46.68148" lon="5.78174">
        <ele>520</ele>
        <time>2025-06-05T11:51:02.000Z</time>
      </trkpt>
      <trkpt lat="46.68144" lon="5.78167">
        <ele>519.79998779297</ele>
        <time>2025-06-05T11:51:03.000Z</time>
      </trkpt>
      <trkpt lat="46.68139" lon="5.78149">
        <ele>518.79998779297</ele>
        <time>2025-06-05T11:51:05.000Z</time>
      </trkpt>
      <trkpt lat="46.68136" lon="5.78131">
        <ele>517.79998779297</ele>
        <time>2025-06-05T11:51:07.000Z</time>
      </trkpt>
      <trkpt lat="46.6813" lon="5.78098">
        <ele>516.59997558594</ele>
        <time>2025-06-05T11:51:10.000Z</time>
      </trkpt>
      <trkpt lat="46.68125" lon="5.78076">
        <ele>515.40002441406</ele>
        <time>2025-06-05T11:51:12.000Z</time>
      </trkpt>
      <trkpt lat="46.68119" lon="5.7805">
        <ele>513.79998779297</ele>
        <time>2025-06-05T11:51:14.000Z</time>
      </trkpt>
      <trkpt lat="46.68112" lon="5.78027">
        <ele>512.40002441406</ele>
        <time>2025-06-05T11:51:16.000Z</time>
      </trkpt>
      <trkpt lat="46.68101" lon="5.7799">
        <ele>511</ele>
        <time>2025-06-05T11:51:19.000Z</time>
      </trkpt>
      <trkpt lat="46.68095" lon="5.77966">
        <ele>509.39999389648</ele>
        <time>2025-06-05T11:51:21.000Z</time>
      </trkpt>
      <trkpt lat="46.68092" lon="5.77957">
        <ele>509</ele>
        <time>2025-06-05T11:51:22.000Z</time>
      </trkpt>
      <trkpt lat="46.68088" lon="5.77947">
        <ele>508.20001220703</ele>
        <time>2025-06-05T11:51:23.000Z</time>
      </trkpt>
      <trkpt lat="46.68077" lon="5.77927">
        <ele>506.39999389648</ele>
        <time>2025-06-05T11:51:25.000Z</time>
      </trkpt>
      <trkpt lat="46.68073" lon="5.77922">
        <ele>505.60000610352</ele>
        <time>2025-06-05T11:51:26.000Z</time>
      </trkpt>
      <trkpt lat="46.68068" lon="5.77916">
        <ele>504.60000610352</ele>
        <time>2025-06-05T11:51:27.000Z</time>
      </trkpt>
      <trkpt lat="46.68062" lon="5.77911">
        <ele>503.39999389648</ele>
        <time>2025-06-05T11:51:28.000Z</time>
      </trkpt>
      <trkpt lat="46.68055" lon="5.77906">
        <ele>502.20001220703</ele>
        <time>2025-06-05T11:51:30.000Z</time>
      </trkpt>
      <trkpt lat="46.68052" lon="5.77904">
        <ele>501</ele>
        <time>2025-06-05T11:51:32.000Z</time>
      </trkpt>
      <trkpt lat="46.6805" lon="5.77904">
        <ele>500.60000610352</ele>
        <time>2025-06-05T11:51:33.000Z</time>
      </trkpt>
      <trkpt lat="46.68046" lon="5.77904">
        <ele>499.79998779297</ele>
        <time>2025-06-05T11:51:34.000Z</time>
      </trkpt>
      <trkpt lat="46.68039" lon="5.77907">
        <ele>499</ele>
        <time>2025-06-05T11:51:36.000Z</time>
      </trkpt>
      <trkpt lat="46.68023" lon="5.77922">
        <ele>498.79998779297</ele>
        <time>2025-06-05T11:51:39.000Z</time>
      </trkpt>
      <trkpt lat="46.68014" lon="5.77929">
        <ele>498.60000610352</ele>
        <time>2025-06-05T11:51:41.000Z</time>
      </trkpt>
      <trkpt lat="46.67977" lon="5.77956">
        <ele>498.20001220703</ele>
        <time>2025-06-05T11:51:48.000Z</time>
      </trkpt>
      <trkpt lat="46.67967" lon="5.77961">
        <ele>498</ele>
        <time>2025-06-05T11:51:50.000Z</time>
      </trkpt>
      <trkpt lat="46.67936" lon="5.77969">
        <ele>498.20001220703</ele>
        <time>2025-06-05T11:51:56.000Z</time>
      </trkpt>
      <trkpt lat="46.67904" lon="5.77977">
        <ele>498.39999389648</ele>
        <time>2025-06-05T11:52:03.000Z</time>
      </trkpt>
      <trkpt lat="46.67897" lon="5.77978">
        <ele>498.39999389648</ele>
        <time>2025-06-05T11:52:05.000Z</time>
      </trkpt>
      <trkpt lat="46.67889" lon="5.77973">
        <ele>498.39999389648</ele>
        <time>2025-06-05T11:52:07.000Z</time>
      </trkpt>
      <trkpt lat="46.67877" lon="5.77955">
        <ele>498.39999389648</ele>
        <time>2025-06-05T11:52:11.000Z</time>
      </trkpt>
      <trkpt lat="46.67868" lon="5.77938">
        <ele>498.39999389648</ele>
        <time>2025-06-05T11:52:15.000Z</time>
      </trkpt>
      <trkpt lat="46.67857" lon="5.77934">
        <ele>498.20001220703</ele>
        <time>2025-06-05T11:52:19.000Z</time>
      </trkpt>
      <trkpt lat="46.67845" lon="5.77937">
        <ele>498.39999389648</ele>
        <time>2025-06-05T11:52:22.000Z</time>
      </trkpt>
      <trkpt lat="46.67843" lon="5.77936">
        <ele>498.60000610352</ele>
        <time>2025-06-05T11:52:23.000Z</time>
      </trkpt>
      <trkpt lat="46.6784" lon="5.77933">
        <ele>498.79998779297</ele>
        <time>2025-06-05T11:52:24.000Z</time>
      </trkpt>
      <trkpt lat="46.67839" lon="5.77928">
        <ele>499.20001220703</ele>
        <time>2025-06-05T11:52:26.000Z</time>
      </trkpt>
      <trkpt lat="46.67839" lon="5.77927">
        <ele>499.79998779297</ele>
        <time>2025-06-05T11:52:30.000Z</time>
      </trkpt>
      <trkpt lat="46.67839" lon="5.77927">
        <ele>499.79998779297</ele>
        <time>2025-06-05T11:52:32.000Z</time>
      </trkpt>
    </trkseg>
  </trk>
</gpx>